<?xml version="1.0" encoding="UTF-8" standalone="no" ?>
<gpx xmlns="http://www.topografix.com/GPX/1/1" xmlns:xsi="http://www.w3.org/2001/XMLSchema-instance" xsi:schemaLocation="http://www.topografix.com/GPX/1/1 http://www.topografix.com/GPX/1/1/gpx.xsd" version="1.1" creator="VisuGPX - https://www.visugpx.com">
  <metadata>
    <name>Champagnat Cyclisme sur route</name>
  </metadata>
  <trk>
    <name><![CDATA[Champagnat Cyclisme sur route_1]]></name>
    <trkseg>
      <trkpt lat="46.48726" lon="5.38201">
        <ele>296</ele>
        <time>2022-04-11T11:11:02Z</time>
      </trkpt>
      <trkpt lat="46.48739" lon="5.38215">
        <ele>294.2</ele>
        <time>2022-04-11T11:11:03Z</time>
      </trkpt>
      <trkpt lat="46.48763" lon="5.38246">
        <ele>291</ele>
        <time>2022-04-11T11:11:05Z</time>
      </trkpt>
      <trkpt lat="46.48775" lon="5.3826">
        <ele>290</ele>
        <time>2022-04-11T11:11:06Z</time>
      </trkpt>
      <trkpt lat="46.48788" lon="5.38272">
        <ele>288.2</ele>
        <time>2022-04-11T11:11:07Z</time>
      </trkpt>
      <trkpt lat="46.48801" lon="5.38282">
        <ele>287.2</ele>
        <time>2022-04-11T11:11:08Z</time>
      </trkpt>
      <trkpt lat="46.48815" lon="5.38292">
        <ele>285.8</ele>
        <time>2022-04-11T11:11:09Z</time>
      </trkpt>
      <trkpt lat="46.48843" lon="5.38313">
        <ele>284</ele>
        <time>2022-04-11T11:11:11Z</time>
      </trkpt>
      <trkpt lat="46.48857" lon="5.38325">
        <ele>282.6</ele>
        <time>2022-04-11T11:11:12Z</time>
      </trkpt>
      <trkpt lat="46.48871" lon="5.38335">
        <ele>282</ele>
        <time>2022-04-11T11:11:13Z</time>
      </trkpt>
      <trkpt lat="46.48885" lon="5.38344">
        <ele>280.6</ele>
        <time>2022-04-11T11:11:14Z</time>
      </trkpt>
      <trkpt lat="46.48911" lon="5.38359">
        <ele>278.6</ele>
        <time>2022-04-11T11:11:16Z</time>
      </trkpt>
      <trkpt lat="46.48923" lon="5.38368">
        <ele>277.8</ele>
        <time>2022-04-11T11:11:17Z</time>
      </trkpt>
      <trkpt lat="46.48933" lon="5.38381">
        <ele>276.6</ele>
        <time>2022-04-11T11:11:18Z</time>
      </trkpt>
      <trkpt lat="46.4894" lon="5.38397">
        <ele>275.2</ele>
        <time>2022-04-11T11:11:19Z</time>
      </trkpt>
      <trkpt lat="46.48946" lon="5.38414">
        <ele>274.6</ele>
        <time>2022-04-11T11:11:20Z</time>
      </trkpt>
      <trkpt lat="46.48951" lon="5.38432">
        <ele>273.4</ele>
        <time>2022-04-11T11:11:21Z</time>
      </trkpt>
      <trkpt lat="46.48956" lon="5.38449">
        <ele>272.8</ele>
        <time>2022-04-11T11:11:22Z</time>
      </trkpt>
      <trkpt lat="46.48963" lon="5.38465">
        <ele>272</ele>
        <time>2022-04-11T11:11:23Z</time>
      </trkpt>
      <trkpt lat="46.48972" lon="5.38478">
        <ele>271.8</ele>
        <time>2022-04-11T11:11:24Z</time>
      </trkpt>
      <trkpt lat="46.48995" lon="5.38495">
        <ele>271</ele>
        <time>2022-04-11T11:11:26Z</time>
      </trkpt>
      <trkpt lat="46.49007" lon="5.385">
        <ele>270.8</ele>
        <time>2022-04-11T11:11:27Z</time>
      </trkpt>
      <trkpt lat="46.49044" lon="5.38513">
        <ele>269.8</ele>
        <time>2022-04-11T11:11:30Z</time>
      </trkpt>
      <trkpt lat="46.49068" lon="5.38519">
        <ele>269.4</ele>
        <time>2022-04-11T11:11:32Z</time>
      </trkpt>
      <trkpt lat="46.49102" lon="5.38522">
        <ele>268.6</ele>
        <time>2022-04-11T11:11:35Z</time>
      </trkpt>
      <trkpt lat="46.49113" lon="5.38523">
        <ele>268.6</ele>
        <time>2022-04-11T11:11:36Z</time>
      </trkpt>
      <trkpt lat="46.49142" lon="5.38532">
        <ele>268.2</ele>
        <time>2022-04-11T11:11:39Z</time>
      </trkpt>
      <trkpt lat="46.4915" lon="5.38536">
        <ele>268.2</ele>
        <time>2022-04-11T11:11:40Z</time>
      </trkpt>
      <trkpt lat="46.49156" lon="5.38539">
        <ele>268.2</ele>
        <time>2022-04-11T11:11:41Z</time>
      </trkpt>
      <trkpt lat="46.49167" lon="5.3854">
        <ele>269</ele>
        <time>2022-04-11T11:11:43Z</time>
      </trkpt>
      <trkpt lat="46.49176" lon="5.38546">
        <ele>269.4</ele>
        <time>2022-04-11T11:11:46Z</time>
      </trkpt>
      <trkpt lat="46.49181" lon="5.38563">
        <ele>269.8</ele>
        <time>2022-04-11T11:11:49Z</time>
      </trkpt>
      <trkpt lat="46.49185" lon="5.38574">
        <ele>269.8</ele>
        <time>2022-04-11T11:11:51Z</time>
      </trkpt>
      <trkpt lat="46.49186" lon="5.38579">
        <ele>270</ele>
        <time>2022-04-11T11:11:52Z</time>
      </trkpt>
      <trkpt lat="46.49193" lon="5.38602">
        <ele>271</ele>
        <time>2022-04-11T11:11:56Z</time>
      </trkpt>
      <trkpt lat="46.492" lon="5.38611">
        <ele>271.6</ele>
        <time>2022-04-11T11:12:00Z</time>
      </trkpt>
      <trkpt lat="46.49201" lon="5.38612">
        <ele>271.8</ele>
        <time>2022-04-11T11:12:01Z</time>
      </trkpt>
      <trkpt lat="46.49207" lon="5.38609">
        <ele>272</ele>
        <time>2022-04-11T11:12:03Z</time>
      </trkpt>
      <trkpt lat="46.49209" lon="5.38604">
        <ele>272</ele>
        <time>2022-04-11T11:12:04Z</time>
      </trkpt>
      <trkpt lat="46.49211" lon="5.38598">
        <ele>272</ele>
        <time>2022-04-11T11:12:05Z</time>
      </trkpt>
      <trkpt lat="46.49215" lon="5.38575">
        <ele>272</ele>
        <time>2022-04-11T11:12:08Z</time>
      </trkpt>
      <trkpt lat="46.49223" lon="5.38528">
        <ele>271.8</ele>
        <time>2022-04-11T11:12:13Z</time>
      </trkpt>
      <trkpt lat="46.49233" lon="5.38476">
        <ele>270.8</ele>
        <time>2022-04-11T11:12:18Z</time>
      </trkpt>
      <trkpt lat="46.49245" lon="5.38422">
        <ele>269.4</ele>
        <time>2022-04-11T11:12:23Z</time>
      </trkpt>
      <trkpt lat="46.49249" lon="5.38399">
        <ele>268.6</ele>
        <time>2022-04-11T11:12:25Z</time>
      </trkpt>
      <trkpt lat="46.49251" lon="5.38389">
        <ele>268.2</ele>
        <time>2022-04-11T11:12:26Z</time>
      </trkpt>
      <trkpt lat="46.49252" lon="5.38381">
        <ele>268.2</ele>
        <time>2022-04-11T11:12:27Z</time>
      </trkpt>
      <trkpt lat="46.49254" lon="5.3837">
        <ele>267.8</ele>
        <time>2022-04-11T11:12:29Z</time>
      </trkpt>
      <trkpt lat="46.49259" lon="5.38353">
        <ele>267.2</ele>
        <time>2022-04-11T11:12:32Z</time>
      </trkpt>
      <trkpt lat="46.49261" lon="5.38338">
        <ele>266.8</ele>
        <time>2022-04-11T11:12:34Z</time>
      </trkpt>
      <trkpt lat="46.49269" lon="5.38288">
        <ele>265.6</ele>
        <time>2022-04-11T11:12:39Z</time>
      </trkpt>
      <trkpt lat="46.49276" lon="5.38254">
        <ele>264.6</ele>
        <time>2022-04-11T11:12:42Z</time>
      </trkpt>
      <trkpt lat="46.49284" lon="5.38209">
        <ele>264</ele>
        <time>2022-04-11T11:12:46Z</time>
      </trkpt>
      <trkpt lat="46.49288" lon="5.38187">
        <ele>263.4</ele>
        <time>2022-04-11T11:12:48Z</time>
      </trkpt>
      <trkpt lat="46.49304" lon="5.38106">
        <ele>262.6</ele>
        <time>2022-04-11T11:12:55Z</time>
      </trkpt>
      <trkpt lat="46.49312" lon="5.38069">
        <ele>262.2</ele>
        <time>2022-04-11T11:12:58Z</time>
      </trkpt>
      <trkpt lat="46.49322" lon="5.38012">
        <ele>261.2</ele>
        <time>2022-04-11T11:13:03Z</time>
      </trkpt>
      <trkpt lat="46.49329" lon="5.37978">
        <ele>260</ele>
        <time>2022-04-11T11:13:06Z</time>
      </trkpt>
      <trkpt lat="46.49337" lon="5.37933">
        <ele>259</ele>
        <time>2022-04-11T11:13:10Z</time>
      </trkpt>
      <trkpt lat="46.49343" lon="5.37904">
        <ele>258.4</ele>
        <time>2022-04-11T11:13:13Z</time>
      </trkpt>
      <trkpt lat="46.4936" lon="5.37843">
        <ele>259</ele>
        <time>2022-04-11T11:13:20Z</time>
      </trkpt>
      <trkpt lat="46.49383" lon="5.37774">
        <ele>260</ele>
        <time>2022-04-11T11:13:28Z</time>
      </trkpt>
      <trkpt lat="46.49389" lon="5.37756">
        <ele>260.2</ele>
        <time>2022-04-11T11:13:30Z</time>
      </trkpt>
      <trkpt lat="46.49409" lon="5.37708">
        <ele>260.4</ele>
        <time>2022-04-11T11:13:35Z</time>
      </trkpt>
      <trkpt lat="46.49433" lon="5.37669">
        <ele>259.6</ele>
        <time>2022-04-11T11:13:39Z</time>
      </trkpt>
      <trkpt lat="46.49449" lon="5.37653">
        <ele>258.8</ele>
        <time>2022-04-11T11:13:41Z</time>
      </trkpt>
      <trkpt lat="46.49475" lon="5.37629">
        <ele>257.2</ele>
        <time>2022-04-11T11:13:44Z</time>
      </trkpt>
      <trkpt lat="46.49502" lon="5.37606">
        <ele>255.8</ele>
        <time>2022-04-11T11:13:47Z</time>
      </trkpt>
      <trkpt lat="46.49521" lon="5.37591">
        <ele>254</ele>
        <time>2022-04-11T11:13:49Z</time>
      </trkpt>
      <trkpt lat="46.49549" lon="5.37568">
        <ele>253</ele>
        <time>2022-04-11T11:13:52Z</time>
      </trkpt>
      <trkpt lat="46.49568" lon="5.37552">
        <ele>251.8</ele>
        <time>2022-04-11T11:13:54Z</time>
      </trkpt>
      <trkpt lat="46.49586" lon="5.37536">
        <ele>250.8</ele>
        <time>2022-04-11T11:13:56Z</time>
      </trkpt>
      <trkpt lat="46.49625" lon="5.37503">
        <ele>249.8</ele>
        <time>2022-04-11T11:14:00Z</time>
      </trkpt>
      <trkpt lat="46.49651" lon="5.37477">
        <ele>248</ele>
        <time>2022-04-11T11:14:03Z</time>
      </trkpt>
      <trkpt lat="46.49657" lon="5.37467">
        <ele>247.8</ele>
        <time>2022-04-11T11:14:04Z</time>
      </trkpt>
      <trkpt lat="46.49662" lon="5.37456">
        <ele>247.4</ele>
        <time>2022-04-11T11:14:05Z</time>
      </trkpt>
      <trkpt lat="46.49666" lon="5.37444">
        <ele>246.8</ele>
        <time>2022-04-11T11:14:06Z</time>
      </trkpt>
      <trkpt lat="46.49669" lon="5.37432">
        <ele>246.2</ele>
        <time>2022-04-11T11:14:07Z</time>
      </trkpt>
      <trkpt lat="46.49676" lon="5.37409">
        <ele>245.4</ele>
        <time>2022-04-11T11:14:09Z</time>
      </trkpt>
      <trkpt lat="46.49684" lon="5.37385">
        <ele>244.2</ele>
        <time>2022-04-11T11:14:11Z</time>
      </trkpt>
      <trkpt lat="46.49692" lon="5.3736">
        <ele>243.4</ele>
        <time>2022-04-11T11:14:13Z</time>
      </trkpt>
      <trkpt lat="46.49696" lon="5.37348">
        <ele>242.8</ele>
        <time>2022-04-11T11:14:14Z</time>
      </trkpt>
      <trkpt lat="46.49704" lon="5.37322">
        <ele>241.8</ele>
        <time>2022-04-11T11:14:16Z</time>
      </trkpt>
      <trkpt lat="46.49716" lon="5.37282">
        <ele>240.2</ele>
        <time>2022-04-11T11:14:19Z</time>
      </trkpt>
      <trkpt lat="46.49724" lon="5.37256">
        <ele>239</ele>
        <time>2022-04-11T11:14:21Z</time>
      </trkpt>
      <trkpt lat="46.49739" lon="5.37204">
        <ele>237.8</ele>
        <time>2022-04-11T11:14:25Z</time>
      </trkpt>
      <trkpt lat="46.49758" lon="5.37142">
        <ele>237</ele>
        <time>2022-04-11T11:14:30Z</time>
      </trkpt>
      <trkpt lat="46.49765" lon="5.37117">
        <ele>236.6</ele>
        <time>2022-04-11T11:14:32Z</time>
      </trkpt>
      <trkpt lat="46.49784" lon="5.37056">
        <ele>235.6</ele>
        <time>2022-04-11T11:14:37Z</time>
      </trkpt>
      <trkpt lat="46.49795" lon="5.3702">
        <ele>234.8</ele>
        <time>2022-04-11T11:14:40Z</time>
      </trkpt>
      <trkpt lat="46.49799" lon="5.37008">
        <ele>234.4</ele>
        <time>2022-04-11T11:14:41Z</time>
      </trkpt>
      <trkpt lat="46.49816" lon="5.3695">
        <ele>233.2</ele>
        <time>2022-04-11T11:14:46Z</time>
      </trkpt>
      <trkpt lat="46.49823" lon="5.36927">
        <ele>233</ele>
        <time>2022-04-11T11:14:48Z</time>
      </trkpt>
      <trkpt lat="46.49847" lon="5.3685">
        <ele>233</ele>
        <time>2022-04-11T11:14:55Z</time>
      </trkpt>
      <trkpt lat="46.4985" lon="5.36839">
        <ele>233</ele>
        <time>2022-04-11T11:14:56Z</time>
      </trkpt>
      <trkpt lat="46.49875" lon="5.36759">
        <ele>232</ele>
        <time>2022-04-11T11:15:03Z</time>
      </trkpt>
      <trkpt lat="46.49892" lon="5.36717">
        <ele>230.6</ele>
        <time>2022-04-11T11:15:07Z</time>
      </trkpt>
      <trkpt lat="46.49917" lon="5.36655">
        <ele>229.6</ele>
        <time>2022-04-11T11:15:13Z</time>
      </trkpt>
      <trkpt lat="46.49924" lon="5.36634">
        <ele>229.6</ele>
        <time>2022-04-11T11:15:15Z</time>
      </trkpt>
      <trkpt lat="46.49939" lon="5.36606">
        <ele>229.2</ele>
        <time>2022-04-11T11:15:18Z</time>
      </trkpt>
      <trkpt lat="46.49944" lon="5.36597">
        <ele>229</ele>
        <time>2022-04-11T11:15:19Z</time>
      </trkpt>
      <trkpt lat="46.49956" lon="5.36582">
        <ele>228.8</ele>
        <time>2022-04-11T11:15:21Z</time>
      </trkpt>
      <trkpt lat="46.49963" lon="5.36578">
        <ele>228.6</ele>
        <time>2022-04-11T11:15:22Z</time>
      </trkpt>
      <trkpt lat="46.4997" lon="5.36577">
        <ele>228.6</ele>
        <time>2022-04-11T11:15:23Z</time>
      </trkpt>
      <trkpt lat="46.49985" lon="5.36578">
        <ele>228.6</ele>
        <time>2022-04-11T11:15:25Z</time>
      </trkpt>
      <trkpt lat="46.50007" lon="5.36577">
        <ele>228.6</ele>
        <time>2022-04-11T11:15:28Z</time>
      </trkpt>
      <trkpt lat="46.50021" lon="5.36571">
        <ele>228.6</ele>
        <time>2022-04-11T11:15:30Z</time>
      </trkpt>
      <trkpt lat="46.50028" lon="5.36566">
        <ele>228.6</ele>
        <time>2022-04-11T11:15:31Z</time>
      </trkpt>
      <trkpt lat="46.50045" lon="5.36548">
        <ele>229.2</ele>
        <time>2022-04-11T11:15:34Z</time>
      </trkpt>
      <trkpt lat="46.50049" lon="5.36541">
        <ele>229.6</ele>
        <time>2022-04-11T11:15:35Z</time>
      </trkpt>
      <trkpt lat="46.50068" lon="5.36514">
        <ele>231</ele>
        <time>2022-04-11T11:15:39Z</time>
      </trkpt>
      <trkpt lat="46.50077" lon="5.36498">
        <ele>231.6</ele>
        <time>2022-04-11T11:15:41Z</time>
      </trkpt>
      <trkpt lat="46.501" lon="5.36456">
        <ele>231.6</ele>
        <time>2022-04-11T11:15:46Z</time>
      </trkpt>
      <trkpt lat="46.50128" lon="5.36412">
        <ele>230.8</ele>
        <time>2022-04-11T11:15:51Z</time>
      </trkpt>
      <trkpt lat="46.50164" lon="5.3635">
        <ele>230.2</ele>
        <time>2022-04-11T11:15:58Z</time>
      </trkpt>
      <trkpt lat="46.50184" lon="5.36316">
        <ele>230.2</ele>
        <time>2022-04-11T11:16:02Z</time>
      </trkpt>
      <trkpt lat="46.50205" lon="5.36288">
        <ele>230.2</ele>
        <time>2022-04-11T11:16:06Z</time>
      </trkpt>
      <trkpt lat="46.50218" lon="5.36279">
        <ele>230.4</ele>
        <time>2022-04-11T11:16:08Z</time>
      </trkpt>
      <trkpt lat="46.50232" lon="5.36274">
        <ele>230.6</ele>
        <time>2022-04-11T11:16:10Z</time>
      </trkpt>
      <trkpt lat="46.50286" lon="5.36254">
        <ele>230.4</ele>
        <time>2022-04-11T11:16:17Z</time>
      </trkpt>
      <trkpt lat="46.50294" lon="5.3625">
        <ele>230.2</ele>
        <time>2022-04-11T11:16:18Z</time>
      </trkpt>
      <trkpt lat="46.50302" lon="5.36245">
        <ele>229.8</ele>
        <time>2022-04-11T11:16:19Z</time>
      </trkpt>
      <trkpt lat="46.50318" lon="5.36232">
        <ele>229</ele>
        <time>2022-04-11T11:16:21Z</time>
      </trkpt>
      <trkpt lat="46.50327" lon="5.36225">
        <ele>228.8</ele>
        <time>2022-04-11T11:16:22Z</time>
      </trkpt>
      <trkpt lat="46.50351" lon="5.36199">
        <ele>227.4</ele>
        <time>2022-04-11T11:16:25Z</time>
      </trkpt>
      <trkpt lat="46.50358" lon="5.3619">
        <ele>227</ele>
        <time>2022-04-11T11:16:26Z</time>
      </trkpt>
      <trkpt lat="46.50365" lon="5.3618">
        <ele>226</ele>
        <time>2022-04-11T11:16:27Z</time>
      </trkpt>
      <trkpt lat="46.50385" lon="5.36152">
        <ele>224.8</ele>
        <time>2022-04-11T11:16:30Z</time>
      </trkpt>
      <trkpt lat="46.50409" lon="5.36114">
        <ele>224.2</ele>
        <time>2022-04-11T11:16:34Z</time>
      </trkpt>
      <trkpt lat="46.50434" lon="5.3607">
        <ele>224</ele>
        <time>2022-04-11T11:16:39Z</time>
      </trkpt>
      <trkpt lat="46.50438" lon="5.36062">
        <ele>224</ele>
        <time>2022-04-11T11:16:40Z</time>
      </trkpt>
      <trkpt lat="46.50443" lon="5.36044">
        <ele>224.2</ele>
        <time>2022-04-11T11:16:42Z</time>
      </trkpt>
      <trkpt lat="46.50444" lon="5.36035">
        <ele>224.2</ele>
        <time>2022-04-11T11:16:43Z</time>
      </trkpt>
      <trkpt lat="46.50444" lon="5.36027">
        <ele>224.4</ele>
        <time>2022-04-11T11:16:44Z</time>
      </trkpt>
      <trkpt lat="46.50445" lon="5.35991">
        <ele>226</ele>
        <time>2022-04-11T11:16:48Z</time>
      </trkpt>
      <trkpt lat="46.50446" lon="5.35955">
        <ele>227.2</ele>
        <time>2022-04-11T11:16:52Z</time>
      </trkpt>
      <trkpt lat="46.50448" lon="5.35918">
        <ele>227.2</ele>
        <time>2022-04-11T11:16:56Z</time>
      </trkpt>
      <trkpt lat="46.50447" lon="5.35851">
        <ele>227.2</ele>
        <time>2022-04-11T11:17:03Z</time>
      </trkpt>
      <trkpt lat="46.50445" lon="5.35771">
        <ele>228</ele>
        <time>2022-04-11T11:17:11Z</time>
      </trkpt>
      <trkpt lat="46.50446" lon="5.35759">
        <ele>228</ele>
        <time>2022-04-11T11:17:12Z</time>
      </trkpt>
      <trkpt lat="46.50447" lon="5.35748">
        <ele>227.8</ele>
        <time>2022-04-11T11:17:13Z</time>
      </trkpt>
      <trkpt lat="46.50456" lon="5.35707">
        <ele>227.6</ele>
        <time>2022-04-11T11:17:17Z</time>
      </trkpt>
      <trkpt lat="46.50477" lon="5.35654">
        <ele>227.4</ele>
        <time>2022-04-11T11:17:23Z</time>
      </trkpt>
      <trkpt lat="46.50508" lon="5.35591">
        <ele>226.6</ele>
        <time>2022-04-11T11:17:31Z</time>
      </trkpt>
      <trkpt lat="46.50526" lon="5.35557">
        <ele>226.6</ele>
        <time>2022-04-11T11:17:36Z</time>
      </trkpt>
      <trkpt lat="46.50546" lon="5.35514">
        <ele>227.4</ele>
        <time>2022-04-11T11:17:42Z</time>
      </trkpt>
      <trkpt lat="46.5057" lon="5.35459">
        <ele>228.2</ele>
        <time>2022-04-11T11:17:49Z</time>
      </trkpt>
      <trkpt lat="46.50593" lon="5.35403">
        <ele>228.4</ele>
        <time>2022-04-11T11:17:56Z</time>
      </trkpt>
      <trkpt lat="46.50599" lon="5.35389">
        <ele>228.2</ele>
        <time>2022-04-11T11:17:58Z</time>
      </trkpt>
      <trkpt lat="46.50606" lon="5.35364">
        <ele>228.2</ele>
        <time>2022-04-11T11:18:01Z</time>
      </trkpt>
      <trkpt lat="46.50628" lon="5.35321">
        <ele>229</ele>
        <time>2022-04-11T11:18:07Z</time>
      </trkpt>
      <trkpt lat="46.50632" lon="5.35315">
        <ele>229.2</ele>
        <time>2022-04-11T11:18:08Z</time>
      </trkpt>
      <trkpt lat="46.50664" lon="5.3528">
        <ele>229.6</ele>
        <time>2022-04-11T11:18:14Z</time>
      </trkpt>
      <trkpt lat="46.50706" lon="5.35234">
        <ele>227.8</ele>
        <time>2022-04-11T11:18:21Z</time>
      </trkpt>
      <trkpt lat="46.50712" lon="5.35226">
        <ele>227.8</ele>
        <time>2022-04-11T11:18:22Z</time>
      </trkpt>
      <trkpt lat="46.50736" lon="5.3518">
        <ele>227</ele>
        <time>2022-04-11T11:18:27Z</time>
      </trkpt>
      <trkpt lat="46.5074" lon="5.3517">
        <ele>226.6</ele>
        <time>2022-04-11T11:18:28Z</time>
      </trkpt>
      <trkpt lat="46.50748" lon="5.3515">
        <ele>226.4</ele>
        <time>2022-04-11T11:18:30Z</time>
      </trkpt>
      <trkpt lat="46.50764" lon="5.3512">
        <ele>226</ele>
        <time>2022-04-11T11:18:33Z</time>
      </trkpt>
      <trkpt lat="46.50769" lon="5.35108">
        <ele>225.4</ele>
        <time>2022-04-11T11:18:34Z</time>
      </trkpt>
      <trkpt lat="46.50775" lon="5.35098">
        <ele>225.2</ele>
        <time>2022-04-11T11:18:35Z</time>
      </trkpt>
      <trkpt lat="46.50789" lon="5.35078">
        <ele>224.6</ele>
        <time>2022-04-11T11:18:37Z</time>
      </trkpt>
      <trkpt lat="46.50795" lon="5.35069">
        <ele>224.2</ele>
        <time>2022-04-11T11:18:38Z</time>
      </trkpt>
      <trkpt lat="46.50817" lon="5.35042">
        <ele>222.6</ele>
        <time>2022-04-11T11:18:41Z</time>
      </trkpt>
      <trkpt lat="46.50824" lon="5.35032">
        <ele>222</ele>
        <time>2022-04-11T11:18:42Z</time>
      </trkpt>
      <trkpt lat="46.50837" lon="5.35014">
        <ele>221.2</ele>
        <time>2022-04-11T11:18:44Z</time>
      </trkpt>
      <trkpt lat="46.50852" lon="5.34997">
        <ele>220</ele>
        <time>2022-04-11T11:18:46Z</time>
      </trkpt>
      <trkpt lat="46.50866" lon="5.34981">
        <ele>219.4</ele>
        <time>2022-04-11T11:18:48Z</time>
      </trkpt>
      <trkpt lat="46.50897" lon="5.34946">
        <ele>219</ele>
        <time>2022-04-11T11:18:53Z</time>
      </trkpt>
      <trkpt lat="46.50915" lon="5.34925">
        <ele>219.4</ele>
        <time>2022-04-11T11:18:56Z</time>
      </trkpt>
      <trkpt lat="46.50926" lon="5.3491">
        <ele>219.6</ele>
        <time>2022-04-11T11:18:58Z</time>
      </trkpt>
      <trkpt lat="46.50956" lon="5.34856">
        <ele>219.6</ele>
        <time>2022-04-11T11:19:04Z</time>
      </trkpt>
      <trkpt lat="46.50977" lon="5.34806">
        <ele>219.2</ele>
        <time>2022-04-11T11:19:09Z</time>
      </trkpt>
      <trkpt lat="46.50986" lon="5.34791">
        <ele>219</ele>
        <time>2022-04-11T11:19:11Z</time>
      </trkpt>
      <trkpt lat="46.51001" lon="5.3475">
        <ele>218.4</ele>
        <time>2022-04-11T11:19:15Z</time>
      </trkpt>
      <trkpt lat="46.51012" lon="5.34715">
        <ele>217.6</ele>
        <time>2022-04-11T11:19:18Z</time>
      </trkpt>
      <trkpt lat="46.51024" lon="5.34679">
        <ele>216.4</ele>
        <time>2022-04-11T11:19:21Z</time>
      </trkpt>
      <trkpt lat="46.51036" lon="5.34644">
        <ele>215.4</ele>
        <time>2022-04-11T11:19:24Z</time>
      </trkpt>
      <trkpt lat="46.51041" lon="5.34631">
        <ele>215</ele>
        <time>2022-04-11T11:19:25Z</time>
      </trkpt>
      <trkpt lat="46.51049" lon="5.34603">
        <ele>214</ele>
        <time>2022-04-11T11:19:27Z</time>
      </trkpt>
      <trkpt lat="46.51057" lon="5.34574">
        <ele>212.8</ele>
        <time>2022-04-11T11:19:29Z</time>
      </trkpt>
      <trkpt lat="46.51061" lon="5.3456">
        <ele>212</ele>
        <time>2022-04-11T11:19:30Z</time>
      </trkpt>
      <trkpt lat="46.51066" lon="5.34545">
        <ele>211.6</ele>
        <time>2022-04-11T11:19:31Z</time>
      </trkpt>
      <trkpt lat="46.51076" lon="5.34518">
        <ele>210.2</ele>
        <time>2022-04-11T11:19:33Z</time>
      </trkpt>
      <trkpt lat="46.51084" lon="5.34489">
        <ele>208.8</ele>
        <time>2022-04-11T11:19:35Z</time>
      </trkpt>
      <trkpt lat="46.51089" lon="5.34473">
        <ele>208.6</ele>
        <time>2022-04-11T11:19:36Z</time>
      </trkpt>
      <trkpt lat="46.51093" lon="5.34459">
        <ele>207.6</ele>
        <time>2022-04-11T11:19:37Z</time>
      </trkpt>
      <trkpt lat="46.51102" lon="5.3443">
        <ele>206.6</ele>
        <time>2022-04-11T11:19:39Z</time>
      </trkpt>
      <trkpt lat="46.51112" lon="5.34391">
        <ele>205.4</ele>
        <time>2022-04-11T11:19:42Z</time>
      </trkpt>
      <trkpt lat="46.51117" lon="5.34367">
        <ele>204.6</ele>
        <time>2022-04-11T11:19:44Z</time>
      </trkpt>
      <trkpt lat="46.51117" lon="5.34353">
        <ele>204.2</ele>
        <time>2022-04-11T11:19:45Z</time>
      </trkpt>
      <trkpt lat="46.51117" lon="5.3434">
        <ele>204</ele>
        <time>2022-04-11T11:19:46Z</time>
      </trkpt>
      <trkpt lat="46.5111" lon="5.3427">
        <ele>203.8</ele>
        <time>2022-04-11T11:19:52Z</time>
      </trkpt>
      <trkpt lat="46.51107" lon="5.34206">
        <ele>204.6</ele>
        <time>2022-04-11T11:19:58Z</time>
      </trkpt>
      <trkpt lat="46.51116" lon="5.34144">
        <ele>204.4</ele>
        <time>2022-04-11T11:20:04Z</time>
      </trkpt>
      <trkpt lat="46.5112" lon="5.34127">
        <ele>204.2</ele>
        <time>2022-04-11T11:20:06Z</time>
      </trkpt>
      <trkpt lat="46.51125" lon="5.3411">
        <ele>204</ele>
        <time>2022-04-11T11:20:08Z</time>
      </trkpt>
      <trkpt lat="46.5113" lon="5.34084">
        <ele>204.4</ele>
        <time>2022-04-11T11:20:11Z</time>
      </trkpt>
      <trkpt lat="46.51133" lon="5.34068">
        <ele>204.8</ele>
        <time>2022-04-11T11:20:13Z</time>
      </trkpt>
      <trkpt lat="46.51137" lon="5.34032">
        <ele>205.2</ele>
        <time>2022-04-11T11:20:17Z</time>
      </trkpt>
      <trkpt lat="46.51139" lon="5.34025">
        <ele>205.4</ele>
        <time>2022-04-11T11:20:18Z</time>
      </trkpt>
      <trkpt lat="46.5114" lon="5.34017">
        <ele>205.6</ele>
        <time>2022-04-11T11:20:19Z</time>
      </trkpt>
      <trkpt lat="46.51141" lon="5.34008">
        <ele>205.6</ele>
        <time>2022-04-11T11:20:20Z</time>
      </trkpt>
      <trkpt lat="46.51145" lon="5.33971">
        <ele>206.2</ele>
        <time>2022-04-11T11:20:24Z</time>
      </trkpt>
      <trkpt lat="46.51146" lon="5.33962">
        <ele>206.4</ele>
        <time>2022-04-11T11:20:25Z</time>
      </trkpt>
      <trkpt lat="46.51147" lon="5.33943">
        <ele>206.8</ele>
        <time>2022-04-11T11:20:27Z</time>
      </trkpt>
      <trkpt lat="46.51148" lon="5.33928">
        <ele>207.2</ele>
        <time>2022-04-11T11:20:29Z</time>
      </trkpt>
      <trkpt lat="46.51151" lon="5.33922">
        <ele>207.8</ele>
        <time>2022-04-11T11:20:30Z</time>
      </trkpt>
      <trkpt lat="46.51152" lon="5.33914">
        <ele>208</ele>
        <time>2022-04-11T11:20:31Z</time>
      </trkpt>
      <trkpt lat="46.51154" lon="5.33894">
        <ele>208.4</ele>
        <time>2022-04-11T11:20:33Z</time>
      </trkpt>
      <trkpt lat="46.51155" lon="5.33873">
        <ele>208.8</ele>
        <time>2022-04-11T11:20:35Z</time>
      </trkpt>
      <trkpt lat="46.51154" lon="5.33855">
        <ele>209</ele>
        <time>2022-04-11T11:20:37Z</time>
      </trkpt>
      <trkpt lat="46.51158" lon="5.33839">
        <ele>209.6</ele>
        <time>2022-04-11T11:20:39Z</time>
      </trkpt>
      <trkpt lat="46.51161" lon="5.33824">
        <ele>209.6</ele>
        <time>2022-04-11T11:20:41Z</time>
      </trkpt>
      <trkpt lat="46.51161" lon="5.33815">
        <ele>209.6</ele>
        <time>2022-04-11T11:20:42Z</time>
      </trkpt>
      <trkpt lat="46.51162" lon="5.33807">
        <ele>209.6</ele>
        <time>2022-04-11T11:20:43Z</time>
      </trkpt>
      <trkpt lat="46.51166" lon="5.33791">
        <ele>209.6</ele>
        <time>2022-04-11T11:20:45Z</time>
      </trkpt>
      <trkpt lat="46.51165" lon="5.33758">
        <ele>209.8</ele>
        <time>2022-04-11T11:20:49Z</time>
      </trkpt>
      <trkpt lat="46.51168" lon="5.3374">
        <ele>209.6</ele>
        <time>2022-04-11T11:20:51Z</time>
      </trkpt>
      <trkpt lat="46.51168" lon="5.33718">
        <ele>209.6</ele>
        <time>2022-04-11T11:20:53Z</time>
      </trkpt>
      <trkpt lat="46.51169" lon="5.33708">
        <ele>209.6</ele>
        <time>2022-04-11T11:20:54Z</time>
      </trkpt>
      <trkpt lat="46.51175" lon="5.33661">
        <ele>209</ele>
        <time>2022-04-11T11:20:58Z</time>
      </trkpt>
      <trkpt lat="46.51184" lon="5.33599">
        <ele>207.4</ele>
        <time>2022-04-11T11:21:04Z</time>
      </trkpt>
      <trkpt lat="46.51184" lon="5.33582">
        <ele>206.8</ele>
        <time>2022-04-11T11:21:06Z</time>
      </trkpt>
      <trkpt lat="46.51182" lon="5.33578">
        <ele>206.6</ele>
        <time>2022-04-11T11:21:07Z</time>
      </trkpt>
      <trkpt lat="46.51179" lon="5.33575">
        <ele>206.6</ele>
        <time>2022-04-11T11:21:08Z</time>
      </trkpt>
      <trkpt lat="46.51175" lon="5.33574">
        <ele>206.4</ele>
        <time>2022-04-11T11:21:09Z</time>
      </trkpt>
      <trkpt lat="46.5117" lon="5.33574">
        <ele>206.4</ele>
        <time>2022-04-11T11:21:10Z</time>
      </trkpt>
      <trkpt lat="46.51153" lon="5.33585">
        <ele>206.4</ele>
        <time>2022-04-11T11:21:13Z</time>
      </trkpt>
      <trkpt lat="46.5112" lon="5.33597">
        <ele>207.2</ele>
        <time>2022-04-11T11:21:19Z</time>
      </trkpt>
      <trkpt lat="46.51107" lon="5.33602">
        <ele>207.4</ele>
        <time>2022-04-11T11:21:22Z</time>
      </trkpt>
      <trkpt lat="46.51102" lon="5.33603">
        <ele>207.6</ele>
        <time>2022-04-11T11:21:23Z</time>
      </trkpt>
      <trkpt lat="46.5109" lon="5.33605">
        <ele>208.6</ele>
        <time>2022-04-11T11:21:26Z</time>
      </trkpt>
      <trkpt lat="46.51086" lon="5.33607">
        <ele>208.8</ele>
        <time>2022-04-11T11:21:27Z</time>
      </trkpt>
      <trkpt lat="46.51083" lon="5.33608">
        <ele>209.6</ele>
        <time>2022-04-11T11:21:30Z</time>
      </trkpt>
      <trkpt lat="46.5108" lon="5.33609">
        <ele>209.8</ele>
        <time>2022-04-11T11:21:31Z</time>
      </trkpt>
      <trkpt lat="46.51076" lon="5.33609">
        <ele>210.2</ele>
        <time>2022-04-11T11:21:32Z</time>
      </trkpt>
      <trkpt lat="46.5107" lon="5.33612">
        <ele>210.8</ele>
        <time>2022-04-11T11:21:34Z</time>
      </trkpt>
      <trkpt lat="46.51063" lon="5.33616">
        <ele>211.4</ele>
        <time>2022-04-11T11:21:36Z</time>
      </trkpt>
      <trkpt lat="46.51063" lon="5.33616">
        <ele>211.8</ele>
        <time>2022-04-11T11:21:37Z</time>
      </trkpt>
      <trkpt lat="46.51063" lon="5.33616">
        <ele>212.8</ele>
        <time>2022-04-11T11:21:42Z</time>
      </trkpt>
      <trkpt lat="46.51059" lon="5.33617">
        <ele>212.8</ele>
        <time>2022-04-11T11:21:43Z</time>
      </trkpt>
      <trkpt lat="46.5104" lon="5.33626">
        <ele>213.4</ele>
        <time>2022-04-11T11:21:48Z</time>
      </trkpt>
      <trkpt lat="46.5101" lon="5.3364">
        <ele>213.8</ele>
        <time>2022-04-11T11:21:53Z</time>
      </trkpt>
      <trkpt lat="46.51003" lon="5.33642">
        <ele>214</ele>
        <time>2022-04-11T11:21:54Z</time>
      </trkpt>
      <trkpt lat="46.50962" lon="5.3366">
        <ele>213.8</ele>
        <time>2022-04-11T11:22:00Z</time>
      </trkpt>
      <trkpt lat="46.50924" lon="5.33676">
        <ele>214</ele>
        <time>2022-04-11T11:22:06Z</time>
      </trkpt>
      <trkpt lat="46.50905" lon="5.33684">
        <ele>214</ele>
        <time>2022-04-11T11:22:10Z</time>
      </trkpt>
      <trkpt lat="46.50885" lon="5.33691">
        <ele>215</ele>
        <time>2022-04-11T11:22:14Z</time>
      </trkpt>
      <trkpt lat="46.50864" lon="5.33698">
        <ele>215.4</ele>
        <time>2022-04-11T11:22:18Z</time>
      </trkpt>
      <trkpt lat="46.50851" lon="5.33703">
        <ele>216</ele>
        <time>2022-04-11T11:22:21Z</time>
      </trkpt>
      <trkpt lat="46.50837" lon="5.33709">
        <ele>216.6</ele>
        <time>2022-04-11T11:22:24Z</time>
      </trkpt>
      <trkpt lat="46.50812" lon="5.33718">
        <ele>217</ele>
        <time>2022-04-11T11:22:29Z</time>
      </trkpt>
      <trkpt lat="46.50803" lon="5.33721">
        <ele>217.2</ele>
        <time>2022-04-11T11:22:31Z</time>
      </trkpt>
      <trkpt lat="46.50784" lon="5.33727">
        <ele>218</ele>
        <time>2022-04-11T11:22:35Z</time>
      </trkpt>
      <trkpt lat="46.50764" lon="5.33736">
        <ele>218</ele>
        <time>2022-04-11T11:22:39Z</time>
      </trkpt>
      <trkpt lat="46.50746" lon="5.3374">
        <ele>218.2</ele>
        <time>2022-04-11T11:22:43Z</time>
      </trkpt>
      <trkpt lat="46.50734" lon="5.33743">
        <ele>218.2</ele>
        <time>2022-04-11T11:22:46Z</time>
      </trkpt>
      <trkpt lat="46.50705" lon="5.33756">
        <ele>218.6</ele>
        <time>2022-04-11T11:22:52Z</time>
      </trkpt>
      <trkpt lat="46.50683" lon="5.33764">
        <ele>218.6</ele>
        <time>2022-04-11T11:22:57Z</time>
      </trkpt>
      <trkpt lat="46.50656" lon="5.33775">
        <ele>218.8</ele>
        <time>2022-04-11T11:23:01Z</time>
      </trkpt>
      <trkpt lat="46.50628" lon="5.33787">
        <ele>219</ele>
        <time>2022-04-11T11:23:06Z</time>
      </trkpt>
      <trkpt lat="46.50606" lon="5.33798">
        <ele>219.2</ele>
        <time>2022-04-11T11:23:09Z</time>
      </trkpt>
      <trkpt lat="46.50593" lon="5.33801">
        <ele>219.2</ele>
        <time>2022-04-11T11:23:11Z</time>
      </trkpt>
      <trkpt lat="46.50561" lon="5.3381">
        <ele>219.6</ele>
        <time>2022-04-11T11:23:16Z</time>
      </trkpt>
      <trkpt lat="46.50554" lon="5.33813">
        <ele>219.6</ele>
        <time>2022-04-11T11:23:17Z</time>
      </trkpt>
      <trkpt lat="46.50548" lon="5.33816">
        <ele>219.6</ele>
        <time>2022-04-11T11:23:18Z</time>
      </trkpt>
      <trkpt lat="46.50535" lon="5.33817">
        <ele>219.6</ele>
        <time>2022-04-11T11:23:20Z</time>
      </trkpt>
      <trkpt lat="46.50529" lon="5.33813">
        <ele>219.6</ele>
        <time>2022-04-11T11:23:21Z</time>
      </trkpt>
      <trkpt lat="46.50525" lon="5.33809">
        <ele>219.6</ele>
        <time>2022-04-11T11:23:22Z</time>
      </trkpt>
      <trkpt lat="46.50523" lon="5.33802">
        <ele>219.8</ele>
        <time>2022-04-11T11:23:23Z</time>
      </trkpt>
      <trkpt lat="46.50522" lon="5.33793">
        <ele>219.8</ele>
        <time>2022-04-11T11:23:24Z</time>
      </trkpt>
      <trkpt lat="46.50515" lon="5.33758">
        <ele>220</ele>
        <time>2022-04-11T11:23:28Z</time>
      </trkpt>
      <trkpt lat="46.50507" lon="5.33724">
        <ele>220</ele>
        <time>2022-04-11T11:23:32Z</time>
      </trkpt>
      <trkpt lat="46.50503" lon="5.33707">
        <ele>220.2</ele>
        <time>2022-04-11T11:23:34Z</time>
      </trkpt>
      <trkpt lat="46.50497" lon="5.33676">
        <ele>220.8</ele>
        <time>2022-04-11T11:23:38Z</time>
      </trkpt>
      <trkpt lat="46.50492" lon="5.33652">
        <ele>221</ele>
        <time>2022-04-11T11:23:41Z</time>
      </trkpt>
      <trkpt lat="46.50486" lon="5.33631">
        <ele>221.2</ele>
        <time>2022-04-11T11:23:44Z</time>
      </trkpt>
      <trkpt lat="46.50484" lon="5.33624">
        <ele>221.2</ele>
        <time>2022-04-11T11:23:45Z</time>
      </trkpt>
      <trkpt lat="46.50482" lon="5.33615">
        <ele>221.4</ele>
        <time>2022-04-11T11:23:46Z</time>
      </trkpt>
      <trkpt lat="46.50478" lon="5.33591">
        <ele>221.8</ele>
        <time>2022-04-11T11:23:49Z</time>
      </trkpt>
      <trkpt lat="46.50476" lon="5.33574">
        <ele>222.4</ele>
        <time>2022-04-11T11:23:51Z</time>
      </trkpt>
      <trkpt lat="46.50472" lon="5.33553">
        <ele>222.6</ele>
        <time>2022-04-11T11:23:53Z</time>
      </trkpt>
      <trkpt lat="46.50465" lon="5.33525">
        <ele>222.8</ele>
        <time>2022-04-11T11:23:56Z</time>
      </trkpt>
      <trkpt lat="46.50462" lon="5.33515">
        <ele>222.8</ele>
        <time>2022-04-11T11:23:57Z</time>
      </trkpt>
      <trkpt lat="46.50458" lon="5.33489">
        <ele>222.8</ele>
        <time>2022-04-11T11:24:00Z</time>
      </trkpt>
      <trkpt lat="46.50456" lon="5.33475">
        <ele>222.4</ele>
        <time>2022-04-11T11:24:02Z</time>
      </trkpt>
      <trkpt lat="46.50449" lon="5.33439">
        <ele>222</ele>
        <time>2022-04-11T11:24:07Z</time>
      </trkpt>
      <trkpt lat="46.50449" lon="5.33431">
        <ele>221.8</ele>
        <time>2022-04-11T11:24:08Z</time>
      </trkpt>
      <trkpt lat="46.50451" lon="5.33424">
        <ele>221.8</ele>
        <time>2022-04-11T11:24:09Z</time>
      </trkpt>
      <trkpt lat="46.50458" lon="5.3341">
        <ele>221.6</ele>
        <time>2022-04-11T11:24:11Z</time>
      </trkpt>
      <trkpt lat="46.50462" lon="5.334">
        <ele>221.4</ele>
        <time>2022-04-11T11:24:12Z</time>
      </trkpt>
      <trkpt lat="46.50466" lon="5.33379">
        <ele>221.2</ele>
        <time>2022-04-11T11:24:14Z</time>
      </trkpt>
      <trkpt lat="46.50468" lon="5.33369">
        <ele>221.2</ele>
        <time>2022-04-11T11:24:15Z</time>
      </trkpt>
      <trkpt lat="46.5047" lon="5.33359">
        <ele>221</ele>
        <time>2022-04-11T11:24:16Z</time>
      </trkpt>
      <trkpt lat="46.50472" lon="5.33339">
        <ele>220.6</ele>
        <time>2022-04-11T11:24:18Z</time>
      </trkpt>
      <trkpt lat="46.50472" lon="5.33319">
        <ele>220.2</ele>
        <time>2022-04-11T11:24:20Z</time>
      </trkpt>
      <trkpt lat="46.50471" lon="5.333">
        <ele>220</ele>
        <time>2022-04-11T11:24:22Z</time>
      </trkpt>
      <trkpt lat="46.50474" lon="5.33283">
        <ele>219.8</ele>
        <time>2022-04-11T11:24:24Z</time>
      </trkpt>
      <trkpt lat="46.50474" lon="5.33273">
        <ele>219.8</ele>
        <time>2022-04-11T11:24:25Z</time>
      </trkpt>
      <trkpt lat="46.50471" lon="5.3322">
        <ele>220.2</ele>
        <time>2022-04-11T11:24:31Z</time>
      </trkpt>
      <trkpt lat="46.50471" lon="5.33204">
        <ele>220.4</ele>
        <time>2022-04-11T11:24:33Z</time>
      </trkpt>
      <trkpt lat="46.5047" lon="5.33179">
        <ele>220.6</ele>
        <time>2022-04-11T11:24:36Z</time>
      </trkpt>
      <trkpt lat="46.50472" lon="5.33114">
        <ele>220.4</ele>
        <time>2022-04-11T11:24:42Z</time>
      </trkpt>
      <trkpt lat="46.50472" lon="5.33062">
        <ele>218.6</ele>
        <time>2022-04-11T11:24:46Z</time>
      </trkpt>
      <trkpt lat="46.50471" lon="5.33049">
        <ele>218.4</ele>
        <time>2022-04-11T11:24:47Z</time>
      </trkpt>
      <trkpt lat="46.50471" lon="5.33011">
        <ele>217.2</ele>
        <time>2022-04-11T11:24:50Z</time>
      </trkpt>
      <trkpt lat="46.50471" lon="5.32984">
        <ele>216.6</ele>
        <time>2022-04-11T11:24:52Z</time>
      </trkpt>
      <trkpt lat="46.50472" lon="5.32957">
        <ele>216.2</ele>
        <time>2022-04-11T11:24:54Z</time>
      </trkpt>
      <trkpt lat="46.50473" lon="5.32915">
        <ele>214.4</ele>
        <time>2022-04-11T11:24:57Z</time>
      </trkpt>
      <trkpt lat="46.50474" lon="5.32885">
        <ele>213.8</ele>
        <time>2022-04-11T11:24:59Z</time>
      </trkpt>
      <trkpt lat="46.50474" lon="5.32871">
        <ele>213.4</ele>
        <time>2022-04-11T11:25:00Z</time>
      </trkpt>
      <trkpt lat="46.50476" lon="5.32825">
        <ele>212.4</ele>
        <time>2022-04-11T11:25:03Z</time>
      </trkpt>
      <trkpt lat="46.50476" lon="5.32796">
        <ele>210.8</ele>
        <time>2022-04-11T11:25:05Z</time>
      </trkpt>
      <trkpt lat="46.50477" lon="5.32767">
        <ele>208.6</ele>
        <time>2022-04-11T11:25:07Z</time>
      </trkpt>
      <trkpt lat="46.50478" lon="5.32727">
        <ele>207.6</ele>
        <time>2022-04-11T11:25:10Z</time>
      </trkpt>
      <trkpt lat="46.50479" lon="5.32702">
        <ele>207.2</ele>
        <time>2022-04-11T11:25:12Z</time>
      </trkpt>
      <trkpt lat="46.5048" lon="5.32616">
        <ele>206.8</ele>
        <time>2022-04-11T11:25:19Z</time>
      </trkpt>
      <trkpt lat="46.50478" lon="5.32567">
        <ele>206.4</ele>
        <time>2022-04-11T11:25:23Z</time>
      </trkpt>
      <trkpt lat="46.50476" lon="5.32518">
        <ele>205.6</ele>
        <time>2022-04-11T11:25:27Z</time>
      </trkpt>
      <trkpt lat="46.50473" lon="5.32482">
        <ele>205.2</ele>
        <time>2022-04-11T11:25:30Z</time>
      </trkpt>
      <trkpt lat="46.50468" lon="5.32434">
        <ele>204.4</ele>
        <time>2022-04-11T11:25:34Z</time>
      </trkpt>
      <trkpt lat="46.50462" lon="5.32399">
        <ele>204.2</ele>
        <time>2022-04-11T11:25:37Z</time>
      </trkpt>
      <trkpt lat="46.50454" lon="5.32365">
        <ele>204.2</ele>
        <time>2022-04-11T11:25:40Z</time>
      </trkpt>
      <trkpt lat="46.50438" lon="5.32291">
        <ele>204.2</ele>
        <time>2022-04-11T11:25:47Z</time>
      </trkpt>
      <trkpt lat="46.50433" lon="5.32229">
        <ele>204</ele>
        <time>2022-04-11T11:25:53Z</time>
      </trkpt>
      <trkpt lat="46.50434" lon="5.32165">
        <ele>203.2</ele>
        <time>2022-04-11T11:25:59Z</time>
      </trkpt>
      <trkpt lat="46.50434" lon="5.32153">
        <ele>203</ele>
        <time>2022-04-11T11:26:00Z</time>
      </trkpt>
      <trkpt lat="46.50436" lon="5.32071">
        <ele>202.6</ele>
        <time>2022-04-11T11:26:07Z</time>
      </trkpt>
      <trkpt lat="46.50436" lon="5.3206">
        <ele>202.6</ele>
        <time>2022-04-11T11:26:08Z</time>
      </trkpt>
      <trkpt lat="46.50437" lon="5.32025">
        <ele>201.8</ele>
        <time>2022-04-11T11:26:11Z</time>
      </trkpt>
      <trkpt lat="46.50439" lon="5.31967">
        <ele>201</ele>
        <time>2022-04-11T11:26:16Z</time>
      </trkpt>
      <trkpt lat="46.5044" lon="5.31922">
        <ele>200.6</ele>
        <time>2022-04-11T11:26:20Z</time>
      </trkpt>
      <trkpt lat="46.5044" lon="5.31881">
        <ele>200.4</ele>
        <time>2022-04-11T11:26:24Z</time>
      </trkpt>
      <trkpt lat="46.50432" lon="5.31829">
        <ele>200.6</ele>
        <time>2022-04-11T11:26:29Z</time>
      </trkpt>
      <trkpt lat="46.50409" lon="5.31747">
        <ele>200.6</ele>
        <time>2022-04-11T11:26:38Z</time>
      </trkpt>
      <trkpt lat="46.50383" lon="5.31692">
        <ele>199.8</ele>
        <time>2022-04-11T11:26:45Z</time>
      </trkpt>
      <trkpt lat="46.5036" lon="5.31658">
        <ele>199.8</ele>
        <time>2022-04-11T11:26:50Z</time>
      </trkpt>
      <trkpt lat="46.50354" lon="5.31653">
        <ele>199.8</ele>
        <time>2022-04-11T11:26:51Z</time>
      </trkpt>
      <trkpt lat="46.50303" lon="5.31614">
        <ele>199.6</ele>
        <time>2022-04-11T11:27:00Z</time>
      </trkpt>
      <trkpt lat="46.50264" lon="5.31582">
        <ele>199.4</ele>
        <time>2022-04-11T11:27:07Z</time>
      </trkpt>
      <trkpt lat="46.50231" lon="5.31541">
        <ele>199.4</ele>
        <time>2022-04-11T11:27:14Z</time>
      </trkpt>
      <trkpt lat="46.50216" lon="5.31509">
        <ele>199.6</ele>
        <time>2022-04-11T11:27:19Z</time>
      </trkpt>
      <trkpt lat="46.50202" lon="5.31469">
        <ele>200.8</ele>
        <time>2022-04-11T11:27:25Z</time>
      </trkpt>
      <trkpt lat="46.502" lon="5.31463">
        <ele>201</ele>
        <time>2022-04-11T11:27:26Z</time>
      </trkpt>
      <trkpt lat="46.50197" lon="5.31451">
        <ele>202</ele>
        <time>2022-04-11T11:27:29Z</time>
      </trkpt>
      <trkpt lat="46.50189" lon="5.31428">
        <ele>203</ele>
        <time>2022-04-11T11:27:32Z</time>
      </trkpt>
      <trkpt lat="46.50183" lon="5.31411">
        <ele>203.8</ele>
        <time>2022-04-11T11:27:35Z</time>
      </trkpt>
      <trkpt lat="46.50179" lon="5.314">
        <ele>204.2</ele>
        <time>2022-04-11T11:27:37Z</time>
      </trkpt>
      <trkpt lat="46.50171" lon="5.31372">
        <ele>205</ele>
        <time>2022-04-11T11:27:42Z</time>
      </trkpt>
      <trkpt lat="46.50167" lon="5.3136">
        <ele>205.6</ele>
        <time>2022-04-11T11:27:44Z</time>
      </trkpt>
      <trkpt lat="46.50156" lon="5.31329">
        <ele>206.6</ele>
        <time>2022-04-11T11:27:49Z</time>
      </trkpt>
      <trkpt lat="46.50154" lon="5.31323">
        <ele>207</ele>
        <time>2022-04-11T11:27:50Z</time>
      </trkpt>
      <trkpt lat="46.50147" lon="5.31304">
        <ele>208</ele>
        <time>2022-04-11T11:27:53Z</time>
      </trkpt>
      <trkpt lat="46.50129" lon="5.3125">
        <ele>208.6</ele>
        <time>2022-04-11T11:28:01Z</time>
      </trkpt>
      <trkpt lat="46.50108" lon="5.31191">
        <ele>207.8</ele>
        <time>2022-04-11T11:28:08Z</time>
      </trkpt>
      <trkpt lat="46.50091" lon="5.31143">
        <ele>206.8</ele>
        <time>2022-04-11T11:28:13Z</time>
      </trkpt>
      <trkpt lat="46.50085" lon="5.31124">
        <ele>206</ele>
        <time>2022-04-11T11:28:15Z</time>
      </trkpt>
      <trkpt lat="46.50082" lon="5.31114">
        <ele>205.6</ele>
        <time>2022-04-11T11:28:16Z</time>
      </trkpt>
      <trkpt lat="46.50067" lon="5.31072">
        <ele>205.4</ele>
        <time>2022-04-11T11:28:21Z</time>
      </trkpt>
      <trkpt lat="46.50054" lon="5.31033">
        <ele>206.8</ele>
        <time>2022-04-11T11:28:27Z</time>
      </trkpt>
      <trkpt lat="46.50052" lon="5.31027">
        <ele>207.2</ele>
        <time>2022-04-11T11:28:28Z</time>
      </trkpt>
      <trkpt lat="46.50041" lon="5.30996">
        <ele>208.4</ele>
        <time>2022-04-11T11:28:34Z</time>
      </trkpt>
      <trkpt lat="46.50036" lon="5.30979">
        <ele>209.4</ele>
        <time>2022-04-11T11:28:37Z</time>
      </trkpt>
      <trkpt lat="46.50025" lon="5.30947">
        <ele>210.6</ele>
        <time>2022-04-11T11:28:43Z</time>
      </trkpt>
      <trkpt lat="46.50015" lon="5.3092">
        <ele>211.8</ele>
        <time>2022-04-11T11:28:48Z</time>
      </trkpt>
      <trkpt lat="46.50013" lon="5.30915">
        <ele>212</ele>
        <time>2022-04-11T11:28:49Z</time>
      </trkpt>
      <trkpt lat="46.5001" lon="5.30905">
        <ele>212.4</ele>
        <time>2022-04-11T11:28:51Z</time>
      </trkpt>
      <trkpt lat="46.50006" lon="5.30895">
        <ele>212.8</ele>
        <time>2022-04-11T11:28:53Z</time>
      </trkpt>
      <trkpt lat="46.49997" lon="5.30871">
        <ele>214</ele>
        <time>2022-04-11T11:28:58Z</time>
      </trkpt>
      <trkpt lat="46.49987" lon="5.30844">
        <ele>215</ele>
        <time>2022-04-11T11:29:03Z</time>
      </trkpt>
      <trkpt lat="46.49979" lon="5.30821">
        <ele>216</ele>
        <time>2022-04-11T11:29:07Z</time>
      </trkpt>
      <trkpt lat="46.49975" lon="5.30808">
        <ele>216</ele>
        <time>2022-04-11T11:29:09Z</time>
      </trkpt>
      <trkpt lat="46.49967" lon="5.30777">
        <ele>217</ele>
        <time>2022-04-11T11:29:14Z</time>
      </trkpt>
      <trkpt lat="46.49965" lon="5.3077">
        <ele>217.2</ele>
        <time>2022-04-11T11:29:15Z</time>
      </trkpt>
      <trkpt lat="46.49961" lon="5.30753">
        <ele>217.6</ele>
        <time>2022-04-11T11:29:18Z</time>
      </trkpt>
      <trkpt lat="46.49956" lon="5.30725">
        <ele>218.2</ele>
        <time>2022-04-11T11:29:22Z</time>
      </trkpt>
      <trkpt lat="46.49947" lon="5.30672">
        <ele>218.6</ele>
        <time>2022-04-11T11:29:29Z</time>
      </trkpt>
      <trkpt lat="46.49937" lon="5.30617">
        <ele>217.2</ele>
        <time>2022-04-11T11:29:35Z</time>
      </trkpt>
      <trkpt lat="46.49936" lon="5.30607">
        <ele>216.8</ele>
        <time>2022-04-11T11:29:36Z</time>
      </trkpt>
      <trkpt lat="46.49933" lon="5.30577">
        <ele>215.8</ele>
        <time>2022-04-11T11:29:39Z</time>
      </trkpt>
      <trkpt lat="46.49933" lon="5.30564">
        <ele>215.8</ele>
        <time>2022-04-11T11:29:40Z</time>
      </trkpt>
      <trkpt lat="46.49935" lon="5.3054">
        <ele>215.2</ele>
        <time>2022-04-11T11:29:42Z</time>
      </trkpt>
      <trkpt lat="46.4994" lon="5.30517">
        <ele>214.8</ele>
        <time>2022-04-11T11:29:44Z</time>
      </trkpt>
      <trkpt lat="46.49948" lon="5.30495">
        <ele>214.6</ele>
        <time>2022-04-11T11:29:46Z</time>
      </trkpt>
      <trkpt lat="46.49958" lon="5.30474">
        <ele>214.4</ele>
        <time>2022-04-11T11:29:48Z</time>
      </trkpt>
      <trkpt lat="46.49964" lon="5.30464">
        <ele>214.2</ele>
        <time>2022-04-11T11:29:49Z</time>
      </trkpt>
      <trkpt lat="46.49978" lon="5.30447">
        <ele>213.4</ele>
        <time>2022-04-11T11:29:51Z</time>
      </trkpt>
      <trkpt lat="46.49994" lon="5.30432">
        <ele>212.8</ele>
        <time>2022-04-11T11:29:53Z</time>
      </trkpt>
      <trkpt lat="46.5001" lon="5.3042">
        <ele>212</ele>
        <time>2022-04-11T11:29:55Z</time>
      </trkpt>
      <trkpt lat="46.50035" lon="5.30399">
        <ele>210.6</ele>
        <time>2022-04-11T11:29:58Z</time>
      </trkpt>
      <trkpt lat="46.50043" lon="5.30392">
        <ele>210.4</ele>
        <time>2022-04-11T11:29:59Z</time>
      </trkpt>
      <trkpt lat="46.50062" lon="5.30365">
        <ele>209.8</ele>
        <time>2022-04-11T11:30:02Z</time>
      </trkpt>
      <trkpt lat="46.50068" lon="5.30355">
        <ele>209.6</ele>
        <time>2022-04-11T11:30:03Z</time>
      </trkpt>
      <trkpt lat="46.50083" lon="5.30314">
        <ele>209.8</ele>
        <time>2022-04-11T11:30:07Z</time>
      </trkpt>
      <trkpt lat="46.50086" lon="5.30303">
        <ele>209.8</ele>
        <time>2022-04-11T11:30:08Z</time>
      </trkpt>
      <trkpt lat="46.50089" lon="5.30273">
        <ele>210.4</ele>
        <time>2022-04-11T11:30:11Z</time>
      </trkpt>
      <trkpt lat="46.50091" lon="5.30216">
        <ele>211.4</ele>
        <time>2022-04-11T11:30:17Z</time>
      </trkpt>
      <trkpt lat="46.50091" lon="5.30207">
        <ele>211.6</ele>
        <time>2022-04-11T11:30:18Z</time>
      </trkpt>
      <trkpt lat="46.50091" lon="5.30197">
        <ele>211.6</ele>
        <time>2022-04-11T11:30:19Z</time>
      </trkpt>
      <trkpt lat="46.50091" lon="5.30168">
        <ele>211.8</ele>
        <time>2022-04-11T11:30:22Z</time>
      </trkpt>
      <trkpt lat="46.50092" lon="5.30123">
        <ele>212.4</ele>
        <time>2022-04-11T11:30:27Z</time>
      </trkpt>
      <trkpt lat="46.50091" lon="5.30096">
        <ele>212.6</ele>
        <time>2022-04-11T11:30:30Z</time>
      </trkpt>
      <trkpt lat="46.50091" lon="5.3006">
        <ele>213.2</ele>
        <time>2022-04-11T11:30:34Z</time>
      </trkpt>
      <trkpt lat="46.50087" lon="5.29999">
        <ele>213.4</ele>
        <time>2022-04-11T11:30:41Z</time>
      </trkpt>
      <trkpt lat="46.50081" lon="5.29969">
        <ele>213.8</ele>
        <time>2022-04-11T11:30:44Z</time>
      </trkpt>
      <trkpt lat="46.50073" lon="5.29942">
        <ele>214.2</ele>
        <time>2022-04-11T11:30:47Z</time>
      </trkpt>
      <trkpt lat="46.50066" lon="5.29925">
        <ele>214.2</ele>
        <time>2022-04-11T11:30:49Z</time>
      </trkpt>
      <trkpt lat="46.50057" lon="5.2991">
        <ele>214</ele>
        <time>2022-04-11T11:30:51Z</time>
      </trkpt>
      <trkpt lat="46.50052" lon="5.29903">
        <ele>213.8</ele>
        <time>2022-04-11T11:30:52Z</time>
      </trkpt>
      <trkpt lat="46.50032" lon="5.29879">
        <ele>212.6</ele>
        <time>2022-04-11T11:30:56Z</time>
      </trkpt>
      <trkpt lat="46.50027" lon="5.29874">
        <ele>211.8</ele>
        <time>2022-04-11T11:30:57Z</time>
      </trkpt>
      <trkpt lat="46.50021" lon="5.29868">
        <ele>211.4</ele>
        <time>2022-04-11T11:30:58Z</time>
      </trkpt>
      <trkpt lat="46.50016" lon="5.29863">
        <ele>211.2</ele>
        <time>2022-04-11T11:30:59Z</time>
      </trkpt>
      <trkpt lat="46.50005" lon="5.29855">
        <ele>210.6</ele>
        <time>2022-04-11T11:31:01Z</time>
      </trkpt>
      <trkpt lat="46.49999" lon="5.29853">
        <ele>210.4</ele>
        <time>2022-04-11T11:31:02Z</time>
      </trkpt>
      <trkpt lat="46.49992" lon="5.29852">
        <ele>210.4</ele>
        <time>2022-04-11T11:31:03Z</time>
      </trkpt>
      <trkpt lat="46.49961" lon="5.29849">
        <ele>211.4</ele>
        <time>2022-04-11T11:31:08Z</time>
      </trkpt>
      <trkpt lat="46.49923" lon="5.29837">
        <ele>212.2</ele>
        <time>2022-04-11T11:31:15Z</time>
      </trkpt>
      <trkpt lat="46.49908" lon="5.29833">
        <ele>212.4</ele>
        <time>2022-04-11T11:31:18Z</time>
      </trkpt>
      <trkpt lat="46.49888" lon="5.29825">
        <ele>213.2</ele>
        <time>2022-04-11T11:31:22Z</time>
      </trkpt>
      <trkpt lat="46.49873" lon="5.29818">
        <ele>213.6</ele>
        <time>2022-04-11T11:31:25Z</time>
      </trkpt>
      <trkpt lat="46.49848" lon="5.2981">
        <ele>214</ele>
        <time>2022-04-11T11:31:30Z</time>
      </trkpt>
      <trkpt lat="46.49828" lon="5.29803">
        <ele>214.8</ele>
        <time>2022-04-11T11:31:34Z</time>
      </trkpt>
      <trkpt lat="46.49798" lon="5.29793">
        <ele>215.4</ele>
        <time>2022-04-11T11:31:40Z</time>
      </trkpt>
      <trkpt lat="46.49758" lon="5.29786">
        <ele>215.6</ele>
        <time>2022-04-11T11:31:48Z</time>
      </trkpt>
      <trkpt lat="46.49752" lon="5.29784">
        <ele>215.6</ele>
        <time>2022-04-11T11:31:49Z</time>
      </trkpt>
      <trkpt lat="46.49748" lon="5.29779">
        <ele>215.6</ele>
        <time>2022-04-11T11:31:50Z</time>
      </trkpt>
      <trkpt lat="46.49741" lon="5.29765">
        <ele>215.4</ele>
        <time>2022-04-11T11:31:52Z</time>
      </trkpt>
      <trkpt lat="46.49721" lon="5.29721">
        <ele>215.4</ele>
        <time>2022-04-11T11:31:58Z</time>
      </trkpt>
      <trkpt lat="46.49695" lon="5.29673">
        <ele>215</ele>
        <time>2022-04-11T11:32:05Z</time>
      </trkpt>
      <trkpt lat="46.49667" lon="5.29624">
        <ele>215.8</ele>
        <time>2022-04-11T11:32:13Z</time>
      </trkpt>
      <trkpt lat="46.49643" lon="5.29583">
        <ele>216.8</ele>
        <time>2022-04-11T11:32:20Z</time>
      </trkpt>
      <trkpt lat="46.49634" lon="5.29565">
        <ele>216.8</ele>
        <time>2022-04-11T11:32:23Z</time>
      </trkpt>
      <trkpt lat="46.49611" lon="5.29523">
        <ele>216.2</ele>
        <time>2022-04-11T11:32:30Z</time>
      </trkpt>
      <trkpt lat="46.49575" lon="5.29459">
        <ele>216.8</ele>
        <time>2022-04-11T11:32:40Z</time>
      </trkpt>
      <trkpt lat="46.49571" lon="5.29452">
        <ele>216.8</ele>
        <time>2022-04-11T11:32:41Z</time>
      </trkpt>
      <trkpt lat="46.4954" lon="5.29397">
        <ele>216.6</ele>
        <time>2022-04-11T11:32:49Z</time>
      </trkpt>
      <trkpt lat="46.49524" lon="5.29362">
        <ele>215.4</ele>
        <time>2022-04-11T11:32:53Z</time>
      </trkpt>
      <trkpt lat="46.49521" lon="5.29351">
        <ele>215.4</ele>
        <time>2022-04-11T11:32:54Z</time>
      </trkpt>
      <trkpt lat="46.49516" lon="5.29329">
        <ele>214.2</ele>
        <time>2022-04-11T11:32:56Z</time>
      </trkpt>
      <trkpt lat="46.49513" lon="5.29306">
        <ele>213.4</ele>
        <time>2022-04-11T11:32:58Z</time>
      </trkpt>
      <trkpt lat="46.49512" lon="5.29294">
        <ele>213</ele>
        <time>2022-04-11T11:32:59Z</time>
      </trkpt>
      <trkpt lat="46.49513" lon="5.29269">
        <ele>212.8</ele>
        <time>2022-04-11T11:33:01Z</time>
      </trkpt>
      <trkpt lat="46.49515" lon="5.29256">
        <ele>212.4</ele>
        <time>2022-04-11T11:33:02Z</time>
      </trkpt>
      <trkpt lat="46.49518" lon="5.29244">
        <ele>211.6</ele>
        <time>2022-04-11T11:33:03Z</time>
      </trkpt>
      <trkpt lat="46.49527" lon="5.2922">
        <ele>209.8</ele>
        <time>2022-04-11T11:33:05Z</time>
      </trkpt>
      <trkpt lat="46.49532" lon="5.29208">
        <ele>209.6</ele>
        <time>2022-04-11T11:33:06Z</time>
      </trkpt>
      <trkpt lat="46.49544" lon="5.29184">
        <ele>208.6</ele>
        <time>2022-04-11T11:33:08Z</time>
      </trkpt>
      <trkpt lat="46.49554" lon="5.29161">
        <ele>207.8</ele>
        <time>2022-04-11T11:33:10Z</time>
      </trkpt>
      <trkpt lat="46.4956" lon="5.29145">
        <ele>207</ele>
        <time>2022-04-11T11:33:11Z</time>
      </trkpt>
      <trkpt lat="46.49571" lon="5.29099">
        <ele>205.2</ele>
        <time>2022-04-11T11:33:14Z</time>
      </trkpt>
      <trkpt lat="46.49574" lon="5.29083">
        <ele>204.8</ele>
        <time>2022-04-11T11:33:15Z</time>
      </trkpt>
      <trkpt lat="46.49577" lon="5.29067">
        <ele>204</ele>
        <time>2022-04-11T11:33:16Z</time>
      </trkpt>
      <trkpt lat="46.49583" lon="5.29033">
        <ele>202.6</ele>
        <time>2022-04-11T11:33:18Z</time>
      </trkpt>
      <trkpt lat="46.49586" lon="5.29016">
        <ele>201</ele>
        <time>2022-04-11T11:33:19Z</time>
      </trkpt>
      <trkpt lat="46.49592" lon="5.28982">
        <ele>200</ele>
        <time>2022-04-11T11:33:21Z</time>
      </trkpt>
      <trkpt lat="46.49595" lon="5.28965">
        <ele>199.8</ele>
        <time>2022-04-11T11:33:22Z</time>
      </trkpt>
      <trkpt lat="46.49604" lon="5.28917">
        <ele>197.6</ele>
        <time>2022-04-11T11:33:25Z</time>
      </trkpt>
      <trkpt lat="46.49607" lon="5.28901">
        <ele>196.4</ele>
        <time>2022-04-11T11:33:26Z</time>
      </trkpt>
      <trkpt lat="46.49612" lon="5.28871">
        <ele>194.8</ele>
        <time>2022-04-11T11:33:28Z</time>
      </trkpt>
      <trkpt lat="46.49615" lon="5.28856">
        <ele>194.4</ele>
        <time>2022-04-11T11:33:29Z</time>
      </trkpt>
      <trkpt lat="46.4962" lon="5.28828">
        <ele>193.6</ele>
        <time>2022-04-11T11:33:31Z</time>
      </trkpt>
      <trkpt lat="46.49629" lon="5.28775">
        <ele>192.8</ele>
        <time>2022-04-11T11:33:35Z</time>
      </trkpt>
      <trkpt lat="46.49641" lon="5.28714">
        <ele>193.2</ele>
        <time>2022-04-11T11:33:40Z</time>
      </trkpt>
      <trkpt lat="46.49657" lon="5.28648">
        <ele>193.6</ele>
        <time>2022-04-11T11:33:46Z</time>
      </trkpt>
      <trkpt lat="46.49674" lon="5.28567">
        <ele>194.6</ele>
        <time>2022-04-11T11:33:54Z</time>
      </trkpt>
      <trkpt lat="46.49682" lon="5.28526">
        <ele>195.8</ele>
        <time>2022-04-11T11:33:58Z</time>
      </trkpt>
      <trkpt lat="46.49688" lon="5.28505">
        <ele>196.4</ele>
        <time>2022-04-11T11:34:00Z</time>
      </trkpt>
      <trkpt lat="46.49692" lon="5.28483">
        <ele>196.8</ele>
        <time>2022-04-11T11:34:02Z</time>
      </trkpt>
      <trkpt lat="46.49696" lon="5.28448">
        <ele>196.8</ele>
        <time>2022-04-11T11:34:05Z</time>
      </trkpt>
      <trkpt lat="46.4971" lon="5.2837">
        <ele>195.8</ele>
        <time>2022-04-11T11:34:12Z</time>
      </trkpt>
      <trkpt lat="46.49733" lon="5.28289">
        <ele>195</ele>
        <time>2022-04-11T11:34:20Z</time>
      </trkpt>
      <trkpt lat="46.49736" lon="5.28277">
        <ele>195</ele>
        <time>2022-04-11T11:34:21Z</time>
      </trkpt>
      <trkpt lat="46.49751" lon="5.28193">
        <ele>195</ele>
        <time>2022-04-11T11:34:29Z</time>
      </trkpt>
      <trkpt lat="46.49756" lon="5.28162">
        <ele>195</ele>
        <time>2022-04-11T11:34:32Z</time>
      </trkpt>
      <trkpt lat="46.49764" lon="5.28109">
        <ele>194.8</ele>
        <time>2022-04-11T11:34:37Z</time>
      </trkpt>
      <trkpt lat="46.49768" lon="5.28047">
        <ele>195</ele>
        <time>2022-04-11T11:34:43Z</time>
      </trkpt>
      <trkpt lat="46.49767" lon="5.27971">
        <ele>195.6</ele>
        <time>2022-04-11T11:34:51Z</time>
      </trkpt>
      <trkpt lat="46.49766" lon="5.2792">
        <ele>196.2</ele>
        <time>2022-04-11T11:34:57Z</time>
      </trkpt>
      <trkpt lat="46.49764" lon="5.27873">
        <ele>197.2</ele>
        <time>2022-04-11T11:35:03Z</time>
      </trkpt>
      <trkpt lat="46.49763" lon="5.27849">
        <ele>197.4</ele>
        <time>2022-04-11T11:35:06Z</time>
      </trkpt>
      <trkpt lat="46.49753" lon="5.27782">
        <ele>197.4</ele>
        <time>2022-04-11T11:35:15Z</time>
      </trkpt>
      <trkpt lat="46.49744" lon="5.27733">
        <ele>198.2</ele>
        <time>2022-04-11T11:35:22Z</time>
      </trkpt>
      <trkpt lat="46.49743" lon="5.27726">
        <ele>198.4</ele>
        <time>2022-04-11T11:35:23Z</time>
      </trkpt>
      <trkpt lat="46.49734" lon="5.27676">
        <ele>199.4</ele>
        <time>2022-04-11T11:35:31Z</time>
      </trkpt>
      <trkpt lat="46.49733" lon="5.27669">
        <ele>199.6</ele>
        <time>2022-04-11T11:35:32Z</time>
      </trkpt>
      <trkpt lat="46.49727" lon="5.27619">
        <ele>200.6</ele>
        <time>2022-04-11T11:35:40Z</time>
      </trkpt>
      <trkpt lat="46.49727" lon="5.276">
        <ele>201</ele>
        <time>2022-04-11T11:35:43Z</time>
      </trkpt>
      <trkpt lat="46.49728" lon="5.27581">
        <ele>201.8</ele>
        <time>2022-04-11T11:35:46Z</time>
      </trkpt>
      <trkpt lat="46.49728" lon="5.27575">
        <ele>202</ele>
        <time>2022-04-11T11:35:47Z</time>
      </trkpt>
      <trkpt lat="46.49729" lon="5.27556">
        <ele>202.8</ele>
        <time>2022-04-11T11:35:50Z</time>
      </trkpt>
      <trkpt lat="46.49728" lon="5.27519">
        <ele>203.6</ele>
        <time>2022-04-11T11:35:56Z</time>
      </trkpt>
      <trkpt lat="46.49728" lon="5.27514">
        <ele>203.8</ele>
        <time>2022-04-11T11:35:57Z</time>
      </trkpt>
      <trkpt lat="46.49728" lon="5.27493">
        <ele>205</ele>
        <time>2022-04-11T11:36:01Z</time>
      </trkpt>
      <trkpt lat="46.49727" lon="5.27473">
        <ele>205.8</ele>
        <time>2022-04-11T11:36:05Z</time>
      </trkpt>
      <trkpt lat="46.49726" lon="5.27463">
        <ele>206.4</ele>
        <time>2022-04-11T11:36:07Z</time>
      </trkpt>
      <trkpt lat="46.49725" lon="5.27448">
        <ele>207.6</ele>
        <time>2022-04-11T11:36:10Z</time>
      </trkpt>
      <trkpt lat="46.49723" lon="5.27438">
        <ele>208.2</ele>
        <time>2022-04-11T11:36:12Z</time>
      </trkpt>
      <trkpt lat="46.4972" lon="5.27424">
        <ele>208.8</ele>
        <time>2022-04-11T11:36:15Z</time>
      </trkpt>
      <trkpt lat="46.49714" lon="5.27405">
        <ele>209.8</ele>
        <time>2022-04-11T11:36:19Z</time>
      </trkpt>
      <trkpt lat="46.49711" lon="5.27396">
        <ele>210</ele>
        <time>2022-04-11T11:36:21Z</time>
      </trkpt>
      <trkpt lat="46.49698" lon="5.27366">
        <ele>210.6</ele>
        <time>2022-04-11T11:36:28Z</time>
      </trkpt>
      <trkpt lat="46.49696" lon="5.27362">
        <ele>210.6</ele>
        <time>2022-04-11T11:36:29Z</time>
      </trkpt>
      <trkpt lat="46.49688" lon="5.27346">
        <ele>211.6</ele>
        <time>2022-04-11T11:36:33Z</time>
      </trkpt>
      <trkpt lat="46.49681" lon="5.27333">
        <ele>212.4</ele>
        <time>2022-04-11T11:36:36Z</time>
      </trkpt>
      <trkpt lat="46.49677" lon="5.27325">
        <ele>212.8</ele>
        <time>2022-04-11T11:36:38Z</time>
      </trkpt>
      <trkpt lat="46.49667" lon="5.27305">
        <ele>213.2</ele>
        <time>2022-04-11T11:36:43Z</time>
      </trkpt>
      <trkpt lat="46.49659" lon="5.27287">
        <ele>213.8</ele>
        <time>2022-04-11T11:36:47Z</time>
      </trkpt>
      <trkpt lat="46.4965" lon="5.27261">
        <ele>215</ele>
        <time>2022-04-11T11:36:53Z</time>
      </trkpt>
      <trkpt lat="46.49643" lon="5.27228">
        <ele>216.2</ele>
        <time>2022-04-11T11:37:00Z</time>
      </trkpt>
      <trkpt lat="46.49642" lon="5.27223">
        <ele>216.2</ele>
        <time>2022-04-11T11:37:01Z</time>
      </trkpt>
      <trkpt lat="46.4964" lon="5.27208">
        <ele>217.2</ele>
        <time>2022-04-11T11:37:04Z</time>
      </trkpt>
      <trkpt lat="46.49639" lon="5.27176">
        <ele>217.6</ele>
        <time>2022-04-11T11:37:10Z</time>
      </trkpt>
      <trkpt lat="46.49641" lon="5.27148">
        <ele>218.2</ele>
        <time>2022-04-11T11:37:15Z</time>
      </trkpt>
      <trkpt lat="46.49645" lon="5.2713">
        <ele>219</ele>
        <time>2022-04-11T11:37:18Z</time>
      </trkpt>
      <trkpt lat="46.49646" lon="5.27125">
        <ele>219.4</ele>
        <time>2022-04-11T11:37:19Z</time>
      </trkpt>
      <trkpt lat="46.49651" lon="5.27099">
        <ele>220</ele>
        <time>2022-04-11T11:37:24Z</time>
      </trkpt>
      <trkpt lat="46.49644" lon="5.27093">
        <ele>220.4</ele>
        <time>2022-04-11T11:37:26Z</time>
      </trkpt>
      <trkpt lat="46.49639" lon="5.27093">
        <ele>220.4</ele>
        <time>2022-04-11T11:37:27Z</time>
      </trkpt>
      <trkpt lat="46.49634" lon="5.27094">
        <ele>220.4</ele>
        <time>2022-04-11T11:37:28Z</time>
      </trkpt>
      <trkpt lat="46.49608" lon="5.27098">
        <ele>219.6</ele>
        <time>2022-04-11T11:37:33Z</time>
      </trkpt>
      <trkpt lat="46.49597" lon="5.271">
        <ele>219.4</ele>
        <time>2022-04-11T11:37:35Z</time>
      </trkpt>
      <trkpt lat="46.49571" lon="5.27109">
        <ele>219.4</ele>
        <time>2022-04-11T11:37:40Z</time>
      </trkpt>
      <trkpt lat="46.49561" lon="5.27116">
        <ele>219.8</ele>
        <time>2022-04-11T11:37:42Z</time>
      </trkpt>
      <trkpt lat="46.49547" lon="5.2713">
        <ele>220</ele>
        <time>2022-04-11T11:37:45Z</time>
      </trkpt>
      <trkpt lat="46.49534" lon="5.27147">
        <ele>220.4</ele>
        <time>2022-04-11T11:37:48Z</time>
      </trkpt>
      <trkpt lat="46.49517" lon="5.2717">
        <ele>221</ele>
        <time>2022-04-11T11:37:52Z</time>
      </trkpt>
      <trkpt lat="46.49497" lon="5.2719">
        <ele>221.4</ele>
        <time>2022-04-11T11:37:56Z</time>
      </trkpt>
      <trkpt lat="46.4948" lon="5.27202">
        <ele>221.6</ele>
        <time>2022-04-11T11:37:59Z</time>
      </trkpt>
      <trkpt lat="46.49439" lon="5.27217">
        <ele>220.6</ele>
        <time>2022-04-11T11:38:06Z</time>
      </trkpt>
      <trkpt lat="46.49389" lon="5.2723">
        <ele>219.6</ele>
        <time>2022-04-11T11:38:14Z</time>
      </trkpt>
      <trkpt lat="46.49377" lon="5.27234">
        <ele>219.4</ele>
        <time>2022-04-11T11:38:16Z</time>
      </trkpt>
      <trkpt lat="46.49371" lon="5.27235">
        <ele>219.2</ele>
        <time>2022-04-11T11:38:17Z</time>
      </trkpt>
      <trkpt lat="46.49335" lon="5.27242">
        <ele>218.6</ele>
        <time>2022-04-11T11:38:23Z</time>
      </trkpt>
      <trkpt lat="46.49286" lon="5.27254">
        <ele>218.6</ele>
        <time>2022-04-11T11:38:31Z</time>
      </trkpt>
      <trkpt lat="46.49242" lon="5.27251">
        <ele>218.4</ele>
        <time>2022-04-11T11:38:38Z</time>
      </trkpt>
      <trkpt lat="46.49227" lon="5.27243">
        <ele>218.2</ele>
        <time>2022-04-11T11:38:41Z</time>
      </trkpt>
      <trkpt lat="46.49218" lon="5.27237">
        <ele>218</ele>
        <time>2022-04-11T11:38:43Z</time>
      </trkpt>
      <trkpt lat="46.4918" lon="5.27209">
        <ele>218</ele>
        <time>2022-04-11T11:38:52Z</time>
      </trkpt>
      <trkpt lat="46.49155" lon="5.27189">
        <ele>219.4</ele>
        <time>2022-04-11T11:38:58Z</time>
      </trkpt>
      <trkpt lat="46.49124" lon="5.27166">
        <ele>220</ele>
        <time>2022-04-11T11:39:05Z</time>
      </trkpt>
      <trkpt lat="46.49096" lon="5.27147">
        <ele>219.6</ele>
        <time>2022-04-11T11:39:12Z</time>
      </trkpt>
      <trkpt lat="46.4906" lon="5.27134">
        <ele>219.4</ele>
        <time>2022-04-11T11:39:20Z</time>
      </trkpt>
      <trkpt lat="46.49004" lon="5.27131">
        <ele>219.8</ele>
        <time>2022-04-11T11:39:32Z</time>
      </trkpt>
      <trkpt lat="46.48966" lon="5.2713">
        <ele>219.2</ele>
        <time>2022-04-11T11:39:41Z</time>
      </trkpt>
      <trkpt lat="46.48914" lon="5.27128">
        <ele>220</ele>
        <time>2022-04-11T11:39:53Z</time>
      </trkpt>
      <trkpt lat="46.48881" lon="5.27127">
        <ele>220</ele>
        <time>2022-04-11T11:40:02Z</time>
      </trkpt>
      <trkpt lat="46.48863" lon="5.27128">
        <ele>220.8</ele>
        <time>2022-04-11T11:40:07Z</time>
      </trkpt>
      <trkpt lat="46.48856" lon="5.27129">
        <ele>221.2</ele>
        <time>2022-04-11T11:40:09Z</time>
      </trkpt>
      <trkpt lat="46.48838" lon="5.27143">
        <ele>221.6</ele>
        <time>2022-04-11T11:40:14Z</time>
      </trkpt>
      <trkpt lat="46.48835" lon="5.27149">
        <ele>221.6</ele>
        <time>2022-04-11T11:40:15Z</time>
      </trkpt>
      <trkpt lat="46.48832" lon="5.27155">
        <ele>221.8</ele>
        <time>2022-04-11T11:40:16Z</time>
      </trkpt>
      <trkpt lat="46.4883" lon="5.27161">
        <ele>222.2</ele>
        <time>2022-04-11T11:40:17Z</time>
      </trkpt>
      <trkpt lat="46.48829" lon="5.27168">
        <ele>222.2</ele>
        <time>2022-04-11T11:40:18Z</time>
      </trkpt>
      <trkpt lat="46.48828" lon="5.27175">
        <ele>222.6</ele>
        <time>2022-04-11T11:40:19Z</time>
      </trkpt>
      <trkpt lat="46.4883" lon="5.27197">
        <ele>222.8</ele>
        <time>2022-04-11T11:40:22Z</time>
      </trkpt>
      <trkpt lat="46.48832" lon="5.27225">
        <ele>222.8</ele>
        <time>2022-04-11T11:40:25Z</time>
      </trkpt>
      <trkpt lat="46.48831" lon="5.27241">
        <ele>222.8</ele>
        <time>2022-04-11T11:40:27Z</time>
      </trkpt>
      <trkpt lat="46.48829" lon="5.27252">
        <ele>222.4</ele>
        <time>2022-04-11T11:40:28Z</time>
      </trkpt>
      <trkpt lat="46.48827" lon="5.27261">
        <ele>222.4</ele>
        <time>2022-04-11T11:40:29Z</time>
      </trkpt>
      <trkpt lat="46.48815" lon="5.27286">
        <ele>221.2</ele>
        <time>2022-04-11T11:40:32Z</time>
      </trkpt>
      <trkpt lat="46.48811" lon="5.27295">
        <ele>220.4</ele>
        <time>2022-04-11T11:40:33Z</time>
      </trkpt>
      <trkpt lat="46.48801" lon="5.27311">
        <ele>219.2</ele>
        <time>2022-04-11T11:40:35Z</time>
      </trkpt>
      <trkpt lat="46.48792" lon="5.2733">
        <ele>218</ele>
        <time>2022-04-11T11:40:37Z</time>
      </trkpt>
      <trkpt lat="46.48786" lon="5.2735">
        <ele>217.4</ele>
        <time>2022-04-11T11:40:39Z</time>
      </trkpt>
      <trkpt lat="46.48781" lon="5.27371">
        <ele>217</ele>
        <time>2022-04-11T11:40:41Z</time>
      </trkpt>
      <trkpt lat="46.4878" lon="5.27382">
        <ele>217</ele>
        <time>2022-04-11T11:40:42Z</time>
      </trkpt>
      <trkpt lat="46.48772" lon="5.27464">
        <ele>216.6</ele>
        <time>2022-04-11T11:40:50Z</time>
      </trkpt>
      <trkpt lat="46.4877" lon="5.27474">
        <ele>216.6</ele>
        <time>2022-04-11T11:40:51Z</time>
      </trkpt>
      <trkpt lat="46.48762" lon="5.27513">
        <ele>216.4</ele>
        <time>2022-04-11T11:40:55Z</time>
      </trkpt>
      <trkpt lat="46.48758" lon="5.27523">
        <ele>216.2</ele>
        <time>2022-04-11T11:40:56Z</time>
      </trkpt>
      <trkpt lat="46.48749" lon="5.27542">
        <ele>215.8</ele>
        <time>2022-04-11T11:40:58Z</time>
      </trkpt>
      <trkpt lat="46.48738" lon="5.2756">
        <ele>214.6</ele>
        <time>2022-04-11T11:41:00Z</time>
      </trkpt>
      <trkpt lat="46.48731" lon="5.27569">
        <ele>214.4</ele>
        <time>2022-04-11T11:41:01Z</time>
      </trkpt>
      <trkpt lat="46.48722" lon="5.27578">
        <ele>213.6</ele>
        <time>2022-04-11T11:41:02Z</time>
      </trkpt>
      <trkpt lat="46.48705" lon="5.27593">
        <ele>212.4</ele>
        <time>2022-04-11T11:41:04Z</time>
      </trkpt>
      <trkpt lat="46.48696" lon="5.27598">
        <ele>211.4</ele>
        <time>2022-04-11T11:41:05Z</time>
      </trkpt>
      <trkpt lat="46.48688" lon="5.27602">
        <ele>210.6</ele>
        <time>2022-04-11T11:41:06Z</time>
      </trkpt>
      <trkpt lat="46.48677" lon="5.27607">
        <ele>209.2</ele>
        <time>2022-04-11T11:41:07Z</time>
      </trkpt>
      <trkpt lat="46.48657" lon="5.27615">
        <ele>207.4</ele>
        <time>2022-04-11T11:41:09Z</time>
      </trkpt>
      <trkpt lat="46.48647" lon="5.27618">
        <ele>206.2</ele>
        <time>2022-04-11T11:41:10Z</time>
      </trkpt>
      <trkpt lat="46.48638" lon="5.27622">
        <ele>205.8</ele>
        <time>2022-04-11T11:41:11Z</time>
      </trkpt>
      <trkpt lat="46.48628" lon="5.27625">
        <ele>204.4</ele>
        <time>2022-04-11T11:41:12Z</time>
      </trkpt>
      <trkpt lat="46.48609" lon="5.27632">
        <ele>202.4</ele>
        <time>2022-04-11T11:41:14Z</time>
      </trkpt>
      <trkpt lat="46.4859" lon="5.2764">
        <ele>200.4</ele>
        <time>2022-04-11T11:41:16Z</time>
      </trkpt>
      <trkpt lat="46.4857" lon="5.27648">
        <ele>199.4</ele>
        <time>2022-04-11T11:41:18Z</time>
      </trkpt>
      <trkpt lat="46.4856" lon="5.27651">
        <ele>199.2</ele>
        <time>2022-04-11T11:41:19Z</time>
      </trkpt>
      <trkpt lat="46.48521" lon="5.2766">
        <ele>197.4</ele>
        <time>2022-04-11T11:41:23Z</time>
      </trkpt>
      <trkpt lat="46.48503" lon="5.2766">
        <ele>196</ele>
        <time>2022-04-11T11:41:25Z</time>
      </trkpt>
      <trkpt lat="46.48487" lon="5.27659">
        <ele>194.6</ele>
        <time>2022-04-11T11:41:27Z</time>
      </trkpt>
      <trkpt lat="46.48481" lon="5.27659">
        <ele>194.2</ele>
        <time>2022-04-11T11:41:28Z</time>
      </trkpt>
      <trkpt lat="46.48465" lon="5.27655">
        <ele>194</ele>
        <time>2022-04-11T11:41:30Z</time>
      </trkpt>
      <trkpt lat="46.48452" lon="5.27648">
        <ele>194</ele>
        <time>2022-04-11T11:41:32Z</time>
      </trkpt>
      <trkpt lat="46.48427" lon="5.27618">
        <ele>194.6</ele>
        <time>2022-04-11T11:41:37Z</time>
      </trkpt>
      <trkpt lat="46.48423" lon="5.27613">
        <ele>194.8</ele>
        <time>2022-04-11T11:41:38Z</time>
      </trkpt>
      <trkpt lat="46.48412" lon="5.27605">
        <ele>195.2</ele>
        <time>2022-04-11T11:41:40Z</time>
      </trkpt>
      <trkpt lat="46.48407" lon="5.27602">
        <ele>195.2</ele>
        <time>2022-04-11T11:41:41Z</time>
      </trkpt>
      <trkpt lat="46.48377" lon="5.27591">
        <ele>195.2</ele>
        <time>2022-04-11T11:41:46Z</time>
      </trkpt>
      <trkpt lat="46.48366" lon="5.27585">
        <ele>194.8</ele>
        <time>2022-04-11T11:41:48Z</time>
      </trkpt>
      <trkpt lat="46.48334" lon="5.27557">
        <ele>193.8</ele>
        <time>2022-04-11T11:41:55Z</time>
      </trkpt>
      <trkpt lat="46.48306" lon="5.2752">
        <ele>194.2</ele>
        <time>2022-04-11T11:42:02Z</time>
      </trkpt>
      <trkpt lat="46.48292" lon="5.27481">
        <ele>194.8</ele>
        <time>2022-04-11T11:42:08Z</time>
      </trkpt>
      <trkpt lat="46.48279" lon="5.27429">
        <ele>195.4</ele>
        <time>2022-04-11T11:42:15Z</time>
      </trkpt>
      <trkpt lat="46.48258" lon="5.27378">
        <ele>195.4</ele>
        <time>2022-04-11T11:42:23Z</time>
      </trkpt>
      <trkpt lat="46.48235" lon="5.27343">
        <ele>195.2</ele>
        <time>2022-04-11T11:42:30Z</time>
      </trkpt>
      <trkpt lat="46.48203" lon="5.27304">
        <ele>196.2</ele>
        <time>2022-04-11T11:42:39Z</time>
      </trkpt>
      <trkpt lat="46.48199" lon="5.27299">
        <ele>196.4</ele>
        <time>2022-04-11T11:42:40Z</time>
      </trkpt>
      <trkpt lat="46.48168" lon="5.27258">
        <ele>197.2</ele>
        <time>2022-04-11T11:42:48Z</time>
      </trkpt>
      <trkpt lat="46.48159" lon="5.27246">
        <ele>197.2</ele>
        <time>2022-04-11T11:42:50Z</time>
      </trkpt>
      <trkpt lat="46.48151" lon="5.27234">
        <ele>197.2</ele>
        <time>2022-04-11T11:42:52Z</time>
      </trkpt>
      <trkpt lat="46.48145" lon="5.2722">
        <ele>197.2</ele>
        <time>2022-04-11T11:42:54Z</time>
      </trkpt>
      <trkpt lat="46.48123" lon="5.27168">
        <ele>197.8</ele>
        <time>2022-04-11T11:43:02Z</time>
      </trkpt>
      <trkpt lat="46.48114" lon="5.27152">
        <ele>198</ele>
        <time>2022-04-11T11:43:05Z</time>
      </trkpt>
      <trkpt lat="46.48102" lon="5.27142">
        <ele>198.2</ele>
        <time>2022-04-11T11:43:08Z</time>
      </trkpt>
      <trkpt lat="46.48095" lon="5.27136">
        <ele>198.2</ele>
        <time>2022-04-11T11:43:10Z</time>
      </trkpt>
      <trkpt lat="46.48068" lon="5.27118">
        <ele>198.2</ele>
        <time>2022-04-11T11:43:17Z</time>
      </trkpt>
      <trkpt lat="46.48029" lon="5.27091">
        <ele>198.4</ele>
        <time>2022-04-11T11:43:27Z</time>
      </trkpt>
      <trkpt lat="46.4798" lon="5.27059">
        <ele>198.2</ele>
        <time>2022-04-11T11:43:38Z</time>
      </trkpt>
      <trkpt lat="46.47931" lon="5.27025">
        <ele>198.2</ele>
        <time>2022-04-11T11:43:49Z</time>
      </trkpt>
      <trkpt lat="46.47892" lon="5.26998">
        <ele>199</ele>
        <time>2022-04-11T11:43:58Z</time>
      </trkpt>
      <trkpt lat="46.4784" lon="5.26968">
        <ele>198.8</ele>
        <time>2022-04-11T11:44:09Z</time>
      </trkpt>
      <trkpt lat="46.47798" lon="5.26948">
        <ele>198.8</ele>
        <time>2022-04-11T11:44:18Z</time>
      </trkpt>
      <trkpt lat="46.47777" lon="5.26936">
        <ele>199.4</ele>
        <time>2022-04-11T11:44:22Z</time>
      </trkpt>
      <trkpt lat="46.47755" lon="5.26919">
        <ele>199.8</ele>
        <time>2022-04-11T11:44:27Z</time>
      </trkpt>
      <trkpt lat="46.47717" lon="5.26884">
        <ele>200.6</ele>
        <time>2022-04-11T11:44:36Z</time>
      </trkpt>
      <trkpt lat="46.47709" lon="5.26876">
        <ele>200.6</ele>
        <time>2022-04-11T11:44:38Z</time>
      </trkpt>
      <trkpt lat="46.47679" lon="5.26848">
        <ele>200</ele>
        <time>2022-04-11T11:44:46Z</time>
      </trkpt>
      <trkpt lat="46.47636" lon="5.26811">
        <ele>200.6</ele>
        <time>2022-04-11T11:44:57Z</time>
      </trkpt>
      <trkpt lat="46.47627" lon="5.26806">
        <ele>200.6</ele>
        <time>2022-04-11T11:44:59Z</time>
      </trkpt>
      <trkpt lat="46.47611" lon="5.26796">
        <ele>200.8</ele>
        <time>2022-04-11T11:45:03Z</time>
      </trkpt>
      <trkpt lat="46.47583" lon="5.26789">
        <ele>201</ele>
        <time>2022-04-11T11:45:10Z</time>
      </trkpt>
      <trkpt lat="46.47567" lon="5.26786">
        <ele>201.8</ele>
        <time>2022-04-11T11:45:14Z</time>
      </trkpt>
      <trkpt lat="46.47551" lon="5.26777">
        <ele>202.4</ele>
        <time>2022-04-11T11:45:18Z</time>
      </trkpt>
      <trkpt lat="46.47543" lon="5.26771">
        <ele>202.8</ele>
        <time>2022-04-11T11:45:20Z</time>
      </trkpt>
      <trkpt lat="46.47528" lon="5.26756">
        <ele>203.8</ele>
        <time>2022-04-11T11:45:24Z</time>
      </trkpt>
      <trkpt lat="46.47521" lon="5.26748">
        <ele>204.4</ele>
        <time>2022-04-11T11:45:26Z</time>
      </trkpt>
      <trkpt lat="46.4751" lon="5.26729">
        <ele>205.2</ele>
        <time>2022-04-11T11:45:30Z</time>
      </trkpt>
      <trkpt lat="46.47508" lon="5.26724">
        <ele>205.6</ele>
        <time>2022-04-11T11:45:31Z</time>
      </trkpt>
      <trkpt lat="46.47504" lon="5.26712">
        <ele>206</ele>
        <time>2022-04-11T11:45:33Z</time>
      </trkpt>
      <trkpt lat="46.47502" lon="5.26706">
        <ele>206.2</ele>
        <time>2022-04-11T11:45:34Z</time>
      </trkpt>
      <trkpt lat="46.47493" lon="5.26661">
        <ele>206.6</ele>
        <time>2022-04-11T11:45:41Z</time>
      </trkpt>
      <trkpt lat="46.47483" lon="5.26614">
        <ele>207.2</ele>
        <time>2022-04-11T11:45:48Z</time>
      </trkpt>
      <trkpt lat="46.47479" lon="5.26596">
        <ele>207</ele>
        <time>2022-04-11T11:45:51Z</time>
      </trkpt>
      <trkpt lat="46.47476" lon="5.26586">
        <ele>207.4</ele>
        <time>2022-04-11T11:45:53Z</time>
      </trkpt>
      <trkpt lat="46.47475" lon="5.2658">
        <ele>207.6</ele>
        <time>2022-04-11T11:45:54Z</time>
      </trkpt>
      <trkpt lat="46.47461" lon="5.26551">
        <ele>208.8</ele>
        <time>2022-04-11T11:46:00Z</time>
      </trkpt>
      <trkpt lat="46.4745" lon="5.26537">
        <ele>209.8</ele>
        <time>2022-04-11T11:46:04Z</time>
      </trkpt>
      <trkpt lat="46.47444" lon="5.26531">
        <ele>210.4</ele>
        <time>2022-04-11T11:46:06Z</time>
      </trkpt>
      <trkpt lat="46.47438" lon="5.26526">
        <ele>211.2</ele>
        <time>2022-04-11T11:46:08Z</time>
      </trkpt>
      <trkpt lat="46.47429" lon="5.26519">
        <ele>212.2</ele>
        <time>2022-04-11T11:46:11Z</time>
      </trkpt>
      <trkpt lat="46.47422" lon="5.26514">
        <ele>213</ele>
        <time>2022-04-11T11:46:13Z</time>
      </trkpt>
      <trkpt lat="46.47419" lon="5.26512">
        <ele>213.4</ele>
        <time>2022-04-11T11:46:14Z</time>
      </trkpt>
      <trkpt lat="46.47398" lon="5.26504">
        <ele>214.6</ele>
        <time>2022-04-11T11:46:21Z</time>
      </trkpt>
      <trkpt lat="46.47383" lon="5.26497">
        <ele>215.6</ele>
        <time>2022-04-11T11:46:26Z</time>
      </trkpt>
      <trkpt lat="46.4738" lon="5.26496">
        <ele>215.8</ele>
        <time>2022-04-11T11:46:27Z</time>
      </trkpt>
      <trkpt lat="46.47371" lon="5.26493">
        <ele>216.6</ele>
        <time>2022-04-11T11:46:30Z</time>
      </trkpt>
      <trkpt lat="46.47358" lon="5.26487">
        <ele>217.6</ele>
        <time>2022-04-11T11:46:34Z</time>
      </trkpt>
      <trkpt lat="46.47351" lon="5.26483">
        <ele>218</ele>
        <time>2022-04-11T11:46:36Z</time>
      </trkpt>
      <trkpt lat="46.4734" lon="5.26477">
        <ele>218.6</ele>
        <time>2022-04-11T11:46:39Z</time>
      </trkpt>
      <trkpt lat="46.47314" lon="5.26462">
        <ele>219.6</ele>
        <time>2022-04-11T11:46:46Z</time>
      </trkpt>
      <trkpt lat="46.4731" lon="5.2646">
        <ele>219.6</ele>
        <time>2022-04-11T11:46:47Z</time>
      </trkpt>
      <trkpt lat="46.47277" lon="5.26447">
        <ele>220.6</ele>
        <time>2022-04-11T11:46:56Z</time>
      </trkpt>
      <trkpt lat="46.47273" lon="5.26445">
        <ele>220.8</ele>
        <time>2022-04-11T11:46:57Z</time>
      </trkpt>
      <trkpt lat="46.47241" lon="5.26439">
        <ele>222</ele>
        <time>2022-04-11T11:47:05Z</time>
      </trkpt>
      <trkpt lat="46.47237" lon="5.26439">
        <ele>222</ele>
        <time>2022-04-11T11:47:06Z</time>
      </trkpt>
      <trkpt lat="46.47194" lon="5.26438">
        <ele>222.6</ele>
        <time>2022-04-11T11:47:16Z</time>
      </trkpt>
      <trkpt lat="46.47164" lon="5.26447">
        <ele>222.6</ele>
        <time>2022-04-11T11:47:22Z</time>
      </trkpt>
      <trkpt lat="46.47119" lon="5.26467">
        <ele>222</ele>
        <time>2022-04-11T11:47:31Z</time>
      </trkpt>
      <trkpt lat="46.47073" lon="5.26482">
        <ele>221.4</ele>
        <time>2022-04-11T11:47:40Z</time>
      </trkpt>
      <trkpt lat="46.47027" lon="5.26496">
        <ele>222.2</ele>
        <time>2022-04-11T11:47:49Z</time>
      </trkpt>
      <trkpt lat="46.46981" lon="5.26511">
        <ele>223.2</ele>
        <time>2022-04-11T11:47:58Z</time>
      </trkpt>
      <trkpt lat="46.46957" lon="5.26524">
        <ele>223.2</ele>
        <time>2022-04-11T11:48:03Z</time>
      </trkpt>
      <trkpt lat="46.46942" lon="5.26533">
        <ele>223.2</ele>
        <time>2022-04-11T11:48:06Z</time>
      </trkpt>
      <trkpt lat="46.46932" lon="5.26539">
        <ele>223.4</ele>
        <time>2022-04-11T11:48:08Z</time>
      </trkpt>
      <trkpt lat="46.46911" lon="5.26545">
        <ele>223</ele>
        <time>2022-04-11T11:48:12Z</time>
      </trkpt>
      <trkpt lat="46.46878" lon="5.26549">
        <ele>223.2</ele>
        <time>2022-04-11T11:48:19Z</time>
      </trkpt>
      <trkpt lat="46.46819" lon="5.26552">
        <ele>224</ele>
        <time>2022-04-11T11:48:30Z</time>
      </trkpt>
      <trkpt lat="46.46777" lon="5.26552">
        <ele>222</ele>
        <time>2022-04-11T11:48:37Z</time>
      </trkpt>
      <trkpt lat="46.46771" lon="5.26552">
        <ele>221.8</ele>
        <time>2022-04-11T11:48:38Z</time>
      </trkpt>
      <trkpt lat="46.46736" lon="5.26545">
        <ele>221.8</ele>
        <time>2022-04-11T11:48:44Z</time>
      </trkpt>
      <trkpt lat="46.46684" lon="5.26522">
        <ele>222.6</ele>
        <time>2022-04-11T11:48:53Z</time>
      </trkpt>
      <trkpt lat="46.46678" lon="5.26519">
        <ele>222.6</ele>
        <time>2022-04-11T11:48:54Z</time>
      </trkpt>
      <trkpt lat="46.46627" lon="5.26495">
        <ele>221.2</ele>
        <time>2022-04-11T11:49:03Z</time>
      </trkpt>
      <trkpt lat="46.46617" lon="5.26491">
        <ele>221</ele>
        <time>2022-04-11T11:49:05Z</time>
      </trkpt>
      <trkpt lat="46.46591" lon="5.2648">
        <ele>221.6</ele>
        <time>2022-04-11T11:49:10Z</time>
      </trkpt>
      <trkpt lat="46.4656" lon="5.26463">
        <ele>222.2</ele>
        <time>2022-04-11T11:49:17Z</time>
      </trkpt>
      <trkpt lat="46.46554" lon="5.26459">
        <ele>222.2</ele>
        <time>2022-04-11T11:49:18Z</time>
      </trkpt>
      <trkpt lat="46.46527" lon="5.26437">
        <ele>221.8</ele>
        <time>2022-04-11T11:49:24Z</time>
      </trkpt>
      <trkpt lat="46.46509" lon="5.26416">
        <ele>221.6</ele>
        <time>2022-04-11T11:49:29Z</time>
      </trkpt>
      <trkpt lat="46.4648" lon="5.26383">
        <ele>221.6</ele>
        <time>2022-04-11T11:49:36Z</time>
      </trkpt>
      <trkpt lat="46.46468" lon="5.26372">
        <ele>222</ele>
        <time>2022-04-11T11:49:39Z</time>
      </trkpt>
      <trkpt lat="46.46455" lon="5.26364">
        <ele>222.4</ele>
        <time>2022-04-11T11:49:42Z</time>
      </trkpt>
      <trkpt lat="46.46426" lon="5.2635">
        <ele>223</ele>
        <time>2022-04-11T11:49:49Z</time>
      </trkpt>
      <trkpt lat="46.46385" lon="5.26335">
        <ele>224</ele>
        <time>2022-04-11T11:49:58Z</time>
      </trkpt>
      <trkpt lat="46.46381" lon="5.26333">
        <ele>224.2</ele>
        <time>2022-04-11T11:49:59Z</time>
      </trkpt>
      <trkpt lat="46.46345" lon="5.26323">
        <ele>224.8</ele>
        <time>2022-04-11T11:50:07Z</time>
      </trkpt>
      <trkpt lat="46.46337" lon="5.2632">
        <ele>225.2</ele>
        <time>2022-04-11T11:50:09Z</time>
      </trkpt>
      <trkpt lat="46.46312" lon="5.26304">
        <ele>225</ele>
        <time>2022-04-11T11:50:14Z</time>
      </trkpt>
      <trkpt lat="46.46294" lon="5.2629">
        <ele>224</ele>
        <time>2022-04-11T11:50:18Z</time>
      </trkpt>
      <trkpt lat="46.46274" lon="5.26278">
        <ele>223.2</ele>
        <time>2022-04-11T11:50:22Z</time>
      </trkpt>
      <trkpt lat="46.46225" lon="5.26262">
        <ele>223.4</ele>
        <time>2022-04-11T11:50:31Z</time>
      </trkpt>
      <trkpt lat="46.46206" lon="5.26255">
        <ele>223</ele>
        <time>2022-04-11T11:50:35Z</time>
      </trkpt>
      <trkpt lat="46.46198" lon="5.26251">
        <ele>222.6</ele>
        <time>2022-04-11T11:50:37Z</time>
      </trkpt>
      <trkpt lat="46.46189" lon="5.26243">
        <ele>222.4</ele>
        <time>2022-04-11T11:50:41Z</time>
      </trkpt>
      <trkpt lat="46.46176" lon="5.26244">
        <ele>222.4</ele>
        <time>2022-04-11T11:50:45Z</time>
      </trkpt>
      <trkpt lat="46.46153" lon="5.2623">
        <ele>222</ele>
        <time>2022-04-11T11:50:50Z</time>
      </trkpt>
      <trkpt lat="46.46143" lon="5.26225">
        <ele>221.8</ele>
        <time>2022-04-11T11:50:52Z</time>
      </trkpt>
      <trkpt lat="46.46125" lon="5.26214">
        <ele>221.8</ele>
        <time>2022-04-11T11:50:56Z</time>
      </trkpt>
      <trkpt lat="46.46102" lon="5.26201">
        <ele>223.2</ele>
        <time>2022-04-11T11:51:01Z</time>
      </trkpt>
      <trkpt lat="46.46087" lon="5.26193">
        <ele>223.6</ele>
        <time>2022-04-11T11:51:04Z</time>
      </trkpt>
      <trkpt lat="46.46066" lon="5.26181">
        <ele>224.2</ele>
        <time>2022-04-11T11:51:09Z</time>
      </trkpt>
      <trkpt lat="46.46057" lon="5.26176">
        <ele>224.4</ele>
        <time>2022-04-11T11:51:11Z</time>
      </trkpt>
      <trkpt lat="46.46052" lon="5.26174">
        <ele>224.6</ele>
        <time>2022-04-11T11:51:12Z</time>
      </trkpt>
      <trkpt lat="46.46034" lon="5.26168">
        <ele>224.4</ele>
        <time>2022-04-11T11:51:17Z</time>
      </trkpt>
      <trkpt lat="46.46015" lon="5.26165">
        <ele>224.2</ele>
        <time>2022-04-11T11:51:22Z</time>
      </trkpt>
      <trkpt lat="46.45978" lon="5.26163">
        <ele>225.4</ele>
        <time>2022-04-11T11:51:31Z</time>
      </trkpt>
      <trkpt lat="46.45974" lon="5.26163">
        <ele>225.4</ele>
        <time>2022-04-11T11:51:32Z</time>
      </trkpt>
      <trkpt lat="46.45931" lon="5.26163">
        <ele>225.8</ele>
        <time>2022-04-11T11:51:42Z</time>
      </trkpt>
      <trkpt lat="46.45896" lon="5.26161">
        <ele>226.4</ele>
        <time>2022-04-11T11:51:50Z</time>
      </trkpt>
      <trkpt lat="46.45886" lon="5.26161">
        <ele>226.6</ele>
        <time>2022-04-11T11:51:52Z</time>
      </trkpt>
      <trkpt lat="46.45844" lon="5.26161">
        <ele>227</ele>
        <time>2022-04-11T11:52:00Z</time>
      </trkpt>
      <trkpt lat="46.45796" lon="5.2616">
        <ele>226.4</ele>
        <time>2022-04-11T11:52:09Z</time>
      </trkpt>
      <trkpt lat="46.45784" lon="5.26161">
        <ele>226</ele>
        <time>2022-04-11T11:52:11Z</time>
      </trkpt>
      <trkpt lat="46.45774" lon="5.26164">
        <ele>225.6</ele>
        <time>2022-04-11T11:52:13Z</time>
      </trkpt>
      <trkpt lat="46.45769" lon="5.26167">
        <ele>225.6</ele>
        <time>2022-04-11T11:52:14Z</time>
      </trkpt>
      <trkpt lat="46.45765" lon="5.26171">
        <ele>225.8</ele>
        <time>2022-04-11T11:52:15Z</time>
      </trkpt>
      <trkpt lat="46.45754" lon="5.26188">
        <ele>225.8</ele>
        <time>2022-04-11T11:52:18Z</time>
      </trkpt>
      <trkpt lat="46.45743" lon="5.26228">
        <ele>227.2</ele>
        <time>2022-04-11T11:52:23Z</time>
      </trkpt>
      <trkpt lat="46.4573" lon="5.26278">
        <ele>227</ele>
        <time>2022-04-11T11:52:29Z</time>
      </trkpt>
      <trkpt lat="46.45711" lon="5.2636">
        <ele>226.8</ele>
        <time>2022-04-11T11:52:38Z</time>
      </trkpt>
      <trkpt lat="46.45708" lon="5.26379">
        <ele>226.8</ele>
        <time>2022-04-11T11:52:40Z</time>
      </trkpt>
      <trkpt lat="46.45696" lon="5.26462">
        <ele>225.8</ele>
        <time>2022-04-11T11:52:49Z</time>
      </trkpt>
      <trkpt lat="46.45691" lon="5.26499">
        <ele>225.6</ele>
        <time>2022-04-11T11:52:53Z</time>
      </trkpt>
      <trkpt lat="46.45684" lon="5.26537">
        <ele>225.2</ele>
        <time>2022-04-11T11:52:57Z</time>
      </trkpt>
      <trkpt lat="46.45679" lon="5.26557">
        <ele>224.6</ele>
        <time>2022-04-11T11:52:59Z</time>
      </trkpt>
      <trkpt lat="46.45672" lon="5.26576">
        <ele>224</ele>
        <time>2022-04-11T11:53:01Z</time>
      </trkpt>
      <trkpt lat="46.45668" lon="5.26585">
        <ele>223.8</ele>
        <time>2022-04-11T11:53:02Z</time>
      </trkpt>
      <trkpt lat="46.45663" lon="5.26594">
        <ele>223.2</ele>
        <time>2022-04-11T11:53:03Z</time>
      </trkpt>
      <trkpt lat="46.45648" lon="5.26619">
        <ele>222.4</ele>
        <time>2022-04-11T11:53:06Z</time>
      </trkpt>
      <trkpt lat="46.45641" lon="5.26625">
        <ele>222.2</ele>
        <time>2022-04-11T11:53:07Z</time>
      </trkpt>
      <trkpt lat="46.45634" lon="5.2663">
        <ele>222</ele>
        <time>2022-04-11T11:53:08Z</time>
      </trkpt>
      <trkpt lat="46.45611" lon="5.26639">
        <ele>220.8</ele>
        <time>2022-04-11T11:53:11Z</time>
      </trkpt>
      <trkpt lat="46.4557" lon="5.26649">
        <ele>220.6</ele>
        <time>2022-04-11T11:53:17Z</time>
      </trkpt>
      <trkpt lat="46.45558" lon="5.26649">
        <ele>220.8</ele>
        <time>2022-04-11T11:53:19Z</time>
      </trkpt>
      <trkpt lat="46.4554" lon="5.26644">
        <ele>221.2</ele>
        <time>2022-04-11T11:53:22Z</time>
      </trkpt>
      <trkpt lat="46.45498" lon="5.26626">
        <ele>221.8</ele>
        <time>2022-04-11T11:53:30Z</time>
      </trkpt>
      <trkpt lat="46.45443" lon="5.26599">
        <ele>222.8</ele>
        <time>2022-04-11T11:53:41Z</time>
      </trkpt>
      <trkpt lat="46.45412" lon="5.2658">
        <ele>222.8</ele>
        <time>2022-04-11T11:53:48Z</time>
      </trkpt>
      <trkpt lat="46.45408" lon="5.26578">
        <ele>223</ele>
        <time>2022-04-11T11:53:49Z</time>
      </trkpt>
      <trkpt lat="46.45367" lon="5.26559">
        <ele>223.8</ele>
        <time>2022-04-11T11:53:58Z</time>
      </trkpt>
      <trkpt lat="46.45361" lon="5.26557">
        <ele>224</ele>
        <time>2022-04-11T11:53:59Z</time>
      </trkpt>
      <trkpt lat="46.45324" lon="5.26547">
        <ele>225</ele>
        <time>2022-04-11T11:54:06Z</time>
      </trkpt>
      <trkpt lat="46.45313" lon="5.26545">
        <ele>225</ele>
        <time>2022-04-11T11:54:08Z</time>
      </trkpt>
      <trkpt lat="46.45288" lon="5.26547">
        <ele>224.8</ele>
        <time>2022-04-11T11:54:13Z</time>
      </trkpt>
      <trkpt lat="46.45244" lon="5.26555">
        <ele>224.6</ele>
        <time>2022-04-11T11:54:22Z</time>
      </trkpt>
      <trkpt lat="46.45198" lon="5.26556">
        <ele>225</ele>
        <time>2022-04-11T11:54:31Z</time>
      </trkpt>
      <trkpt lat="46.45158" lon="5.26542">
        <ele>224.2</ele>
        <time>2022-04-11T11:54:39Z</time>
      </trkpt>
      <trkpt lat="46.4512" lon="5.26527">
        <ele>224.4</ele>
        <time>2022-04-11T11:54:48Z</time>
      </trkpt>
      <trkpt lat="46.45073" lon="5.26516">
        <ele>224.6</ele>
        <time>2022-04-11T11:54:58Z</time>
      </trkpt>
      <trkpt lat="46.45019" lon="5.26513">
        <ele>224.2</ele>
        <time>2022-04-11T11:55:08Z</time>
      </trkpt>
      <trkpt lat="46.4497" lon="5.26514">
        <ele>224.4</ele>
        <time>2022-04-11T11:55:16Z</time>
      </trkpt>
      <trkpt lat="46.44935" lon="5.26525">
        <ele>223.4</ele>
        <time>2022-04-11T11:55:22Z</time>
      </trkpt>
      <trkpt lat="46.44887" lon="5.26548">
        <ele>224.2</ele>
        <time>2022-04-11T11:55:30Z</time>
      </trkpt>
      <trkpt lat="46.44862" lon="5.2657">
        <ele>224.8</ele>
        <time>2022-04-11T11:55:35Z</time>
      </trkpt>
      <trkpt lat="46.44854" lon="5.26582">
        <ele>225.2</ele>
        <time>2022-04-11T11:55:37Z</time>
      </trkpt>
      <trkpt lat="46.44848" lon="5.26593">
        <ele>225.4</ele>
        <time>2022-04-11T11:55:39Z</time>
      </trkpt>
      <trkpt lat="46.44845" lon="5.266">
        <ele>225.6</ele>
        <time>2022-04-11T11:55:40Z</time>
      </trkpt>
      <trkpt lat="46.44838" lon="5.26632">
        <ele>226.4</ele>
        <time>2022-04-11T11:55:45Z</time>
      </trkpt>
      <trkpt lat="46.44836" lon="5.2664">
        <ele>226.6</ele>
        <time>2022-04-11T11:55:46Z</time>
      </trkpt>
      <trkpt lat="46.44831" lon="5.2665">
        <ele>227.4</ele>
        <time>2022-04-11T11:55:48Z</time>
      </trkpt>
      <trkpt lat="46.44827" lon="5.26655">
        <ele>227.4</ele>
        <time>2022-04-11T11:55:49Z</time>
      </trkpt>
      <trkpt lat="46.44822" lon="5.26659">
        <ele>227.4</ele>
        <time>2022-04-11T11:55:50Z</time>
      </trkpt>
      <trkpt lat="46.44811" lon="5.26662">
        <ele>227.6</ele>
        <time>2022-04-11T11:55:52Z</time>
      </trkpt>
      <trkpt lat="46.44807" lon="5.26663">
        <ele>227.6</ele>
        <time>2022-04-11T11:55:53Z</time>
      </trkpt>
      <trkpt lat="46.44796" lon="5.26665">
        <ele>227.8</ele>
        <time>2022-04-11T11:55:55Z</time>
      </trkpt>
      <trkpt lat="46.44785" lon="5.2667">
        <ele>227.8</ele>
        <time>2022-04-11T11:55:57Z</time>
      </trkpt>
      <trkpt lat="46.44779" lon="5.26674">
        <ele>227.8</ele>
        <time>2022-04-11T11:55:58Z</time>
      </trkpt>
      <trkpt lat="46.44754" lon="5.26691">
        <ele>227.8</ele>
        <time>2022-04-11T11:56:02Z</time>
      </trkpt>
      <trkpt lat="46.44749" lon="5.26694">
        <ele>227.8</ele>
        <time>2022-04-11T11:56:03Z</time>
      </trkpt>
      <trkpt lat="46.4471" lon="5.26706">
        <ele>225.4</ele>
        <time>2022-04-11T11:56:08Z</time>
      </trkpt>
      <trkpt lat="46.44703" lon="5.26707">
        <ele>224.8</ele>
        <time>2022-04-11T11:56:09Z</time>
      </trkpt>
      <trkpt lat="46.44695" lon="5.26706">
        <ele>223.6</ele>
        <time>2022-04-11T11:56:10Z</time>
      </trkpt>
      <trkpt lat="46.44688" lon="5.26706">
        <ele>222.4</ele>
        <time>2022-04-11T11:56:11Z</time>
      </trkpt>
      <trkpt lat="46.44674" lon="5.26702">
        <ele>221.2</ele>
        <time>2022-04-11T11:56:13Z</time>
      </trkpt>
      <trkpt lat="46.44667" lon="5.26699">
        <ele>220.8</ele>
        <time>2022-04-11T11:56:14Z</time>
      </trkpt>
      <trkpt lat="46.44649" lon="5.26688">
        <ele>220</ele>
        <time>2022-04-11T11:56:17Z</time>
      </trkpt>
      <trkpt lat="46.44637" lon="5.26679">
        <ele>219.8</ele>
        <time>2022-04-11T11:56:19Z</time>
      </trkpt>
      <trkpt lat="46.446" lon="5.26653">
        <ele>221.2</ele>
        <time>2022-04-11T11:56:26Z</time>
      </trkpt>
      <trkpt lat="46.44578" lon="5.26639">
        <ele>222.2</ele>
        <time>2022-04-11T11:56:31Z</time>
      </trkpt>
      <trkpt lat="46.44573" lon="5.26637">
        <ele>222.6</ele>
        <time>2022-04-11T11:56:32Z</time>
      </trkpt>
      <trkpt lat="46.44569" lon="5.26636">
        <ele>222.6</ele>
        <time>2022-04-11T11:56:33Z</time>
      </trkpt>
      <trkpt lat="46.44559" lon="5.26634">
        <ele>223.4</ele>
        <time>2022-04-11T11:56:35Z</time>
      </trkpt>
      <trkpt lat="46.44546" lon="5.26637">
        <ele>224.2</ele>
        <time>2022-04-11T11:56:38Z</time>
      </trkpt>
      <trkpt lat="46.44541" lon="5.26639">
        <ele>224.4</ele>
        <time>2022-04-11T11:56:39Z</time>
      </trkpt>
      <trkpt lat="46.44535" lon="5.26642">
        <ele>224.8</ele>
        <time>2022-04-11T11:56:40Z</time>
      </trkpt>
      <trkpt lat="46.44521" lon="5.2665">
        <ele>225.8</ele>
        <time>2022-04-11T11:56:43Z</time>
      </trkpt>
      <trkpt lat="46.44511" lon="5.26659">
        <ele>226</ele>
        <time>2022-04-11T11:56:45Z</time>
      </trkpt>
      <trkpt lat="46.44496" lon="5.26678">
        <ele>226</ele>
        <time>2022-04-11T11:56:48Z</time>
      </trkpt>
      <trkpt lat="46.44485" lon="5.26694">
        <ele>226</ele>
        <time>2022-04-11T11:56:50Z</time>
      </trkpt>
      <trkpt lat="46.44467" lon="5.26712">
        <ele>225.4</ele>
        <time>2022-04-11T11:56:53Z</time>
      </trkpt>
      <trkpt lat="46.4445" lon="5.26719">
        <ele>224.2</ele>
        <time>2022-04-11T11:56:55Z</time>
      </trkpt>
      <trkpt lat="46.44444" lon="5.26721">
        <ele>224</ele>
        <time>2022-04-11T11:56:56Z</time>
      </trkpt>
      <trkpt lat="46.44436" lon="5.26723">
        <ele>222.8</ele>
        <time>2022-04-11T11:56:57Z</time>
      </trkpt>
      <trkpt lat="46.4442" lon="5.26727">
        <ele>221.4</ele>
        <time>2022-04-11T11:56:59Z</time>
      </trkpt>
      <trkpt lat="46.44398" lon="5.26733">
        <ele>220</ele>
        <time>2022-04-11T11:57:02Z</time>
      </trkpt>
      <trkpt lat="46.44382" lon="5.2674">
        <ele>219.6</ele>
        <time>2022-04-11T11:57:04Z</time>
      </trkpt>
      <trkpt lat="46.4437" lon="5.26752">
        <ele>218.4</ele>
        <time>2022-04-11T11:57:06Z</time>
      </trkpt>
      <trkpt lat="46.44363" lon="5.26763">
        <ele>218</ele>
        <time>2022-04-11T11:57:07Z</time>
      </trkpt>
      <trkpt lat="46.44355" lon="5.26781">
        <ele>217</ele>
        <time>2022-04-11T11:57:09Z</time>
      </trkpt>
      <trkpt lat="46.44345" lon="5.26803">
        <ele>216.6</ele>
        <time>2022-04-11T11:57:11Z</time>
      </trkpt>
      <trkpt lat="46.44331" lon="5.2682">
        <ele>215.8</ele>
        <time>2022-04-11T11:57:13Z</time>
      </trkpt>
      <trkpt lat="46.44325" lon="5.26824">
        <ele>215.2</ele>
        <time>2022-04-11T11:57:14Z</time>
      </trkpt>
      <trkpt lat="46.44308" lon="5.2683">
        <ele>214.4</ele>
        <time>2022-04-11T11:57:16Z</time>
      </trkpt>
      <trkpt lat="46.44276" lon="5.26841">
        <ele>213.8</ele>
        <time>2022-04-11T11:57:20Z</time>
      </trkpt>
      <trkpt lat="46.44259" lon="5.26848">
        <ele>213.2</ele>
        <time>2022-04-11T11:57:22Z</time>
      </trkpt>
      <trkpt lat="46.44236" lon="5.26863">
        <ele>212.4</ele>
        <time>2022-04-11T11:57:25Z</time>
      </trkpt>
      <trkpt lat="46.44218" lon="5.26878">
        <ele>211.8</ele>
        <time>2022-04-11T11:57:27Z</time>
      </trkpt>
      <trkpt lat="46.44193" lon="5.26902">
        <ele>210.8</ele>
        <time>2022-04-11T11:57:30Z</time>
      </trkpt>
      <trkpt lat="46.44186" lon="5.26912">
        <ele>210.4</ele>
        <time>2022-04-11T11:57:31Z</time>
      </trkpt>
      <trkpt lat="46.44178" lon="5.26922">
        <ele>209.8</ele>
        <time>2022-04-11T11:57:32Z</time>
      </trkpt>
      <trkpt lat="46.4417" lon="5.2693">
        <ele>209.4</ele>
        <time>2022-04-11T11:57:33Z</time>
      </trkpt>
      <trkpt lat="46.44161" lon="5.26934">
        <ele>208.2</ele>
        <time>2022-04-11T11:57:34Z</time>
      </trkpt>
      <trkpt lat="46.44144" lon="5.26934">
        <ele>207</ele>
        <time>2022-04-11T11:57:36Z</time>
      </trkpt>
      <trkpt lat="46.44136" lon="5.26929">
        <ele>206.4</ele>
        <time>2022-04-11T11:57:37Z</time>
      </trkpt>
      <trkpt lat="46.44129" lon="5.26923">
        <ele>205.6</ele>
        <time>2022-04-11T11:57:38Z</time>
      </trkpt>
      <trkpt lat="46.44116" lon="5.26911">
        <ele>204.4</ele>
        <time>2022-04-11T11:57:40Z</time>
      </trkpt>
      <trkpt lat="46.44097" lon="5.26893">
        <ele>204</ele>
        <time>2022-04-11T11:57:43Z</time>
      </trkpt>
      <trkpt lat="46.4405" lon="5.26848">
        <ele>205.4</ele>
        <time>2022-04-11T11:57:51Z</time>
      </trkpt>
      <trkpt lat="46.44044" lon="5.26843">
        <ele>205.6</ele>
        <time>2022-04-11T11:57:52Z</time>
      </trkpt>
      <trkpt lat="46.44024" lon="5.26824">
        <ele>206</ele>
        <time>2022-04-11T11:57:56Z</time>
      </trkpt>
      <trkpt lat="46.44001" lon="5.26804">
        <ele>206.6</ele>
        <time>2022-04-11T11:58:01Z</time>
      </trkpt>
      <trkpt lat="46.43996" lon="5.268">
        <ele>206.8</ele>
        <time>2022-04-11T11:58:02Z</time>
      </trkpt>
      <trkpt lat="46.43987" lon="5.26792">
        <ele>207</ele>
        <time>2022-04-11T11:58:04Z</time>
      </trkpt>
      <trkpt lat="46.43976" lon="5.26788">
        <ele>207</ele>
        <time>2022-04-11T11:58:06Z</time>
      </trkpt>
      <trkpt lat="46.43961" lon="5.26786">
        <ele>207</ele>
        <time>2022-04-11T11:58:09Z</time>
      </trkpt>
      <trkpt lat="46.43956" lon="5.26783">
        <ele>207</ele>
        <time>2022-04-11T11:58:10Z</time>
      </trkpt>
      <trkpt lat="46.43952" lon="5.2678">
        <ele>207</ele>
        <time>2022-04-11T11:58:11Z</time>
      </trkpt>
      <trkpt lat="46.43941" lon="5.26766">
        <ele>207.2</ele>
        <time>2022-04-11T11:58:14Z</time>
      </trkpt>
      <trkpt lat="46.43933" lon="5.26761">
        <ele>207.2</ele>
        <time>2022-04-11T11:58:16Z</time>
      </trkpt>
      <trkpt lat="46.43924" lon="5.2676">
        <ele>207.4</ele>
        <time>2022-04-11T11:58:18Z</time>
      </trkpt>
      <trkpt lat="46.43914" lon="5.26765">
        <ele>207.4</ele>
        <time>2022-04-11T11:58:20Z</time>
      </trkpt>
      <trkpt lat="46.43907" lon="5.26774">
        <ele>207.6</ele>
        <time>2022-04-11T11:58:22Z</time>
      </trkpt>
      <trkpt lat="46.43899" lon="5.26792">
        <ele>207.6</ele>
        <time>2022-04-11T11:58:25Z</time>
      </trkpt>
      <trkpt lat="46.43892" lon="5.26802">
        <ele>208</ele>
        <time>2022-04-11T11:58:27Z</time>
      </trkpt>
      <trkpt lat="46.43879" lon="5.26813">
        <ele>208</ele>
        <time>2022-04-11T11:58:30Z</time>
      </trkpt>
      <trkpt lat="46.43872" lon="5.26821">
        <ele>208</ele>
        <time>2022-04-11T11:58:32Z</time>
      </trkpt>
      <trkpt lat="46.43867" lon="5.26832">
        <ele>208.4</ele>
        <time>2022-04-11T11:58:34Z</time>
      </trkpt>
      <trkpt lat="46.43864" lon="5.26844">
        <ele>208.8</ele>
        <time>2022-04-11T11:58:36Z</time>
      </trkpt>
      <trkpt lat="46.43864" lon="5.26851">
        <ele>209.6</ele>
        <time>2022-04-11T11:58:37Z</time>
      </trkpt>
      <trkpt lat="46.43861" lon="5.26891">
        <ele>210.6</ele>
        <time>2022-04-11T11:58:43Z</time>
      </trkpt>
      <trkpt lat="46.43859" lon="5.26905">
        <ele>211</ele>
        <time>2022-04-11T11:58:45Z</time>
      </trkpt>
      <trkpt lat="46.43858" lon="5.26912">
        <ele>211</ele>
        <time>2022-04-11T11:58:46Z</time>
      </trkpt>
      <trkpt lat="46.43854" lon="5.26926">
        <ele>211.2</ele>
        <time>2022-04-11T11:58:48Z</time>
      </trkpt>
      <trkpt lat="46.43848" lon="5.2694">
        <ele>211.2</ele>
        <time>2022-04-11T11:58:50Z</time>
      </trkpt>
      <trkpt lat="46.43845" lon="5.26947">
        <ele>211.2</ele>
        <time>2022-04-11T11:58:51Z</time>
      </trkpt>
      <trkpt lat="46.43841" lon="5.26954">
        <ele>211.2</ele>
        <time>2022-04-11T11:58:52Z</time>
      </trkpt>
      <trkpt lat="46.43822" lon="5.26976">
        <ele>211</ele>
        <time>2022-04-11T11:58:56Z</time>
      </trkpt>
      <trkpt lat="46.4381" lon="5.26984">
        <ele>210.6</ele>
        <time>2022-04-11T11:58:58Z</time>
      </trkpt>
      <trkpt lat="46.4379" lon="5.2699">
        <ele>209.6</ele>
        <time>2022-04-11T11:59:01Z</time>
      </trkpt>
      <trkpt lat="46.43771" lon="5.26989">
        <ele>208.8</ele>
        <time>2022-04-11T11:59:04Z</time>
      </trkpt>
      <trkpt lat="46.4376" lon="5.26986">
        <ele>208.4</ele>
        <time>2022-04-11T11:59:06Z</time>
      </trkpt>
      <trkpt lat="46.43721" lon="5.26971">
        <ele>208</ele>
        <time>2022-04-11T11:59:13Z</time>
      </trkpt>
      <trkpt lat="46.43669" lon="5.26951">
        <ele>209</ele>
        <time>2022-04-11T11:59:23Z</time>
      </trkpt>
      <trkpt lat="46.43664" lon="5.26949">
        <ele>209</ele>
        <time>2022-04-11T11:59:24Z</time>
      </trkpt>
      <trkpt lat="46.43623" lon="5.26934">
        <ele>209.4</ele>
        <time>2022-04-11T11:59:32Z</time>
      </trkpt>
      <trkpt lat="46.4359" lon="5.26922">
        <ele>209.6</ele>
        <time>2022-04-11T11:59:39Z</time>
      </trkpt>
      <trkpt lat="46.43544" lon="5.26911">
        <ele>209.6</ele>
        <time>2022-04-11T11:59:49Z</time>
      </trkpt>
      <trkpt lat="46.43512" lon="5.26904">
        <ele>209.8</ele>
        <time>2022-04-11T11:59:56Z</time>
      </trkpt>
      <trkpt lat="46.43482" lon="5.26898">
        <ele>209.8</ele>
        <time>2022-04-11T12:00:03Z</time>
      </trkpt>
      <trkpt lat="46.43478" lon="5.26897">
        <ele>209.6</ele>
        <time>2022-04-11T12:00:04Z</time>
      </trkpt>
      <trkpt lat="46.43453" lon="5.26893">
        <ele>210</ele>
        <time>2022-04-11T12:00:11Z</time>
      </trkpt>
      <trkpt lat="46.43444" lon="5.26891">
        <ele>210.4</ele>
        <time>2022-04-11T12:00:14Z</time>
      </trkpt>
      <trkpt lat="46.43426" lon="5.26888">
        <ele>211.2</ele>
        <time>2022-04-11T12:00:19Z</time>
      </trkpt>
      <trkpt lat="46.43417" lon="5.26885">
        <ele>211.4</ele>
        <time>2022-04-11T12:00:22Z</time>
      </trkpt>
      <trkpt lat="46.43391" lon="5.26879">
        <ele>212.4</ele>
        <time>2022-04-11T12:00:29Z</time>
      </trkpt>
      <trkpt lat="46.43381" lon="5.26875">
        <ele>212.4</ele>
        <time>2022-04-11T12:00:32Z</time>
      </trkpt>
      <trkpt lat="46.43367" lon="5.26873">
        <ele>212.6</ele>
        <time>2022-04-11T12:00:36Z</time>
      </trkpt>
      <trkpt lat="46.43351" lon="5.26872">
        <ele>213.6</ele>
        <time>2022-04-11T12:00:41Z</time>
      </trkpt>
      <trkpt lat="46.43335" lon="5.26871">
        <ele>213.8</ele>
        <time>2022-04-11T12:00:45Z</time>
      </trkpt>
      <trkpt lat="46.43308" lon="5.2687">
        <ele>213.8</ele>
        <time>2022-04-11T12:00:52Z</time>
      </trkpt>
      <trkpt lat="46.4329" lon="5.2687">
        <ele>213.8</ele>
        <time>2022-04-11T12:00:56Z</time>
      </trkpt>
      <trkpt lat="46.43278" lon="5.26871">
        <ele>213.8</ele>
        <time>2022-04-11T12:00:59Z</time>
      </trkpt>
      <trkpt lat="46.43243" lon="5.26873">
        <ele>213</ele>
        <time>2022-04-11T12:01:07Z</time>
      </trkpt>
      <trkpt lat="46.43192" lon="5.26867">
        <ele>213.8</ele>
        <time>2022-04-11T12:01:19Z</time>
      </trkpt>
      <trkpt lat="46.43164" lon="5.26859">
        <ele>213.6</ele>
        <time>2022-04-11T12:01:27Z</time>
      </trkpt>
      <trkpt lat="46.43154" lon="5.26857">
        <ele>214.8</ele>
        <time>2022-04-11T12:01:30Z</time>
      </trkpt>
      <trkpt lat="46.43141" lon="5.26853">
        <ele>215.8</ele>
        <time>2022-04-11T12:01:34Z</time>
      </trkpt>
      <trkpt lat="46.43135" lon="5.26851">
        <ele>216</ele>
        <time>2022-04-11T12:01:36Z</time>
      </trkpt>
      <trkpt lat="46.4311" lon="5.26846">
        <ele>216.8</ele>
        <time>2022-04-11T12:01:44Z</time>
      </trkpt>
      <trkpt lat="46.43107" lon="5.26845">
        <ele>217</ele>
        <time>2022-04-11T12:01:45Z</time>
      </trkpt>
      <trkpt lat="46.43094" lon="5.26841">
        <ele>218.4</ele>
        <time>2022-04-11T12:01:50Z</time>
      </trkpt>
      <trkpt lat="46.43085" lon="5.26838">
        <ele>219.2</ele>
        <time>2022-04-11T12:01:53Z</time>
      </trkpt>
      <trkpt lat="46.43082" lon="5.26838">
        <ele>219.6</ele>
        <time>2022-04-11T12:01:54Z</time>
      </trkpt>
      <trkpt lat="46.43076" lon="5.26837">
        <ele>220.8</ele>
        <time>2022-04-11T12:01:56Z</time>
      </trkpt>
      <trkpt lat="46.43064" lon="5.26835">
        <ele>222</ele>
        <time>2022-04-11T12:02:00Z</time>
      </trkpt>
      <trkpt lat="46.43061" lon="5.26835">
        <ele>222</ele>
        <time>2022-04-11T12:02:01Z</time>
      </trkpt>
      <trkpt lat="46.43045" lon="5.26835">
        <ele>223</ele>
        <time>2022-04-11T12:02:06Z</time>
      </trkpt>
      <trkpt lat="46.43033" lon="5.26835">
        <ele>224.2</ele>
        <time>2022-04-11T12:02:10Z</time>
      </trkpt>
      <trkpt lat="46.43025" lon="5.26835">
        <ele>224.8</ele>
        <time>2022-04-11T12:02:13Z</time>
      </trkpt>
      <trkpt lat="46.43011" lon="5.26836">
        <ele>225.4</ele>
        <time>2022-04-11T12:02:18Z</time>
      </trkpt>
      <trkpt lat="46.42998" lon="5.26837">
        <ele>226.4</ele>
        <time>2022-04-11T12:02:22Z</time>
      </trkpt>
      <trkpt lat="46.42962" lon="5.26842">
        <ele>227</ele>
        <time>2022-04-11T12:02:34Z</time>
      </trkpt>
      <trkpt lat="46.42923" lon="5.26848">
        <ele>227.4</ele>
        <time>2022-04-11T12:02:46Z</time>
      </trkpt>
      <trkpt lat="46.42916" lon="5.26848">
        <ele>227.4</ele>
        <time>2022-04-11T12:02:48Z</time>
      </trkpt>
      <trkpt lat="46.42885" lon="5.26853">
        <ele>227.2</ele>
        <time>2022-04-11T12:02:56Z</time>
      </trkpt>
      <trkpt lat="46.42856" lon="5.26854">
        <ele>226.4</ele>
        <time>2022-04-11T12:03:03Z</time>
      </trkpt>
      <trkpt lat="46.42848" lon="5.26854">
        <ele>226.4</ele>
        <time>2022-04-11T12:03:05Z</time>
      </trkpt>
      <trkpt lat="46.42806" lon="5.26849">
        <ele>225.4</ele>
        <time>2022-04-11T12:03:14Z</time>
      </trkpt>
      <trkpt lat="46.42802" lon="5.26848">
        <ele>225.2</ele>
        <time>2022-04-11T12:03:15Z</time>
      </trkpt>
      <trkpt lat="46.42788" lon="5.26845">
        <ele>224</ele>
        <time>2022-04-11T12:03:18Z</time>
      </trkpt>
      <trkpt lat="46.42762" lon="5.26839">
        <ele>222.8</ele>
        <time>2022-04-11T12:03:23Z</time>
      </trkpt>
      <trkpt lat="46.42757" lon="5.26837">
        <ele>222.6</ele>
        <time>2022-04-11T12:03:24Z</time>
      </trkpt>
      <trkpt lat="46.42733" lon="5.26832">
        <ele>221.2</ele>
        <time>2022-04-11T12:03:28Z</time>
      </trkpt>
      <trkpt lat="46.42709" lon="5.26826">
        <ele>219.8</ele>
        <time>2022-04-11T12:03:32Z</time>
      </trkpt>
      <trkpt lat="46.42703" lon="5.26824">
        <ele>219.2</ele>
        <time>2022-04-11T12:03:33Z</time>
      </trkpt>
      <trkpt lat="46.42696" lon="5.26823">
        <ele>218.6</ele>
        <time>2022-04-11T12:03:34Z</time>
      </trkpt>
      <trkpt lat="46.42677" lon="5.26818">
        <ele>217.4</ele>
        <time>2022-04-11T12:03:37Z</time>
      </trkpt>
      <trkpt lat="46.42659" lon="5.26814">
        <ele>216.4</ele>
        <time>2022-04-11T12:03:40Z</time>
      </trkpt>
      <trkpt lat="46.42652" lon="5.26812">
        <ele>215.6</ele>
        <time>2022-04-11T12:03:41Z</time>
      </trkpt>
      <trkpt lat="46.42646" lon="5.2681">
        <ele>215.2</ele>
        <time>2022-04-11T12:03:42Z</time>
      </trkpt>
      <trkpt lat="46.42627" lon="5.26806">
        <ele>214</ele>
        <time>2022-04-11T12:03:45Z</time>
      </trkpt>
      <trkpt lat="46.42607" lon="5.26801">
        <ele>212.8</ele>
        <time>2022-04-11T12:03:48Z</time>
      </trkpt>
      <trkpt lat="46.42595" lon="5.26798">
        <ele>211.8</ele>
        <time>2022-04-11T12:03:50Z</time>
      </trkpt>
      <trkpt lat="46.42582" lon="5.26795">
        <ele>210.8</ele>
        <time>2022-04-11T12:03:52Z</time>
      </trkpt>
      <trkpt lat="46.42575" lon="5.26794">
        <ele>210.4</ele>
        <time>2022-04-11T12:03:53Z</time>
      </trkpt>
      <trkpt lat="46.42543" lon="5.26786">
        <ele>209.2</ele>
        <time>2022-04-11T12:03:58Z</time>
      </trkpt>
      <trkpt lat="46.42531" lon="5.26783">
        <ele>209</ele>
        <time>2022-04-11T12:04:00Z</time>
      </trkpt>
      <trkpt lat="46.42498" lon="5.26774">
        <ele>208.8</ele>
        <time>2022-04-11T12:04:07Z</time>
      </trkpt>
      <trkpt lat="46.42462" lon="5.26767">
        <ele>208.4</ele>
        <time>2022-04-11T12:04:15Z</time>
      </trkpt>
      <trkpt lat="46.42428" lon="5.2676">
        <ele>209.4</ele>
        <time>2022-04-11T12:04:23Z</time>
      </trkpt>
      <trkpt lat="46.42407" lon="5.26755">
        <ele>210.4</ele>
        <time>2022-04-11T12:04:28Z</time>
      </trkpt>
      <trkpt lat="46.42386" lon="5.26751">
        <ele>211.2</ele>
        <time>2022-04-11T12:04:33Z</time>
      </trkpt>
      <trkpt lat="46.42369" lon="5.26747">
        <ele>211.4</ele>
        <time>2022-04-11T12:04:37Z</time>
      </trkpt>
      <trkpt lat="46.4234" lon="5.2674">
        <ele>212.2</ele>
        <time>2022-04-11T12:04:44Z</time>
      </trkpt>
      <trkpt lat="46.42336" lon="5.26739">
        <ele>212.4</ele>
        <time>2022-04-11T12:04:45Z</time>
      </trkpt>
      <trkpt lat="46.42313" lon="5.26732">
        <ele>213.6</ele>
        <time>2022-04-11T12:04:51Z</time>
      </trkpt>
      <trkpt lat="46.42308" lon="5.26731">
        <ele>213.6</ele>
        <time>2022-04-11T12:04:52Z</time>
      </trkpt>
      <trkpt lat="46.42277" lon="5.26722">
        <ele>214.6</ele>
        <time>2022-04-11T12:05:00Z</time>
      </trkpt>
      <trkpt lat="46.42273" lon="5.2672">
        <ele>214.6</ele>
        <time>2022-04-11T12:05:01Z</time>
      </trkpt>
      <trkpt lat="46.42244" lon="5.26712">
        <ele>215.4</ele>
        <time>2022-04-11T12:05:09Z</time>
      </trkpt>
      <trkpt lat="46.4224" lon="5.2671">
        <ele>215.8</ele>
        <time>2022-04-11T12:05:10Z</time>
      </trkpt>
      <trkpt lat="46.42223" lon="5.26704">
        <ele>216.8</ele>
        <time>2022-04-11T12:05:15Z</time>
      </trkpt>
      <trkpt lat="46.42221" lon="5.26703">
        <ele>217</ele>
        <time>2022-04-11T12:05:16Z</time>
      </trkpt>
      <trkpt lat="46.42186" lon="5.2669">
        <ele>217.6</ele>
        <time>2022-04-11T12:05:26Z</time>
      </trkpt>
      <trkpt lat="46.42146" lon="5.26676">
        <ele>217.4</ele>
        <time>2022-04-11T12:05:35Z</time>
      </trkpt>
      <trkpt lat="46.42099" lon="5.2666">
        <ele>216</ele>
        <time>2022-04-11T12:05:44Z</time>
      </trkpt>
      <trkpt lat="46.42063" lon="5.26646">
        <ele>214.8</ele>
        <time>2022-04-11T12:05:51Z</time>
      </trkpt>
      <trkpt lat="46.42049" lon="5.2664">
        <ele>214.4</ele>
        <time>2022-04-11T12:05:54Z</time>
      </trkpt>
      <trkpt lat="46.42012" lon="5.26625">
        <ele>213.6</ele>
        <time>2022-04-11T12:06:02Z</time>
      </trkpt>
      <trkpt lat="46.42008" lon="5.26623">
        <ele>213.6</ele>
        <time>2022-04-11T12:06:03Z</time>
      </trkpt>
      <trkpt lat="46.4198" lon="5.26614">
        <ele>213.8</ele>
        <time>2022-04-11T12:06:10Z</time>
      </trkpt>
      <trkpt lat="46.41972" lon="5.2661">
        <ele>215</ele>
        <time>2022-04-11T12:06:12Z</time>
      </trkpt>
      <trkpt lat="46.41959" lon="5.26606">
        <ele>216</ele>
        <time>2022-04-11T12:06:15Z</time>
      </trkpt>
      <trkpt lat="46.41933" lon="5.26596">
        <ele>216.4</ele>
        <time>2022-04-11T12:06:21Z</time>
      </trkpt>
      <trkpt lat="46.41896" lon="5.2658">
        <ele>216.2</ele>
        <time>2022-04-11T12:06:30Z</time>
      </trkpt>
      <trkpt lat="46.41855" lon="5.26563">
        <ele>215.8</ele>
        <time>2022-04-11T12:06:39Z</time>
      </trkpt>
      <trkpt lat="46.41814" lon="5.26545">
        <ele>215.4</ele>
        <time>2022-04-11T12:06:47Z</time>
      </trkpt>
      <trkpt lat="46.418" lon="5.2654">
        <ele>214.8</ele>
        <time>2022-04-11T12:06:50Z</time>
      </trkpt>
      <trkpt lat="46.41772" lon="5.26529">
        <ele>213.8</ele>
        <time>2022-04-11T12:06:56Z</time>
      </trkpt>
      <trkpt lat="46.41735" lon="5.26514">
        <ele>213</ele>
        <time>2022-04-11T12:07:05Z</time>
      </trkpt>
      <trkpt lat="46.41728" lon="5.26511">
        <ele>212.8</ele>
        <time>2022-04-11T12:07:07Z</time>
      </trkpt>
      <trkpt lat="46.417" lon="5.26504">
        <ele>213</ele>
        <time>2022-04-11T12:07:14Z</time>
      </trkpt>
      <trkpt lat="46.41662" lon="5.26501">
        <ele>213.6</ele>
        <time>2022-04-11T12:07:23Z</time>
      </trkpt>
      <trkpt lat="46.41654" lon="5.26502">
        <ele>213.8</ele>
        <time>2022-04-11T12:07:25Z</time>
      </trkpt>
      <trkpt lat="46.41617" lon="5.2651">
        <ele>214.4</ele>
        <time>2022-04-11T12:07:33Z</time>
      </trkpt>
      <trkpt lat="46.41592" lon="5.26521">
        <ele>214.8</ele>
        <time>2022-04-11T12:07:38Z</time>
      </trkpt>
      <trkpt lat="46.41583" lon="5.26527">
        <ele>214.8</ele>
        <time>2022-04-11T12:07:40Z</time>
      </trkpt>
      <trkpt lat="46.41573" lon="5.26533">
        <ele>215.2</ele>
        <time>2022-04-11T12:07:42Z</time>
      </trkpt>
      <trkpt lat="46.41546" lon="5.26555">
        <ele>215.2</ele>
        <time>2022-04-11T12:07:48Z</time>
      </trkpt>
      <trkpt lat="46.41514" lon="5.26586">
        <ele>215.2</ele>
        <time>2022-04-11T12:07:55Z</time>
      </trkpt>
      <trkpt lat="46.41476" lon="5.26626">
        <ele>215.4</ele>
        <time>2022-04-11T12:08:04Z</time>
      </trkpt>
      <trkpt lat="46.41446" lon="5.26657">
        <ele>216</ele>
        <time>2022-04-11T12:08:12Z</time>
      </trkpt>
      <trkpt lat="46.41414" lon="5.2669">
        <ele>216.2</ele>
        <time>2022-04-11T12:08:21Z</time>
      </trkpt>
      <trkpt lat="46.41393" lon="5.26708">
        <ele>217</ele>
        <time>2022-04-11T12:08:27Z</time>
      </trkpt>
      <trkpt lat="46.41383" lon="5.26719">
        <ele>217.8</ele>
        <time>2022-04-11T12:08:30Z</time>
      </trkpt>
      <trkpt lat="46.41376" lon="5.26727">
        <ele>218.4</ele>
        <time>2022-04-11T12:08:32Z</time>
      </trkpt>
      <trkpt lat="46.41361" lon="5.26745">
        <ele>219.4</ele>
        <time>2022-04-11T12:08:37Z</time>
      </trkpt>
      <trkpt lat="46.41358" lon="5.26748">
        <ele>219.6</ele>
        <time>2022-04-11T12:08:38Z</time>
      </trkpt>
      <trkpt lat="46.41351" lon="5.26754">
        <ele>220.2</ele>
        <time>2022-04-11T12:08:40Z</time>
      </trkpt>
      <trkpt lat="46.41341" lon="5.26765">
        <ele>220.6</ele>
        <time>2022-04-11T12:08:43Z</time>
      </trkpt>
      <trkpt lat="46.41335" lon="5.26772">
        <ele>221</ele>
        <time>2022-04-11T12:08:45Z</time>
      </trkpt>
      <trkpt lat="46.41322" lon="5.26784">
        <ele>221.8</ele>
        <time>2022-04-11T12:08:49Z</time>
      </trkpt>
      <trkpt lat="46.41309" lon="5.26795">
        <ele>223.2</ele>
        <time>2022-04-11T12:08:53Z</time>
      </trkpt>
      <trkpt lat="46.41296" lon="5.26805">
        <ele>224.2</ele>
        <time>2022-04-11T12:08:57Z</time>
      </trkpt>
      <trkpt lat="46.41284" lon="5.2681">
        <ele>225</ele>
        <time>2022-04-11T12:09:01Z</time>
      </trkpt>
      <trkpt lat="46.41274" lon="5.26813">
        <ele>225.4</ele>
        <time>2022-04-11T12:09:04Z</time>
      </trkpt>
      <trkpt lat="46.41262" lon="5.26816">
        <ele>226.4</ele>
        <time>2022-04-11T12:09:08Z</time>
      </trkpt>
      <trkpt lat="46.41236" lon="5.26826">
        <ele>228</ele>
        <time>2022-04-11T12:09:16Z</time>
      </trkpt>
      <trkpt lat="46.41233" lon="5.26828">
        <ele>228.8</ele>
        <time>2022-04-11T12:09:17Z</time>
      </trkpt>
      <trkpt lat="46.41227" lon="5.26833">
        <ele>229.6</ele>
        <time>2022-04-11T12:09:19Z</time>
      </trkpt>
      <trkpt lat="46.4121" lon="5.26846">
        <ele>230.8</ele>
        <time>2022-04-11T12:09:24Z</time>
      </trkpt>
      <trkpt lat="46.41207" lon="5.26848">
        <ele>230.8</ele>
        <time>2022-04-11T12:09:25Z</time>
      </trkpt>
      <trkpt lat="46.4119" lon="5.2685">
        <ele>230.8</ele>
        <time>2022-04-11T12:09:29Z</time>
      </trkpt>
      <trkpt lat="46.41181" lon="5.26855">
        <ele>230.8</ele>
        <time>2022-04-11T12:09:31Z</time>
      </trkpt>
      <trkpt lat="46.41175" lon="5.26864">
        <ele>230.8</ele>
        <time>2022-04-11T12:09:33Z</time>
      </trkpt>
      <trkpt lat="46.41166" lon="5.26878">
        <ele>231</ele>
        <time>2022-04-11T12:09:36Z</time>
      </trkpt>
      <trkpt lat="46.41158" lon="5.26885">
        <ele>231</ele>
        <time>2022-04-11T12:09:38Z</time>
      </trkpt>
      <trkpt lat="46.41154" lon="5.26887">
        <ele>231</ele>
        <time>2022-04-11T12:09:39Z</time>
      </trkpt>
      <trkpt lat="46.41109" lon="5.26902">
        <ele>231.6</ele>
        <time>2022-04-11T12:09:49Z</time>
      </trkpt>
      <trkpt lat="46.41063" lon="5.26904">
        <ele>230.6</ele>
        <time>2022-04-11T12:09:58Z</time>
      </trkpt>
      <trkpt lat="46.41015" lon="5.26905">
        <ele>230.4</ele>
        <time>2022-04-11T12:10:06Z</time>
      </trkpt>
      <trkpt lat="46.40979" lon="5.26909">
        <ele>229.6</ele>
        <time>2022-04-11T12:10:12Z</time>
      </trkpt>
      <trkpt lat="46.40972" lon="5.2691">
        <ele>229.4</ele>
        <time>2022-04-11T12:10:13Z</time>
      </trkpt>
      <trkpt lat="46.40954" lon="5.26914">
        <ele>228.4</ele>
        <time>2022-04-11T12:10:16Z</time>
      </trkpt>
      <trkpt lat="46.40917" lon="5.26923">
        <ele>227.6</ele>
        <time>2022-04-11T12:10:22Z</time>
      </trkpt>
      <trkpt lat="46.40862" lon="5.26948">
        <ele>227.6</ele>
        <time>2022-04-11T12:10:31Z</time>
      </trkpt>
      <trkpt lat="46.4085" lon="5.26954">
        <ele>227.4</ele>
        <time>2022-04-11T12:10:33Z</time>
      </trkpt>
      <trkpt lat="46.40825" lon="5.26967">
        <ele>226</ele>
        <time>2022-04-11T12:10:37Z</time>
      </trkpt>
      <trkpt lat="46.40794" lon="5.26981">
        <ele>225.6</ele>
        <time>2022-04-11T12:10:42Z</time>
      </trkpt>
      <trkpt lat="46.40762" lon="5.26981">
        <ele>225.2</ele>
        <time>2022-04-11T12:10:47Z</time>
      </trkpt>
      <trkpt lat="46.40729" lon="5.26974">
        <ele>225.4</ele>
        <time>2022-04-11T12:10:53Z</time>
      </trkpt>
      <trkpt lat="46.40693" lon="5.26965">
        <ele>225.6</ele>
        <time>2022-04-11T12:11:00Z</time>
      </trkpt>
      <trkpt lat="46.40653" lon="5.26952">
        <ele>226.4</ele>
        <time>2022-04-11T12:11:08Z</time>
      </trkpt>
      <trkpt lat="46.40619" lon="5.26935">
        <ele>226.4</ele>
        <time>2022-04-11T12:11:15Z</time>
      </trkpt>
      <trkpt lat="46.40586" lon="5.26918">
        <ele>226</ele>
        <time>2022-04-11T12:11:22Z</time>
      </trkpt>
      <trkpt lat="46.40539" lon="5.26895">
        <ele>225.8</ele>
        <time>2022-04-11T12:11:32Z</time>
      </trkpt>
      <trkpt lat="46.40514" lon="5.26889">
        <ele>225.2</ele>
        <time>2022-04-11T12:11:37Z</time>
      </trkpt>
      <trkpt lat="46.40496" lon="5.26886">
        <ele>224.8</ele>
        <time>2022-04-11T12:11:41Z</time>
      </trkpt>
      <trkpt lat="46.40464" lon="5.26883">
        <ele>224.2</ele>
        <time>2022-04-11T12:11:49Z</time>
      </trkpt>
      <trkpt lat="46.40426" lon="5.26877">
        <ele>225.4</ele>
        <time>2022-04-11T12:11:58Z</time>
      </trkpt>
      <trkpt lat="46.40417" lon="5.26876">
        <ele>226.2</ele>
        <time>2022-04-11T12:12:00Z</time>
      </trkpt>
      <trkpt lat="46.40403" lon="5.26875">
        <ele>227.6</ele>
        <time>2022-04-11T12:12:03Z</time>
      </trkpt>
      <trkpt lat="46.40384" lon="5.26876">
        <ele>228</ele>
        <time>2022-04-11T12:12:07Z</time>
      </trkpt>
      <trkpt lat="46.40339" lon="5.26886">
        <ele>227.2</ele>
        <time>2022-04-11T12:12:16Z</time>
      </trkpt>
      <trkpt lat="46.4033" lon="5.26888">
        <ele>227.2</ele>
        <time>2022-04-11T12:12:18Z</time>
      </trkpt>
      <trkpt lat="46.40301" lon="5.26888">
        <ele>227</ele>
        <time>2022-04-11T12:12:24Z</time>
      </trkpt>
      <trkpt lat="46.40273" lon="5.26889">
        <ele>227</ele>
        <time>2022-04-11T12:12:30Z</time>
      </trkpt>
      <trkpt lat="46.40224" lon="5.26892">
        <ele>226.4</ele>
        <time>2022-04-11T12:12:42Z</time>
      </trkpt>
      <trkpt lat="46.40183" lon="5.26896">
        <ele>226.4</ele>
        <time>2022-04-11T12:12:53Z</time>
      </trkpt>
      <trkpt lat="46.4015" lon="5.26898">
        <ele>227.2</ele>
        <time>2022-04-11T12:13:02Z</time>
      </trkpt>
      <trkpt lat="46.4014" lon="5.26898">
        <ele>227.4</ele>
        <time>2022-04-11T12:13:05Z</time>
      </trkpt>
      <trkpt lat="46.40123" lon="5.26899">
        <ele>227.8</ele>
        <time>2022-04-11T12:13:10Z</time>
      </trkpt>
      <trkpt lat="46.40098" lon="5.26898">
        <ele>228.6</ele>
        <time>2022-04-11T12:13:17Z</time>
      </trkpt>
      <trkpt lat="46.40088" lon="5.26896">
        <ele>229</ele>
        <time>2022-04-11T12:13:20Z</time>
      </trkpt>
      <trkpt lat="46.40075" lon="5.26891">
        <ele>229.6</ele>
        <time>2022-04-11T12:13:24Z</time>
      </trkpt>
      <trkpt lat="46.40058" lon="5.26885">
        <ele>230</ele>
        <time>2022-04-11T12:13:29Z</time>
      </trkpt>
      <trkpt lat="46.40028" lon="5.26873">
        <ele>230.6</ele>
        <time>2022-04-11T12:13:38Z</time>
      </trkpt>
      <trkpt lat="46.40024" lon="5.26872">
        <ele>230.6</ele>
        <time>2022-04-11T12:13:39Z</time>
      </trkpt>
      <trkpt lat="46.39998" lon="5.2686">
        <ele>230.8</ele>
        <time>2022-04-11T12:13:46Z</time>
      </trkpt>
      <trkpt lat="46.39971" lon="5.26847">
        <ele>229.6</ele>
        <time>2022-04-11T12:13:54Z</time>
      </trkpt>
      <trkpt lat="46.39944" lon="5.26835">
        <ele>229.2</ele>
        <time>2022-04-11T12:14:00Z</time>
      </trkpt>
      <trkpt lat="46.39934" lon="5.26831">
        <ele>229</ele>
        <time>2022-04-11T12:14:02Z</time>
      </trkpt>
      <trkpt lat="46.39924" lon="5.26826">
        <ele>228.4</ele>
        <time>2022-04-11T12:14:04Z</time>
      </trkpt>
      <trkpt lat="46.39909" lon="5.26819">
        <ele>227.4</ele>
        <time>2022-04-11T12:14:07Z</time>
      </trkpt>
      <trkpt lat="46.3987" lon="5.26806">
        <ele>226.4</ele>
        <time>2022-04-11T12:14:14Z</time>
      </trkpt>
      <trkpt lat="46.39864" lon="5.26807">
        <ele>226</ele>
        <time>2022-04-11T12:14:15Z</time>
      </trkpt>
      <trkpt lat="46.39852" lon="5.26807">
        <ele>224.8</ele>
        <time>2022-04-11T12:14:17Z</time>
      </trkpt>
      <trkpt lat="46.39828" lon="5.26809">
        <ele>223.6</ele>
        <time>2022-04-11T12:14:21Z</time>
      </trkpt>
      <trkpt lat="46.39823" lon="5.2681">
        <ele>223.4</ele>
        <time>2022-04-11T12:14:22Z</time>
      </trkpt>
      <trkpt lat="46.3978" lon="5.26818">
        <ele>223.8</ele>
        <time>2022-04-11T12:14:30Z</time>
      </trkpt>
      <trkpt lat="46.3975" lon="5.26829">
        <ele>224.6</ele>
        <time>2022-04-11T12:14:36Z</time>
      </trkpt>
      <trkpt lat="46.39745" lon="5.26831">
        <ele>224.8</ele>
        <time>2022-04-11T12:14:37Z</time>
      </trkpt>
      <trkpt lat="46.39707" lon="5.26839">
        <ele>225.2</ele>
        <time>2022-04-11T12:14:45Z</time>
      </trkpt>
      <trkpt lat="46.39677" lon="5.26839">
        <ele>225.6</ele>
        <time>2022-04-11T12:14:52Z</time>
      </trkpt>
      <trkpt lat="46.39673" lon="5.26838">
        <ele>225.8</ele>
        <time>2022-04-11T12:14:53Z</time>
      </trkpt>
      <trkpt lat="46.39655" lon="5.26834">
        <ele>226.8</ele>
        <time>2022-04-11T12:14:58Z</time>
      </trkpt>
      <trkpt lat="46.39641" lon="5.26831">
        <ele>227.8</ele>
        <time>2022-04-11T12:15:02Z</time>
      </trkpt>
      <trkpt lat="46.39626" lon="5.26828">
        <ele>228.4</ele>
        <time>2022-04-11T12:15:06Z</time>
      </trkpt>
      <trkpt lat="46.39604" lon="5.26832">
        <ele>228.8</ele>
        <time>2022-04-11T12:15:12Z</time>
      </trkpt>
      <trkpt lat="46.396" lon="5.26834">
        <ele>229</ele>
        <time>2022-04-11T12:15:13Z</time>
      </trkpt>
      <trkpt lat="46.39587" lon="5.26852">
        <ele>229.4</ele>
        <time>2022-04-11T12:15:18Z</time>
      </trkpt>
      <trkpt lat="46.39583" lon="5.26867">
        <ele>230</ele>
        <time>2022-04-11T12:15:21Z</time>
      </trkpt>
      <trkpt lat="46.39575" lon="5.26884">
        <ele>230.6</ele>
        <time>2022-04-11T12:15:25Z</time>
      </trkpt>
      <trkpt lat="46.39563" lon="5.26897">
        <ele>231</ele>
        <time>2022-04-11T12:15:29Z</time>
      </trkpt>
      <trkpt lat="46.39556" lon="5.26903">
        <ele>231.2</ele>
        <time>2022-04-11T12:15:31Z</time>
      </trkpt>
      <trkpt lat="46.39525" lon="5.26919">
        <ele>231.2</ele>
        <time>2022-04-11T12:15:39Z</time>
      </trkpt>
      <trkpt lat="46.39512" lon="5.26925">
        <ele>230.8</ele>
        <time>2022-04-11T12:15:42Z</time>
      </trkpt>
      <trkpt lat="46.39499" lon="5.26934">
        <ele>230.6</ele>
        <time>2022-04-11T12:15:45Z</time>
      </trkpt>
      <trkpt lat="46.39483" lon="5.26963">
        <ele>231.4</ele>
        <time>2022-04-11T12:15:50Z</time>
      </trkpt>
      <trkpt lat="46.39466" lon="5.26999">
        <ele>231.8</ele>
        <time>2022-04-11T12:15:55Z</time>
      </trkpt>
      <trkpt lat="46.39445" lon="5.27063">
        <ele>230.2</ele>
        <time>2022-04-11T12:16:02Z</time>
      </trkpt>
      <trkpt lat="46.39437" lon="5.27089">
        <ele>230</ele>
        <time>2022-04-11T12:16:05Z</time>
      </trkpt>
      <trkpt lat="46.39429" lon="5.27104">
        <ele>230</ele>
        <time>2022-04-11T12:16:07Z</time>
      </trkpt>
      <trkpt lat="46.39419" lon="5.27115">
        <ele>229.8</ele>
        <time>2022-04-11T12:16:09Z</time>
      </trkpt>
      <trkpt lat="46.39408" lon="5.27123">
        <ele>229.8</ele>
        <time>2022-04-11T12:16:11Z</time>
      </trkpt>
      <trkpt lat="46.39377" lon="5.27141">
        <ele>229.6</ele>
        <time>2022-04-11T12:16:17Z</time>
      </trkpt>
      <trkpt lat="46.39342" lon="5.27167">
        <ele>230.6</ele>
        <time>2022-04-11T12:16:24Z</time>
      </trkpt>
      <trkpt lat="46.39337" lon="5.2717">
        <ele>230.6</ele>
        <time>2022-04-11T12:16:25Z</time>
      </trkpt>
      <trkpt lat="46.39307" lon="5.27184">
        <ele>230.6</ele>
        <time>2022-04-11T12:16:31Z</time>
      </trkpt>
      <trkpt lat="46.39261" lon="5.27208">
        <ele>230.8</ele>
        <time>2022-04-11T12:16:40Z</time>
      </trkpt>
      <trkpt lat="46.39254" lon="5.27212">
        <ele>231.2</ele>
        <time>2022-04-11T12:16:41Z</time>
      </trkpt>
      <trkpt lat="46.39244" lon="5.27219">
        <ele>231.8</ele>
        <time>2022-04-11T12:16:43Z</time>
      </trkpt>
      <trkpt lat="46.39236" lon="5.27228">
        <ele>232.2</ele>
        <time>2022-04-11T12:16:45Z</time>
      </trkpt>
      <trkpt lat="46.39228" lon="5.27239">
        <ele>232.4</ele>
        <time>2022-04-11T12:16:47Z</time>
      </trkpt>
      <trkpt lat="46.39219" lon="5.27259">
        <ele>232.6</ele>
        <time>2022-04-11T12:16:50Z</time>
      </trkpt>
      <trkpt lat="46.39206" lon="5.27301">
        <ele>233.4</ele>
        <time>2022-04-11T12:16:56Z</time>
      </trkpt>
      <trkpt lat="46.39202" lon="5.27315">
        <ele>233.8</ele>
        <time>2022-04-11T12:16:58Z</time>
      </trkpt>
      <trkpt lat="46.39185" lon="5.27371">
        <ele>234.4</ele>
        <time>2022-04-11T12:17:06Z</time>
      </trkpt>
      <trkpt lat="46.39183" lon="5.27376">
        <ele>234.2</ele>
        <time>2022-04-11T12:17:08Z</time>
      </trkpt>
      <trkpt lat="46.39175" lon="5.2739">
        <ele>234.2</ele>
        <time>2022-04-11T12:17:10Z</time>
      </trkpt>
      <trkpt lat="46.39156" lon="5.27411">
        <ele>234</ele>
        <time>2022-04-11T12:17:14Z</time>
      </trkpt>
      <trkpt lat="46.39126" lon="5.27432">
        <ele>233.8</ele>
        <time>2022-04-11T12:17:20Z</time>
      </trkpt>
      <trkpt lat="46.39092" lon="5.27457">
        <ele>233.6</ele>
        <time>2022-04-11T12:17:27Z</time>
      </trkpt>
      <trkpt lat="46.39087" lon="5.2746">
        <ele>233.6</ele>
        <time>2022-04-11T12:17:28Z</time>
      </trkpt>
      <trkpt lat="46.39072" lon="5.27472">
        <ele>233.8</ele>
        <time>2022-04-11T12:17:31Z</time>
      </trkpt>
      <trkpt lat="46.39049" lon="5.27486">
        <ele>233.4</ele>
        <time>2022-04-11T12:17:35Z</time>
      </trkpt>
      <trkpt lat="46.39039" lon="5.27493">
        <ele>233.2</ele>
        <time>2022-04-11T12:17:37Z</time>
      </trkpt>
      <trkpt lat="46.39028" lon="5.27502">
        <ele>233.2</ele>
        <time>2022-04-11T12:17:39Z</time>
      </trkpt>
      <trkpt lat="46.3901" lon="5.27519">
        <ele>233.2</ele>
        <time>2022-04-11T12:17:43Z</time>
      </trkpt>
      <trkpt lat="46.39005" lon="5.27523">
        <ele>233.2</ele>
        <time>2022-04-11T12:17:44Z</time>
      </trkpt>
      <trkpt lat="46.38971" lon="5.27547">
        <ele>234.4</ele>
        <time>2022-04-11T12:17:51Z</time>
      </trkpt>
      <trkpt lat="46.38956" lon="5.27554">
        <ele>235</ele>
        <time>2022-04-11T12:17:54Z</time>
      </trkpt>
      <trkpt lat="46.38937" lon="5.27562">
        <ele>235.4</ele>
        <time>2022-04-11T12:17:58Z</time>
      </trkpt>
      <trkpt lat="46.38926" lon="5.27566">
        <ele>235.6</ele>
        <time>2022-04-11T12:18:00Z</time>
      </trkpt>
      <trkpt lat="46.38908" lon="5.27571">
        <ele>235.6</ele>
        <time>2022-04-11T12:18:03Z</time>
      </trkpt>
      <trkpt lat="46.38896" lon="5.27569">
        <ele>235.6</ele>
        <time>2022-04-11T12:18:05Z</time>
      </trkpt>
      <trkpt lat="46.38891" lon="5.27566">
        <ele>235.6</ele>
        <time>2022-04-11T12:18:06Z</time>
      </trkpt>
      <trkpt lat="46.38881" lon="5.27558">
        <ele>235.4</ele>
        <time>2022-04-11T12:18:08Z</time>
      </trkpt>
      <trkpt lat="46.38871" lon="5.27551">
        <ele>235.2</ele>
        <time>2022-04-11T12:18:10Z</time>
      </trkpt>
      <trkpt lat="46.38846" lon="5.27535">
        <ele>235</ele>
        <time>2022-04-11T12:18:15Z</time>
      </trkpt>
      <trkpt lat="46.38841" lon="5.27532">
        <ele>235</ele>
        <time>2022-04-11T12:18:16Z</time>
      </trkpt>
      <trkpt lat="46.38795" lon="5.27509">
        <ele>235</ele>
        <time>2022-04-11T12:18:25Z</time>
      </trkpt>
      <trkpt lat="46.38779" lon="5.27503">
        <ele>235.4</ele>
        <time>2022-04-11T12:18:28Z</time>
      </trkpt>
      <trkpt lat="46.38769" lon="5.27498">
        <ele>235.8</ele>
        <time>2022-04-11T12:18:30Z</time>
      </trkpt>
      <trkpt lat="46.38764" lon="5.27495">
        <ele>235.8</ele>
        <time>2022-04-11T12:18:31Z</time>
      </trkpt>
      <trkpt lat="46.38743" lon="5.27483">
        <ele>236.2</ele>
        <time>2022-04-11T12:18:35Z</time>
      </trkpt>
      <trkpt lat="46.38734" lon="5.27476">
        <ele>236.4</ele>
        <time>2022-04-11T12:18:37Z</time>
      </trkpt>
      <trkpt lat="46.3873" lon="5.27473">
        <ele>236.4</ele>
        <time>2022-04-11T12:18:38Z</time>
      </trkpt>
      <trkpt lat="46.38696" lon="5.27446">
        <ele>236.6</ele>
        <time>2022-04-11T12:18:45Z</time>
      </trkpt>
      <trkpt lat="46.38692" lon="5.27442">
        <ele>236.6</ele>
        <time>2022-04-11T12:18:46Z</time>
      </trkpt>
      <trkpt lat="46.38656" lon="5.2741">
        <ele>237.2</ele>
        <time>2022-04-11T12:18:54Z</time>
      </trkpt>
      <trkpt lat="46.38652" lon="5.27407">
        <ele>237.2</ele>
        <time>2022-04-11T12:18:55Z</time>
      </trkpt>
      <trkpt lat="46.38643" lon="5.27404">
        <ele>237.2</ele>
        <time>2022-04-11T12:18:57Z</time>
      </trkpt>
      <trkpt lat="46.38638" lon="5.27404">
        <ele>237.2</ele>
        <time>2022-04-11T12:18:58Z</time>
      </trkpt>
      <trkpt lat="46.38633" lon="5.27406">
        <ele>237.2</ele>
        <time>2022-04-11T12:18:59Z</time>
      </trkpt>
      <trkpt lat="46.38625" lon="5.27414">
        <ele>237.2</ele>
        <time>2022-04-11T12:19:01Z</time>
      </trkpt>
      <trkpt lat="46.38604" lon="5.27447">
        <ele>236.2</ele>
        <time>2022-04-11T12:19:07Z</time>
      </trkpt>
      <trkpt lat="46.38591" lon="5.27464">
        <ele>235.6</ele>
        <time>2022-04-11T12:19:10Z</time>
      </trkpt>
      <trkpt lat="46.3858" lon="5.27473">
        <ele>235</ele>
        <time>2022-04-11T12:19:12Z</time>
      </trkpt>
      <trkpt lat="46.38575" lon="5.27478">
        <ele>234.8</ele>
        <time>2022-04-11T12:19:13Z</time>
      </trkpt>
      <trkpt lat="46.3857" lon="5.27482">
        <ele>234.2</ele>
        <time>2022-04-11T12:19:14Z</time>
      </trkpt>
      <trkpt lat="46.38565" lon="5.27486">
        <ele>234</ele>
        <time>2022-04-11T12:19:15Z</time>
      </trkpt>
      <trkpt lat="46.38552" lon="5.27493">
        <ele>232.8</ele>
        <time>2022-04-11T12:19:17Z</time>
      </trkpt>
      <trkpt lat="46.38546" lon="5.27496">
        <ele>232.2</ele>
        <time>2022-04-11T12:19:18Z</time>
      </trkpt>
      <trkpt lat="46.38539" lon="5.275">
        <ele>231.2</ele>
        <time>2022-04-11T12:19:19Z</time>
      </trkpt>
      <trkpt lat="46.38527" lon="5.27507">
        <ele>228.4</ele>
        <time>2022-04-11T12:19:21Z</time>
      </trkpt>
      <trkpt lat="46.3852" lon="5.27511">
        <ele>227.2</ele>
        <time>2022-04-11T12:19:22Z</time>
      </trkpt>
      <trkpt lat="46.38514" lon="5.27515">
        <ele>225.4</ele>
        <time>2022-04-11T12:19:23Z</time>
      </trkpt>
      <trkpt lat="46.38502" lon="5.27526">
        <ele>224</ele>
        <time>2022-04-11T12:19:25Z</time>
      </trkpt>
      <trkpt lat="46.38495" lon="5.27532">
        <ele>223.4</ele>
        <time>2022-04-11T12:19:26Z</time>
      </trkpt>
      <trkpt lat="46.38483" lon="5.27545">
        <ele>222.6</ele>
        <time>2022-04-11T12:19:28Z</time>
      </trkpt>
      <trkpt lat="46.38469" lon="5.27562">
        <ele>221.6</ele>
        <time>2022-04-11T12:19:30Z</time>
      </trkpt>
      <trkpt lat="46.38462" lon="5.27569">
        <ele>221.2</ele>
        <time>2022-04-11T12:19:31Z</time>
      </trkpt>
      <trkpt lat="46.3845" lon="5.27585">
        <ele>220.2</ele>
        <time>2022-04-11T12:19:33Z</time>
      </trkpt>
      <trkpt lat="46.38426" lon="5.27616">
        <ele>219.2</ele>
        <time>2022-04-11T12:19:37Z</time>
      </trkpt>
      <trkpt lat="46.3842" lon="5.27623">
        <ele>219</ele>
        <time>2022-04-11T12:19:38Z</time>
      </trkpt>
      <trkpt lat="46.38403" lon="5.27645">
        <ele>218.2</ele>
        <time>2022-04-11T12:19:41Z</time>
      </trkpt>
      <trkpt lat="46.38377" lon="5.27668">
        <ele>217</ele>
        <time>2022-04-11T12:19:45Z</time>
      </trkpt>
      <trkpt lat="46.38363" lon="5.27676">
        <ele>215.4</ele>
        <time>2022-04-11T12:19:47Z</time>
      </trkpt>
      <trkpt lat="46.3835" lon="5.27685">
        <ele>214.2</ele>
        <time>2022-04-11T12:19:49Z</time>
      </trkpt>
      <trkpt lat="46.38326" lon="5.27702">
        <ele>213.6</ele>
        <time>2022-04-11T12:19:53Z</time>
      </trkpt>
      <trkpt lat="46.38294" lon="5.27722">
        <ele>213.4</ele>
        <time>2022-04-11T12:19:59Z</time>
      </trkpt>
      <trkpt lat="46.38274" lon="5.27728">
        <ele>213</ele>
        <time>2022-04-11T12:20:03Z</time>
      </trkpt>
      <trkpt lat="46.38264" lon="5.27731">
        <ele>212.8</ele>
        <time>2022-04-11T12:20:05Z</time>
      </trkpt>
      <trkpt lat="46.38228" lon="5.27744">
        <ele>213.2</ele>
        <time>2022-04-11T12:20:12Z</time>
      </trkpt>
      <trkpt lat="46.38191" lon="5.27773">
        <ele>212.2</ele>
        <time>2022-04-11T12:20:20Z</time>
      </trkpt>
      <trkpt lat="46.38186" lon="5.27777">
        <ele>211.8</ele>
        <time>2022-04-11T12:20:21Z</time>
      </trkpt>
      <trkpt lat="46.38179" lon="5.2779">
        <ele>211.8</ele>
        <time>2022-04-11T12:20:23Z</time>
      </trkpt>
      <trkpt lat="46.38176" lon="5.27798">
        <ele>211.8</ele>
        <time>2022-04-11T12:20:24Z</time>
      </trkpt>
      <trkpt lat="46.38175" lon="5.27806">
        <ele>211.8</ele>
        <time>2022-04-11T12:20:25Z</time>
      </trkpt>
      <trkpt lat="46.38171" lon="5.27848">
        <ele>212.2</ele>
        <time>2022-04-11T12:20:30Z</time>
      </trkpt>
      <trkpt lat="46.38164" lon="5.27916">
        <ele>212.6</ele>
        <time>2022-04-11T12:20:38Z</time>
      </trkpt>
      <trkpt lat="46.38159" lon="5.27958">
        <ele>213</ele>
        <time>2022-04-11T12:20:43Z</time>
      </trkpt>
      <trkpt lat="46.38157" lon="5.27966">
        <ele>213</ele>
        <time>2022-04-11T12:20:44Z</time>
      </trkpt>
      <trkpt lat="46.38153" lon="5.2798">
        <ele>213</ele>
        <time>2022-04-11T12:20:46Z</time>
      </trkpt>
      <trkpt lat="46.3814" lon="5.28007">
        <ele>213</ele>
        <time>2022-04-11T12:20:50Z</time>
      </trkpt>
      <trkpt lat="46.38114" lon="5.28042">
        <ele>213</ele>
        <time>2022-04-11T12:20:56Z</time>
      </trkpt>
      <trkpt lat="46.38097" lon="5.28066">
        <ele>213.4</ele>
        <time>2022-04-11T12:21:00Z</time>
      </trkpt>
      <trkpt lat="46.38078" lon="5.28095">
        <ele>214.2</ele>
        <time>2022-04-11T12:21:05Z</time>
      </trkpt>
      <trkpt lat="46.3807" lon="5.28106">
        <ele>214.4</ele>
        <time>2022-04-11T12:21:07Z</time>
      </trkpt>
      <trkpt lat="46.38051" lon="5.28137">
        <ele>215.4</ele>
        <time>2022-04-11T12:21:13Z</time>
      </trkpt>
      <trkpt lat="46.38039" lon="5.28155">
        <ele>215.6</ele>
        <time>2022-04-11T12:21:17Z</time>
      </trkpt>
      <trkpt lat="46.38032" lon="5.28164">
        <ele>215.6</ele>
        <time>2022-04-11T12:21:19Z</time>
      </trkpt>
      <trkpt lat="46.38026" lon="5.28171">
        <ele>215.6</ele>
        <time>2022-04-11T12:21:21Z</time>
      </trkpt>
      <trkpt lat="46.38013" lon="5.28182">
        <ele>216.4</ele>
        <time>2022-04-11T12:21:25Z</time>
      </trkpt>
      <trkpt lat="46.3801" lon="5.28184">
        <ele>217</ele>
        <time>2022-04-11T12:21:26Z</time>
      </trkpt>
      <trkpt lat="46.38004" lon="5.28188">
        <ele>218.2</ele>
        <time>2022-04-11T12:21:28Z</time>
      </trkpt>
      <trkpt lat="46.37997" lon="5.28193">
        <ele>219.2</ele>
        <time>2022-04-11T12:21:30Z</time>
      </trkpt>
      <trkpt lat="46.37987" lon="5.28201">
        <ele>220.2</ele>
        <time>2022-04-11T12:21:33Z</time>
      </trkpt>
      <trkpt lat="46.37981" lon="5.28207">
        <ele>220.4</ele>
        <time>2022-04-11T12:21:35Z</time>
      </trkpt>
      <trkpt lat="46.37971" lon="5.2822">
        <ele>220.4</ele>
        <time>2022-04-11T12:21:39Z</time>
      </trkpt>
      <trkpt lat="46.37957" lon="5.28242">
        <ele>222</ele>
        <time>2022-04-11T12:21:45Z</time>
      </trkpt>
      <trkpt lat="46.37952" lon="5.28249">
        <ele>223</ele>
        <time>2022-04-11T12:21:47Z</time>
      </trkpt>
      <trkpt lat="46.37948" lon="5.28257">
        <ele>224.2</ele>
        <time>2022-04-11T12:21:49Z</time>
      </trkpt>
      <trkpt lat="46.37944" lon="5.28265">
        <ele>225.6</ele>
        <time>2022-04-11T12:21:51Z</time>
      </trkpt>
      <trkpt lat="46.37936" lon="5.28283">
        <ele>226.4</ele>
        <time>2022-04-11T12:21:55Z</time>
      </trkpt>
      <trkpt lat="46.37931" lon="5.28291">
        <ele>226.6</ele>
        <time>2022-04-11T12:21:57Z</time>
      </trkpt>
      <trkpt lat="46.3792" lon="5.28316">
        <ele>227.8</ele>
        <time>2022-04-11T12:22:02Z</time>
      </trkpt>
      <trkpt lat="46.37914" lon="5.28327">
        <ele>228</ele>
        <time>2022-04-11T12:22:04Z</time>
      </trkpt>
      <trkpt lat="46.37895" lon="5.28359">
        <ele>228.2</ele>
        <time>2022-04-11T12:22:09Z</time>
      </trkpt>
      <trkpt lat="46.37881" lon="5.28387">
        <ele>225.8</ele>
        <time>2022-04-11T12:22:12Z</time>
      </trkpt>
      <trkpt lat="46.37876" lon="5.28397">
        <ele>225.4</ele>
        <time>2022-04-11T12:22:13Z</time>
      </trkpt>
      <trkpt lat="46.37872" lon="5.28409">
        <ele>224.8</ele>
        <time>2022-04-11T12:22:14Z</time>
      </trkpt>
      <trkpt lat="46.37859" lon="5.28447">
        <ele>222.8</ele>
        <time>2022-04-11T12:22:17Z</time>
      </trkpt>
      <trkpt lat="46.37844" lon="5.28508">
        <ele>220.8</ele>
        <time>2022-04-11T12:22:21Z</time>
      </trkpt>
      <trkpt lat="46.37839" lon="5.28541">
        <ele>219.8</ele>
        <time>2022-04-11T12:22:23Z</time>
      </trkpt>
      <trkpt lat="46.37835" lon="5.28573">
        <ele>218.6</ele>
        <time>2022-04-11T12:22:25Z</time>
      </trkpt>
      <trkpt lat="46.37829" lon="5.28602">
        <ele>217.4</ele>
        <time>2022-04-11T12:22:27Z</time>
      </trkpt>
      <trkpt lat="46.3782" lon="5.28628">
        <ele>216.2</ele>
        <time>2022-04-11T12:22:29Z</time>
      </trkpt>
      <trkpt lat="46.3781" lon="5.2865">
        <ele>215</ele>
        <time>2022-04-11T12:22:31Z</time>
      </trkpt>
      <trkpt lat="46.37791" lon="5.287">
        <ele>214.2</ele>
        <time>2022-04-11T12:22:36Z</time>
      </trkpt>
      <trkpt lat="46.37779" lon="5.2875">
        <ele>215.4</ele>
        <time>2022-04-11T12:22:42Z</time>
      </trkpt>
      <trkpt lat="46.37776" lon="5.28763">
        <ele>216.2</ele>
        <time>2022-04-11T12:22:44Z</time>
      </trkpt>
      <trkpt lat="46.37771" lon="5.2878">
        <ele>217.6</ele>
        <time>2022-04-11T12:22:47Z</time>
      </trkpt>
      <trkpt lat="46.37769" lon="5.28785">
        <ele>218</ele>
        <time>2022-04-11T12:22:48Z</time>
      </trkpt>
      <trkpt lat="46.37767" lon="5.2879">
        <ele>218.6</ele>
        <time>2022-04-11T12:22:49Z</time>
      </trkpt>
      <trkpt lat="46.37762" lon="5.28807">
        <ele>220</ele>
        <time>2022-04-11T12:22:52Z</time>
      </trkpt>
      <trkpt lat="46.37757" lon="5.28824">
        <ele>221</ele>
        <time>2022-04-11T12:22:55Z</time>
      </trkpt>
      <trkpt lat="46.37754" lon="5.2883">
        <ele>221.2</ele>
        <time>2022-04-11T12:22:56Z</time>
      </trkpt>
      <trkpt lat="46.37737" lon="5.28865">
        <ele>222.4</ele>
        <time>2022-04-11T12:23:03Z</time>
      </trkpt>
      <trkpt lat="46.37734" lon="5.2887">
        <ele>222.6</ele>
        <time>2022-04-11T12:23:04Z</time>
      </trkpt>
      <trkpt lat="46.37718" lon="5.28891">
        <ele>223.4</ele>
        <time>2022-04-11T12:23:09Z</time>
      </trkpt>
      <trkpt lat="46.37707" lon="5.28902">
        <ele>224.8</ele>
        <time>2022-04-11T12:23:13Z</time>
      </trkpt>
      <trkpt lat="46.37701" lon="5.28906">
        <ele>226</ele>
        <time>2022-04-11T12:23:15Z</time>
      </trkpt>
      <trkpt lat="46.37689" lon="5.28915">
        <ele>227</ele>
        <time>2022-04-11T12:23:19Z</time>
      </trkpt>
      <trkpt lat="46.37686" lon="5.28917">
        <ele>227.2</ele>
        <time>2022-04-11T12:23:20Z</time>
      </trkpt>
      <trkpt lat="46.37677" lon="5.28921">
        <ele>228</ele>
        <time>2022-04-11T12:23:23Z</time>
      </trkpt>
      <trkpt lat="46.37664" lon="5.28928">
        <ele>229</ele>
        <time>2022-04-11T12:23:27Z</time>
      </trkpt>
      <trkpt lat="46.37662" lon="5.2893">
        <ele>229.6</ele>
        <time>2022-04-11T12:23:28Z</time>
      </trkpt>
      <trkpt lat="46.37658" lon="5.28932">
        <ele>230.4</ele>
        <time>2022-04-11T12:23:29Z</time>
      </trkpt>
      <trkpt lat="46.37641" lon="5.28948">
        <ele>231.4</ele>
        <time>2022-04-11T12:23:35Z</time>
      </trkpt>
      <trkpt lat="46.3763" lon="5.28961">
        <ele>231.6</ele>
        <time>2022-04-11T12:23:38Z</time>
      </trkpt>
      <trkpt lat="46.37602" lon="5.28997">
        <ele>231</ele>
        <time>2022-04-11T12:23:45Z</time>
      </trkpt>
      <trkpt lat="46.37594" lon="5.29008">
        <ele>230.4</ele>
        <time>2022-04-11T12:23:47Z</time>
      </trkpt>
      <trkpt lat="46.37562" lon="5.29043">
        <ele>229.8</ele>
        <time>2022-04-11T12:23:54Z</time>
      </trkpt>
      <trkpt lat="46.37538" lon="5.29068">
        <ele>229.2</ele>
        <time>2022-04-11T12:23:59Z</time>
      </trkpt>
      <trkpt lat="46.37524" lon="5.29084">
        <ele>229</ele>
        <time>2022-04-11T12:24:02Z</time>
      </trkpt>
      <trkpt lat="46.37491" lon="5.29131">
        <ele>228.6</ele>
        <time>2022-04-11T12:24:10Z</time>
      </trkpt>
      <trkpt lat="46.37488" lon="5.29137">
        <ele>228.6</ele>
        <time>2022-04-11T12:24:11Z</time>
      </trkpt>
      <trkpt lat="46.37483" lon="5.2915">
        <ele>229</ele>
        <time>2022-04-11T12:24:13Z</time>
      </trkpt>
      <trkpt lat="46.37478" lon="5.29171">
        <ele>229</ele>
        <time>2022-04-11T12:24:16Z</time>
      </trkpt>
      <trkpt lat="46.37465" lon="5.2923">
        <ele>230.4</ele>
        <time>2022-04-11T12:24:25Z</time>
      </trkpt>
      <trkpt lat="46.37464" lon="5.29236">
        <ele>230.8</ele>
        <time>2022-04-11T12:24:26Z</time>
      </trkpt>
      <trkpt lat="46.37458" lon="5.29258">
        <ele>231.8</ele>
        <time>2022-04-11T12:24:30Z</time>
      </trkpt>
      <trkpt lat="46.37456" lon="5.29263">
        <ele>232.2</ele>
        <time>2022-04-11T12:24:31Z</time>
      </trkpt>
      <trkpt lat="46.37453" lon="5.29268">
        <ele>232.4</ele>
        <time>2022-04-11T12:24:32Z</time>
      </trkpt>
      <trkpt lat="46.3745" lon="5.29272">
        <ele>233</ele>
        <time>2022-04-11T12:24:33Z</time>
      </trkpt>
      <trkpt lat="46.37443" lon="5.29274">
        <ele>233.8</ele>
        <time>2022-04-11T12:24:35Z</time>
      </trkpt>
      <trkpt lat="46.37439" lon="5.29271">
        <ele>234.2</ele>
        <time>2022-04-11T12:24:36Z</time>
      </trkpt>
      <trkpt lat="46.37436" lon="5.29267">
        <ele>234.2</ele>
        <time>2022-04-11T12:24:37Z</time>
      </trkpt>
      <trkpt lat="46.3743" lon="5.29257">
        <ele>234.4</ele>
        <time>2022-04-11T12:24:39Z</time>
      </trkpt>
      <trkpt lat="46.37415" lon="5.2923">
        <ele>234.6</ele>
        <time>2022-04-11T12:24:44Z</time>
      </trkpt>
      <trkpt lat="46.37413" lon="5.29224">
        <ele>234.8</ele>
        <time>2022-04-11T12:24:45Z</time>
      </trkpt>
      <trkpt lat="46.37402" lon="5.29184">
        <ele>235.2</ele>
        <time>2022-04-11T12:24:51Z</time>
      </trkpt>
      <trkpt lat="46.37384" lon="5.29153">
        <ele>235.2</ele>
        <time>2022-04-11T12:24:57Z</time>
      </trkpt>
      <trkpt lat="46.3738" lon="5.29148">
        <ele>235.2</ele>
        <time>2022-04-11T12:24:58Z</time>
      </trkpt>
      <trkpt lat="46.37362" lon="5.2912">
        <ele>235.6</ele>
        <time>2022-04-11T12:25:04Z</time>
      </trkpt>
      <trkpt lat="46.3736" lon="5.29114">
        <ele>235.8</ele>
        <time>2022-04-11T12:25:05Z</time>
      </trkpt>
      <trkpt lat="46.37356" lon="5.29101">
        <ele>236</ele>
        <time>2022-04-11T12:25:07Z</time>
      </trkpt>
      <trkpt lat="46.37354" lon="5.29088">
        <ele>236.2</ele>
        <time>2022-04-11T12:25:09Z</time>
      </trkpt>
      <trkpt lat="46.37351" lon="5.29076">
        <ele>236.4</ele>
        <time>2022-04-11T12:25:11Z</time>
      </trkpt>
      <trkpt lat="46.37346" lon="5.29064">
        <ele>236.6</ele>
        <time>2022-04-11T12:25:13Z</time>
      </trkpt>
      <trkpt lat="46.37341" lon="5.29055">
        <ele>236.8</ele>
        <time>2022-04-11T12:25:15Z</time>
      </trkpt>
      <trkpt lat="46.37337" lon="5.29051">
        <ele>236.8</ele>
        <time>2022-04-11T12:25:16Z</time>
      </trkpt>
      <trkpt lat="46.37308" lon="5.29034">
        <ele>237</ele>
        <time>2022-04-11T12:25:23Z</time>
      </trkpt>
      <trkpt lat="46.37295" lon="5.2903">
        <ele>237.2</ele>
        <time>2022-04-11T12:25:26Z</time>
      </trkpt>
      <trkpt lat="46.37291" lon="5.29029">
        <ele>237.8</ele>
        <time>2022-04-11T12:25:27Z</time>
      </trkpt>
      <trkpt lat="46.37282" lon="5.29028">
        <ele>238.2</ele>
        <time>2022-04-11T12:25:29Z</time>
      </trkpt>
      <trkpt lat="46.37278" lon="5.29028">
        <ele>238.4</ele>
        <time>2022-04-11T12:25:30Z</time>
      </trkpt>
      <trkpt lat="46.37269" lon="5.2903">
        <ele>238.6</ele>
        <time>2022-04-11T12:25:32Z</time>
      </trkpt>
      <trkpt lat="46.3726" lon="5.29035">
        <ele>238.6</ele>
        <time>2022-04-11T12:25:34Z</time>
      </trkpt>
      <trkpt lat="46.37256" lon="5.29039">
        <ele>238.6</ele>
        <time>2022-04-11T12:25:35Z</time>
      </trkpt>
      <trkpt lat="46.37244" lon="5.29049">
        <ele>238.8</ele>
        <time>2022-04-11T12:25:38Z</time>
      </trkpt>
      <trkpt lat="46.37231" lon="5.29057">
        <ele>239</ele>
        <time>2022-04-11T12:25:41Z</time>
      </trkpt>
      <trkpt lat="46.37226" lon="5.29058">
        <ele>239</ele>
        <time>2022-04-11T12:25:42Z</time>
      </trkpt>
      <trkpt lat="46.37217" lon="5.29061">
        <ele>239.2</ele>
        <time>2022-04-11T12:25:44Z</time>
      </trkpt>
      <trkpt lat="46.37212" lon="5.29061">
        <ele>239.4</ele>
        <time>2022-04-11T12:25:45Z</time>
      </trkpt>
      <trkpt lat="46.37203" lon="5.29061">
        <ele>239.6</ele>
        <time>2022-04-11T12:25:47Z</time>
      </trkpt>
      <trkpt lat="46.37174" lon="5.2906">
        <ele>239.6</ele>
        <time>2022-04-11T12:25:53Z</time>
      </trkpt>
      <trkpt lat="46.37169" lon="5.29057">
        <ele>239.6</ele>
        <time>2022-04-11T12:25:54Z</time>
      </trkpt>
      <trkpt lat="46.37165" lon="5.29053">
        <ele>239.6</ele>
        <time>2022-04-11T12:25:55Z</time>
      </trkpt>
      <trkpt lat="46.3716" lon="5.2904">
        <ele>239.6</ele>
        <time>2022-04-11T12:25:57Z</time>
      </trkpt>
      <trkpt lat="46.37156" lon="5.29026">
        <ele>239.6</ele>
        <time>2022-04-11T12:25:59Z</time>
      </trkpt>
      <trkpt lat="46.37149" lon="5.29014">
        <ele>239.4</ele>
        <time>2022-04-11T12:26:01Z</time>
      </trkpt>
      <trkpt lat="46.37145" lon="5.2901">
        <ele>239.4</ele>
        <time>2022-04-11T12:26:02Z</time>
      </trkpt>
      <trkpt lat="46.3714" lon="5.29007">
        <ele>239.2</ele>
        <time>2022-04-11T12:26:03Z</time>
      </trkpt>
      <trkpt lat="46.3712" lon="5.29005">
        <ele>239.2</ele>
        <time>2022-04-11T12:26:07Z</time>
      </trkpt>
      <trkpt lat="46.37106" lon="5.29007">
        <ele>238.4</ele>
        <time>2022-04-11T12:26:10Z</time>
      </trkpt>
      <trkpt lat="46.37092" lon="5.29009">
        <ele>238.2</ele>
        <time>2022-04-11T12:26:13Z</time>
      </trkpt>
      <trkpt lat="46.37057" lon="5.29014">
        <ele>239</ele>
        <time>2022-04-11T12:26:21Z</time>
      </trkpt>
      <trkpt lat="46.37047" lon="5.29016">
        <ele>239</ele>
        <time>2022-04-11T12:26:23Z</time>
      </trkpt>
      <trkpt lat="46.37038" lon="5.2902">
        <ele>239.2</ele>
        <time>2022-04-11T12:26:25Z</time>
      </trkpt>
      <trkpt lat="46.37035" lon="5.29024">
        <ele>239.2</ele>
        <time>2022-04-11T12:26:26Z</time>
      </trkpt>
      <trkpt lat="46.37032" lon="5.29031">
        <ele>239.2</ele>
        <time>2022-04-11T12:26:27Z</time>
      </trkpt>
      <trkpt lat="46.37032" lon="5.29045">
        <ele>239.2</ele>
        <time>2022-04-11T12:26:29Z</time>
      </trkpt>
      <trkpt lat="46.37037" lon="5.29075">
        <ele>239.4</ele>
        <time>2022-04-11T12:26:33Z</time>
      </trkpt>
      <trkpt lat="46.3704" lon="5.29091">
        <ele>239.6</ele>
        <time>2022-04-11T12:26:35Z</time>
      </trkpt>
      <trkpt lat="46.37049" lon="5.29139">
        <ele>239</ele>
        <time>2022-04-11T12:26:41Z</time>
      </trkpt>
      <trkpt lat="46.37049" lon="5.29147">
        <ele>239</ele>
        <time>2022-04-11T12:26:42Z</time>
      </trkpt>
      <trkpt lat="46.37047" lon="5.29154">
        <ele>238.8</ele>
        <time>2022-04-11T12:26:43Z</time>
      </trkpt>
      <trkpt lat="46.37043" lon="5.2916">
        <ele>238.8</ele>
        <time>2022-04-11T12:26:44Z</time>
      </trkpt>
      <trkpt lat="46.37037" lon="5.29162">
        <ele>238.6</ele>
        <time>2022-04-11T12:26:45Z</time>
      </trkpt>
      <trkpt lat="46.37032" lon="5.29163">
        <ele>238.4</ele>
        <time>2022-04-11T12:26:46Z</time>
      </trkpt>
      <trkpt lat="46.37027" lon="5.29163">
        <ele>238.2</ele>
        <time>2022-04-11T12:26:47Z</time>
      </trkpt>
      <trkpt lat="46.36999" lon="5.29165">
        <ele>237.2</ele>
        <time>2022-04-11T12:26:52Z</time>
      </trkpt>
      <trkpt lat="46.36989" lon="5.29166">
        <ele>236.8</ele>
        <time>2022-04-11T12:26:54Z</time>
      </trkpt>
      <trkpt lat="46.36952" lon="5.29159">
        <ele>236.2</ele>
        <time>2022-04-11T12:27:01Z</time>
      </trkpt>
      <trkpt lat="46.36948" lon="5.29157">
        <ele>236.4</ele>
        <time>2022-04-11T12:27:02Z</time>
      </trkpt>
      <trkpt lat="46.36935" lon="5.29149">
        <ele>236.4</ele>
        <time>2022-04-11T12:27:05Z</time>
      </trkpt>
      <trkpt lat="46.36923" lon="5.29136">
        <ele>236.4</ele>
        <time>2022-04-11T12:27:08Z</time>
      </trkpt>
      <trkpt lat="46.36894" lon="5.291">
        <ele>237.8</ele>
        <time>2022-04-11T12:27:16Z</time>
      </trkpt>
      <trkpt lat="46.36883" lon="5.29089">
        <ele>237.6</ele>
        <time>2022-04-11T12:27:19Z</time>
      </trkpt>
      <trkpt lat="46.36874" lon="5.29083">
        <ele>237.6</ele>
        <time>2022-04-11T12:27:21Z</time>
      </trkpt>
      <trkpt lat="46.36865" lon="5.29077">
        <ele>237.4</ele>
        <time>2022-04-11T12:27:23Z</time>
      </trkpt>
      <trkpt lat="46.3684" lon="5.29069">
        <ele>236.6</ele>
        <time>2022-04-11T12:27:28Z</time>
      </trkpt>
      <trkpt lat="46.3683" lon="5.29068">
        <ele>236.2</ele>
        <time>2022-04-11T12:27:30Z</time>
      </trkpt>
      <trkpt lat="46.36805" lon="5.29069">
        <ele>235</ele>
        <time>2022-04-11T12:27:35Z</time>
      </trkpt>
      <trkpt lat="46.36795" lon="5.29071">
        <ele>234.8</ele>
        <time>2022-04-11T12:27:37Z</time>
      </trkpt>
      <trkpt lat="46.36781" lon="5.29076">
        <ele>234.2</ele>
        <time>2022-04-11T12:27:40Z</time>
      </trkpt>
      <trkpt lat="46.36772" lon="5.29075">
        <ele>234.2</ele>
        <time>2022-04-11T12:27:42Z</time>
      </trkpt>
      <trkpt lat="46.36768" lon="5.29072">
        <ele>234.4</ele>
        <time>2022-04-11T12:27:43Z</time>
      </trkpt>
      <trkpt lat="46.36764" lon="5.29068">
        <ele>234.4</ele>
        <time>2022-04-11T12:27:44Z</time>
      </trkpt>
      <trkpt lat="46.36751" lon="5.2905">
        <ele>234.6</ele>
        <time>2022-04-11T12:27:48Z</time>
      </trkpt>
      <trkpt lat="46.36725" lon="5.29019">
        <ele>234.6</ele>
        <time>2022-04-11T12:27:55Z</time>
      </trkpt>
      <trkpt lat="46.3672" lon="5.29016">
        <ele>234.4</ele>
        <time>2022-04-11T12:27:56Z</time>
      </trkpt>
      <trkpt lat="46.36715" lon="5.29015">
        <ele>234.2</ele>
        <time>2022-04-11T12:27:57Z</time>
      </trkpt>
      <trkpt lat="46.36705" lon="5.29015">
        <ele>233.8</ele>
        <time>2022-04-11T12:27:59Z</time>
      </trkpt>
      <trkpt lat="46.367" lon="5.29015">
        <ele>233.8</ele>
        <time>2022-04-11T12:28:00Z</time>
      </trkpt>
      <trkpt lat="46.36654" lon="5.29021">
        <ele>233</ele>
        <time>2022-04-11T12:28:09Z</time>
      </trkpt>
      <trkpt lat="46.36645" lon="5.29022">
        <ele>232.8</ele>
        <time>2022-04-11T12:28:11Z</time>
      </trkpt>
      <trkpt lat="46.36627" lon="5.29025">
        <ele>232.6</ele>
        <time>2022-04-11T12:28:15Z</time>
      </trkpt>
      <trkpt lat="46.36585" lon="5.29031">
        <ele>233.6</ele>
        <time>2022-04-11T12:28:24Z</time>
      </trkpt>
      <trkpt lat="46.36559" lon="5.29036">
        <ele>234</ele>
        <time>2022-04-11T12:28:29Z</time>
      </trkpt>
      <trkpt lat="46.36548" lon="5.29038">
        <ele>234</ele>
        <time>2022-04-11T12:28:31Z</time>
      </trkpt>
      <trkpt lat="46.36505" lon="5.29041">
        <ele>234</ele>
        <time>2022-04-11T12:28:39Z</time>
      </trkpt>
      <trkpt lat="46.36457" lon="5.29044">
        <ele>234.8</ele>
        <time>2022-04-11T12:28:48Z</time>
      </trkpt>
      <trkpt lat="46.36451" lon="5.29044">
        <ele>234.8</ele>
        <time>2022-04-11T12:28:49Z</time>
      </trkpt>
      <trkpt lat="46.3642" lon="5.29047">
        <ele>234.6</ele>
        <time>2022-04-11T12:28:55Z</time>
      </trkpt>
      <trkpt lat="46.36376" lon="5.29053">
        <ele>234.2</ele>
        <time>2022-04-11T12:29:04Z</time>
      </trkpt>
      <trkpt lat="46.36332" lon="5.29061">
        <ele>233.8</ele>
        <time>2022-04-11T12:29:14Z</time>
      </trkpt>
      <trkpt lat="46.36298" lon="5.29067">
        <ele>234.4</ele>
        <time>2022-04-11T12:29:23Z</time>
      </trkpt>
      <trkpt lat="46.36283" lon="5.2907">
        <ele>235.4</ele>
        <time>2022-04-11T12:29:27Z</time>
      </trkpt>
      <trkpt lat="46.36255" lon="5.29079">
        <ele>236.6</ele>
        <time>2022-04-11T12:29:34Z</time>
      </trkpt>
      <trkpt lat="46.36248" lon="5.29086">
        <ele>236.8</ele>
        <time>2022-04-11T12:29:36Z</time>
      </trkpt>
      <trkpt lat="46.36243" lon="5.29096">
        <ele>237</ele>
        <time>2022-04-11T12:29:38Z</time>
      </trkpt>
      <trkpt lat="46.36241" lon="5.29102">
        <ele>237.4</ele>
        <time>2022-04-11T12:29:39Z</time>
      </trkpt>
      <trkpt lat="46.36235" lon="5.29113">
        <ele>237.6</ele>
        <time>2022-04-11T12:29:41Z</time>
      </trkpt>
      <trkpt lat="46.36228" lon="5.2912">
        <ele>237.6</ele>
        <time>2022-04-11T12:29:43Z</time>
      </trkpt>
      <trkpt lat="46.36224" lon="5.29121">
        <ele>237.6</ele>
        <time>2022-04-11T12:29:44Z</time>
      </trkpt>
      <trkpt lat="46.36208" lon="5.29126">
        <ele>237.4</ele>
        <time>2022-04-11T12:29:48Z</time>
      </trkpt>
      <trkpt lat="46.36205" lon="5.2913">
        <ele>237.4</ele>
        <time>2022-04-11T12:29:49Z</time>
      </trkpt>
      <trkpt lat="46.36203" lon="5.29135">
        <ele>237.4</ele>
        <time>2022-04-11T12:29:50Z</time>
      </trkpt>
      <trkpt lat="46.36202" lon="5.29148">
        <ele>237.4</ele>
        <time>2022-04-11T12:29:52Z</time>
      </trkpt>
      <trkpt lat="46.36206" lon="5.29187">
        <ele>237.6</ele>
        <time>2022-04-11T12:29:57Z</time>
      </trkpt>
      <trkpt lat="46.36208" lon="5.29195">
        <ele>237.6</ele>
        <time>2022-04-11T12:29:58Z</time>
      </trkpt>
      <trkpt lat="46.36217" lon="5.29224">
        <ele>237.4</ele>
        <time>2022-04-11T12:30:01Z</time>
      </trkpt>
      <trkpt lat="46.3623" lon="5.29275">
        <ele>236</ele>
        <time>2022-04-11T12:30:05Z</time>
      </trkpt>
      <trkpt lat="46.36232" lon="5.29289">
        <ele>235</ele>
        <time>2022-04-11T12:30:06Z</time>
      </trkpt>
      <trkpt lat="46.36236" lon="5.29317">
        <ele>233.2</ele>
        <time>2022-04-11T12:30:08Z</time>
      </trkpt>
      <trkpt lat="46.36237" lon="5.29331">
        <ele>232.2</ele>
        <time>2022-04-11T12:30:09Z</time>
      </trkpt>
      <trkpt lat="46.36238" lon="5.29344">
        <ele>231.6</ele>
        <time>2022-04-11T12:30:10Z</time>
      </trkpt>
      <trkpt lat="46.36241" lon="5.29368">
        <ele>231</ele>
        <time>2022-04-11T12:30:12Z</time>
      </trkpt>
      <trkpt lat="46.36244" lon="5.29389">
        <ele>230.8</ele>
        <time>2022-04-11T12:30:14Z</time>
      </trkpt>
      <trkpt lat="46.3625" lon="5.29445">
        <ele>230.6</ele>
        <time>2022-04-11T12:30:20Z</time>
      </trkpt>
      <trkpt lat="46.36247" lon="5.29459">
        <ele>230.6</ele>
        <time>2022-04-11T12:30:22Z</time>
      </trkpt>
      <trkpt lat="46.36243" lon="5.29464">
        <ele>230.8</ele>
        <time>2022-04-11T12:30:23Z</time>
      </trkpt>
      <trkpt lat="46.36239" lon="5.29466">
        <ele>231</ele>
        <time>2022-04-11T12:30:24Z</time>
      </trkpt>
      <trkpt lat="46.36226" lon="5.29472">
        <ele>231.8</ele>
        <time>2022-04-11T12:30:27Z</time>
      </trkpt>
      <trkpt lat="46.36222" lon="5.29474">
        <ele>232.4</ele>
        <time>2022-04-11T12:30:28Z</time>
      </trkpt>
      <trkpt lat="46.36218" lon="5.29477">
        <ele>232.8</ele>
        <time>2022-04-11T12:30:29Z</time>
      </trkpt>
      <trkpt lat="46.36211" lon="5.29485">
        <ele>233.4</ele>
        <time>2022-04-11T12:30:31Z</time>
      </trkpt>
      <trkpt lat="46.36208" lon="5.29489">
        <ele>233.8</ele>
        <time>2022-04-11T12:30:32Z</time>
      </trkpt>
      <trkpt lat="46.36194" lon="5.29504">
        <ele>234.6</ele>
        <time>2022-04-11T12:30:36Z</time>
      </trkpt>
      <trkpt lat="46.36183" lon="5.29514">
        <ele>235</ele>
        <time>2022-04-11T12:30:39Z</time>
      </trkpt>
      <trkpt lat="46.36179" lon="5.29516">
        <ele>235.2</ele>
        <time>2022-04-11T12:30:40Z</time>
      </trkpt>
      <trkpt lat="46.36166" lon="5.29524">
        <ele>235.4</ele>
        <time>2022-04-11T12:30:43Z</time>
      </trkpt>
      <trkpt lat="46.36161" lon="5.29527">
        <ele>235.6</ele>
        <time>2022-04-11T12:30:44Z</time>
      </trkpt>
      <trkpt lat="46.36155" lon="5.29528">
        <ele>235.8</ele>
        <time>2022-04-11T12:30:45Z</time>
      </trkpt>
      <trkpt lat="46.36142" lon="5.29531">
        <ele>236.6</ele>
        <time>2022-04-11T12:30:47Z</time>
      </trkpt>
      <trkpt lat="46.36115" lon="5.29533">
        <ele>237.2</ele>
        <time>2022-04-11T12:30:51Z</time>
      </trkpt>
      <trkpt lat="46.36067" lon="5.2954">
        <ele>235.4</ele>
        <time>2022-04-11T12:30:58Z</time>
      </trkpt>
      <trkpt lat="46.36061" lon="5.29541">
        <ele>235.2</ele>
        <time>2022-04-11T12:30:59Z</time>
      </trkpt>
      <trkpt lat="46.36021" lon="5.29546">
        <ele>234.8</ele>
        <time>2022-04-11T12:31:05Z</time>
      </trkpt>
      <trkpt lat="46.35984" lon="5.2955">
        <ele>234.8</ele>
        <time>2022-04-11T12:31:11Z</time>
      </trkpt>
      <trkpt lat="46.35935" lon="5.29555">
        <ele>234.8</ele>
        <time>2022-04-11T12:31:19Z</time>
      </trkpt>
      <trkpt lat="46.35889" lon="5.29553">
        <ele>235.6</ele>
        <time>2022-04-11T12:31:27Z</time>
      </trkpt>
      <trkpt lat="46.35874" lon="5.2955">
        <ele>236.8</ele>
        <time>2022-04-11T12:31:30Z</time>
      </trkpt>
      <trkpt lat="46.35859" lon="5.29546">
        <ele>237.2</ele>
        <time>2022-04-11T12:31:33Z</time>
      </trkpt>
      <trkpt lat="46.35846" lon="5.29542">
        <ele>237.6</ele>
        <time>2022-04-11T12:31:36Z</time>
      </trkpt>
      <trkpt lat="46.35837" lon="5.29541">
        <ele>237.8</ele>
        <time>2022-04-11T12:31:38Z</time>
      </trkpt>
      <trkpt lat="46.35832" lon="5.29541">
        <ele>238</ele>
        <time>2022-04-11T12:31:39Z</time>
      </trkpt>
      <trkpt lat="46.35801" lon="5.29541">
        <ele>238.8</ele>
        <time>2022-04-11T12:31:45Z</time>
      </trkpt>
      <trkpt lat="46.35785" lon="5.29541">
        <ele>239</ele>
        <time>2022-04-11T12:31:48Z</time>
      </trkpt>
      <trkpt lat="46.35759" lon="5.2954">
        <ele>239.4</ele>
        <time>2022-04-11T12:31:54Z</time>
      </trkpt>
      <trkpt lat="46.35745" lon="5.29541">
        <ele>239.6</ele>
        <time>2022-04-11T12:31:57Z</time>
      </trkpt>
      <trkpt lat="46.35719" lon="5.29544">
        <ele>240</ele>
        <time>2022-04-11T12:32:03Z</time>
      </trkpt>
      <trkpt lat="46.35707" lon="5.29548">
        <ele>240.2</ele>
        <time>2022-04-11T12:32:06Z</time>
      </trkpt>
      <trkpt lat="46.35695" lon="5.29557">
        <ele>240.4</ele>
        <time>2022-04-11T12:32:09Z</time>
      </trkpt>
      <trkpt lat="46.35665" lon="5.29586">
        <ele>240.6</ele>
        <time>2022-04-11T12:32:16Z</time>
      </trkpt>
      <trkpt lat="46.35633" lon="5.29606">
        <ele>239.8</ele>
        <time>2022-04-11T12:32:23Z</time>
      </trkpt>
      <trkpt lat="46.35602" lon="5.29622">
        <ele>240.6</ele>
        <time>2022-04-11T12:32:29Z</time>
      </trkpt>
      <trkpt lat="46.35597" lon="5.29625">
        <ele>241</ele>
        <time>2022-04-11T12:32:30Z</time>
      </trkpt>
      <trkpt lat="46.35591" lon="5.29627">
        <ele>241.2</ele>
        <time>2022-04-11T12:32:31Z</time>
      </trkpt>
      <trkpt lat="46.3557" lon="5.29637">
        <ele>241.6</ele>
        <time>2022-04-11T12:32:35Z</time>
      </trkpt>
      <trkpt lat="46.35549" lon="5.29643">
        <ele>241.8</ele>
        <time>2022-04-11T12:32:39Z</time>
      </trkpt>
      <trkpt lat="46.35509" lon="5.29649">
        <ele>240.4</ele>
        <time>2022-04-11T12:32:46Z</time>
      </trkpt>
      <trkpt lat="46.35503" lon="5.29652">
        <ele>240.4</ele>
        <time>2022-04-11T12:32:47Z</time>
      </trkpt>
      <trkpt lat="46.35498" lon="5.29655">
        <ele>240.2</ele>
        <time>2022-04-11T12:32:48Z</time>
      </trkpt>
      <trkpt lat="46.35489" lon="5.29665">
        <ele>240</ele>
        <time>2022-04-11T12:32:50Z</time>
      </trkpt>
      <trkpt lat="46.35486" lon="5.29672">
        <ele>239.8</ele>
        <time>2022-04-11T12:32:51Z</time>
      </trkpt>
      <trkpt lat="46.35476" lon="5.29689">
        <ele>239.6</ele>
        <time>2022-04-11T12:32:54Z</time>
      </trkpt>
      <trkpt lat="46.35467" lon="5.29694">
        <ele>239.4</ele>
        <time>2022-04-11T12:32:56Z</time>
      </trkpt>
      <trkpt lat="46.35437" lon="5.29688">
        <ele>238.6</ele>
        <time>2022-04-11T12:33:02Z</time>
      </trkpt>
      <trkpt lat="46.35399" lon="5.29674">
        <ele>239.2</ele>
        <time>2022-04-11T12:33:10Z</time>
      </trkpt>
      <trkpt lat="46.35371" lon="5.29665">
        <ele>240.6</ele>
        <time>2022-04-11T12:33:16Z</time>
      </trkpt>
      <trkpt lat="46.35353" lon="5.29659">
        <ele>240.8</ele>
        <time>2022-04-11T12:33:20Z</time>
      </trkpt>
      <trkpt lat="46.35303" lon="5.29646">
        <ele>240.6</ele>
        <time>2022-04-11T12:33:31Z</time>
      </trkpt>
      <trkpt lat="46.35264" lon="5.29641">
        <ele>240.8</ele>
        <time>2022-04-11T12:33:39Z</time>
      </trkpt>
      <trkpt lat="46.35218" lon="5.29644">
        <ele>239.8</ele>
        <time>2022-04-11T12:33:48Z</time>
      </trkpt>
      <trkpt lat="46.35214" lon="5.29645">
        <ele>239.6</ele>
        <time>2022-04-11T12:33:49Z</time>
      </trkpt>
      <trkpt lat="46.35178" lon="5.29652">
        <ele>238.8</ele>
        <time>2022-04-11T12:33:56Z</time>
      </trkpt>
      <trkpt lat="46.35154" lon="5.29655">
        <ele>238.6</ele>
        <time>2022-04-11T12:34:00Z</time>
      </trkpt>
      <trkpt lat="46.35147" lon="5.29656">
        <ele>238.4</ele>
        <time>2022-04-11T12:34:01Z</time>
      </trkpt>
      <trkpt lat="46.35109" lon="5.29661">
        <ele>237</ele>
        <time>2022-04-11T12:34:07Z</time>
      </trkpt>
      <trkpt lat="46.35097" lon="5.29662">
        <ele>236.8</ele>
        <time>2022-04-11T12:34:09Z</time>
      </trkpt>
      <trkpt lat="46.35062" lon="5.29655">
        <ele>236.4</ele>
        <time>2022-04-11T12:34:15Z</time>
      </trkpt>
      <trkpt lat="46.35032" lon="5.2964">
        <ele>237</ele>
        <time>2022-04-11T12:34:21Z</time>
      </trkpt>
      <trkpt lat="46.35023" lon="5.29637">
        <ele>237.2</ele>
        <time>2022-04-11T12:34:23Z</time>
      </trkpt>
      <trkpt lat="46.3501" lon="5.29635">
        <ele>237.4</ele>
        <time>2022-04-11T12:34:26Z</time>
      </trkpt>
      <trkpt lat="46.34997" lon="5.29632">
        <ele>238.2</ele>
        <time>2022-04-11T12:34:29Z</time>
      </trkpt>
      <trkpt lat="46.34984" lon="5.29631">
        <ele>238.8</ele>
        <time>2022-04-11T12:34:32Z</time>
      </trkpt>
      <trkpt lat="46.34968" lon="5.29635">
        <ele>239.4</ele>
        <time>2022-04-11T12:34:36Z</time>
      </trkpt>
      <trkpt lat="46.34959" lon="5.2964">
        <ele>239.6</ele>
        <time>2022-04-11T12:34:38Z</time>
      </trkpt>
      <trkpt lat="46.34955" lon="5.29643">
        <ele>239.8</ele>
        <time>2022-04-11T12:34:39Z</time>
      </trkpt>
      <trkpt lat="46.34942" lon="5.29657">
        <ele>240.2</ele>
        <time>2022-04-11T12:34:42Z</time>
      </trkpt>
      <trkpt lat="46.34937" lon="5.29661">
        <ele>240.2</ele>
        <time>2022-04-11T12:34:43Z</time>
      </trkpt>
      <trkpt lat="46.34931" lon="5.29663">
        <ele>240.4</ele>
        <time>2022-04-11T12:34:44Z</time>
      </trkpt>
      <trkpt lat="46.34919" lon="5.29663">
        <ele>240.4</ele>
        <time>2022-04-11T12:34:46Z</time>
      </trkpt>
      <trkpt lat="46.34908" lon="5.29659">
        <ele>240.4</ele>
        <time>2022-04-11T12:34:48Z</time>
      </trkpt>
      <trkpt lat="46.34894" lon="5.29649">
        <ele>240.4</ele>
        <time>2022-04-11T12:34:51Z</time>
      </trkpt>
      <trkpt lat="46.34857" lon="5.29624">
        <ele>240.2</ele>
        <time>2022-04-11T12:34:59Z</time>
      </trkpt>
      <trkpt lat="46.34852" lon="5.29622">
        <ele>240.2</ele>
        <time>2022-04-11T12:35:00Z</time>
      </trkpt>
      <trkpt lat="46.34828" lon="5.29614">
        <ele>240</ele>
        <time>2022-04-11T12:35:05Z</time>
      </trkpt>
      <trkpt lat="46.34824" lon="5.29613">
        <ele>240</ele>
        <time>2022-04-11T12:35:06Z</time>
      </trkpt>
      <trkpt lat="46.348" lon="5.29612">
        <ele>240.2</ele>
        <time>2022-04-11T12:35:11Z</time>
      </trkpt>
      <trkpt lat="46.34751" lon="5.29619">
        <ele>239.8</ele>
        <time>2022-04-11T12:35:21Z</time>
      </trkpt>
      <trkpt lat="46.3474" lon="5.29625">
        <ele>239.8</ele>
        <time>2022-04-11T12:35:23Z</time>
      </trkpt>
      <trkpt lat="46.34724" lon="5.29636">
        <ele>239.8</ele>
        <time>2022-04-11T12:35:26Z</time>
      </trkpt>
      <trkpt lat="46.34713" lon="5.29642">
        <ele>239.8</ele>
        <time>2022-04-11T12:35:28Z</time>
      </trkpt>
      <trkpt lat="46.34701" lon="5.29643">
        <ele>239.8</ele>
        <time>2022-04-11T12:35:30Z</time>
      </trkpt>
      <trkpt lat="46.34683" lon="5.29639">
        <ele>239.2</ele>
        <time>2022-04-11T12:35:33Z</time>
      </trkpt>
      <trkpt lat="46.3466" lon="5.29636">
        <ele>238.4</ele>
        <time>2022-04-11T12:35:37Z</time>
      </trkpt>
      <trkpt lat="46.34649" lon="5.29635">
        <ele>238.2</ele>
        <time>2022-04-11T12:35:39Z</time>
      </trkpt>
      <trkpt lat="46.34622" lon="5.29628">
        <ele>237.4</ele>
        <time>2022-04-11T12:35:44Z</time>
      </trkpt>
      <trkpt lat="46.34584" lon="5.29619">
        <ele>237</ele>
        <time>2022-04-11T12:35:51Z</time>
      </trkpt>
      <trkpt lat="46.34579" lon="5.29618">
        <ele>237</ele>
        <time>2022-04-11T12:35:52Z</time>
      </trkpt>
      <trkpt lat="46.34524" lon="5.29609">
        <ele>237.2</ele>
        <time>2022-04-11T12:36:03Z</time>
      </trkpt>
      <trkpt lat="46.34493" lon="5.29603">
        <ele>237.6</ele>
        <time>2022-04-11T12:36:09Z</time>
      </trkpt>
      <trkpt lat="46.34473" lon="5.29598">
        <ele>237.6</ele>
        <time>2022-04-11T12:36:13Z</time>
      </trkpt>
      <trkpt lat="46.34464" lon="5.29593">
        <ele>237.6</ele>
        <time>2022-04-11T12:36:15Z</time>
      </trkpt>
      <trkpt lat="46.34457" lon="5.29582">
        <ele>237.8</ele>
        <time>2022-04-11T12:36:17Z</time>
      </trkpt>
      <trkpt lat="46.34456" lon="5.29575">
        <ele>237.8</ele>
        <time>2022-04-11T12:36:18Z</time>
      </trkpt>
      <trkpt lat="46.34455" lon="5.29567">
        <ele>238</ele>
        <time>2022-04-11T12:36:19Z</time>
      </trkpt>
      <trkpt lat="46.34456" lon="5.2956">
        <ele>238.2</ele>
        <time>2022-04-11T12:36:20Z</time>
      </trkpt>
      <trkpt lat="46.34457" lon="5.29547">
        <ele>239.2</ele>
        <time>2022-04-11T12:36:22Z</time>
      </trkpt>
      <trkpt lat="46.34459" lon="5.29533">
        <ele>240.4</ele>
        <time>2022-04-11T12:36:24Z</time>
      </trkpt>
      <trkpt lat="46.34466" lon="5.29492">
        <ele>241.2</ele>
        <time>2022-04-11T12:36:30Z</time>
      </trkpt>
      <trkpt lat="46.34468" lon="5.29466">
        <ele>241.4</ele>
        <time>2022-04-11T12:36:34Z</time>
      </trkpt>
      <trkpt lat="46.34467" lon="5.29455">
        <ele>241.4</ele>
        <time>2022-04-11T12:36:36Z</time>
      </trkpt>
      <trkpt lat="46.34458" lon="5.29439">
        <ele>241.8</ele>
        <time>2022-04-11T12:36:40Z</time>
      </trkpt>
      <trkpt lat="46.3444" lon="5.29413">
        <ele>241.8</ele>
        <time>2022-04-11T12:36:47Z</time>
      </trkpt>
      <trkpt lat="46.34419" lon="5.29369">
        <ele>241.6</ele>
        <time>2022-04-11T12:36:55Z</time>
      </trkpt>
      <trkpt lat="46.34412" lon="5.29359">
        <ele>241.4</ele>
        <time>2022-04-11T12:36:57Z</time>
      </trkpt>
      <trkpt lat="46.34398" lon="5.29346">
        <ele>241.4</ele>
        <time>2022-04-11T12:37:00Z</time>
      </trkpt>
      <trkpt lat="46.34365" lon="5.29334">
        <ele>241</ele>
        <time>2022-04-11T12:37:06Z</time>
      </trkpt>
      <trkpt lat="46.34339" lon="5.29319">
        <ele>240.4</ele>
        <time>2022-04-11T12:37:11Z</time>
      </trkpt>
      <trkpt lat="46.34334" lon="5.29315">
        <ele>240.4</ele>
        <time>2022-04-11T12:37:12Z</time>
      </trkpt>
      <trkpt lat="46.34302" lon="5.29298">
        <ele>239.6</ele>
        <time>2022-04-11T12:37:18Z</time>
      </trkpt>
      <trkpt lat="46.34269" lon="5.29288">
        <ele>239.8</ele>
        <time>2022-04-11T12:37:24Z</time>
      </trkpt>
      <trkpt lat="46.34242" lon="5.29281">
        <ele>239.2</ele>
        <time>2022-04-11T12:37:29Z</time>
      </trkpt>
      <trkpt lat="46.34218" lon="5.29272">
        <ele>238.6</ele>
        <time>2022-04-11T12:37:34Z</time>
      </trkpt>
      <trkpt lat="46.34189" lon="5.2926">
        <ele>238.6</ele>
        <time>2022-04-11T12:37:40Z</time>
      </trkpt>
      <trkpt lat="46.34178" lon="5.2926">
        <ele>238.6</ele>
        <time>2022-04-11T12:37:42Z</time>
      </trkpt>
      <trkpt lat="46.34155" lon="5.29264">
        <ele>237.8</ele>
        <time>2022-04-11T12:37:46Z</time>
      </trkpt>
      <trkpt lat="46.3415" lon="5.29265">
        <ele>237.8</ele>
        <time>2022-04-11T12:37:47Z</time>
      </trkpt>
      <trkpt lat="46.34139" lon="5.29266">
        <ele>237.6</ele>
        <time>2022-04-11T12:37:49Z</time>
      </trkpt>
      <trkpt lat="46.34111" lon="5.29274">
        <ele>238.8</ele>
        <time>2022-04-11T12:37:54Z</time>
      </trkpt>
      <trkpt lat="46.34106" lon="5.29277">
        <ele>238.8</ele>
        <time>2022-04-11T12:37:55Z</time>
      </trkpt>
      <trkpt lat="46.34101" lon="5.29282">
        <ele>238.8</ele>
        <time>2022-04-11T12:37:56Z</time>
      </trkpt>
      <trkpt lat="46.34097" lon="5.29288">
        <ele>239.2</ele>
        <time>2022-04-11T12:37:57Z</time>
      </trkpt>
      <trkpt lat="46.34093" lon="5.29294">
        <ele>239.4</ele>
        <time>2022-04-11T12:37:58Z</time>
      </trkpt>
      <trkpt lat="46.3409" lon="5.29301">
        <ele>239.4</ele>
        <time>2022-04-11T12:37:59Z</time>
      </trkpt>
      <trkpt lat="46.34087" lon="5.29308">
        <ele>239.6</ele>
        <time>2022-04-11T12:38:00Z</time>
      </trkpt>
      <trkpt lat="46.34081" lon="5.29323">
        <ele>239.8</ele>
        <time>2022-04-11T12:38:02Z</time>
      </trkpt>
      <trkpt lat="46.34073" lon="5.29337">
        <ele>240</ele>
        <time>2022-04-11T12:38:04Z</time>
      </trkpt>
      <trkpt lat="46.34069" lon="5.29344">
        <ele>240</ele>
        <time>2022-04-11T12:38:05Z</time>
      </trkpt>
      <trkpt lat="46.34052" lon="5.29363">
        <ele>239.4</ele>
        <time>2022-04-11T12:38:09Z</time>
      </trkpt>
      <trkpt lat="46.34032" lon="5.29371">
        <ele>239</ele>
        <time>2022-04-11T12:38:13Z</time>
      </trkpt>
      <trkpt lat="46.34009" lon="5.29382">
        <ele>238.6</ele>
        <time>2022-04-11T12:38:18Z</time>
      </trkpt>
      <trkpt lat="46.34005" lon="5.29385">
        <ele>238.8</ele>
        <time>2022-04-11T12:38:19Z</time>
      </trkpt>
      <trkpt lat="46.33979" lon="5.29416">
        <ele>239.8</ele>
        <time>2022-04-11T12:38:26Z</time>
      </trkpt>
      <trkpt lat="46.33967" lon="5.29438">
        <ele>240.4</ele>
        <time>2022-04-11T12:38:30Z</time>
      </trkpt>
      <trkpt lat="46.3396" lon="5.29456">
        <ele>241.2</ele>
        <time>2022-04-11T12:38:33Z</time>
      </trkpt>
      <trkpt lat="46.33958" lon="5.29462">
        <ele>241.4</ele>
        <time>2022-04-11T12:38:34Z</time>
      </trkpt>
      <trkpt lat="46.33953" lon="5.29481">
        <ele>242</ele>
        <time>2022-04-11T12:38:37Z</time>
      </trkpt>
      <trkpt lat="46.33949" lon="5.29493">
        <ele>242.2</ele>
        <time>2022-04-11T12:38:39Z</time>
      </trkpt>
      <trkpt lat="46.33946" lon="5.29499">
        <ele>242.2</ele>
        <time>2022-04-11T12:38:40Z</time>
      </trkpt>
      <trkpt lat="46.33943" lon="5.29504">
        <ele>242.2</ele>
        <time>2022-04-11T12:38:41Z</time>
      </trkpt>
      <trkpt lat="46.33933" lon="5.29511">
        <ele>242.2</ele>
        <time>2022-04-11T12:38:43Z</time>
      </trkpt>
      <trkpt lat="46.33929" lon="5.29513">
        <ele>242.2</ele>
        <time>2022-04-11T12:38:44Z</time>
      </trkpt>
      <trkpt lat="46.33895" lon="5.29516">
        <ele>241.4</ele>
        <time>2022-04-11T12:38:51Z</time>
      </trkpt>
      <trkpt lat="46.33851" lon="5.29516">
        <ele>241</ele>
        <time>2022-04-11T12:39:00Z</time>
      </trkpt>
      <trkpt lat="46.33837" lon="5.29517">
        <ele>240.8</ele>
        <time>2022-04-11T12:39:03Z</time>
      </trkpt>
      <trkpt lat="46.33823" lon="5.29517">
        <ele>240.8</ele>
        <time>2022-04-11T12:39:06Z</time>
      </trkpt>
      <trkpt lat="46.33803" lon="5.29512">
        <ele>240.8</ele>
        <time>2022-04-11T12:39:10Z</time>
      </trkpt>
      <trkpt lat="46.33794" lon="5.29508">
        <ele>241.2</ele>
        <time>2022-04-11T12:39:12Z</time>
      </trkpt>
      <trkpt lat="46.33762" lon="5.29482">
        <ele>242.6</ele>
        <time>2022-04-11T12:39:19Z</time>
      </trkpt>
      <trkpt lat="46.33757" lon="5.29478">
        <ele>242.6</ele>
        <time>2022-04-11T12:39:20Z</time>
      </trkpt>
      <trkpt lat="46.33752" lon="5.29473">
        <ele>242.8</ele>
        <time>2022-04-11T12:39:21Z</time>
      </trkpt>
      <trkpt lat="46.3373" lon="5.29447">
        <ele>242.8</ele>
        <time>2022-04-11T12:39:26Z</time>
      </trkpt>
      <trkpt lat="46.33704" lon="5.29411">
        <ele>242.6</ele>
        <time>2022-04-11T12:39:33Z</time>
      </trkpt>
      <trkpt lat="46.33681" lon="5.29377">
        <ele>243</ele>
        <time>2022-04-11T12:39:40Z</time>
      </trkpt>
      <trkpt lat="46.33673" lon="5.2937">
        <ele>243.2</ele>
        <time>2022-04-11T12:39:42Z</time>
      </trkpt>
      <trkpt lat="46.33659" lon="5.29363">
        <ele>243.4</ele>
        <time>2022-04-11T12:39:45Z</time>
      </trkpt>
      <trkpt lat="46.3365" lon="5.29362">
        <ele>243.2</ele>
        <time>2022-04-11T12:39:47Z</time>
      </trkpt>
      <trkpt lat="46.33631" lon="5.29366">
        <ele>242.6</ele>
        <time>2022-04-11T12:39:51Z</time>
      </trkpt>
      <trkpt lat="46.33599" lon="5.29371">
        <ele>242.4</ele>
        <time>2022-04-11T12:39:58Z</time>
      </trkpt>
      <trkpt lat="46.33581" lon="5.29368">
        <ele>243</ele>
        <time>2022-04-11T12:40:03Z</time>
      </trkpt>
      <trkpt lat="46.33537" lon="5.29354">
        <ele>243.6</ele>
        <time>2022-04-11T12:40:13Z</time>
      </trkpt>
      <trkpt lat="46.33489" lon="5.29335">
        <ele>243</ele>
        <time>2022-04-11T12:40:23Z</time>
      </trkpt>
      <trkpt lat="46.33448" lon="5.29311">
        <ele>242.6</ele>
        <time>2022-04-11T12:40:32Z</time>
      </trkpt>
      <trkpt lat="46.33433" lon="5.29295">
        <ele>242.6</ele>
        <time>2022-04-11T12:40:37Z</time>
      </trkpt>
      <trkpt lat="46.33431" lon="5.29293">
        <ele>242.6</ele>
        <time>2022-04-11T12:40:41Z</time>
      </trkpt>
      <trkpt lat="46.3343" lon="5.29291">
        <ele>243.2</ele>
        <time>2022-04-11T12:42:30Z</time>
      </trkpt>
      <trkpt lat="46.33427" lon="5.29289">
        <ele>243</ele>
        <time>2022-04-11T12:42:31Z</time>
      </trkpt>
      <trkpt lat="46.33426" lon="5.29286">
        <ele>243</ele>
        <time>2022-04-11T12:42:32Z</time>
      </trkpt>
      <trkpt lat="46.33417" lon="5.29278">
        <ele>242.8</ele>
        <time>2022-04-11T12:42:36Z</time>
      </trkpt>
      <trkpt lat="46.33414" lon="5.2928">
        <ele>242.8</ele>
        <time>2022-04-11T12:42:37Z</time>
      </trkpt>
      <trkpt lat="46.33404" lon="5.29305">
        <ele>242.8</ele>
        <time>2022-04-11T12:42:41Z</time>
      </trkpt>
      <trkpt lat="46.33388" lon="5.29345">
        <ele>242.4</ele>
        <time>2022-04-11T12:42:46Z</time>
      </trkpt>
      <trkpt lat="46.33368" lon="5.29402">
        <ele>242.4</ele>
        <time>2022-04-11T12:42:53Z</time>
      </trkpt>
      <trkpt lat="46.33351" lon="5.29473">
        <ele>242.4</ele>
        <time>2022-04-11T12:43:01Z</time>
      </trkpt>
      <trkpt lat="46.3334" lon="5.29542">
        <ele>242.6</ele>
        <time>2022-04-11T12:43:09Z</time>
      </trkpt>
      <trkpt lat="46.33329" lon="5.29606">
        <ele>243</ele>
        <time>2022-04-11T12:43:17Z</time>
      </trkpt>
      <trkpt lat="46.33319" lon="5.29671">
        <ele>242.2</ele>
        <time>2022-04-11T12:43:24Z</time>
      </trkpt>
      <trkpt lat="46.33312" lon="5.29711">
        <ele>241.8</ele>
        <time>2022-04-11T12:43:28Z</time>
      </trkpt>
      <trkpt lat="46.33307" lon="5.29742">
        <ele>240.6</ele>
        <time>2022-04-11T12:43:31Z</time>
      </trkpt>
      <trkpt lat="46.33294" lon="5.29827">
        <ele>239.8</ele>
        <time>2022-04-11T12:43:40Z</time>
      </trkpt>
      <trkpt lat="46.33286" lon="5.29875">
        <ele>239.6</ele>
        <time>2022-04-11T12:43:45Z</time>
      </trkpt>
      <trkpt lat="46.33283" lon="5.29895">
        <ele>239.2</ele>
        <time>2022-04-11T12:43:47Z</time>
      </trkpt>
      <trkpt lat="46.33276" lon="5.29937">
        <ele>238.2</ele>
        <time>2022-04-11T12:43:51Z</time>
      </trkpt>
      <trkpt lat="46.33269" lon="5.2998">
        <ele>237.2</ele>
        <time>2022-04-11T12:43:55Z</time>
      </trkpt>
      <trkpt lat="46.33262" lon="5.30021">
        <ele>236.2</ele>
        <time>2022-04-11T12:43:59Z</time>
      </trkpt>
      <trkpt lat="46.33255" lon="5.30061">
        <ele>236.2</ele>
        <time>2022-04-11T12:44:03Z</time>
      </trkpt>
      <trkpt lat="46.33243" lon="5.30138">
        <ele>236.2</ele>
        <time>2022-04-11T12:44:11Z</time>
      </trkpt>
      <trkpt lat="46.33233" lon="5.30205">
        <ele>235.6</ele>
        <time>2022-04-11T12:44:18Z</time>
      </trkpt>
      <trkpt lat="46.33231" lon="5.30214">
        <ele>235.6</ele>
        <time>2022-04-11T12:44:19Z</time>
      </trkpt>
      <trkpt lat="46.33225" lon="5.30245">
        <ele>235</ele>
        <time>2022-04-11T12:44:22Z</time>
      </trkpt>
      <trkpt lat="46.33223" lon="5.30256">
        <ele>234.6</ele>
        <time>2022-04-11T12:44:23Z</time>
      </trkpt>
      <trkpt lat="46.33217" lon="5.3029">
        <ele>233.6</ele>
        <time>2022-04-11T12:44:26Z</time>
      </trkpt>
      <trkpt lat="46.3321" lon="5.30327">
        <ele>232.4</ele>
        <time>2022-04-11T12:44:29Z</time>
      </trkpt>
      <trkpt lat="46.33201" lon="5.30375">
        <ele>231.4</ele>
        <time>2022-04-11T12:44:33Z</time>
      </trkpt>
      <trkpt lat="46.33193" lon="5.30413">
        <ele>230.4</ele>
        <time>2022-04-11T12:44:36Z</time>
      </trkpt>
      <trkpt lat="46.33181" lon="5.30476">
        <ele>229.2</ele>
        <time>2022-04-11T12:44:41Z</time>
      </trkpt>
      <trkpt lat="46.33176" lon="5.30499">
        <ele>228.8</ele>
        <time>2022-04-11T12:44:43Z</time>
      </trkpt>
      <trkpt lat="46.33171" lon="5.30523">
        <ele>228.2</ele>
        <time>2022-04-11T12:44:45Z</time>
      </trkpt>
      <trkpt lat="46.33163" lon="5.30562">
        <ele>226.8</ele>
        <time>2022-04-11T12:44:48Z</time>
      </trkpt>
      <trkpt lat="46.33158" lon="5.3059">
        <ele>226.2</ele>
        <time>2022-04-11T12:44:50Z</time>
      </trkpt>
      <trkpt lat="46.33152" lon="5.30618">
        <ele>225.8</ele>
        <time>2022-04-11T12:44:52Z</time>
      </trkpt>
      <trkpt lat="46.33144" lon="5.30659">
        <ele>224.6</ele>
        <time>2022-04-11T12:44:55Z</time>
      </trkpt>
      <trkpt lat="46.33139" lon="5.30686">
        <ele>224.2</ele>
        <time>2022-04-11T12:44:57Z</time>
      </trkpt>
      <trkpt lat="46.33134" lon="5.30713">
        <ele>223.6</ele>
        <time>2022-04-11T12:44:59Z</time>
      </trkpt>
      <trkpt lat="46.33127" lon="5.3075">
        <ele>223</ele>
        <time>2022-04-11T12:45:02Z</time>
      </trkpt>
      <trkpt lat="46.33122" lon="5.30773">
        <ele>222.4</ele>
        <time>2022-04-11T12:45:04Z</time>
      </trkpt>
      <trkpt lat="46.33114" lon="5.30817">
        <ele>221.4</ele>
        <time>2022-04-11T12:45:08Z</time>
      </trkpt>
      <trkpt lat="46.33099" lon="5.30892">
        <ele>220.6</ele>
        <time>2022-04-11T12:45:15Z</time>
      </trkpt>
      <trkpt lat="46.33095" lon="5.30913">
        <ele>220.6</ele>
        <time>2022-04-11T12:45:17Z</time>
      </trkpt>
      <trkpt lat="46.33084" lon="5.30966">
        <ele>220.4</ele>
        <time>2022-04-11T12:45:22Z</time>
      </trkpt>
      <trkpt lat="46.33071" lon="5.31029">
        <ele>220</ele>
        <time>2022-04-11T12:45:28Z</time>
      </trkpt>
      <trkpt lat="46.33065" lon="5.3106">
        <ele>219.4</ele>
        <time>2022-04-11T12:45:31Z</time>
      </trkpt>
      <trkpt lat="46.33054" lon="5.31117">
        <ele>218.6</ele>
        <time>2022-04-11T12:45:37Z</time>
      </trkpt>
      <trkpt lat="46.33052" lon="5.31125">
        <ele>218.2</ele>
        <time>2022-04-11T12:45:38Z</time>
      </trkpt>
      <trkpt lat="46.33045" lon="5.31162">
        <ele>217.8</ele>
        <time>2022-04-11T12:45:42Z</time>
      </trkpt>
      <trkpt lat="46.33038" lon="5.31195">
        <ele>217</ele>
        <time>2022-04-11T12:45:45Z</time>
      </trkpt>
      <trkpt lat="46.33031" lon="5.31228">
        <ele>216.4</ele>
        <time>2022-04-11T12:45:48Z</time>
      </trkpt>
      <trkpt lat="46.33027" lon="5.3125">
        <ele>216</ele>
        <time>2022-04-11T12:45:50Z</time>
      </trkpt>
      <trkpt lat="46.33016" lon="5.313">
        <ele>214.8</ele>
        <time>2022-04-11T12:45:55Z</time>
      </trkpt>
      <trkpt lat="46.33013" lon="5.3131">
        <ele>214.8</ele>
        <time>2022-04-11T12:45:56Z</time>
      </trkpt>
      <trkpt lat="46.33004" lon="5.31326">
        <ele>214.2</ele>
        <time>2022-04-11T12:45:58Z</time>
      </trkpt>
      <trkpt lat="46.32999" lon="5.31333">
        <ele>214</ele>
        <time>2022-04-11T12:45:59Z</time>
      </trkpt>
      <trkpt lat="46.32994" lon="5.31339">
        <ele>213.8</ele>
        <time>2022-04-11T12:46:00Z</time>
      </trkpt>
      <trkpt lat="46.32989" lon="5.31344">
        <ele>213.8</ele>
        <time>2022-04-11T12:46:01Z</time>
      </trkpt>
      <trkpt lat="46.32974" lon="5.31359">
        <ele>213.8</ele>
        <time>2022-04-11T12:46:04Z</time>
      </trkpt>
      <trkpt lat="46.32969" lon="5.31372">
        <ele>213.8</ele>
        <time>2022-04-11T12:46:06Z</time>
      </trkpt>
      <trkpt lat="46.32969" lon="5.3138">
        <ele>214</ele>
        <time>2022-04-11T12:46:07Z</time>
      </trkpt>
      <trkpt lat="46.32971" lon="5.31387">
        <ele>214.2</ele>
        <time>2022-04-11T12:46:08Z</time>
      </trkpt>
      <trkpt lat="46.32974" lon="5.31395">
        <ele>215.2</ele>
        <time>2022-04-11T12:46:09Z</time>
      </trkpt>
      <trkpt lat="46.32978" lon="5.31402">
        <ele>215.8</ele>
        <time>2022-04-11T12:46:10Z</time>
      </trkpt>
      <trkpt lat="46.32982" lon="5.31409">
        <ele>216.4</ele>
        <time>2022-04-11T12:46:11Z</time>
      </trkpt>
      <trkpt lat="46.32986" lon="5.31416">
        <ele>216.6</ele>
        <time>2022-04-11T12:46:12Z</time>
      </trkpt>
      <trkpt lat="46.32991" lon="5.31433">
        <ele>216.8</ele>
        <time>2022-04-11T12:46:14Z</time>
      </trkpt>
      <trkpt lat="46.32999" lon="5.31488">
        <ele>216.8</ele>
        <time>2022-04-11T12:46:20Z</time>
      </trkpt>
      <trkpt lat="46.33005" lon="5.31558">
        <ele>216.2</ele>
        <time>2022-04-11T12:46:27Z</time>
      </trkpt>
      <trkpt lat="46.33007" lon="5.31567">
        <ele>216</ele>
        <time>2022-04-11T12:46:28Z</time>
      </trkpt>
      <trkpt lat="46.33019" lon="5.31606">
        <ele>215.4</ele>
        <time>2022-04-11T12:46:32Z</time>
      </trkpt>
      <trkpt lat="46.33025" lon="5.31625">
        <ele>215.4</ele>
        <time>2022-04-11T12:46:34Z</time>
      </trkpt>
      <trkpt lat="46.33052" lon="5.31701">
        <ele>215.6</ele>
        <time>2022-04-11T12:46:42Z</time>
      </trkpt>
      <trkpt lat="46.33057" lon="5.31721">
        <ele>215.6</ele>
        <time>2022-04-11T12:46:44Z</time>
      </trkpt>
      <trkpt lat="46.33067" lon="5.31761">
        <ele>215.8</ele>
        <time>2022-04-11T12:46:48Z</time>
      </trkpt>
      <trkpt lat="46.33072" lon="5.31782">
        <ele>216</ele>
        <time>2022-04-11T12:46:50Z</time>
      </trkpt>
      <trkpt lat="46.33091" lon="5.31855">
        <ele>215.6</ele>
        <time>2022-04-11T12:46:57Z</time>
      </trkpt>
      <trkpt lat="46.33111" lon="5.31935">
        <ele>215.4</ele>
        <time>2022-04-11T12:47:05Z</time>
      </trkpt>
      <trkpt lat="46.33113" lon="5.31945">
        <ele>215.6</ele>
        <time>2022-04-11T12:47:06Z</time>
      </trkpt>
      <trkpt lat="46.33126" lon="5.31994">
        <ele>216</ele>
        <time>2022-04-11T12:47:11Z</time>
      </trkpt>
      <trkpt lat="46.33145" lon="5.32073">
        <ele>216.4</ele>
        <time>2022-04-11T12:47:19Z</time>
      </trkpt>
      <trkpt lat="46.33148" lon="5.32083">
        <ele>216.6</ele>
        <time>2022-04-11T12:47:20Z</time>
      </trkpt>
      <trkpt lat="46.33162" lon="5.32141">
        <ele>217</ele>
        <time>2022-04-11T12:47:26Z</time>
      </trkpt>
      <trkpt lat="46.33184" lon="5.32214">
        <ele>217.2</ele>
        <time>2022-04-11T12:47:34Z</time>
      </trkpt>
      <trkpt lat="46.33203" lon="5.32257">
        <ele>217.6</ele>
        <time>2022-04-11T12:47:39Z</time>
      </trkpt>
      <trkpt lat="46.33216" lon="5.32282">
        <ele>217.8</ele>
        <time>2022-04-11T12:47:42Z</time>
      </trkpt>
      <trkpt lat="46.33251" lon="5.32348">
        <ele>217.8</ele>
        <time>2022-04-11T12:47:50Z</time>
      </trkpt>
      <trkpt lat="46.33259" lon="5.32364">
        <ele>217.8</ele>
        <time>2022-04-11T12:47:52Z</time>
      </trkpt>
      <trkpt lat="46.33295" lon="5.32431">
        <ele>218</ele>
        <time>2022-04-11T12:48:00Z</time>
      </trkpt>
      <trkpt lat="46.33304" lon="5.32448">
        <ele>218</ele>
        <time>2022-04-11T12:48:02Z</time>
      </trkpt>
      <trkpt lat="46.33334" lon="5.32507">
        <ele>218.2</ele>
        <time>2022-04-11T12:48:09Z</time>
      </trkpt>
      <trkpt lat="46.33353" lon="5.32547">
        <ele>218.8</ele>
        <time>2022-04-11T12:48:14Z</time>
      </trkpt>
      <trkpt lat="46.33365" lon="5.32569">
        <ele>219.2</ele>
        <time>2022-04-11T12:48:17Z</time>
      </trkpt>
      <trkpt lat="46.33374" lon="5.32584">
        <ele>220</ele>
        <time>2022-04-11T12:48:19Z</time>
      </trkpt>
      <trkpt lat="46.33397" lon="5.32624">
        <ele>220.6</ele>
        <time>2022-04-11T12:48:24Z</time>
      </trkpt>
      <trkpt lat="46.33432" lon="5.32679">
        <ele>220.8</ele>
        <time>2022-04-11T12:48:31Z</time>
      </trkpt>
      <trkpt lat="46.33476" lon="5.3272">
        <ele>221</ele>
        <time>2022-04-11T12:48:38Z</time>
      </trkpt>
      <trkpt lat="46.3353" lon="5.32758">
        <ele>221.8</ele>
        <time>2022-04-11T12:48:46Z</time>
      </trkpt>
      <trkpt lat="46.33544" lon="5.32768">
        <ele>221.8</ele>
        <time>2022-04-11T12:48:48Z</time>
      </trkpt>
      <trkpt lat="46.33597" lon="5.32799">
        <ele>221.6</ele>
        <time>2022-04-11T12:48:55Z</time>
      </trkpt>
      <trkpt lat="46.3362" lon="5.32816">
        <ele>221</ele>
        <time>2022-04-11T12:48:58Z</time>
      </trkpt>
      <trkpt lat="46.33633" lon="5.32832">
        <ele>220.8</ele>
        <time>2022-04-11T12:49:00Z</time>
      </trkpt>
      <trkpt lat="46.33639" lon="5.32842">
        <ele>220.8</ele>
        <time>2022-04-11T12:49:01Z</time>
      </trkpt>
      <trkpt lat="46.33652" lon="5.32873">
        <ele>220</ele>
        <time>2022-04-11T12:49:04Z</time>
      </trkpt>
      <trkpt lat="46.3367" lon="5.32938">
        <ele>219.4</ele>
        <time>2022-04-11T12:49:10Z</time>
      </trkpt>
      <trkpt lat="46.33672" lon="5.32949">
        <ele>219.2</ele>
        <time>2022-04-11T12:49:11Z</time>
      </trkpt>
      <trkpt lat="46.33673" lon="5.3296">
        <ele>219.2</ele>
        <time>2022-04-11T12:49:12Z</time>
      </trkpt>
      <trkpt lat="46.33673" lon="5.32983">
        <ele>218.8</ele>
        <time>2022-04-11T12:49:14Z</time>
      </trkpt>
      <trkpt lat="46.33672" lon="5.33059">
        <ele>218.8</ele>
        <time>2022-04-11T12:49:21Z</time>
      </trkpt>
      <trkpt lat="46.3367" lon="5.3314">
        <ele>219</ele>
        <time>2022-04-11T12:49:29Z</time>
      </trkpt>
      <trkpt lat="46.33676" lon="5.33193">
        <ele>219</ele>
        <time>2022-04-11T12:49:34Z</time>
      </trkpt>
      <trkpt lat="46.33679" lon="5.33203">
        <ele>219</ele>
        <time>2022-04-11T12:49:35Z</time>
      </trkpt>
      <trkpt lat="46.33689" lon="5.33233">
        <ele>218.8</ele>
        <time>2022-04-11T12:49:38Z</time>
      </trkpt>
      <trkpt lat="46.33712" lon="5.33282">
        <ele>218.6</ele>
        <time>2022-04-11T12:49:43Z</time>
      </trkpt>
      <trkpt lat="46.33718" lon="5.33291">
        <ele>218.6</ele>
        <time>2022-04-11T12:49:44Z</time>
      </trkpt>
      <trkpt lat="46.33753" lon="5.33326">
        <ele>218.4</ele>
        <time>2022-04-11T12:49:49Z</time>
      </trkpt>
      <trkpt lat="46.33804" lon="5.33373">
        <ele>218</ele>
        <time>2022-04-11T12:49:56Z</time>
      </trkpt>
      <trkpt lat="46.33831" lon="5.334">
        <ele>217.8</ele>
        <time>2022-04-11T12:50:00Z</time>
      </trkpt>
      <trkpt lat="46.33857" lon="5.33426">
        <ele>217.4</ele>
        <time>2022-04-11T12:50:04Z</time>
      </trkpt>
      <trkpt lat="46.33905" lon="5.3347">
        <ele>218.2</ele>
        <time>2022-04-11T12:50:11Z</time>
      </trkpt>
      <trkpt lat="46.33918" lon="5.33483">
        <ele>218.6</ele>
        <time>2022-04-11T12:50:13Z</time>
      </trkpt>
      <trkpt lat="46.33945" lon="5.33508">
        <ele>219</ele>
        <time>2022-04-11T12:50:17Z</time>
      </trkpt>
      <trkpt lat="46.33984" lon="5.33547">
        <ele>219.2</ele>
        <time>2022-04-11T12:50:23Z</time>
      </trkpt>
      <trkpt lat="46.34035" lon="5.33595">
        <ele>219.2</ele>
        <time>2022-04-11T12:50:31Z</time>
      </trkpt>
      <trkpt lat="46.34042" lon="5.33601">
        <ele>219</ele>
        <time>2022-04-11T12:50:32Z</time>
      </trkpt>
      <trkpt lat="46.34088" lon="5.33646">
        <ele>219.6</ele>
        <time>2022-04-11T12:50:40Z</time>
      </trkpt>
      <trkpt lat="46.34124" lon="5.33682">
        <ele>219.2</ele>
        <time>2022-04-11T12:50:46Z</time>
      </trkpt>
      <trkpt lat="46.3413" lon="5.33689">
        <ele>219.2</ele>
        <time>2022-04-11T12:50:47Z</time>
      </trkpt>
      <trkpt lat="46.34135" lon="5.33698">
        <ele>219</ele>
        <time>2022-04-11T12:50:48Z</time>
      </trkpt>
      <trkpt lat="46.34141" lon="5.33717">
        <ele>218.6</ele>
        <time>2022-04-11T12:50:50Z</time>
      </trkpt>
      <trkpt lat="46.34143" lon="5.33726">
        <ele>218.8</ele>
        <time>2022-04-11T12:50:51Z</time>
      </trkpt>
      <trkpt lat="46.34147" lon="5.33756">
        <ele>218.8</ele>
        <time>2022-04-11T12:50:54Z</time>
      </trkpt>
      <trkpt lat="46.34152" lon="5.33825">
        <ele>218.8</ele>
        <time>2022-04-11T12:51:01Z</time>
      </trkpt>
      <trkpt lat="46.34155" lon="5.33862">
        <ele>220</ele>
        <time>2022-04-11T12:51:05Z</time>
      </trkpt>
      <trkpt lat="46.34156" lon="5.3387">
        <ele>220</ele>
        <time>2022-04-11T12:51:06Z</time>
      </trkpt>
      <trkpt lat="46.34157" lon="5.33879">
        <ele>220.2</ele>
        <time>2022-04-11T12:51:07Z</time>
      </trkpt>
      <trkpt lat="46.34161" lon="5.33929">
        <ele>220.4</ele>
        <time>2022-04-11T12:51:13Z</time>
      </trkpt>
      <trkpt lat="46.34163" lon="5.33945">
        <ele>220.2</ele>
        <time>2022-04-11T12:51:15Z</time>
      </trkpt>
      <trkpt lat="46.34167" lon="5.33977">
        <ele>220.6</ele>
        <time>2022-04-11T12:51:19Z</time>
      </trkpt>
      <trkpt lat="46.34173" lon="5.3401">
        <ele>221.4</ele>
        <time>2022-04-11T12:51:23Z</time>
      </trkpt>
      <trkpt lat="46.34176" lon="5.34027">
        <ele>221.6</ele>
        <time>2022-04-11T12:51:25Z</time>
      </trkpt>
      <trkpt lat="46.34189" lon="5.3408">
        <ele>222.2</ele>
        <time>2022-04-11T12:51:31Z</time>
      </trkpt>
      <trkpt lat="46.34191" lon="5.34089">
        <ele>222.4</ele>
        <time>2022-04-11T12:51:32Z</time>
      </trkpt>
      <trkpt lat="46.34206" lon="5.34158">
        <ele>222.2</ele>
        <time>2022-04-11T12:51:40Z</time>
      </trkpt>
      <trkpt lat="46.34224" lon="5.34232">
        <ele>222</ele>
        <time>2022-04-11T12:51:49Z</time>
      </trkpt>
      <trkpt lat="46.34242" lon="5.34297">
        <ele>221.8</ele>
        <time>2022-04-11T12:51:57Z</time>
      </trkpt>
      <trkpt lat="46.3426" lon="5.3437">
        <ele>222.2</ele>
        <time>2022-04-11T12:52:06Z</time>
      </trkpt>
      <trkpt lat="46.34268" lon="5.3444">
        <ele>222.2</ele>
        <time>2022-04-11T12:52:14Z</time>
      </trkpt>
      <trkpt lat="46.34274" lon="5.34514">
        <ele>221.8</ele>
        <time>2022-04-11T12:52:22Z</time>
      </trkpt>
      <trkpt lat="46.3429" lon="5.34566">
        <ele>222.6</ele>
        <time>2022-04-11T12:52:28Z</time>
      </trkpt>
      <trkpt lat="46.34312" lon="5.34625">
        <ele>222.4</ele>
        <time>2022-04-11T12:52:35Z</time>
      </trkpt>
      <trkpt lat="46.3434" lon="5.34699">
        <ele>222</ele>
        <time>2022-04-11T12:52:44Z</time>
      </trkpt>
      <trkpt lat="46.34367" lon="5.34769">
        <ele>221.6</ele>
        <time>2022-04-11T12:52:52Z</time>
      </trkpt>
      <trkpt lat="46.34395" lon="5.34843">
        <ele>221</ele>
        <time>2022-04-11T12:53:00Z</time>
      </trkpt>
      <trkpt lat="46.34402" lon="5.34861">
        <ele>221</ele>
        <time>2022-04-11T12:53:02Z</time>
      </trkpt>
      <trkpt lat="46.34428" lon="5.34934">
        <ele>220.8</ele>
        <time>2022-04-11T12:53:10Z</time>
      </trkpt>
      <trkpt lat="46.34435" lon="5.34952">
        <ele>220.6</ele>
        <time>2022-04-11T12:53:12Z</time>
      </trkpt>
      <trkpt lat="46.34456" lon="5.35015">
        <ele>220.6</ele>
        <time>2022-04-11T12:53:19Z</time>
      </trkpt>
      <trkpt lat="46.34459" lon="5.35024">
        <ele>220.8</ele>
        <time>2022-04-11T12:53:20Z</time>
      </trkpt>
      <trkpt lat="46.34483" lon="5.35098">
        <ele>221</ele>
        <time>2022-04-11T12:53:28Z</time>
      </trkpt>
      <trkpt lat="46.34506" lon="5.35173">
        <ele>221.2</ele>
        <time>2022-04-11T12:53:37Z</time>
      </trkpt>
      <trkpt lat="46.3452" lon="5.35216">
        <ele>221.8</ele>
        <time>2022-04-11T12:53:43Z</time>
      </trkpt>
      <trkpt lat="46.34522" lon="5.35224">
        <ele>222</ele>
        <time>2022-04-11T12:53:44Z</time>
      </trkpt>
      <trkpt lat="46.34528" lon="5.35242">
        <ele>222.4</ele>
        <time>2022-04-11T12:53:47Z</time>
      </trkpt>
      <trkpt lat="46.34536" lon="5.3525">
        <ele>222.4</ele>
        <time>2022-04-11T12:53:49Z</time>
      </trkpt>
      <trkpt lat="46.34545" lon="5.35247">
        <ele>222.4</ele>
        <time>2022-04-11T12:53:51Z</time>
      </trkpt>
      <trkpt lat="46.3455" lon="5.35243">
        <ele>222.4</ele>
        <time>2022-04-11T12:53:52Z</time>
      </trkpt>
      <trkpt lat="46.34585" lon="5.35218">
        <ele>223</ele>
        <time>2022-04-11T12:54:00Z</time>
      </trkpt>
      <trkpt lat="46.34589" lon="5.35215">
        <ele>223.2</ele>
        <time>2022-04-11T12:54:01Z</time>
      </trkpt>
      <trkpt lat="46.34609" lon="5.35198">
        <ele>224.2</ele>
        <time>2022-04-11T12:54:06Z</time>
      </trkpt>
      <trkpt lat="46.34617" lon="5.35192">
        <ele>224.4</ele>
        <time>2022-04-11T12:54:08Z</time>
      </trkpt>
      <trkpt lat="46.3462" lon="5.35189">
        <ele>224.6</ele>
        <time>2022-04-11T12:54:09Z</time>
      </trkpt>
      <trkpt lat="46.34632" lon="5.35179">
        <ele>225.6</ele>
        <time>2022-04-11T12:54:12Z</time>
      </trkpt>
      <trkpt lat="46.34648" lon="5.35167">
        <ele>227.2</ele>
        <time>2022-04-11T12:54:16Z</time>
      </trkpt>
      <trkpt lat="46.34652" lon="5.35164">
        <ele>227.8</ele>
        <time>2022-04-11T12:54:17Z</time>
      </trkpt>
      <trkpt lat="46.3466" lon="5.35158">
        <ele>228.6</ele>
        <time>2022-04-11T12:54:19Z</time>
      </trkpt>
      <trkpt lat="46.34671" lon="5.3515">
        <ele>229.6</ele>
        <time>2022-04-11T12:54:22Z</time>
      </trkpt>
      <trkpt lat="46.34679" lon="5.35145">
        <ele>230.8</ele>
        <time>2022-04-11T12:54:24Z</time>
      </trkpt>
      <trkpt lat="46.34697" lon="5.35133">
        <ele>232</ele>
        <time>2022-04-11T12:54:29Z</time>
      </trkpt>
      <trkpt lat="46.34707" lon="5.35125">
        <ele>233</ele>
        <time>2022-04-11T12:54:32Z</time>
      </trkpt>
      <trkpt lat="46.34727" lon="5.3511">
        <ele>234</ele>
        <time>2022-04-11T12:54:38Z</time>
      </trkpt>
      <trkpt lat="46.34741" lon="5.351">
        <ele>235.2</ele>
        <time>2022-04-11T12:54:42Z</time>
      </trkpt>
      <trkpt lat="46.34755" lon="5.35089">
        <ele>236.6</ele>
        <time>2022-04-11T12:54:46Z</time>
      </trkpt>
      <trkpt lat="46.34765" lon="5.35082">
        <ele>237.8</ele>
        <time>2022-04-11T12:54:49Z</time>
      </trkpt>
      <trkpt lat="46.34776" lon="5.35075">
        <ele>238</ele>
        <time>2022-04-11T12:54:52Z</time>
      </trkpt>
      <trkpt lat="46.34797" lon="5.35061">
        <ele>238.8</ele>
        <time>2022-04-11T12:54:58Z</time>
      </trkpt>
      <trkpt lat="46.34814" lon="5.35051">
        <ele>240</ele>
        <time>2022-04-11T12:55:03Z</time>
      </trkpt>
      <trkpt lat="46.34818" lon="5.35048">
        <ele>240</ele>
        <time>2022-04-11T12:55:04Z</time>
      </trkpt>
      <trkpt lat="46.34836" lon="5.35038">
        <ele>241.2</ele>
        <time>2022-04-11T12:55:09Z</time>
      </trkpt>
      <trkpt lat="46.34851" lon="5.35029">
        <ele>242</ele>
        <time>2022-04-11T12:55:13Z</time>
      </trkpt>
      <trkpt lat="46.34855" lon="5.35027">
        <ele>242.4</ele>
        <time>2022-04-11T12:55:14Z</time>
      </trkpt>
      <trkpt lat="46.34866" lon="5.3502">
        <ele>243.6</ele>
        <time>2022-04-11T12:55:17Z</time>
      </trkpt>
      <trkpt lat="46.34881" lon="5.35013">
        <ele>245</ele>
        <time>2022-04-11T12:55:21Z</time>
      </trkpt>
      <trkpt lat="46.34892" lon="5.35007">
        <ele>246.2</ele>
        <time>2022-04-11T12:55:24Z</time>
      </trkpt>
      <trkpt lat="46.34907" lon="5.34998">
        <ele>247.4</ele>
        <time>2022-04-11T12:55:28Z</time>
      </trkpt>
      <trkpt lat="46.34933" lon="5.34983">
        <ele>248.4</ele>
        <time>2022-04-11T12:55:35Z</time>
      </trkpt>
      <trkpt lat="46.34952" lon="5.34974">
        <ele>249.6</ele>
        <time>2022-04-11T12:55:40Z</time>
      </trkpt>
      <trkpt lat="46.34955" lon="5.34971">
        <ele>249.6</ele>
        <time>2022-04-11T12:55:41Z</time>
      </trkpt>
      <trkpt lat="46.34967" lon="5.34966">
        <ele>250.6</ele>
        <time>2022-04-11T12:55:44Z</time>
      </trkpt>
      <trkpt lat="46.34979" lon="5.3496">
        <ele>251.6</ele>
        <time>2022-04-11T12:55:47Z</time>
      </trkpt>
      <trkpt lat="46.3499" lon="5.34954">
        <ele>253</ele>
        <time>2022-04-11T12:55:50Z</time>
      </trkpt>
      <trkpt lat="46.34994" lon="5.34952">
        <ele>253.2</ele>
        <time>2022-04-11T12:55:51Z</time>
      </trkpt>
      <trkpt lat="46.35014" lon="5.34941">
        <ele>254</ele>
        <time>2022-04-11T12:55:56Z</time>
      </trkpt>
      <trkpt lat="46.35038" lon="5.34928">
        <ele>254.8</ele>
        <time>2022-04-11T12:56:02Z</time>
      </trkpt>
      <trkpt lat="46.35052" lon="5.3492">
        <ele>255.4</ele>
        <time>2022-04-11T12:56:05Z</time>
      </trkpt>
      <trkpt lat="46.35079" lon="5.34907">
        <ele>256.4</ele>
        <time>2022-04-11T12:56:11Z</time>
      </trkpt>
      <trkpt lat="46.35105" lon="5.34895">
        <ele>257.6</ele>
        <time>2022-04-11T12:56:17Z</time>
      </trkpt>
      <trkpt lat="46.35124" lon="5.3489">
        <ele>258.4</ele>
        <time>2022-04-11T12:56:21Z</time>
      </trkpt>
      <trkpt lat="46.35129" lon="5.34888">
        <ele>258.6</ele>
        <time>2022-04-11T12:56:22Z</time>
      </trkpt>
      <trkpt lat="46.35174" lon="5.34877">
        <ele>259.6</ele>
        <time>2022-04-11T12:56:31Z</time>
      </trkpt>
      <trkpt lat="46.35183" lon="5.34874">
        <ele>259.6</ele>
        <time>2022-04-11T12:56:33Z</time>
      </trkpt>
      <trkpt lat="46.35217" lon="5.34864">
        <ele>261</ele>
        <time>2022-04-11T12:56:40Z</time>
      </trkpt>
      <trkpt lat="46.35222" lon="5.34863">
        <ele>261</ele>
        <time>2022-04-11T12:56:41Z</time>
      </trkpt>
      <trkpt lat="46.3524" lon="5.34858">
        <ele>262</ele>
        <time>2022-04-11T12:56:45Z</time>
      </trkpt>
      <trkpt lat="46.35245" lon="5.34857">
        <ele>262.4</ele>
        <time>2022-04-11T12:56:46Z</time>
      </trkpt>
      <trkpt lat="46.35258" lon="5.34853">
        <ele>263.2</ele>
        <time>2022-04-11T12:56:49Z</time>
      </trkpt>
      <trkpt lat="46.35271" lon="5.3485">
        <ele>263.4</ele>
        <time>2022-04-11T12:56:52Z</time>
      </trkpt>
      <trkpt lat="46.35285" lon="5.34847">
        <ele>264.2</ele>
        <time>2022-04-11T12:56:55Z</time>
      </trkpt>
      <trkpt lat="46.35307" lon="5.34841">
        <ele>265.4</ele>
        <time>2022-04-11T12:57:00Z</time>
      </trkpt>
      <trkpt lat="46.35312" lon="5.34839">
        <ele>265.6</ele>
        <time>2022-04-11T12:57:01Z</time>
      </trkpt>
      <trkpt lat="46.35321" lon="5.34837">
        <ele>266.8</ele>
        <time>2022-04-11T12:57:03Z</time>
      </trkpt>
      <trkpt lat="46.35343" lon="5.34829">
        <ele>267.8</ele>
        <time>2022-04-11T12:57:08Z</time>
      </trkpt>
      <trkpt lat="46.35353" lon="5.34827">
        <ele>268</ele>
        <time>2022-04-11T12:57:10Z</time>
      </trkpt>
      <trkpt lat="46.35389" lon="5.34821">
        <ele>268.8</ele>
        <time>2022-04-11T12:57:17Z</time>
      </trkpt>
      <trkpt lat="46.35395" lon="5.34821">
        <ele>268.8</ele>
        <time>2022-04-11T12:57:18Z</time>
      </trkpt>
      <trkpt lat="46.35444" lon="5.34823">
        <ele>269.6</ele>
        <time>2022-04-11T12:57:27Z</time>
      </trkpt>
      <trkpt lat="46.35465" lon="5.34825">
        <ele>269.6</ele>
        <time>2022-04-11T12:57:31Z</time>
      </trkpt>
      <trkpt lat="46.35486" lon="5.34828">
        <ele>269.6</ele>
        <time>2022-04-11T12:57:35Z</time>
      </trkpt>
      <trkpt lat="46.35492" lon="5.34828">
        <ele>269.6</ele>
        <time>2022-04-11T12:57:36Z</time>
      </trkpt>
      <trkpt lat="46.35511" lon="5.34829">
        <ele>270.8</ele>
        <time>2022-04-11T12:57:40Z</time>
      </trkpt>
      <trkpt lat="46.35536" lon="5.34829">
        <ele>271.4</ele>
        <time>2022-04-11T12:57:45Z</time>
      </trkpt>
      <trkpt lat="46.35541" lon="5.34829">
        <ele>271.6</ele>
        <time>2022-04-11T12:57:46Z</time>
      </trkpt>
      <trkpt lat="46.3555" lon="5.34828">
        <ele>272</ele>
        <time>2022-04-11T12:57:48Z</time>
      </trkpt>
      <trkpt lat="46.35569" lon="5.34826">
        <ele>273.2</ele>
        <time>2022-04-11T12:57:52Z</time>
      </trkpt>
      <trkpt lat="46.35596" lon="5.34823">
        <ele>274.4</ele>
        <time>2022-04-11T12:57:58Z</time>
      </trkpt>
      <trkpt lat="46.35605" lon="5.34823">
        <ele>274.6</ele>
        <time>2022-04-11T12:58:00Z</time>
      </trkpt>
      <trkpt lat="46.35618" lon="5.34821">
        <ele>275.6</ele>
        <time>2022-04-11T12:58:03Z</time>
      </trkpt>
      <trkpt lat="46.35632" lon="5.34818">
        <ele>276.6</ele>
        <time>2022-04-11T12:58:06Z</time>
      </trkpt>
      <trkpt lat="46.35641" lon="5.34816">
        <ele>277.4</ele>
        <time>2022-04-11T12:58:08Z</time>
      </trkpt>
      <trkpt lat="46.35655" lon="5.34812">
        <ele>277.8</ele>
        <time>2022-04-11T12:58:11Z</time>
      </trkpt>
      <trkpt lat="46.3566" lon="5.3481">
        <ele>278.2</ele>
        <time>2022-04-11T12:58:12Z</time>
      </trkpt>
      <trkpt lat="46.35669" lon="5.34805">
        <ele>278.8</ele>
        <time>2022-04-11T12:58:14Z</time>
      </trkpt>
      <trkpt lat="46.35674" lon="5.34802">
        <ele>279.4</ele>
        <time>2022-04-11T12:58:15Z</time>
      </trkpt>
      <trkpt lat="46.35683" lon="5.34796">
        <ele>279.8</ele>
        <time>2022-04-11T12:58:17Z</time>
      </trkpt>
      <trkpt lat="46.35711" lon="5.34776">
        <ele>281</ele>
        <time>2022-04-11T12:58:23Z</time>
      </trkpt>
      <trkpt lat="46.3575" lon="5.34749">
        <ele>281.2</ele>
        <time>2022-04-11T12:58:30Z</time>
      </trkpt>
      <trkpt lat="46.35789" lon="5.34722">
        <ele>280.2</ele>
        <time>2022-04-11T12:58:36Z</time>
      </trkpt>
      <trkpt lat="46.35837" lon="5.34689">
        <ele>280.4</ele>
        <time>2022-04-11T12:58:43Z</time>
      </trkpt>
      <trkpt lat="46.35888" lon="5.34652">
        <ele>280.6</ele>
        <time>2022-04-11T12:58:51Z</time>
      </trkpt>
      <trkpt lat="46.35934" lon="5.34623">
        <ele>282.2</ele>
        <time>2022-04-11T12:58:58Z</time>
      </trkpt>
      <trkpt lat="46.3594" lon="5.34619">
        <ele>282.4</ele>
        <time>2022-04-11T12:58:59Z</time>
      </trkpt>
      <trkpt lat="46.35971" lon="5.34597">
        <ele>283.2</ele>
        <time>2022-04-11T12:59:04Z</time>
      </trkpt>
      <trkpt lat="46.35997" lon="5.34579">
        <ele>284</ele>
        <time>2022-04-11T12:59:08Z</time>
      </trkpt>
      <trkpt lat="46.36033" lon="5.34557">
        <ele>283.8</ele>
        <time>2022-04-11T12:59:13Z</time>
      </trkpt>
      <trkpt lat="46.36079" lon="5.34551">
        <ele>282.4</ele>
        <time>2022-04-11T12:59:18Z</time>
      </trkpt>
      <trkpt lat="46.36089" lon="5.3455">
        <ele>281.8</ele>
        <time>2022-04-11T12:59:19Z</time>
      </trkpt>
      <trkpt lat="46.3612" lon="5.34543">
        <ele>280.6</ele>
        <time>2022-04-11T12:59:22Z</time>
      </trkpt>
      <trkpt lat="46.36131" lon="5.34541">
        <ele>280.2</ele>
        <time>2022-04-11T12:59:23Z</time>
      </trkpt>
      <trkpt lat="46.36143" lon="5.34539">
        <ele>279.4</ele>
        <time>2022-04-11T12:59:24Z</time>
      </trkpt>
      <trkpt lat="46.36155" lon="5.3454">
        <ele>279.2</ele>
        <time>2022-04-11T12:59:25Z</time>
      </trkpt>
      <trkpt lat="46.36167" lon="5.34542">
        <ele>278.6</ele>
        <time>2022-04-11T12:59:26Z</time>
      </trkpt>
      <trkpt lat="46.36178" lon="5.34545">
        <ele>278.2</ele>
        <time>2022-04-11T12:59:27Z</time>
      </trkpt>
      <trkpt lat="46.36188" lon="5.34549">
        <ele>277.2</ele>
        <time>2022-04-11T12:59:28Z</time>
      </trkpt>
      <trkpt lat="46.36206" lon="5.34561">
        <ele>275.4</ele>
        <time>2022-04-11T12:59:30Z</time>
      </trkpt>
      <trkpt lat="46.36218" lon="5.34581">
        <ele>274</ele>
        <time>2022-04-11T12:59:32Z</time>
      </trkpt>
      <trkpt lat="46.36221" lon="5.34593">
        <ele>273.2</ele>
        <time>2022-04-11T12:59:33Z</time>
      </trkpt>
      <trkpt lat="46.3622" lon="5.34607">
        <ele>273</ele>
        <time>2022-04-11T12:59:34Z</time>
      </trkpt>
      <trkpt lat="46.36214" lon="5.3462">
        <ele>271.6</ele>
        <time>2022-04-11T12:59:35Z</time>
      </trkpt>
      <trkpt lat="46.36207" lon="5.34633">
        <ele>271</ele>
        <time>2022-04-11T12:59:36Z</time>
      </trkpt>
      <trkpt lat="46.36199" lon="5.34645">
        <ele>269.8</ele>
        <time>2022-04-11T12:59:37Z</time>
      </trkpt>
      <trkpt lat="46.36191" lon="5.34658">
        <ele>268.6</ele>
        <time>2022-04-11T12:59:38Z</time>
      </trkpt>
      <trkpt lat="46.36183" lon="5.34671">
        <ele>268</ele>
        <time>2022-04-11T12:59:39Z</time>
      </trkpt>
      <trkpt lat="46.36178" lon="5.34685">
        <ele>267</ele>
        <time>2022-04-11T12:59:40Z</time>
      </trkpt>
      <trkpt lat="46.36175" lon="5.34701">
        <ele>266.4</ele>
        <time>2022-04-11T12:59:41Z</time>
      </trkpt>
      <trkpt lat="46.36177" lon="5.34717">
        <ele>265.4</ele>
        <time>2022-04-11T12:59:42Z</time>
      </trkpt>
      <trkpt lat="46.36183" lon="5.34731">
        <ele>265</ele>
        <time>2022-04-11T12:59:43Z</time>
      </trkpt>
      <trkpt lat="46.3619" lon="5.34742">
        <ele>264.2</ele>
        <time>2022-04-11T12:59:44Z</time>
      </trkpt>
      <trkpt lat="46.36199" lon="5.34747">
        <ele>263.6</ele>
        <time>2022-04-11T12:59:45Z</time>
      </trkpt>
      <trkpt lat="46.3622" lon="5.34744">
        <ele>263</ele>
        <time>2022-04-11T12:59:47Z</time>
      </trkpt>
      <trkpt lat="46.36242" lon="5.34735">
        <ele>261.8</ele>
        <time>2022-04-11T12:59:49Z</time>
      </trkpt>
      <trkpt lat="46.36264" lon="5.34727">
        <ele>261</ele>
        <time>2022-04-11T12:59:51Z</time>
      </trkpt>
      <trkpt lat="46.36275" lon="5.34725">
        <ele>260</ele>
        <time>2022-04-11T12:59:52Z</time>
      </trkpt>
      <trkpt lat="46.36298" lon="5.34726">
        <ele>259</ele>
        <time>2022-04-11T12:59:54Z</time>
      </trkpt>
      <trkpt lat="46.3632" lon="5.3473">
        <ele>257.2</ele>
        <time>2022-04-11T12:59:56Z</time>
      </trkpt>
      <trkpt lat="46.36341" lon="5.34733">
        <ele>256</ele>
        <time>2022-04-11T12:59:58Z</time>
      </trkpt>
      <trkpt lat="46.36361" lon="5.34736">
        <ele>255.2</ele>
        <time>2022-04-11T13:00:00Z</time>
      </trkpt>
      <trkpt lat="46.36371" lon="5.34738">
        <ele>254.6</ele>
        <time>2022-04-11T13:00:01Z</time>
      </trkpt>
      <trkpt lat="46.36404" lon="5.34739">
        <ele>253.6</ele>
        <time>2022-04-11T13:00:04Z</time>
      </trkpt>
      <trkpt lat="46.36425" lon="5.34743">
        <ele>252</ele>
        <time>2022-04-11T13:00:06Z</time>
      </trkpt>
      <trkpt lat="46.36447" lon="5.34743">
        <ele>250.8</ele>
        <time>2022-04-11T13:00:08Z</time>
      </trkpt>
      <trkpt lat="46.36458" lon="5.34743">
        <ele>250.4</ele>
        <time>2022-04-11T13:00:09Z</time>
      </trkpt>
      <trkpt lat="46.36468" lon="5.34741">
        <ele>250</ele>
        <time>2022-04-11T13:00:10Z</time>
      </trkpt>
      <trkpt lat="46.36478" lon="5.34739">
        <ele>249.6</ele>
        <time>2022-04-11T13:00:11Z</time>
      </trkpt>
      <trkpt lat="46.36495" lon="5.34733">
        <ele>249.2</ele>
        <time>2022-04-11T13:00:13Z</time>
      </trkpt>
      <trkpt lat="46.36524" lon="5.3472">
        <ele>249</ele>
        <time>2022-04-11T13:00:17Z</time>
      </trkpt>
      <trkpt lat="46.3653" lon="5.34715">
        <ele>249.4</ele>
        <time>2022-04-11T13:00:18Z</time>
      </trkpt>
      <trkpt lat="46.36537" lon="5.34709">
        <ele>249.6</ele>
        <time>2022-04-11T13:00:19Z</time>
      </trkpt>
      <trkpt lat="46.36548" lon="5.34696">
        <ele>250.8</ele>
        <time>2022-04-11T13:00:21Z</time>
      </trkpt>
      <trkpt lat="46.36553" lon="5.34689">
        <ele>251.2</ele>
        <time>2022-04-11T13:00:22Z</time>
      </trkpt>
      <trkpt lat="46.36564" lon="5.34674">
        <ele>252.2</ele>
        <time>2022-04-11T13:00:24Z</time>
      </trkpt>
      <trkpt lat="46.36587" lon="5.34645">
        <ele>253</ele>
        <time>2022-04-11T13:00:28Z</time>
      </trkpt>
      <trkpt lat="46.36609" lon="5.34632">
        <ele>253</ele>
        <time>2022-04-11T13:00:31Z</time>
      </trkpt>
      <trkpt lat="46.36617" lon="5.3463">
        <ele>253</ele>
        <time>2022-04-11T13:00:32Z</time>
      </trkpt>
      <trkpt lat="46.36632" lon="5.34627">
        <ele>253.2</ele>
        <time>2022-04-11T13:00:34Z</time>
      </trkpt>
      <trkpt lat="46.3664" lon="5.34626">
        <ele>253.2</ele>
        <time>2022-04-11T13:00:35Z</time>
      </trkpt>
      <trkpt lat="46.36664" lon="5.34625">
        <ele>253.6</ele>
        <time>2022-04-11T13:00:38Z</time>
      </trkpt>
      <trkpt lat="46.36703" lon="5.34622">
        <ele>254.2</ele>
        <time>2022-04-11T13:00:43Z</time>
      </trkpt>
      <trkpt lat="46.36733" lon="5.34619">
        <ele>254.8</ele>
        <time>2022-04-11T13:00:47Z</time>
      </trkpt>
      <trkpt lat="46.36768" lon="5.34608">
        <ele>255.4</ele>
        <time>2022-04-11T13:00:52Z</time>
      </trkpt>
      <trkpt lat="46.36775" lon="5.34605">
        <ele>255.4</ele>
        <time>2022-04-11T13:00:53Z</time>
      </trkpt>
      <trkpt lat="46.36794" lon="5.34594">
        <ele>256.6</ele>
        <time>2022-04-11T13:00:56Z</time>
      </trkpt>
      <trkpt lat="46.3682" lon="5.34579">
        <ele>257.8</ele>
        <time>2022-04-11T13:01:00Z</time>
      </trkpt>
      <trkpt lat="46.36834" lon="5.34571">
        <ele>258.2</ele>
        <time>2022-04-11T13:01:02Z</time>
      </trkpt>
      <trkpt lat="46.36853" lon="5.3456">
        <ele>258.6</ele>
        <time>2022-04-11T13:01:05Z</time>
      </trkpt>
      <trkpt lat="46.36895" lon="5.34538">
        <ele>259.4</ele>
        <time>2022-04-11T13:01:11Z</time>
      </trkpt>
      <trkpt lat="46.36903" lon="5.34534">
        <ele>260</ele>
        <time>2022-04-11T13:01:12Z</time>
      </trkpt>
      <trkpt lat="46.36917" lon="5.34528">
        <ele>260.4</ele>
        <time>2022-04-11T13:01:14Z</time>
      </trkpt>
      <trkpt lat="46.36938" lon="5.34517">
        <ele>261</ele>
        <time>2022-04-11T13:01:17Z</time>
      </trkpt>
      <trkpt lat="46.36971" lon="5.345">
        <ele>261.6</ele>
        <time>2022-04-11T13:01:22Z</time>
      </trkpt>
      <trkpt lat="46.37002" lon="5.34479">
        <ele>262.2</ele>
        <time>2022-04-11T13:01:27Z</time>
      </trkpt>
      <trkpt lat="46.37021" lon="5.34468">
        <ele>262.6</ele>
        <time>2022-04-11T13:01:30Z</time>
      </trkpt>
      <trkpt lat="46.37056" lon="5.34456">
        <ele>263.2</ele>
        <time>2022-04-11T13:01:35Z</time>
      </trkpt>
      <trkpt lat="46.37064" lon="5.34455">
        <ele>263</ele>
        <time>2022-04-11T13:01:36Z</time>
      </trkpt>
      <trkpt lat="46.37106" lon="5.3445">
        <ele>263</ele>
        <time>2022-04-11T13:01:41Z</time>
      </trkpt>
      <trkpt lat="46.37151" lon="5.34455">
        <ele>262</ele>
        <time>2022-04-11T13:01:46Z</time>
      </trkpt>
      <trkpt lat="46.37177" lon="5.34466">
        <ele>261</ele>
        <time>2022-04-11T13:01:49Z</time>
      </trkpt>
      <trkpt lat="46.37202" lon="5.3448">
        <ele>260.4</ele>
        <time>2022-04-11T13:01:52Z</time>
      </trkpt>
      <trkpt lat="46.37235" lon="5.34493">
        <ele>260.2</ele>
        <time>2022-04-11T13:01:56Z</time>
      </trkpt>
      <trkpt lat="46.37243" lon="5.34493">
        <ele>260.4</ele>
        <time>2022-04-11T13:01:57Z</time>
      </trkpt>
      <trkpt lat="46.37252" lon="5.34493">
        <ele>260.4</ele>
        <time>2022-04-11T13:01:58Z</time>
      </trkpt>
      <trkpt lat="46.37275" lon="5.34486">
        <ele>260.8</ele>
        <time>2022-04-11T13:02:01Z</time>
      </trkpt>
      <trkpt lat="46.37315" lon="5.34469">
        <ele>261.6</ele>
        <time>2022-04-11T13:02:07Z</time>
      </trkpt>
      <trkpt lat="46.37331" lon="5.34462">
        <ele>262.2</ele>
        <time>2022-04-11T13:02:10Z</time>
      </trkpt>
      <trkpt lat="46.37335" lon="5.3446">
        <ele>262.4</ele>
        <time>2022-04-11T13:02:11Z</time>
      </trkpt>
      <trkpt lat="46.37339" lon="5.34456">
        <ele>263</ele>
        <time>2022-04-11T13:02:12Z</time>
      </trkpt>
      <trkpt lat="46.37343" lon="5.34453">
        <ele>263.4</ele>
        <time>2022-04-11T13:02:13Z</time>
      </trkpt>
      <trkpt lat="46.37357" lon="5.34438">
        <ele>264.4</ele>
        <time>2022-04-11T13:02:17Z</time>
      </trkpt>
      <trkpt lat="46.37361" lon="5.34435">
        <ele>264.8</ele>
        <time>2022-04-11T13:02:18Z</time>
      </trkpt>
      <trkpt lat="46.37368" lon="5.34431">
        <ele>265.8</ele>
        <time>2022-04-11T13:02:20Z</time>
      </trkpt>
      <trkpt lat="46.37379" lon="5.34431">
        <ele>266.4</ele>
        <time>2022-04-11T13:02:23Z</time>
      </trkpt>
      <trkpt lat="46.3739" lon="5.34435">
        <ele>267</ele>
        <time>2022-04-11T13:02:26Z</time>
      </trkpt>
      <trkpt lat="46.37398" lon="5.34441">
        <ele>268.4</ele>
        <time>2022-04-11T13:02:28Z</time>
      </trkpt>
      <trkpt lat="46.37403" lon="5.34443">
        <ele>268.8</ele>
        <time>2022-04-11T13:02:29Z</time>
      </trkpt>
      <trkpt lat="46.37412" lon="5.34449">
        <ele>269.6</ele>
        <time>2022-04-11T13:02:31Z</time>
      </trkpt>
      <trkpt lat="46.37433" lon="5.34459">
        <ele>271</ele>
        <time>2022-04-11T13:02:36Z</time>
      </trkpt>
      <trkpt lat="46.37442" lon="5.34463">
        <ele>271.8</ele>
        <time>2022-04-11T13:02:38Z</time>
      </trkpt>
      <trkpt lat="46.37451" lon="5.34467">
        <ele>272.2</ele>
        <time>2022-04-11T13:02:40Z</time>
      </trkpt>
      <trkpt lat="46.37474" lon="5.34473">
        <ele>272.4</ele>
        <time>2022-04-11T13:02:45Z</time>
      </trkpt>
      <trkpt lat="46.37516" lon="5.34483">
        <ele>273.2</ele>
        <time>2022-04-11T13:02:54Z</time>
      </trkpt>
      <trkpt lat="46.37549" lon="5.34491">
        <ele>274.6</ele>
        <time>2022-04-11T13:03:01Z</time>
      </trkpt>
      <trkpt lat="46.37559" lon="5.34493">
        <ele>274.8</ele>
        <time>2022-04-11T13:03:03Z</time>
      </trkpt>
      <trkpt lat="46.37597" lon="5.34502">
        <ele>275.6</ele>
        <time>2022-04-11T13:03:11Z</time>
      </trkpt>
      <trkpt lat="46.37607" lon="5.34505">
        <ele>275.8</ele>
        <time>2022-04-11T13:03:13Z</time>
      </trkpt>
      <trkpt lat="46.37646" lon="5.3452">
        <ele>276.6</ele>
        <time>2022-04-11T13:03:21Z</time>
      </trkpt>
      <trkpt lat="46.37655" lon="5.34524">
        <ele>276.8</ele>
        <time>2022-04-11T13:03:23Z</time>
      </trkpt>
      <trkpt lat="46.37676" lon="5.34534">
        <ele>277.8</ele>
        <time>2022-04-11T13:03:28Z</time>
      </trkpt>
      <trkpt lat="46.37684" lon="5.34538">
        <ele>278.4</ele>
        <time>2022-04-11T13:03:30Z</time>
      </trkpt>
      <trkpt lat="46.37692" lon="5.3454">
        <ele>279</ele>
        <time>2022-04-11T13:03:32Z</time>
      </trkpt>
      <trkpt lat="46.37713" lon="5.34545">
        <ele>280</ele>
        <time>2022-04-11T13:03:37Z</time>
      </trkpt>
      <trkpt lat="46.37717" lon="5.34546">
        <ele>280.4</ele>
        <time>2022-04-11T13:03:38Z</time>
      </trkpt>
      <trkpt lat="46.37733" lon="5.34549">
        <ele>281.2</ele>
        <time>2022-04-11T13:03:42Z</time>
      </trkpt>
      <trkpt lat="46.37741" lon="5.3455">
        <ele>282</ele>
        <time>2022-04-11T13:03:44Z</time>
      </trkpt>
      <trkpt lat="46.37745" lon="5.34551">
        <ele>282.6</ele>
        <time>2022-04-11T13:03:45Z</time>
      </trkpt>
      <trkpt lat="46.37768" lon="5.34555">
        <ele>283.8</ele>
        <time>2022-04-11T13:03:50Z</time>
      </trkpt>
      <trkpt lat="46.37783" lon="5.34557">
        <ele>284.6</ele>
        <time>2022-04-11T13:03:53Z</time>
      </trkpt>
      <trkpt lat="46.37788" lon="5.34558">
        <ele>285.2</ele>
        <time>2022-04-11T13:03:54Z</time>
      </trkpt>
      <trkpt lat="46.37813" lon="5.34559">
        <ele>286.2</ele>
        <time>2022-04-11T13:03:59Z</time>
      </trkpt>
      <trkpt lat="46.3783" lon="5.3456">
        <ele>287.2</ele>
        <time>2022-04-11T13:04:03Z</time>
      </trkpt>
      <trkpt lat="46.37843" lon="5.34561">
        <ele>288.4</ele>
        <time>2022-04-11T13:04:06Z</time>
      </trkpt>
      <trkpt lat="46.37859" lon="5.34561">
        <ele>289.4</ele>
        <time>2022-04-11T13:04:10Z</time>
      </trkpt>
      <trkpt lat="46.37863" lon="5.34561">
        <ele>289.6</ele>
        <time>2022-04-11T13:04:11Z</time>
      </trkpt>
      <trkpt lat="46.37875" lon="5.3456">
        <ele>290.4</ele>
        <time>2022-04-11T13:04:14Z</time>
      </trkpt>
      <trkpt lat="46.37895" lon="5.34561">
        <ele>291.6</ele>
        <time>2022-04-11T13:04:19Z</time>
      </trkpt>
      <trkpt lat="46.37899" lon="5.3456">
        <ele>291.8</ele>
        <time>2022-04-11T13:04:20Z</time>
      </trkpt>
      <trkpt lat="46.37915" lon="5.34559">
        <ele>292.8</ele>
        <time>2022-04-11T13:04:24Z</time>
      </trkpt>
      <trkpt lat="46.37927" lon="5.34559">
        <ele>293.4</ele>
        <time>2022-04-11T13:04:27Z</time>
      </trkpt>
      <trkpt lat="46.37931" lon="5.3456">
        <ele>294</ele>
        <time>2022-04-11T13:04:28Z</time>
      </trkpt>
      <trkpt lat="46.37953" lon="5.34559">
        <ele>294.8</ele>
        <time>2022-04-11T13:04:33Z</time>
      </trkpt>
      <trkpt lat="46.37957" lon="5.34559">
        <ele>295</ele>
        <time>2022-04-11T13:04:34Z</time>
      </trkpt>
      <trkpt lat="46.37965" lon="5.3456">
        <ele>295.8</ele>
        <time>2022-04-11T13:04:36Z</time>
      </trkpt>
      <trkpt lat="46.37973" lon="5.34563">
        <ele>296.4</ele>
        <time>2022-04-11T13:04:38Z</time>
      </trkpt>
      <trkpt lat="46.37977" lon="5.34565">
        <ele>296.4</ele>
        <time>2022-04-11T13:04:39Z</time>
      </trkpt>
      <trkpt lat="46.37991" lon="5.34571">
        <ele>297</ele>
        <time>2022-04-11T13:04:43Z</time>
      </trkpt>
      <trkpt lat="46.38017" lon="5.34573">
        <ele>297.4</ele>
        <time>2022-04-11T13:04:50Z</time>
      </trkpt>
      <trkpt lat="46.38038" lon="5.34568">
        <ele>297</ele>
        <time>2022-04-11T13:04:54Z</time>
      </trkpt>
      <trkpt lat="46.3807" lon="5.34558">
        <ele>296.8</ele>
        <time>2022-04-11T13:05:00Z</time>
      </trkpt>
      <trkpt lat="46.38075" lon="5.34559">
        <ele>296.8</ele>
        <time>2022-04-11T13:05:01Z</time>
      </trkpt>
      <trkpt lat="46.3808" lon="5.34563">
        <ele>296.8</ele>
        <time>2022-04-11T13:05:02Z</time>
      </trkpt>
      <trkpt lat="46.38088" lon="5.34574">
        <ele>296.6</ele>
        <time>2022-04-11T13:05:04Z</time>
      </trkpt>
      <trkpt lat="46.38103" lon="5.34617">
        <ele>297</ele>
        <time>2022-04-11T13:05:10Z</time>
      </trkpt>
      <trkpt lat="46.38105" lon="5.34624">
        <ele>297</ele>
        <time>2022-04-11T13:05:11Z</time>
      </trkpt>
      <trkpt lat="46.38109" lon="5.34639">
        <ele>297.2</ele>
        <time>2022-04-11T13:05:13Z</time>
      </trkpt>
      <trkpt lat="46.38116" lon="5.3466">
        <ele>298</ele>
        <time>2022-04-11T13:05:16Z</time>
      </trkpt>
      <trkpt lat="46.38121" lon="5.34674">
        <ele>298.4</ele>
        <time>2022-04-11T13:05:18Z</time>
      </trkpt>
      <trkpt lat="46.38131" lon="5.34708">
        <ele>299</ele>
        <time>2022-04-11T13:05:23Z</time>
      </trkpt>
      <trkpt lat="46.38134" lon="5.34715">
        <ele>299</ele>
        <time>2022-04-11T13:05:24Z</time>
      </trkpt>
      <trkpt lat="46.3814" lon="5.34727">
        <ele>299.2</ele>
        <time>2022-04-11T13:05:26Z</time>
      </trkpt>
      <trkpt lat="46.38148" lon="5.34731">
        <ele>299</ele>
        <time>2022-04-11T13:05:28Z</time>
      </trkpt>
      <trkpt lat="46.38168" lon="5.34723">
        <ele>299.4</ele>
        <time>2022-04-11T13:05:32Z</time>
      </trkpt>
      <trkpt lat="46.38173" lon="5.34721">
        <ele>299.4</ele>
        <time>2022-04-11T13:05:33Z</time>
      </trkpt>
      <trkpt lat="46.38213" lon="5.34709">
        <ele>300.2</ele>
        <time>2022-04-11T13:05:40Z</time>
      </trkpt>
      <trkpt lat="46.38225" lon="5.34706">
        <ele>300.4</ele>
        <time>2022-04-11T13:05:42Z</time>
      </trkpt>
      <trkpt lat="46.38253" lon="5.34696">
        <ele>300.4</ele>
        <time>2022-04-11T13:05:47Z</time>
      </trkpt>
      <trkpt lat="46.383" lon="5.34679">
        <ele>300.8</ele>
        <time>2022-04-11T13:05:55Z</time>
      </trkpt>
      <trkpt lat="46.38317" lon="5.34669">
        <ele>300.8</ele>
        <time>2022-04-11T13:05:58Z</time>
      </trkpt>
      <trkpt lat="46.38326" lon="5.34658">
        <ele>300.8</ele>
        <time>2022-04-11T13:06:00Z</time>
      </trkpt>
      <trkpt lat="46.38331" lon="5.34653">
        <ele>300.8</ele>
        <time>2022-04-11T13:06:01Z</time>
      </trkpt>
      <trkpt lat="46.38344" lon="5.34654">
        <ele>300.8</ele>
        <time>2022-04-11T13:06:03Z</time>
      </trkpt>
      <trkpt lat="46.38359" lon="5.3467">
        <ele>300.6</ele>
        <time>2022-04-11T13:06:06Z</time>
      </trkpt>
      <trkpt lat="46.38369" lon="5.34675">
        <ele>300.6</ele>
        <time>2022-04-11T13:06:08Z</time>
      </trkpt>
      <trkpt lat="46.38375" lon="5.34675">
        <ele>300.6</ele>
        <time>2022-04-11T13:06:09Z</time>
      </trkpt>
      <trkpt lat="46.38382" lon="5.34673">
        <ele>300.6</ele>
        <time>2022-04-11T13:06:10Z</time>
      </trkpt>
      <trkpt lat="46.38395" lon="5.34666">
        <ele>300.6</ele>
        <time>2022-04-11T13:06:12Z</time>
      </trkpt>
      <trkpt lat="46.38399" lon="5.34661">
        <ele>300.6</ele>
        <time>2022-04-11T13:06:13Z</time>
      </trkpt>
      <trkpt lat="46.38404" lon="5.34654">
        <ele>300.6</ele>
        <time>2022-04-11T13:06:14Z</time>
      </trkpt>
      <trkpt lat="46.38411" lon="5.34636">
        <ele>300</ele>
        <time>2022-04-11T13:06:16Z</time>
      </trkpt>
      <trkpt lat="46.38414" lon="5.34627">
        <ele>299.2</ele>
        <time>2022-04-11T13:06:17Z</time>
      </trkpt>
      <trkpt lat="46.3842" lon="5.34605">
        <ele>297.6</ele>
        <time>2022-04-11T13:06:20Z</time>
      </trkpt>
      <trkpt lat="46.38423" lon="5.34599">
        <ele>297.6</ele>
        <time>2022-04-11T13:06:21Z</time>
      </trkpt>
      <trkpt lat="46.38426" lon="5.34594">
        <ele>296.4</ele>
        <time>2022-04-11T13:06:22Z</time>
      </trkpt>
      <trkpt lat="46.38432" lon="5.34592">
        <ele>296</ele>
        <time>2022-04-11T13:06:23Z</time>
      </trkpt>
      <trkpt lat="46.38439" lon="5.34591">
        <ele>295.2</ele>
        <time>2022-04-11T13:06:24Z</time>
      </trkpt>
      <trkpt lat="46.38453" lon="5.34589">
        <ele>294.4</ele>
        <time>2022-04-11T13:06:26Z</time>
      </trkpt>
      <trkpt lat="46.3846" lon="5.34589">
        <ele>294</ele>
        <time>2022-04-11T13:06:27Z</time>
      </trkpt>
      <trkpt lat="46.38467" lon="5.34587">
        <ele>293.8</ele>
        <time>2022-04-11T13:06:28Z</time>
      </trkpt>
      <trkpt lat="46.38477" lon="5.34575">
        <ele>293.2</ele>
        <time>2022-04-11T13:06:30Z</time>
      </trkpt>
      <trkpt lat="46.38476" lon="5.34564">
        <ele>292.6</ele>
        <time>2022-04-11T13:06:31Z</time>
      </trkpt>
      <trkpt lat="46.38474" lon="5.34554">
        <ele>292.4</ele>
        <time>2022-04-11T13:06:32Z</time>
      </trkpt>
      <trkpt lat="46.3847" lon="5.34543">
        <ele>292</ele>
        <time>2022-04-11T13:06:33Z</time>
      </trkpt>
      <trkpt lat="46.38461" lon="5.34522">
        <ele>291.2</ele>
        <time>2022-04-11T13:06:35Z</time>
      </trkpt>
      <trkpt lat="46.38453" lon="5.34499">
        <ele>289.8</ele>
        <time>2022-04-11T13:06:37Z</time>
      </trkpt>
      <trkpt lat="46.38449" lon="5.34489">
        <ele>288.8</ele>
        <time>2022-04-11T13:06:38Z</time>
      </trkpt>
      <trkpt lat="46.38443" lon="5.34465">
        <ele>286.8</ele>
        <time>2022-04-11T13:06:40Z</time>
      </trkpt>
      <trkpt lat="46.38438" lon="5.34438">
        <ele>285.6</ele>
        <time>2022-04-11T13:06:42Z</time>
      </trkpt>
      <trkpt lat="46.38438" lon="5.34409">
        <ele>285.2</ele>
        <time>2022-04-11T13:06:44Z</time>
      </trkpt>
      <trkpt lat="46.38442" lon="5.34395">
        <ele>285</ele>
        <time>2022-04-11T13:06:45Z</time>
      </trkpt>
      <trkpt lat="46.38449" lon="5.34383">
        <ele>284.6</ele>
        <time>2022-04-11T13:06:46Z</time>
      </trkpt>
      <trkpt lat="46.38457" lon="5.34373">
        <ele>284</ele>
        <time>2022-04-11T13:06:47Z</time>
      </trkpt>
      <trkpt lat="46.38466" lon="5.34365">
        <ele>283.6</ele>
        <time>2022-04-11T13:06:48Z</time>
      </trkpt>
      <trkpt lat="46.38487" lon="5.34353">
        <ele>282.6</ele>
        <time>2022-04-11T13:06:50Z</time>
      </trkpt>
      <trkpt lat="46.38498" lon="5.34347">
        <ele>282.2</ele>
        <time>2022-04-11T13:06:51Z</time>
      </trkpt>
      <trkpt lat="46.38519" lon="5.34335">
        <ele>281.2</ele>
        <time>2022-04-11T13:06:53Z</time>
      </trkpt>
      <trkpt lat="46.38542" lon="5.34322">
        <ele>279.6</ele>
        <time>2022-04-11T13:06:55Z</time>
      </trkpt>
      <trkpt lat="46.38553" lon="5.34315">
        <ele>278.2</ele>
        <time>2022-04-11T13:06:56Z</time>
      </trkpt>
      <trkpt lat="46.38565" lon="5.34309">
        <ele>276.8</ele>
        <time>2022-04-11T13:06:57Z</time>
      </trkpt>
      <trkpt lat="46.3859" lon="5.34295">
        <ele>275</ele>
        <time>2022-04-11T13:06:59Z</time>
      </trkpt>
      <trkpt lat="46.38614" lon="5.34281">
        <ele>273.2</ele>
        <time>2022-04-11T13:07:01Z</time>
      </trkpt>
      <trkpt lat="46.38639" lon="5.34268">
        <ele>271</ele>
        <time>2022-04-11T13:07:03Z</time>
      </trkpt>
      <trkpt lat="46.38665" lon="5.34255">
        <ele>269.6</ele>
        <time>2022-04-11T13:07:05Z</time>
      </trkpt>
      <trkpt lat="46.38677" lon="5.34248">
        <ele>268.2</ele>
        <time>2022-04-11T13:07:06Z</time>
      </trkpt>
      <trkpt lat="46.3869" lon="5.34239">
        <ele>267.2</ele>
        <time>2022-04-11T13:07:07Z</time>
      </trkpt>
      <trkpt lat="46.38701" lon="5.34229">
        <ele>265.6</ele>
        <time>2022-04-11T13:07:08Z</time>
      </trkpt>
      <trkpt lat="46.38721" lon="5.34202">
        <ele>264</ele>
        <time>2022-04-11T13:07:10Z</time>
      </trkpt>
      <trkpt lat="46.38734" lon="5.34167">
        <ele>262.8</ele>
        <time>2022-04-11T13:07:12Z</time>
      </trkpt>
      <trkpt lat="46.38741" lon="5.34149">
        <ele>261.8</ele>
        <time>2022-04-11T13:07:13Z</time>
      </trkpt>
      <trkpt lat="46.38749" lon="5.34133">
        <ele>261.4</ele>
        <time>2022-04-11T13:07:14Z</time>
      </trkpt>
      <trkpt lat="46.38757" lon="5.34117">
        <ele>260.6</ele>
        <time>2022-04-11T13:07:15Z</time>
      </trkpt>
      <trkpt lat="46.38783" lon="5.34072">
        <ele>258</ele>
        <time>2022-04-11T13:07:18Z</time>
      </trkpt>
      <trkpt lat="46.38791" lon="5.34058">
        <ele>257.4</ele>
        <time>2022-04-11T13:07:19Z</time>
      </trkpt>
      <trkpt lat="46.38799" lon="5.34044">
        <ele>256.6</ele>
        <time>2022-04-11T13:07:20Z</time>
      </trkpt>
      <trkpt lat="46.38815" lon="5.34015">
        <ele>255</ele>
        <time>2022-04-11T13:07:22Z</time>
      </trkpt>
      <trkpt lat="46.3883" lon="5.33987">
        <ele>253.4</ele>
        <time>2022-04-11T13:07:24Z</time>
      </trkpt>
      <trkpt lat="46.38851" lon="5.33945">
        <ele>252.2</ele>
        <time>2022-04-11T13:07:27Z</time>
      </trkpt>
      <trkpt lat="46.38872" lon="5.33906">
        <ele>251</ele>
        <time>2022-04-11T13:07:30Z</time>
      </trkpt>
      <trkpt lat="46.38894" lon="5.33871">
        <ele>249.2</ele>
        <time>2022-04-11T13:07:33Z</time>
      </trkpt>
      <trkpt lat="46.38909" lon="5.33849">
        <ele>248</ele>
        <time>2022-04-11T13:07:35Z</time>
      </trkpt>
      <trkpt lat="46.38916" lon="5.33838">
        <ele>246.8</ele>
        <time>2022-04-11T13:07:36Z</time>
      </trkpt>
      <trkpt lat="46.38931" lon="5.33814">
        <ele>245.4</ele>
        <time>2022-04-11T13:07:38Z</time>
      </trkpt>
      <trkpt lat="46.38945" lon="5.3379">
        <ele>244.2</ele>
        <time>2022-04-11T13:07:40Z</time>
      </trkpt>
      <trkpt lat="46.38966" lon="5.33749">
        <ele>243</ele>
        <time>2022-04-11T13:07:43Z</time>
      </trkpt>
      <trkpt lat="46.38986" lon="5.33705">
        <ele>241.8</ele>
        <time>2022-04-11T13:07:46Z</time>
      </trkpt>
      <trkpt lat="46.39009" lon="5.33662">
        <ele>240.8</ele>
        <time>2022-04-11T13:07:49Z</time>
      </trkpt>
      <trkpt lat="46.39017" lon="5.33649">
        <ele>240.2</ele>
        <time>2022-04-11T13:07:50Z</time>
      </trkpt>
      <trkpt lat="46.39034" lon="5.33623">
        <ele>238</ele>
        <time>2022-04-11T13:07:52Z</time>
      </trkpt>
      <trkpt lat="46.39051" lon="5.33599">
        <ele>236.6</ele>
        <time>2022-04-11T13:07:54Z</time>
      </trkpt>
      <trkpt lat="46.39059" lon="5.33587">
        <ele>236</ele>
        <time>2022-04-11T13:07:55Z</time>
      </trkpt>
      <trkpt lat="46.39076" lon="5.33563">
        <ele>235</ele>
        <time>2022-04-11T13:07:57Z</time>
      </trkpt>
      <trkpt lat="46.39104" lon="5.33514">
        <ele>233.8</ele>
        <time>2022-04-11T13:08:01Z</time>
      </trkpt>
      <trkpt lat="46.39124" lon="5.33477">
        <ele>232.8</ele>
        <time>2022-04-11T13:08:04Z</time>
      </trkpt>
      <trkpt lat="46.39148" lon="5.33427">
        <ele>232</ele>
        <time>2022-04-11T13:08:08Z</time>
      </trkpt>
      <trkpt lat="46.39153" lon="5.33414">
        <ele>232</ele>
        <time>2022-04-11T13:08:09Z</time>
      </trkpt>
      <trkpt lat="46.39182" lon="5.33336">
        <ele>231</ele>
        <time>2022-04-11T13:08:15Z</time>
      </trkpt>
      <trkpt lat="46.39193" lon="5.33312">
        <ele>230.8</ele>
        <time>2022-04-11T13:08:17Z</time>
      </trkpt>
      <trkpt lat="46.39206" lon="5.33289">
        <ele>230.6</ele>
        <time>2022-04-11T13:08:19Z</time>
      </trkpt>
      <trkpt lat="46.39237" lon="5.33246">
        <ele>229.8</ele>
        <time>2022-04-11T13:08:23Z</time>
      </trkpt>
      <trkpt lat="46.39245" lon="5.33234">
        <ele>229.6</ele>
        <time>2022-04-11T13:08:24Z</time>
      </trkpt>
      <trkpt lat="46.39268" lon="5.33196">
        <ele>227.6</ele>
        <time>2022-04-11T13:08:27Z</time>
      </trkpt>
      <trkpt lat="46.39283" lon="5.33172">
        <ele>226.2</ele>
        <time>2022-04-11T13:08:29Z</time>
      </trkpt>
      <trkpt lat="46.39291" lon="5.3316">
        <ele>226</ele>
        <time>2022-04-11T13:08:30Z</time>
      </trkpt>
      <trkpt lat="46.39324" lon="5.33119">
        <ele>225.2</ele>
        <time>2022-04-11T13:08:34Z</time>
      </trkpt>
      <trkpt lat="46.39348" lon="5.33089">
        <ele>225.2</ele>
        <time>2022-04-11T13:08:37Z</time>
      </trkpt>
      <trkpt lat="46.39362" lon="5.33068">
        <ele>225</ele>
        <time>2022-04-11T13:08:39Z</time>
      </trkpt>
      <trkpt lat="46.3937" lon="5.33044">
        <ele>225</ele>
        <time>2022-04-11T13:08:41Z</time>
      </trkpt>
      <trkpt lat="46.39372" lon="5.33017">
        <ele>224.8</ele>
        <time>2022-04-11T13:08:43Z</time>
      </trkpt>
      <trkpt lat="46.3937" lon="5.33003">
        <ele>224.8</ele>
        <time>2022-04-11T13:08:44Z</time>
      </trkpt>
      <trkpt lat="46.39357" lon="5.32943">
        <ele>224.4</ele>
        <time>2022-04-11T13:08:49Z</time>
      </trkpt>
      <trkpt lat="46.39351" lon="5.32909">
        <ele>224.6</ele>
        <time>2022-04-11T13:08:52Z</time>
      </trkpt>
      <trkpt lat="46.39352" lon="5.32899">
        <ele>224.6</ele>
        <time>2022-04-11T13:08:53Z</time>
      </trkpt>
      <trkpt lat="46.39353" lon="5.3289">
        <ele>224.8</ele>
        <time>2022-04-11T13:08:54Z</time>
      </trkpt>
      <trkpt lat="46.39361" lon="5.32881">
        <ele>225</ele>
        <time>2022-04-11T13:08:56Z</time>
      </trkpt>
      <trkpt lat="46.39372" lon="5.32886">
        <ele>225</ele>
        <time>2022-04-11T13:08:58Z</time>
      </trkpt>
      <trkpt lat="46.39384" lon="5.32896">
        <ele>226.2</ele>
        <time>2022-04-11T13:09:00Z</time>
      </trkpt>
      <trkpt lat="46.39391" lon="5.329">
        <ele>226.4</ele>
        <time>2022-04-11T13:09:01Z</time>
      </trkpt>
      <trkpt lat="46.39397" lon="5.32903">
        <ele>226.8</ele>
        <time>2022-04-11T13:09:02Z</time>
      </trkpt>
      <trkpt lat="46.39404" lon="5.32904">
        <ele>227</ele>
        <time>2022-04-11T13:09:03Z</time>
      </trkpt>
      <trkpt lat="46.39416" lon="5.32905">
        <ele>227.4</ele>
        <time>2022-04-11T13:09:05Z</time>
      </trkpt>
      <trkpt lat="46.39422" lon="5.32904">
        <ele>227.6</ele>
        <time>2022-04-11T13:09:06Z</time>
      </trkpt>
      <trkpt lat="46.3944" lon="5.329">
        <ele>228.6</ele>
        <time>2022-04-11T13:09:09Z</time>
      </trkpt>
      <trkpt lat="46.39462" lon="5.32894">
        <ele>229.6</ele>
        <time>2022-04-11T13:09:13Z</time>
      </trkpt>
      <trkpt lat="46.39483" lon="5.32886">
        <ele>231</ele>
        <time>2022-04-11T13:09:17Z</time>
      </trkpt>
      <trkpt lat="46.39503" lon="5.32878">
        <ele>231.4</ele>
        <time>2022-04-11T13:09:21Z</time>
      </trkpt>
      <trkpt lat="46.39518" lon="5.32873">
        <ele>232.2</ele>
        <time>2022-04-11T13:09:24Z</time>
      </trkpt>
      <trkpt lat="46.39534" lon="5.32868">
        <ele>232.8</ele>
        <time>2022-04-11T13:09:27Z</time>
      </trkpt>
      <trkpt lat="46.39544" lon="5.32863">
        <ele>233.4</ele>
        <time>2022-04-11T13:09:29Z</time>
      </trkpt>
      <trkpt lat="46.39577" lon="5.32844">
        <ele>234</ele>
        <time>2022-04-11T13:09:35Z</time>
      </trkpt>
      <trkpt lat="46.39609" lon="5.32831">
        <ele>234.4</ele>
        <time>2022-04-11T13:09:40Z</time>
      </trkpt>
      <trkpt lat="46.39621" lon="5.32828">
        <ele>234.4</ele>
        <time>2022-04-11T13:09:42Z</time>
      </trkpt>
      <trkpt lat="46.39661" lon="5.32817">
        <ele>235.4</ele>
        <time>2022-04-11T13:09:49Z</time>
      </trkpt>
      <trkpt lat="46.39667" lon="5.32815">
        <ele>235.8</ele>
        <time>2022-04-11T13:09:50Z</time>
      </trkpt>
      <trkpt lat="46.39687" lon="5.32805">
        <ele>236.6</ele>
        <time>2022-04-11T13:09:54Z</time>
      </trkpt>
      <trkpt lat="46.39702" lon="5.32796">
        <ele>237.4</ele>
        <time>2022-04-11T13:09:57Z</time>
      </trkpt>
      <trkpt lat="46.39707" lon="5.32793">
        <ele>237.6</ele>
        <time>2022-04-11T13:09:58Z</time>
      </trkpt>
      <trkpt lat="46.39727" lon="5.32782">
        <ele>239</ele>
        <time>2022-04-11T13:10:02Z</time>
      </trkpt>
      <trkpt lat="46.39753" lon="5.32767">
        <ele>240</ele>
        <time>2022-04-11T13:10:07Z</time>
      </trkpt>
      <trkpt lat="46.39758" lon="5.32764">
        <ele>240.2</ele>
        <time>2022-04-11T13:10:08Z</time>
      </trkpt>
      <trkpt lat="46.39773" lon="5.32756">
        <ele>241.6</ele>
        <time>2022-04-11T13:10:11Z</time>
      </trkpt>
      <trkpt lat="46.39789" lon="5.32749">
        <ele>242.8</ele>
        <time>2022-04-11T13:10:14Z</time>
      </trkpt>
      <trkpt lat="46.39794" lon="5.32746">
        <ele>243</ele>
        <time>2022-04-11T13:10:15Z</time>
      </trkpt>
      <trkpt lat="46.3981" lon="5.32739">
        <ele>243.8</ele>
        <time>2022-04-11T13:10:18Z</time>
      </trkpt>
      <trkpt lat="46.39841" lon="5.32725">
        <ele>245</ele>
        <time>2022-04-11T13:10:24Z</time>
      </trkpt>
      <trkpt lat="46.39852" lon="5.3272">
        <ele>245</ele>
        <time>2022-04-11T13:10:26Z</time>
      </trkpt>
      <trkpt lat="46.39895" lon="5.32701">
        <ele>246</ele>
        <time>2022-04-11T13:10:34Z</time>
      </trkpt>
      <trkpt lat="46.39905" lon="5.32696">
        <ele>246.2</ele>
        <time>2022-04-11T13:10:35Z</time>
      </trkpt>
      <trkpt lat="46.39916" lon="5.32691">
        <ele>247</ele>
        <time>2022-04-11T13:10:38Z</time>
      </trkpt>
      <trkpt lat="46.39943" lon="5.32679">
        <ele>248</ele>
        <time>2022-04-11T13:10:43Z</time>
      </trkpt>
      <trkpt lat="46.39976" lon="5.32663">
        <ele>248.6</ele>
        <time>2022-04-11T13:10:49Z</time>
      </trkpt>
      <trkpt lat="46.39998" lon="5.32654">
        <ele>249.2</ele>
        <time>2022-04-11T13:10:53Z</time>
      </trkpt>
      <trkpt lat="46.40025" lon="5.3264">
        <ele>249.8</ele>
        <time>2022-04-11T13:10:58Z</time>
      </trkpt>
      <trkpt lat="46.40054" lon="5.32628">
        <ele>250</ele>
        <time>2022-04-11T13:11:03Z</time>
      </trkpt>
      <trkpt lat="46.40068" lon="5.32641">
        <ele>250</ele>
        <time>2022-04-11T13:11:05Z</time>
      </trkpt>
      <trkpt lat="46.40071" lon="5.32651">
        <ele>250.2</ele>
        <time>2022-04-11T13:11:06Z</time>
      </trkpt>
      <trkpt lat="46.40077" lon="5.32681">
        <ele>250.2</ele>
        <time>2022-04-11T13:11:09Z</time>
      </trkpt>
      <trkpt lat="46.40079" lon="5.3269">
        <ele>250.2</ele>
        <time>2022-04-11T13:11:10Z</time>
      </trkpt>
      <trkpt lat="46.40085" lon="5.3271">
        <ele>250.2</ele>
        <time>2022-04-11T13:11:12Z</time>
      </trkpt>
      <trkpt lat="46.40097" lon="5.32739">
        <ele>250.4</ele>
        <time>2022-04-11T13:11:15Z</time>
      </trkpt>
      <trkpt lat="46.40127" lon="5.32806">
        <ele>250.8</ele>
        <time>2022-04-11T13:11:22Z</time>
      </trkpt>
      <trkpt lat="46.40131" lon="5.32815">
        <ele>251</ele>
        <time>2022-04-11T13:11:23Z</time>
      </trkpt>
      <trkpt lat="46.40152" lon="5.32862">
        <ele>251.2</ele>
        <time>2022-04-11T13:11:28Z</time>
      </trkpt>
      <trkpt lat="46.40169" lon="5.32899">
        <ele>251.4</ele>
        <time>2022-04-11T13:11:32Z</time>
      </trkpt>
      <trkpt lat="46.40173" lon="5.32909">
        <ele>251.4</ele>
        <time>2022-04-11T13:11:33Z</time>
      </trkpt>
      <trkpt lat="46.40197" lon="5.32955">
        <ele>251.6</ele>
        <time>2022-04-11T13:11:38Z</time>
      </trkpt>
      <trkpt lat="46.4023" lon="5.33007">
        <ele>252</ele>
        <time>2022-04-11T13:11:44Z</time>
      </trkpt>
      <trkpt lat="46.40267" lon="5.33061">
        <ele>252.4</ele>
        <time>2022-04-11T13:11:52Z</time>
      </trkpt>
      <trkpt lat="46.40283" lon="5.33084">
        <ele>252.4</ele>
        <time>2022-04-11T13:11:54Z</time>
      </trkpt>
      <trkpt lat="46.40316" lon="5.33131">
        <ele>253.2</ele>
        <time>2022-04-11T13:12:01Z</time>
      </trkpt>
      <trkpt lat="46.40352" lon="5.33182">
        <ele>253</ele>
        <time>2022-04-11T13:12:06Z</time>
      </trkpt>
      <trkpt lat="46.40397" lon="5.33242">
        <ele>251.8</ele>
        <time>2022-04-11T13:12:13Z</time>
      </trkpt>
      <trkpt lat="46.40412" lon="5.33258">
        <ele>251.2</ele>
        <time>2022-04-11T13:12:15Z</time>
      </trkpt>
      <trkpt lat="46.4045" lon="5.33291">
        <ele>250.4</ele>
        <time>2022-04-11T13:12:20Z</time>
      </trkpt>
      <trkpt lat="46.40458" lon="5.33295">
        <ele>250.4</ele>
        <time>2022-04-11T13:12:21Z</time>
      </trkpt>
      <trkpt lat="46.40466" lon="5.33298">
        <ele>250.2</ele>
        <time>2022-04-11T13:12:22Z</time>
      </trkpt>
      <trkpt lat="46.40498" lon="5.33315">
        <ele>250</ele>
        <time>2022-04-11T13:12:26Z</time>
      </trkpt>
      <trkpt lat="46.40498" lon="5.33315">
        <ele>250</ele>
        <time>2022-04-11T13:12:27Z</time>
      </trkpt>
      <trkpt lat="46.40511" lon="5.3333">
        <ele>250</ele>
        <time>2022-04-11T13:12:28Z</time>
      </trkpt>
      <trkpt lat="46.40525" lon="5.33343">
        <ele>249.8</ele>
        <time>2022-04-11T13:12:30Z</time>
      </trkpt>
      <trkpt lat="46.40545" lon="5.33359">
        <ele>249.8</ele>
        <time>2022-04-11T13:12:33Z</time>
      </trkpt>
      <trkpt lat="46.40551" lon="5.33362">
        <ele>250</ele>
        <time>2022-04-11T13:12:34Z</time>
      </trkpt>
      <trkpt lat="46.40582" lon="5.33381">
        <ele>251.4</ele>
        <time>2022-04-11T13:12:39Z</time>
      </trkpt>
      <trkpt lat="46.40588" lon="5.33384">
        <ele>251.6</ele>
        <time>2022-04-11T13:12:40Z</time>
      </trkpt>
      <trkpt lat="46.40606" lon="5.33395">
        <ele>252.4</ele>
        <time>2022-04-11T13:12:43Z</time>
      </trkpt>
      <trkpt lat="46.40628" lon="5.3341">
        <ele>253.6</ele>
        <time>2022-04-11T13:12:47Z</time>
      </trkpt>
      <trkpt lat="46.40633" lon="5.33413">
        <ele>254.2</ele>
        <time>2022-04-11T13:12:48Z</time>
      </trkpt>
      <trkpt lat="46.40642" lon="5.3342">
        <ele>255</ele>
        <time>2022-04-11T13:12:50Z</time>
      </trkpt>
      <trkpt lat="46.40658" lon="5.3343">
        <ele>256</ele>
        <time>2022-04-11T13:12:53Z</time>
      </trkpt>
      <trkpt lat="46.40691" lon="5.3345">
        <ele>257.6</ele>
        <time>2022-04-11T13:12:59Z</time>
      </trkpt>
      <trkpt lat="46.40697" lon="5.33453">
        <ele>257.8</ele>
        <time>2022-04-11T13:13:00Z</time>
      </trkpt>
      <trkpt lat="46.40708" lon="5.33459">
        <ele>258.8</ele>
        <time>2022-04-11T13:13:02Z</time>
      </trkpt>
      <trkpt lat="46.40745" lon="5.33481">
        <ele>260</ele>
        <time>2022-04-11T13:13:09Z</time>
      </trkpt>
      <trkpt lat="46.4075" lon="5.33483">
        <ele>260.2</ele>
        <time>2022-04-11T13:13:10Z</time>
      </trkpt>
      <trkpt lat="46.40776" lon="5.33494">
        <ele>261</ele>
        <time>2022-04-11T13:13:15Z</time>
      </trkpt>
      <trkpt lat="46.40802" lon="5.33503">
        <ele>261.8</ele>
        <time>2022-04-11T13:13:20Z</time>
      </trkpt>
      <trkpt lat="46.40813" lon="5.33506">
        <ele>262.2</ele>
        <time>2022-04-11T13:13:22Z</time>
      </trkpt>
      <trkpt lat="46.40851" lon="5.33516">
        <ele>263.6</ele>
        <time>2022-04-11T13:13:29Z</time>
      </trkpt>
      <trkpt lat="46.40856" lon="5.33518">
        <ele>263.8</ele>
        <time>2022-04-11T13:13:30Z</time>
      </trkpt>
      <trkpt lat="46.40877" lon="5.33523">
        <ele>264.8</ele>
        <time>2022-04-11T13:13:34Z</time>
      </trkpt>
      <trkpt lat="46.40904" lon="5.3353">
        <ele>266.2</ele>
        <time>2022-04-11T13:13:39Z</time>
      </trkpt>
      <trkpt lat="46.40926" lon="5.33536">
        <ele>267.2</ele>
        <time>2022-04-11T13:13:43Z</time>
      </trkpt>
      <trkpt lat="46.4095" lon="5.33543">
        <ele>267.8</ele>
        <time>2022-04-11T13:13:47Z</time>
      </trkpt>
      <trkpt lat="46.40994" lon="5.33554">
        <ele>267.6</ele>
        <time>2022-04-11T13:13:53Z</time>
      </trkpt>
      <trkpt lat="46.41046" lon="5.3357">
        <ele>266.6</ele>
        <time>2022-04-11T13:13:59Z</time>
      </trkpt>
      <trkpt lat="46.41075" lon="5.33582">
        <ele>265.8</ele>
        <time>2022-04-11T13:14:02Z</time>
      </trkpt>
      <trkpt lat="46.41095" lon="5.33592">
        <ele>265.2</ele>
        <time>2022-04-11T13:14:04Z</time>
      </trkpt>
      <trkpt lat="46.41115" lon="5.33605">
        <ele>264.4</ele>
        <time>2022-04-11T13:14:06Z</time>
      </trkpt>
      <trkpt lat="46.41145" lon="5.33627">
        <ele>263.2</ele>
        <time>2022-04-11T13:14:09Z</time>
      </trkpt>
      <trkpt lat="46.41183" lon="5.33661">
        <ele>262</ele>
        <time>2022-04-11T13:14:13Z</time>
      </trkpt>
      <trkpt lat="46.41209" lon="5.33685">
        <ele>261.8</ele>
        <time>2022-04-11T13:14:16Z</time>
      </trkpt>
      <trkpt lat="46.41259" lon="5.33731">
        <ele>262</ele>
        <time>2022-04-11T13:14:22Z</time>
      </trkpt>
      <trkpt lat="46.41303" lon="5.33779">
        <ele>263.2</ele>
        <time>2022-04-11T13:14:28Z</time>
      </trkpt>
      <trkpt lat="46.41326" lon="5.33798">
        <ele>264</ele>
        <time>2022-04-11T13:14:31Z</time>
      </trkpt>
      <trkpt lat="46.41334" lon="5.33802">
        <ele>264.2</ele>
        <time>2022-04-11T13:14:32Z</time>
      </trkpt>
      <trkpt lat="46.41368" lon="5.33813">
        <ele>265.6</ele>
        <time>2022-04-11T13:14:36Z</time>
      </trkpt>
      <trkpt lat="46.41376" lon="5.33815">
        <ele>265.8</ele>
        <time>2022-04-11T13:14:37Z</time>
      </trkpt>
      <trkpt lat="46.41393" lon="5.33819">
        <ele>267</ele>
        <time>2022-04-11T13:14:39Z</time>
      </trkpt>
      <trkpt lat="46.41418" lon="5.33828">
        <ele>268.2</ele>
        <time>2022-04-11T13:14:42Z</time>
      </trkpt>
      <trkpt lat="46.41435" lon="5.33833">
        <ele>268.8</ele>
        <time>2022-04-11T13:14:44Z</time>
      </trkpt>
      <trkpt lat="46.41443" lon="5.33836">
        <ele>269.4</ele>
        <time>2022-04-11T13:14:46Z</time>
      </trkpt>
      <trkpt lat="46.41482" lon="5.33857">
        <ele>270.2</ele>
        <time>2022-04-11T13:14:50Z</time>
      </trkpt>
      <trkpt lat="46.41488" lon="5.33862">
        <ele>271</ele>
        <time>2022-04-11T13:14:52Z</time>
      </trkpt>
      <trkpt lat="46.41501" lon="5.3387">
        <ele>271.4</ele>
        <time>2022-04-11T13:14:53Z</time>
      </trkpt>
      <trkpt lat="46.41515" lon="5.33875">
        <ele>272.2</ele>
        <time>2022-04-11T13:14:55Z</time>
      </trkpt>
      <trkpt lat="46.41529" lon="5.33878">
        <ele>273.4</ele>
        <time>2022-04-11T13:14:57Z</time>
      </trkpt>
      <trkpt lat="46.41554" lon="5.33883">
        <ele>274.6</ele>
        <time>2022-04-11T13:15:01Z</time>
      </trkpt>
      <trkpt lat="46.4156" lon="5.33884">
        <ele>275</ele>
        <time>2022-04-11T13:15:02Z</time>
      </trkpt>
      <trkpt lat="46.41572" lon="5.33886">
        <ele>275.8</ele>
        <time>2022-04-11T13:15:04Z</time>
      </trkpt>
      <trkpt lat="46.41603" lon="5.3389">
        <ele>276.4</ele>
        <time>2022-04-11T13:15:09Z</time>
      </trkpt>
      <trkpt lat="46.41611" lon="5.33889">
        <ele>276.6</ele>
        <time>2022-04-11T13:15:10Z</time>
      </trkpt>
      <trkpt lat="46.41632" lon="5.33882">
        <ele>276.4</ele>
        <time>2022-04-11T13:15:13Z</time>
      </trkpt>
      <trkpt lat="46.41647" lon="5.33881">
        <ele>276.4</ele>
        <time>2022-04-11T13:15:15Z</time>
      </trkpt>
      <trkpt lat="46.41674" lon="5.3388">
        <ele>276.2</ele>
        <time>2022-04-11T13:15:18Z</time>
      </trkpt>
      <trkpt lat="46.41721" lon="5.33871">
        <ele>275</ele>
        <time>2022-04-11T13:15:23Z</time>
      </trkpt>
      <trkpt lat="46.41732" lon="5.33867">
        <ele>274.6</ele>
        <time>2022-04-11T13:15:24Z</time>
      </trkpt>
      <trkpt lat="46.41753" lon="5.33862">
        <ele>273.4</ele>
        <time>2022-04-11T13:15:26Z</time>
      </trkpt>
      <trkpt lat="46.41765" lon="5.33863">
        <ele>272.8</ele>
        <time>2022-04-11T13:15:27Z</time>
      </trkpt>
      <trkpt lat="46.41789" lon="5.33869">
        <ele>272.2</ele>
        <time>2022-04-11T13:15:29Z</time>
      </trkpt>
      <trkpt lat="46.41813" lon="5.33877">
        <ele>271.4</ele>
        <time>2022-04-11T13:15:31Z</time>
      </trkpt>
      <trkpt lat="46.41826" lon="5.3388">
        <ele>270</ele>
        <time>2022-04-11T13:15:32Z</time>
      </trkpt>
      <trkpt lat="46.41853" lon="5.33884">
        <ele>268.8</ele>
        <time>2022-04-11T13:15:34Z</time>
      </trkpt>
      <trkpt lat="46.41865" lon="5.33884">
        <ele>268.2</ele>
        <time>2022-04-11T13:15:35Z</time>
      </trkpt>
      <trkpt lat="46.41878" lon="5.33885">
        <ele>266.8</ele>
        <time>2022-04-11T13:15:36Z</time>
      </trkpt>
      <trkpt lat="46.4189" lon="5.33885">
        <ele>265.2</ele>
        <time>2022-04-11T13:15:37Z</time>
      </trkpt>
      <trkpt lat="46.41902" lon="5.33883">
        <ele>264.6</ele>
        <time>2022-04-11T13:15:38Z</time>
      </trkpt>
      <trkpt lat="46.41913" lon="5.3388">
        <ele>263.2</ele>
        <time>2022-04-11T13:15:39Z</time>
      </trkpt>
      <trkpt lat="46.41947" lon="5.33876">
        <ele>262</ele>
        <time>2022-04-11T13:15:42Z</time>
      </trkpt>
      <trkpt lat="46.41958" lon="5.33878">
        <ele>262</ele>
        <time>2022-04-11T13:15:43Z</time>
      </trkpt>
      <trkpt lat="46.41968" lon="5.33882">
        <ele>261.8</ele>
        <time>2022-04-11T13:15:44Z</time>
      </trkpt>
      <trkpt lat="46.41997" lon="5.33899">
        <ele>262.2</ele>
        <time>2022-04-11T13:15:47Z</time>
      </trkpt>
      <trkpt lat="46.42016" lon="5.33905">
        <ele>263</ele>
        <time>2022-04-11T13:15:49Z</time>
      </trkpt>
      <trkpt lat="46.42024" lon="5.33905">
        <ele>263.8</ele>
        <time>2022-04-11T13:15:50Z</time>
      </trkpt>
      <trkpt lat="46.42042" lon="5.33905">
        <ele>264.8</ele>
        <time>2022-04-11T13:15:52Z</time>
      </trkpt>
      <trkpt lat="46.42061" lon="5.33904">
        <ele>266.2</ele>
        <time>2022-04-11T13:15:54Z</time>
      </trkpt>
      <trkpt lat="46.4207" lon="5.33904">
        <ele>267.4</ele>
        <time>2022-04-11T13:15:55Z</time>
      </trkpt>
      <trkpt lat="46.4208" lon="5.33905">
        <ele>267.8</ele>
        <time>2022-04-11T13:15:56Z</time>
      </trkpt>
      <trkpt lat="46.42099" lon="5.3391">
        <ele>268.4</ele>
        <time>2022-04-11T13:15:58Z</time>
      </trkpt>
      <trkpt lat="46.42116" lon="5.33919">
        <ele>269</ele>
        <time>2022-04-11T13:16:00Z</time>
      </trkpt>
      <trkpt lat="46.42149" lon="5.33934">
        <ele>269.6</ele>
        <time>2022-04-11T13:16:04Z</time>
      </trkpt>
      <trkpt lat="46.42166" lon="5.3394">
        <ele>269.6</ele>
        <time>2022-04-11T13:16:06Z</time>
      </trkpt>
      <trkpt lat="46.42175" lon="5.33941">
        <ele>269.6</ele>
        <time>2022-04-11T13:16:07Z</time>
      </trkpt>
      <trkpt lat="46.42195" lon="5.33936">
        <ele>269.4</ele>
        <time>2022-04-11T13:16:09Z</time>
      </trkpt>
      <trkpt lat="46.4223" lon="5.33906">
        <ele>268</ele>
        <time>2022-04-11T13:16:13Z</time>
      </trkpt>
      <trkpt lat="46.42247" lon="5.33865">
        <ele>266.8</ele>
        <time>2022-04-11T13:16:16Z</time>
      </trkpt>
      <trkpt lat="46.42263" lon="5.33825">
        <ele>265.6</ele>
        <time>2022-04-11T13:16:19Z</time>
      </trkpt>
      <trkpt lat="46.42281" lon="5.33786">
        <ele>264.4</ele>
        <time>2022-04-11T13:16:22Z</time>
      </trkpt>
      <trkpt lat="46.42302" lon="5.33749">
        <ele>263</ele>
        <time>2022-04-11T13:16:25Z</time>
      </trkpt>
      <trkpt lat="46.42318" lon="5.33727">
        <ele>262.4</ele>
        <time>2022-04-11T13:16:27Z</time>
      </trkpt>
      <trkpt lat="46.42336" lon="5.33708">
        <ele>261.4</ele>
        <time>2022-04-11T13:16:29Z</time>
      </trkpt>
      <trkpt lat="46.42357" lon="5.33693">
        <ele>259.8</ele>
        <time>2022-04-11T13:16:31Z</time>
      </trkpt>
      <trkpt lat="46.42368" lon="5.33687">
        <ele>259</ele>
        <time>2022-04-11T13:16:32Z</time>
      </trkpt>
      <trkpt lat="46.42379" lon="5.33683">
        <ele>258.8</ele>
        <time>2022-04-11T13:16:33Z</time>
      </trkpt>
      <trkpt lat="46.4239" lon="5.33681">
        <ele>258.2</ele>
        <time>2022-04-11T13:16:34Z</time>
      </trkpt>
      <trkpt lat="46.42411" lon="5.33686">
        <ele>256.8</ele>
        <time>2022-04-11T13:16:36Z</time>
      </trkpt>
      <trkpt lat="46.42421" lon="5.3369">
        <ele>255.6</ele>
        <time>2022-04-11T13:16:37Z</time>
      </trkpt>
      <trkpt lat="46.42441" lon="5.33702">
        <ele>254</ele>
        <time>2022-04-11T13:16:39Z</time>
      </trkpt>
      <trkpt lat="46.42471" lon="5.33725">
        <ele>253.2</ele>
        <time>2022-04-11T13:16:42Z</time>
      </trkpt>
      <trkpt lat="46.42479" lon="5.33733">
        <ele>252.8</ele>
        <time>2022-04-11T13:16:43Z</time>
      </trkpt>
      <trkpt lat="46.42518" lon="5.33761">
        <ele>251.8</ele>
        <time>2022-04-11T13:16:47Z</time>
      </trkpt>
      <trkpt lat="46.42528" lon="5.33768">
        <ele>251.8</ele>
        <time>2022-04-11T13:16:48Z</time>
      </trkpt>
      <trkpt lat="46.42571" lon="5.33795">
        <ele>250.2</ele>
        <time>2022-04-11T13:16:52Z</time>
      </trkpt>
      <trkpt lat="46.42582" lon="5.338">
        <ele>249.4</ele>
        <time>2022-04-11T13:16:53Z</time>
      </trkpt>
      <trkpt lat="46.42594" lon="5.33803">
        <ele>248.8</ele>
        <time>2022-04-11T13:16:54Z</time>
      </trkpt>
      <trkpt lat="46.42605" lon="5.33804">
        <ele>247.6</ele>
        <time>2022-04-11T13:16:55Z</time>
      </trkpt>
      <trkpt lat="46.42617" lon="5.33803">
        <ele>247.4</ele>
        <time>2022-04-11T13:16:56Z</time>
      </trkpt>
      <trkpt lat="46.42629" lon="5.33802">
        <ele>246.6</ele>
        <time>2022-04-11T13:16:57Z</time>
      </trkpt>
      <trkpt lat="46.42662" lon="5.33798">
        <ele>245.4</ele>
        <time>2022-04-11T13:17:00Z</time>
      </trkpt>
      <trkpt lat="46.42684" lon="5.33797">
        <ele>244.8</ele>
        <time>2022-04-11T13:17:02Z</time>
      </trkpt>
      <trkpt lat="46.42717" lon="5.33801">
        <ele>244.2</ele>
        <time>2022-04-11T13:17:05Z</time>
      </trkpt>
      <trkpt lat="46.42728" lon="5.33804">
        <ele>243.8</ele>
        <time>2022-04-11T13:17:06Z</time>
      </trkpt>
      <trkpt lat="46.42737" lon="5.33809">
        <ele>243.2</ele>
        <time>2022-04-11T13:17:07Z</time>
      </trkpt>
      <trkpt lat="46.42748" lon="5.33816">
        <ele>243</ele>
        <time>2022-04-11T13:17:08Z</time>
      </trkpt>
      <trkpt lat="46.4277" lon="5.33827">
        <ele>242.8</ele>
        <time>2022-04-11T13:17:10Z</time>
      </trkpt>
      <trkpt lat="46.42793" lon="5.33834">
        <ele>242.4</ele>
        <time>2022-04-11T13:17:12Z</time>
      </trkpt>
      <trkpt lat="46.42804" lon="5.33836">
        <ele>242</ele>
        <time>2022-04-11T13:17:13Z</time>
      </trkpt>
      <trkpt lat="46.42816" lon="5.33837">
        <ele>241.2</ele>
        <time>2022-04-11T13:17:14Z</time>
      </trkpt>
      <trkpt lat="46.42828" lon="5.33838">
        <ele>240.8</ele>
        <time>2022-04-11T13:17:15Z</time>
      </trkpt>
      <trkpt lat="46.42863" lon="5.33839">
        <ele>238.8</ele>
        <time>2022-04-11T13:17:18Z</time>
      </trkpt>
      <trkpt lat="46.42885" lon="5.3384">
        <ele>237.6</ele>
        <time>2022-04-11T13:17:20Z</time>
      </trkpt>
      <trkpt lat="46.42896" lon="5.33842">
        <ele>237.4</ele>
        <time>2022-04-11T13:17:21Z</time>
      </trkpt>
      <trkpt lat="46.42937" lon="5.33854">
        <ele>237.2</ele>
        <time>2022-04-11T13:17:25Z</time>
      </trkpt>
      <trkpt lat="46.42984" lon="5.33884">
        <ele>238.2</ele>
        <time>2022-04-11T13:17:30Z</time>
      </trkpt>
      <trkpt lat="46.43001" lon="5.33897">
        <ele>238.6</ele>
        <time>2022-04-11T13:17:32Z</time>
      </trkpt>
      <trkpt lat="46.43041" lon="5.33932">
        <ele>239</ele>
        <time>2022-04-11T13:17:37Z</time>
      </trkpt>
      <trkpt lat="46.43077" lon="5.33967">
        <ele>239.6</ele>
        <time>2022-04-11T13:17:42Z</time>
      </trkpt>
      <trkpt lat="46.43084" lon="5.33974">
        <ele>239.6</ele>
        <time>2022-04-11T13:17:43Z</time>
      </trkpt>
      <trkpt lat="46.43116" lon="5.3401">
        <ele>239.8</ele>
        <time>2022-04-11T13:17:48Z</time>
      </trkpt>
      <trkpt lat="46.43141" lon="5.3405">
        <ele>240</ele>
        <time>2022-04-11T13:17:53Z</time>
      </trkpt>
      <trkpt lat="46.43144" lon="5.34056">
        <ele>240</ele>
        <time>2022-04-11T13:17:54Z</time>
      </trkpt>
      <trkpt lat="46.43168" lon="5.34093">
        <ele>239.8</ele>
        <time>2022-04-11T13:18:00Z</time>
      </trkpt>
      <trkpt lat="46.43173" lon="5.34101">
        <ele>239.8</ele>
        <time>2022-04-11T13:18:01Z</time>
      </trkpt>
      <trkpt lat="46.4319" lon="5.34124">
        <ele>238.6</ele>
        <time>2022-04-11T13:18:04Z</time>
      </trkpt>
      <trkpt lat="46.43196" lon="5.3413">
        <ele>238.2</ele>
        <time>2022-04-11T13:18:05Z</time>
      </trkpt>
      <trkpt lat="46.43208" lon="5.34142">
        <ele>237.2</ele>
        <time>2022-04-11T13:18:07Z</time>
      </trkpt>
      <trkpt lat="46.43214" lon="5.34148">
        <ele>237.2</ele>
        <time>2022-04-11T13:18:08Z</time>
      </trkpt>
      <trkpt lat="46.43262" lon="5.34194">
        <ele>236.6</ele>
        <time>2022-04-11T13:18:16Z</time>
      </trkpt>
      <trkpt lat="46.43287" lon="5.34213">
        <ele>236.6</ele>
        <time>2022-04-11T13:18:20Z</time>
      </trkpt>
      <trkpt lat="46.43293" lon="5.34218">
        <ele>236.8</ele>
        <time>2022-04-11T13:18:21Z</time>
      </trkpt>
      <trkpt lat="46.43305" lon="5.34226">
        <ele>237.6</ele>
        <time>2022-04-11T13:18:23Z</time>
      </trkpt>
      <trkpt lat="46.43318" lon="5.34234">
        <ele>238.6</ele>
        <time>2022-04-11T13:18:25Z</time>
      </trkpt>
      <trkpt lat="46.4333" lon="5.3424">
        <ele>239.6</ele>
        <time>2022-04-11T13:18:27Z</time>
      </trkpt>
      <trkpt lat="46.43357" lon="5.34251">
        <ele>240.6</ele>
        <time>2022-04-11T13:18:31Z</time>
      </trkpt>
      <trkpt lat="46.43389" lon="5.34261">
        <ele>242</ele>
        <time>2022-04-11T13:18:36Z</time>
      </trkpt>
      <trkpt lat="46.434" lon="5.34264">
        <ele>242.8</ele>
        <time>2022-04-11T13:18:38Z</time>
      </trkpt>
      <trkpt lat="46.43406" lon="5.34265">
        <ele>243.2</ele>
        <time>2022-04-11T13:18:39Z</time>
      </trkpt>
      <trkpt lat="46.43421" lon="5.34269">
        <ele>244.2</ele>
        <time>2022-04-11T13:18:42Z</time>
      </trkpt>
      <trkpt lat="46.4343" lon="5.34271">
        <ele>245</ele>
        <time>2022-04-11T13:18:44Z</time>
      </trkpt>
      <trkpt lat="46.43434" lon="5.34272">
        <ele>245.8</ele>
        <time>2022-04-11T13:18:45Z</time>
      </trkpt>
      <trkpt lat="46.43445" lon="5.34272">
        <ele>247.2</ele>
        <time>2022-04-11T13:18:48Z</time>
      </trkpt>
      <trkpt lat="46.43449" lon="5.3427">
        <ele>247.4</ele>
        <time>2022-04-11T13:18:49Z</time>
      </trkpt>
      <trkpt lat="46.43451" lon="5.34261">
        <ele>248</ele>
        <time>2022-04-11T13:18:51Z</time>
      </trkpt>
      <trkpt lat="46.43451" lon="5.34254">
        <ele>248.8</ele>
        <time>2022-04-11T13:18:52Z</time>
      </trkpt>
      <trkpt lat="46.43453" lon="5.34228">
        <ele>249.8</ele>
        <time>2022-04-11T13:18:56Z</time>
      </trkpt>
      <trkpt lat="46.43454" lon="5.34221">
        <ele>250</ele>
        <time>2022-04-11T13:18:57Z</time>
      </trkpt>
      <trkpt lat="46.43465" lon="5.34179">
        <ele>250.4</ele>
        <time>2022-04-11T13:19:03Z</time>
      </trkpt>
      <trkpt lat="46.43469" lon="5.34133">
        <ele>250.6</ele>
        <time>2022-04-11T13:19:08Z</time>
      </trkpt>
      <trkpt lat="46.43476" lon="5.34059">
        <ele>250.6</ele>
        <time>2022-04-11T13:19:15Z</time>
      </trkpt>
      <trkpt lat="46.43482" lon="5.33982">
        <ele>249.2</ele>
        <time>2022-04-11T13:19:22Z</time>
      </trkpt>
      <trkpt lat="46.43485" lon="5.33946">
        <ele>248.8</ele>
        <time>2022-04-11T13:19:25Z</time>
      </trkpt>
      <trkpt lat="46.43486" lon="5.33934">
        <ele>248.6</ele>
        <time>2022-04-11T13:19:26Z</time>
      </trkpt>
      <trkpt lat="46.43487" lon="5.3392">
        <ele>248.4</ele>
        <time>2022-04-11T13:19:27Z</time>
      </trkpt>
      <trkpt lat="46.43488" lon="5.33893">
        <ele>247.8</ele>
        <time>2022-04-11T13:19:29Z</time>
      </trkpt>
      <trkpt lat="46.43492" lon="5.33859">
        <ele>246</ele>
        <time>2022-04-11T13:19:32Z</time>
      </trkpt>
      <trkpt lat="46.43494" lon="5.3385">
        <ele>245.4</ele>
        <time>2022-04-11T13:19:33Z</time>
      </trkpt>
      <trkpt lat="46.43496" lon="5.33841">
        <ele>244.8</ele>
        <time>2022-04-11T13:19:34Z</time>
      </trkpt>
      <trkpt lat="46.43496" lon="5.3383">
        <ele>244.4</ele>
        <time>2022-04-11T13:19:35Z</time>
      </trkpt>
      <trkpt lat="46.43497" lon="5.33819">
        <ele>244.2</ele>
        <time>2022-04-11T13:19:36Z</time>
      </trkpt>
      <trkpt lat="46.43497" lon="5.33808">
        <ele>243.4</ele>
        <time>2022-04-11T13:19:37Z</time>
      </trkpt>
      <trkpt lat="46.435" lon="5.33785">
        <ele>242.2</ele>
        <time>2022-04-11T13:19:39Z</time>
      </trkpt>
      <trkpt lat="46.43503" lon="5.33776">
        <ele>242</ele>
        <time>2022-04-11T13:19:40Z</time>
      </trkpt>
      <trkpt lat="46.43507" lon="5.33763">
        <ele>241.2</ele>
        <time>2022-04-11T13:19:42Z</time>
      </trkpt>
      <trkpt lat="46.43507" lon="5.33757">
        <ele>240.6</ele>
        <time>2022-04-11T13:19:43Z</time>
      </trkpt>
      <trkpt lat="46.43502" lon="5.33744">
        <ele>240.2</ele>
        <time>2022-04-11T13:19:45Z</time>
      </trkpt>
      <trkpt lat="46.43499" lon="5.33738">
        <ele>240</ele>
        <time>2022-04-11T13:19:46Z</time>
      </trkpt>
      <trkpt lat="46.4349" lon="5.33722">
        <ele>239.6</ele>
        <time>2022-04-11T13:19:48Z</time>
      </trkpt>
      <trkpt lat="46.43485" lon="5.33714">
        <ele>239.4</ele>
        <time>2022-04-11T13:19:49Z</time>
      </trkpt>
      <trkpt lat="46.43474" lon="5.33687">
        <ele>238.6</ele>
        <time>2022-04-11T13:19:52Z</time>
      </trkpt>
      <trkpt lat="46.43466" lon="5.33666">
        <ele>237.4</ele>
        <time>2022-04-11T13:19:54Z</time>
      </trkpt>
      <trkpt lat="46.43458" lon="5.33628">
        <ele>236.6</ele>
        <time>2022-04-11T13:19:57Z</time>
      </trkpt>
      <trkpt lat="46.43457" lon="5.33615">
        <ele>236.4</ele>
        <time>2022-04-11T13:19:58Z</time>
      </trkpt>
      <trkpt lat="46.43459" lon="5.33575">
        <ele>235.8</ele>
        <time>2022-04-11T13:20:01Z</time>
      </trkpt>
      <trkpt lat="46.43461" lon="5.33561">
        <ele>235.4</ele>
        <time>2022-04-11T13:20:02Z</time>
      </trkpt>
      <trkpt lat="46.43465" lon="5.33548">
        <ele>235.2</ele>
        <time>2022-04-11T13:20:03Z</time>
      </trkpt>
      <trkpt lat="46.4347" lon="5.33537">
        <ele>234.4</ele>
        <time>2022-04-11T13:20:04Z</time>
      </trkpt>
      <trkpt lat="46.43477" lon="5.33526">
        <ele>234.2</ele>
        <time>2022-04-11T13:20:05Z</time>
      </trkpt>
      <trkpt lat="46.43491" lon="5.33507">
        <ele>233.2</ele>
        <time>2022-04-11T13:20:07Z</time>
      </trkpt>
      <trkpt lat="46.43533" lon="5.33456">
        <ele>231.8</ele>
        <time>2022-04-11T13:20:13Z</time>
      </trkpt>
      <trkpt lat="46.43548" lon="5.33449">
        <ele>231.6</ele>
        <time>2022-04-11T13:20:15Z</time>
      </trkpt>
      <trkpt lat="46.43557" lon="5.33449">
        <ele>231.6</ele>
        <time>2022-04-11T13:20:16Z</time>
      </trkpt>
      <trkpt lat="46.43615" lon="5.33454">
        <ele>231.6</ele>
        <time>2022-04-11T13:20:23Z</time>
      </trkpt>
      <trkpt lat="46.4367" lon="5.3345">
        <ele>231.6</ele>
        <time>2022-04-11T13:20:29Z</time>
      </trkpt>
      <trkpt lat="46.4368" lon="5.33449">
        <ele>231.4</ele>
        <time>2022-04-11T13:20:30Z</time>
      </trkpt>
      <trkpt lat="46.43727" lon="5.33446">
        <ele>231.4</ele>
        <time>2022-04-11T13:20:35Z</time>
      </trkpt>
      <trkpt lat="46.43783" lon="5.33438">
        <ele>231.2</ele>
        <time>2022-04-11T13:20:41Z</time>
      </trkpt>
      <trkpt lat="46.43839" lon="5.33435">
        <ele>230.8</ele>
        <time>2022-04-11T13:20:47Z</time>
      </trkpt>
      <trkpt lat="46.43848" lon="5.33436">
        <ele>230.8</ele>
        <time>2022-04-11T13:20:48Z</time>
      </trkpt>
      <trkpt lat="46.43903" lon="5.33451">
        <ele>231.6</ele>
        <time>2022-04-11T13:20:54Z</time>
      </trkpt>
      <trkpt lat="46.43945" lon="5.33477">
        <ele>232.2</ele>
        <time>2022-04-11T13:20:59Z</time>
      </trkpt>
      <trkpt lat="46.43971" lon="5.33494">
        <ele>232.2</ele>
        <time>2022-04-11T13:21:02Z</time>
      </trkpt>
      <trkpt lat="46.44016" lon="5.33515">
        <ele>232.6</ele>
        <time>2022-04-11T13:21:07Z</time>
      </trkpt>
      <trkpt lat="46.44052" lon="5.3353">
        <ele>232.8</ele>
        <time>2022-04-11T13:21:11Z</time>
      </trkpt>
      <trkpt lat="46.44061" lon="5.33537">
        <ele>232.6</ele>
        <time>2022-04-11T13:21:12Z</time>
      </trkpt>
      <trkpt lat="46.44067" lon="5.33547">
        <ele>232.8</ele>
        <time>2022-04-11T13:21:13Z</time>
      </trkpt>
      <trkpt lat="46.44071" lon="5.33558">
        <ele>232.8</ele>
        <time>2022-04-11T13:21:14Z</time>
      </trkpt>
      <trkpt lat="46.44076" lon="5.33582">
        <ele>232.8</ele>
        <time>2022-04-11T13:21:16Z</time>
      </trkpt>
      <trkpt lat="46.44084" lon="5.33604">
        <ele>232.8</ele>
        <time>2022-04-11T13:21:18Z</time>
      </trkpt>
      <trkpt lat="46.44101" lon="5.33629">
        <ele>233</ele>
        <time>2022-04-11T13:21:21Z</time>
      </trkpt>
      <trkpt lat="46.44108" lon="5.33637">
        <ele>233.2</ele>
        <time>2022-04-11T13:21:22Z</time>
      </trkpt>
      <trkpt lat="46.44156" lon="5.33691">
        <ele>234.2</ele>
        <time>2022-04-11T13:21:29Z</time>
      </trkpt>
      <trkpt lat="46.44169" lon="5.33706">
        <ele>234.2</ele>
        <time>2022-04-11T13:21:31Z</time>
      </trkpt>
      <trkpt lat="46.44212" lon="5.33746">
        <ele>234.2</ele>
        <time>2022-04-11T13:21:37Z</time>
      </trkpt>
      <trkpt lat="46.44233" lon="5.33762">
        <ele>234.2</ele>
        <time>2022-04-11T13:21:40Z</time>
      </trkpt>
      <trkpt lat="46.4427" lon="5.33787">
        <ele>234.4</ele>
        <time>2022-04-11T13:21:45Z</time>
      </trkpt>
      <trkpt lat="46.44319" lon="5.33833">
        <ele>234.6</ele>
        <time>2022-04-11T13:21:52Z</time>
      </trkpt>
      <trkpt lat="46.44325" lon="5.3384">
        <ele>234.6</ele>
        <time>2022-04-11T13:21:53Z</time>
      </trkpt>
      <trkpt lat="46.44367" lon="5.33897">
        <ele>235.2</ele>
        <time>2022-04-11T13:22:00Z</time>
      </trkpt>
      <trkpt lat="46.44386" lon="5.3392">
        <ele>235.6</ele>
        <time>2022-04-11T13:22:03Z</time>
      </trkpt>
      <trkpt lat="46.44406" lon="5.33938">
        <ele>235.6</ele>
        <time>2022-04-11T13:22:06Z</time>
      </trkpt>
      <trkpt lat="46.44453" lon="5.33976">
        <ele>236.2</ele>
        <time>2022-04-11T13:22:13Z</time>
      </trkpt>
      <trkpt lat="46.44477" lon="5.34003">
        <ele>236.6</ele>
        <time>2022-04-11T13:22:17Z</time>
      </trkpt>
      <trkpt lat="46.44482" lon="5.34011">
        <ele>236.8</ele>
        <time>2022-04-11T13:22:18Z</time>
      </trkpt>
      <trkpt lat="46.4451" lon="5.34065">
        <ele>237.4</ele>
        <time>2022-04-11T13:22:24Z</time>
      </trkpt>
      <trkpt lat="46.44513" lon="5.34075">
        <ele>237.6</ele>
        <time>2022-04-11T13:22:25Z</time>
      </trkpt>
      <trkpt lat="46.44535" lon="5.34145">
        <ele>238.6</ele>
        <time>2022-04-11T13:22:32Z</time>
      </trkpt>
      <trkpt lat="46.44539" lon="5.34165">
        <ele>238.8</ele>
        <time>2022-04-11T13:22:34Z</time>
      </trkpt>
      <trkpt lat="46.44541" lon="5.34176">
        <ele>238.8</ele>
        <time>2022-04-11T13:22:35Z</time>
      </trkpt>
      <trkpt lat="46.44542" lon="5.34195">
        <ele>239.4</ele>
        <time>2022-04-11T13:22:37Z</time>
      </trkpt>
      <trkpt lat="46.4454" lon="5.34212">
        <ele>239.8</ele>
        <time>2022-04-11T13:22:39Z</time>
      </trkpt>
      <trkpt lat="46.44537" lon="5.34224">
        <ele>240.4</ele>
        <time>2022-04-11T13:22:41Z</time>
      </trkpt>
      <trkpt lat="46.44538" lon="5.34231">
        <ele>240.8</ele>
        <time>2022-04-11T13:22:44Z</time>
      </trkpt>
      <trkpt lat="46.44538" lon="5.34231">
        <ele>241.4</ele>
        <time>2022-04-11T13:22:47Z</time>
      </trkpt>
      <trkpt lat="46.44537" lon="5.34239">
        <ele>241.8</ele>
        <time>2022-04-11T13:22:54Z</time>
      </trkpt>
      <trkpt lat="46.44538" lon="5.34244">
        <ele>241.8</ele>
        <time>2022-04-11T13:22:55Z</time>
      </trkpt>
      <trkpt lat="46.44543" lon="5.34251">
        <ele>241.8</ele>
        <time>2022-04-11T13:22:57Z</time>
      </trkpt>
      <trkpt lat="46.44562" lon="5.34256">
        <ele>241.8</ele>
        <time>2022-04-11T13:23:01Z</time>
      </trkpt>
      <trkpt lat="46.44572" lon="5.34258">
        <ele>241.8</ele>
        <time>2022-04-11T13:23:03Z</time>
      </trkpt>
      <trkpt lat="46.44577" lon="5.3426">
        <ele>241.8</ele>
        <time>2022-04-11T13:23:04Z</time>
      </trkpt>
      <trkpt lat="46.44588" lon="5.34266">
        <ele>242.2</ele>
        <time>2022-04-11T13:23:06Z</time>
      </trkpt>
      <trkpt lat="46.44604" lon="5.34277">
        <ele>243</ele>
        <time>2022-04-11T13:23:09Z</time>
      </trkpt>
      <trkpt lat="46.44616" lon="5.34286">
        <ele>243.6</ele>
        <time>2022-04-11T13:23:11Z</time>
      </trkpt>
      <trkpt lat="46.4464" lon="5.34302">
        <ele>244</ele>
        <time>2022-04-11T13:23:15Z</time>
      </trkpt>
      <trkpt lat="46.44652" lon="5.34309">
        <ele>244.4</ele>
        <time>2022-04-11T13:23:17Z</time>
      </trkpt>
      <trkpt lat="46.44659" lon="5.3431">
        <ele>244.6</ele>
        <time>2022-04-11T13:23:18Z</time>
      </trkpt>
      <trkpt lat="46.44665" lon="5.34308">
        <ele>244.6</ele>
        <time>2022-04-11T13:23:19Z</time>
      </trkpt>
      <trkpt lat="46.44669" lon="5.34302">
        <ele>245</ele>
        <time>2022-04-11T13:23:20Z</time>
      </trkpt>
      <trkpt lat="46.44674" lon="5.34288">
        <ele>245</ele>
        <time>2022-04-11T13:23:22Z</time>
      </trkpt>
      <trkpt lat="46.44683" lon="5.34281">
        <ele>245.4</ele>
        <time>2022-04-11T13:23:24Z</time>
      </trkpt>
      <trkpt lat="46.44704" lon="5.34282">
        <ele>246</ele>
        <time>2022-04-11T13:23:28Z</time>
      </trkpt>
      <trkpt lat="46.44711" lon="5.34282">
        <ele>246.2</ele>
        <time>2022-04-11T13:23:29Z</time>
      </trkpt>
      <trkpt lat="46.44722" lon="5.34278">
        <ele>246.4</ele>
        <time>2022-04-11T13:23:31Z</time>
      </trkpt>
      <trkpt lat="46.44727" lon="5.34275">
        <ele>246.4</ele>
        <time>2022-04-11T13:23:32Z</time>
      </trkpt>
      <trkpt lat="46.4474" lon="5.34265">
        <ele>247</ele>
        <time>2022-04-11T13:23:35Z</time>
      </trkpt>
      <trkpt lat="46.44753" lon="5.34252">
        <ele>247.4</ele>
        <time>2022-04-11T13:23:38Z</time>
      </trkpt>
      <trkpt lat="46.4477" lon="5.34227">
        <ele>248.8</ele>
        <time>2022-04-11T13:23:43Z</time>
      </trkpt>
      <trkpt lat="46.44772" lon="5.34222">
        <ele>249.2</ele>
        <time>2022-04-11T13:23:44Z</time>
      </trkpt>
      <trkpt lat="46.44775" lon="5.34216">
        <ele>249.4</ele>
        <time>2022-04-11T13:23:45Z</time>
      </trkpt>
      <trkpt lat="46.44777" lon="5.3421">
        <ele>249.8</ele>
        <time>2022-04-11T13:23:46Z</time>
      </trkpt>
      <trkpt lat="46.44788" lon="5.34187">
        <ele>251</ele>
        <time>2022-04-11T13:23:50Z</time>
      </trkpt>
      <trkpt lat="46.448" lon="5.34158">
        <ele>252.4</ele>
        <time>2022-04-11T13:23:55Z</time>
      </trkpt>
      <trkpt lat="46.44803" lon="5.34153">
        <ele>252.8</ele>
        <time>2022-04-11T13:23:56Z</time>
      </trkpt>
      <trkpt lat="46.44812" lon="5.34136">
        <ele>253.6</ele>
        <time>2022-04-11T13:23:59Z</time>
      </trkpt>
      <trkpt lat="46.44826" lon="5.34117">
        <ele>254.6</ele>
        <time>2022-04-11T13:24:03Z</time>
      </trkpt>
      <trkpt lat="46.4483" lon="5.34113">
        <ele>254.8</ele>
        <time>2022-04-11T13:24:04Z</time>
      </trkpt>
      <trkpt lat="46.44834" lon="5.34109">
        <ele>254.8</ele>
        <time>2022-04-11T13:24:05Z</time>
      </trkpt>
      <trkpt lat="46.44852" lon="5.34098">
        <ele>255</ele>
        <time>2022-04-11T13:24:09Z</time>
      </trkpt>
      <trkpt lat="46.44866" lon="5.34093">
        <ele>256.2</ele>
        <time>2022-04-11T13:24:12Z</time>
      </trkpt>
      <trkpt lat="46.44881" lon="5.34092">
        <ele>257.4</ele>
        <time>2022-04-11T13:24:15Z</time>
      </trkpt>
      <trkpt lat="46.44904" lon="5.34095">
        <ele>258.6</ele>
        <time>2022-04-11T13:24:20Z</time>
      </trkpt>
      <trkpt lat="46.44918" lon="5.34098">
        <ele>258.8</ele>
        <time>2022-04-11T13:24:23Z</time>
      </trkpt>
      <trkpt lat="46.44938" lon="5.34105">
        <ele>259.6</ele>
        <time>2022-04-11T13:24:27Z</time>
      </trkpt>
      <trkpt lat="46.44953" lon="5.34109">
        <ele>261</ele>
        <time>2022-04-11T13:24:30Z</time>
      </trkpt>
      <trkpt lat="46.44973" lon="5.34114">
        <ele>261.4</ele>
        <time>2022-04-11T13:24:34Z</time>
      </trkpt>
      <trkpt lat="46.44992" lon="5.34119">
        <ele>262</ele>
        <time>2022-04-11T13:24:38Z</time>
      </trkpt>
      <trkpt lat="46.45016" lon="5.34124">
        <ele>263</ele>
        <time>2022-04-11T13:24:43Z</time>
      </trkpt>
      <trkpt lat="46.45021" lon="5.34124">
        <ele>263.2</ele>
        <time>2022-04-11T13:24:44Z</time>
      </trkpt>
      <trkpt lat="46.45055" lon="5.34123">
        <ele>264.2</ele>
        <time>2022-04-11T13:24:51Z</time>
      </trkpt>
      <trkpt lat="46.45065" lon="5.34122">
        <ele>264.4</ele>
        <time>2022-04-11T13:24:53Z</time>
      </trkpt>
      <trkpt lat="46.45085" lon="5.34118">
        <ele>265</ele>
        <time>2022-04-11T13:24:57Z</time>
      </trkpt>
      <trkpt lat="46.4509" lon="5.34116">
        <ele>265.4</ele>
        <time>2022-04-11T13:24:58Z</time>
      </trkpt>
      <trkpt lat="46.45107" lon="5.34113">
        <ele>266</ele>
        <time>2022-04-11T13:25:01Z</time>
      </trkpt>
      <trkpt lat="46.45123" lon="5.34109">
        <ele>266.4</ele>
        <time>2022-04-11T13:25:04Z</time>
      </trkpt>
      <trkpt lat="46.45148" lon="5.34104">
        <ele>266.8</ele>
        <time>2022-04-11T13:25:08Z</time>
      </trkpt>
      <trkpt lat="46.45196" lon="5.34094">
        <ele>266.6</ele>
        <time>2022-04-11T13:25:15Z</time>
      </trkpt>
      <trkpt lat="46.45257" lon="5.3408">
        <ele>266</ele>
        <time>2022-04-11T13:25:23Z</time>
      </trkpt>
      <trkpt lat="46.45316" lon="5.34066">
        <ele>265.6</ele>
        <time>2022-04-11T13:25:30Z</time>
      </trkpt>
      <trkpt lat="46.45331" lon="5.34062">
        <ele>265.4</ele>
        <time>2022-04-11T13:25:32Z</time>
      </trkpt>
      <trkpt lat="46.45362" lon="5.34056">
        <ele>265.2</ele>
        <time>2022-04-11T13:25:36Z</time>
      </trkpt>
      <trkpt lat="46.45407" lon="5.34048">
        <ele>264.2</ele>
        <time>2022-04-11T13:25:41Z</time>
      </trkpt>
      <trkpt lat="46.45436" lon="5.34039">
        <ele>263.2</ele>
        <time>2022-04-11T13:25:44Z</time>
      </trkpt>
      <trkpt lat="46.45466" lon="5.34026">
        <ele>262.4</ele>
        <time>2022-04-11T13:25:47Z</time>
      </trkpt>
      <trkpt lat="46.45486" lon="5.34014">
        <ele>262</ele>
        <time>2022-04-11T13:25:49Z</time>
      </trkpt>
      <trkpt lat="46.45506" lon="5.33999">
        <ele>260.8</ele>
        <time>2022-04-11T13:25:51Z</time>
      </trkpt>
      <trkpt lat="46.45517" lon="5.3399">
        <ele>260.6</ele>
        <time>2022-04-11T13:25:52Z</time>
      </trkpt>
      <trkpt lat="46.45526" lon="5.3398">
        <ele>259.8</ele>
        <time>2022-04-11T13:25:53Z</time>
      </trkpt>
      <trkpt lat="46.45551" lon="5.33947">
        <ele>258.8</ele>
        <time>2022-04-11T13:25:56Z</time>
      </trkpt>
      <trkpt lat="46.45558" lon="5.33936">
        <ele>258.6</ele>
        <time>2022-04-11T13:25:57Z</time>
      </trkpt>
      <trkpt lat="46.45573" lon="5.3391">
        <ele>258</ele>
        <time>2022-04-11T13:25:59Z</time>
      </trkpt>
      <trkpt lat="46.45579" lon="5.33897">
        <ele>257</ele>
        <time>2022-04-11T13:26:00Z</time>
      </trkpt>
      <trkpt lat="46.45593" lon="5.33869">
        <ele>256.2</ele>
        <time>2022-04-11T13:26:02Z</time>
      </trkpt>
      <trkpt lat="46.45598" lon="5.33855">
        <ele>255.6</ele>
        <time>2022-04-11T13:26:03Z</time>
      </trkpt>
      <trkpt lat="46.45602" lon="5.3384">
        <ele>255.4</ele>
        <time>2022-04-11T13:26:04Z</time>
      </trkpt>
      <trkpt lat="46.45612" lon="5.3381">
        <ele>254.2</ele>
        <time>2022-04-11T13:26:06Z</time>
      </trkpt>
      <trkpt lat="46.45617" lon="5.33796">
        <ele>253.8</ele>
        <time>2022-04-11T13:26:07Z</time>
      </trkpt>
      <trkpt lat="46.45626" lon="5.33771">
        <ele>253</ele>
        <time>2022-04-11T13:26:09Z</time>
      </trkpt>
      <trkpt lat="46.45632" lon="5.33758">
        <ele>252</ele>
        <time>2022-04-11T13:26:10Z</time>
      </trkpt>
      <trkpt lat="46.45649" lon="5.33718">
        <ele>251</ele>
        <time>2022-04-11T13:26:13Z</time>
      </trkpt>
      <trkpt lat="46.45656" lon="5.33706">
        <ele>250.4</ele>
        <time>2022-04-11T13:26:14Z</time>
      </trkpt>
      <trkpt lat="46.45661" lon="5.33693">
        <ele>250.2</ele>
        <time>2022-04-11T13:26:15Z</time>
      </trkpt>
      <trkpt lat="46.45671" lon="5.33668">
        <ele>249.4</ele>
        <time>2022-04-11T13:26:17Z</time>
      </trkpt>
      <trkpt lat="46.4569" lon="5.33618">
        <ele>248</ele>
        <time>2022-04-11T13:26:21Z</time>
      </trkpt>
      <trkpt lat="46.45722" lon="5.33544">
        <ele>247.4</ele>
        <time>2022-04-11T13:26:27Z</time>
      </trkpt>
      <trkpt lat="46.45727" lon="5.33531">
        <ele>247.2</ele>
        <time>2022-04-11T13:26:28Z</time>
      </trkpt>
      <trkpt lat="46.45749" lon="5.3348">
        <ele>246.4</ele>
        <time>2022-04-11T13:26:32Z</time>
      </trkpt>
      <trkpt lat="46.4576" lon="5.33455">
        <ele>245.4</ele>
        <time>2022-04-11T13:26:34Z</time>
      </trkpt>
      <trkpt lat="46.45766" lon="5.33442">
        <ele>245</ele>
        <time>2022-04-11T13:26:35Z</time>
      </trkpt>
      <trkpt lat="46.45788" lon="5.33394">
        <ele>244.4</ele>
        <time>2022-04-11T13:26:39Z</time>
      </trkpt>
      <trkpt lat="46.458" lon="5.33371">
        <ele>244.2</ele>
        <time>2022-04-11T13:26:41Z</time>
      </trkpt>
      <trkpt lat="46.45834" lon="5.33305">
        <ele>244</ele>
        <time>2022-04-11T13:26:47Z</time>
      </trkpt>
      <trkpt lat="46.45857" lon="5.33262">
        <ele>243.4</ele>
        <time>2022-04-11T13:26:51Z</time>
      </trkpt>
      <trkpt lat="46.4587" lon="5.33242">
        <ele>243.4</ele>
        <time>2022-04-11T13:26:53Z</time>
      </trkpt>
      <trkpt lat="46.45916" lon="5.33191">
        <ele>243.2</ele>
        <time>2022-04-11T13:26:59Z</time>
      </trkpt>
      <trkpt lat="46.45932" lon="5.33174">
        <ele>243.2</ele>
        <time>2022-04-11T13:27:01Z</time>
      </trkpt>
      <trkpt lat="46.45979" lon="5.33122">
        <ele>242.2</ele>
        <time>2022-04-11T13:27:07Z</time>
      </trkpt>
      <trkpt lat="46.45987" lon="5.33114">
        <ele>242</ele>
        <time>2022-04-11T13:27:08Z</time>
      </trkpt>
      <trkpt lat="46.46034" lon="5.33069">
        <ele>241.2</ele>
        <time>2022-04-11T13:27:14Z</time>
      </trkpt>
      <trkpt lat="46.46057" lon="5.33048">
        <ele>241.4</ele>
        <time>2022-04-11T13:27:17Z</time>
      </trkpt>
      <trkpt lat="46.46105" lon="5.33012">
        <ele>241.8</ele>
        <time>2022-04-11T13:27:23Z</time>
      </trkpt>
      <trkpt lat="46.46157" lon="5.3298">
        <ele>241.8</ele>
        <time>2022-04-11T13:27:29Z</time>
      </trkpt>
      <trkpt lat="46.46182" lon="5.32963">
        <ele>241.6</ele>
        <time>2022-04-11T13:27:32Z</time>
      </trkpt>
      <trkpt lat="46.46214" lon="5.32934">
        <ele>241.2</ele>
        <time>2022-04-11T13:27:36Z</time>
      </trkpt>
      <trkpt lat="46.46221" lon="5.32924">
        <ele>241.2</ele>
        <time>2022-04-11T13:27:37Z</time>
      </trkpt>
      <trkpt lat="46.46262" lon="5.32857">
        <ele>240.8</ele>
        <time>2022-04-11T13:27:44Z</time>
      </trkpt>
      <trkpt lat="46.46297" lon="5.32809">
        <ele>241.2</ele>
        <time>2022-04-11T13:27:50Z</time>
      </trkpt>
      <trkpt lat="46.46312" lon="5.32781">
        <ele>241.2</ele>
        <time>2022-04-11T13:27:53Z</time>
      </trkpt>
      <trkpt lat="46.46315" lon="5.3277">
        <ele>241.2</ele>
        <time>2022-04-11T13:27:54Z</time>
      </trkpt>
      <trkpt lat="46.46317" lon="5.32759">
        <ele>241</ele>
        <time>2022-04-11T13:27:55Z</time>
      </trkpt>
      <trkpt lat="46.46319" lon="5.32724">
        <ele>240.6</ele>
        <time>2022-04-11T13:27:58Z</time>
      </trkpt>
      <trkpt lat="46.46318" lon="5.32691">
        <ele>240</ele>
        <time>2022-04-11T13:28:01Z</time>
      </trkpt>
      <trkpt lat="46.4632" lon="5.32621">
        <ele>239.8</ele>
        <time>2022-04-11T13:28:07Z</time>
      </trkpt>
      <trkpt lat="46.46325" lon="5.32575">
        <ele>239.8</ele>
        <time>2022-04-11T13:28:11Z</time>
      </trkpt>
      <trkpt lat="46.46328" lon="5.32564">
        <ele>239.8</ele>
        <time>2022-04-11T13:28:12Z</time>
      </trkpt>
      <trkpt lat="46.46338" lon="5.32534">
        <ele>240</ele>
        <time>2022-04-11T13:28:15Z</time>
      </trkpt>
      <trkpt lat="46.46346" lon="5.32515">
        <ele>240</ele>
        <time>2022-04-11T13:28:17Z</time>
      </trkpt>
      <trkpt lat="46.46376" lon="5.32437">
        <ele>240.4</ele>
        <time>2022-04-11T13:28:25Z</time>
      </trkpt>
      <trkpt lat="46.46405" lon="5.3237">
        <ele>240.2</ele>
        <time>2022-04-11T13:28:32Z</time>
      </trkpt>
      <trkpt lat="46.4641" lon="5.32361">
        <ele>240.4</ele>
        <time>2022-04-11T13:28:33Z</time>
      </trkpt>
      <trkpt lat="46.46445" lon="5.32297">
        <ele>240.2</ele>
        <time>2022-04-11T13:28:40Z</time>
      </trkpt>
      <trkpt lat="46.46465" lon="5.32261">
        <ele>240</ele>
        <time>2022-04-11T13:28:44Z</time>
      </trkpt>
      <trkpt lat="46.46501" lon="5.32196">
        <ele>240.2</ele>
        <time>2022-04-11T13:28:51Z</time>
      </trkpt>
      <trkpt lat="46.46517" lon="5.32168">
        <ele>240.2</ele>
        <time>2022-04-11T13:28:54Z</time>
      </trkpt>
      <trkpt lat="46.46553" lon="5.32102">
        <ele>240.2</ele>
        <time>2022-04-11T13:29:01Z</time>
      </trkpt>
      <trkpt lat="46.46564" lon="5.32083">
        <ele>240.2</ele>
        <time>2022-04-11T13:29:03Z</time>
      </trkpt>
      <trkpt lat="46.46599" lon="5.32019">
        <ele>240</ele>
        <time>2022-04-11T13:29:10Z</time>
      </trkpt>
      <trkpt lat="46.46634" lon="5.31958">
        <ele>240</ele>
        <time>2022-04-11T13:29:17Z</time>
      </trkpt>
      <trkpt lat="46.46666" lon="5.31922">
        <ele>239.8</ele>
        <time>2022-04-11T13:29:22Z</time>
      </trkpt>
      <trkpt lat="46.46711" lon="5.31886">
        <ele>239.2</ele>
        <time>2022-04-11T13:29:28Z</time>
      </trkpt>
      <trkpt lat="46.46726" lon="5.31874">
        <ele>239</ele>
        <time>2022-04-11T13:29:30Z</time>
      </trkpt>
      <trkpt lat="46.46758" lon="5.31842">
        <ele>238</ele>
        <time>2022-04-11T13:29:35Z</time>
      </trkpt>
      <trkpt lat="46.46801" lon="5.31793">
        <ele>237.4</ele>
        <time>2022-04-11T13:29:42Z</time>
      </trkpt>
      <trkpt lat="46.46807" lon="5.31786">
        <ele>237.4</ele>
        <time>2022-04-11T13:29:43Z</time>
      </trkpt>
      <trkpt lat="46.46849" lon="5.31735">
        <ele>237.8</ele>
        <time>2022-04-11T13:29:50Z</time>
      </trkpt>
      <trkpt lat="46.46855" lon="5.31727">
        <ele>238</ele>
        <time>2022-04-11T13:29:51Z</time>
      </trkpt>
      <trkpt lat="46.46865" lon="5.31713">
        <ele>238.4</ele>
        <time>2022-04-11T13:29:53Z</time>
      </trkpt>
      <trkpt lat="46.4688" lon="5.31691">
        <ele>238.8</ele>
        <time>2022-04-11T13:29:56Z</time>
      </trkpt>
      <trkpt lat="46.46893" lon="5.31671">
        <ele>239.6</ele>
        <time>2022-04-11T13:29:59Z</time>
      </trkpt>
      <trkpt lat="46.46898" lon="5.31664">
        <ele>239.8</ele>
        <time>2022-04-11T13:30:00Z</time>
      </trkpt>
      <trkpt lat="46.46903" lon="5.31657">
        <ele>240.4</ele>
        <time>2022-04-11T13:30:01Z</time>
      </trkpt>
      <trkpt lat="46.46915" lon="5.31642">
        <ele>240.8</ele>
        <time>2022-04-11T13:30:03Z</time>
      </trkpt>
      <trkpt lat="46.4696" lon="5.31587">
        <ele>241</ele>
        <time>2022-04-11T13:30:10Z</time>
      </trkpt>
      <trkpt lat="46.47002" lon="5.31538">
        <ele>240.6</ele>
        <time>2022-04-11T13:30:16Z</time>
      </trkpt>
      <trkpt lat="46.47038" lon="5.31494">
        <ele>239.4</ele>
        <time>2022-04-11T13:30:21Z</time>
      </trkpt>
      <trkpt lat="46.47046" lon="5.31485">
        <ele>239.2</ele>
        <time>2022-04-11T13:30:22Z</time>
      </trkpt>
      <trkpt lat="46.47079" lon="5.31442">
        <ele>238.6</ele>
        <time>2022-04-11T13:30:27Z</time>
      </trkpt>
      <trkpt lat="46.47093" lon="5.31425">
        <ele>238.2</ele>
        <time>2022-04-11T13:30:29Z</time>
      </trkpt>
      <trkpt lat="46.47126" lon="5.31382">
        <ele>238.2</ele>
        <time>2022-04-11T13:30:34Z</time>
      </trkpt>
      <trkpt lat="46.47152" lon="5.31341">
        <ele>238.4</ele>
        <time>2022-04-11T13:30:39Z</time>
      </trkpt>
      <trkpt lat="46.47156" lon="5.31334">
        <ele>238.6</ele>
        <time>2022-04-11T13:30:40Z</time>
      </trkpt>
      <trkpt lat="46.47172" lon="5.3131">
        <ele>238.8</ele>
        <time>2022-04-11T13:30:43Z</time>
      </trkpt>
      <trkpt lat="46.47176" lon="5.31302">
        <ele>238.6</ele>
        <time>2022-04-11T13:30:44Z</time>
      </trkpt>
      <trkpt lat="46.47201" lon="5.31263">
        <ele>238.4</ele>
        <time>2022-04-11T13:30:49Z</time>
      </trkpt>
      <trkpt lat="46.47207" lon="5.31255">
        <ele>238.4</ele>
        <time>2022-04-11T13:30:50Z</time>
      </trkpt>
      <trkpt lat="46.47242" lon="5.31209">
        <ele>238</ele>
        <time>2022-04-11T13:30:55Z</time>
      </trkpt>
      <trkpt lat="46.47267" lon="5.31176">
        <ele>237</ele>
        <time>2022-04-11T13:30:59Z</time>
      </trkpt>
      <trkpt lat="46.4728" lon="5.31158">
        <ele>236.8</ele>
        <time>2022-04-11T13:31:01Z</time>
      </trkpt>
      <trkpt lat="46.47305" lon="5.31115">
        <ele>236.6</ele>
        <time>2022-04-11T13:31:06Z</time>
      </trkpt>
      <trkpt lat="46.47325" lon="5.31082">
        <ele>236.4</ele>
        <time>2022-04-11T13:31:10Z</time>
      </trkpt>
      <trkpt lat="46.47333" lon="5.31075">
        <ele>236.4</ele>
        <time>2022-04-11T13:31:11Z</time>
      </trkpt>
      <trkpt lat="46.47365" lon="5.31051">
        <ele>236.2</ele>
        <time>2022-04-11T13:31:15Z</time>
      </trkpt>
      <trkpt lat="46.47385" lon="5.3104">
        <ele>236</ele>
        <time>2022-04-11T13:31:17Z</time>
      </trkpt>
      <trkpt lat="46.47414" lon="5.31021">
        <ele>235.2</ele>
        <time>2022-04-11T13:31:20Z</time>
      </trkpt>
      <trkpt lat="46.47435" lon="5.31008">
        <ele>234.4</ele>
        <time>2022-04-11T13:31:22Z</time>
      </trkpt>
      <trkpt lat="46.47455" lon="5.30995">
        <ele>233.4</ele>
        <time>2022-04-11T13:31:24Z</time>
      </trkpt>
      <trkpt lat="46.47485" lon="5.30975">
        <ele>232</ele>
        <time>2022-04-11T13:31:27Z</time>
      </trkpt>
      <trkpt lat="46.47534" lon="5.30944">
        <ele>230.8</ele>
        <time>2022-04-11T13:31:32Z</time>
      </trkpt>
      <trkpt lat="46.47572" lon="5.30923">
        <ele>230.4</ele>
        <time>2022-04-11T13:31:36Z</time>
      </trkpt>
      <trkpt lat="46.47627" lon="5.30901">
        <ele>230.8</ele>
        <time>2022-04-11T13:31:42Z</time>
      </trkpt>
      <trkpt lat="46.47665" lon="5.30893">
        <ele>231.4</ele>
        <time>2022-04-11T13:31:46Z</time>
      </trkpt>
      <trkpt lat="46.47674" lon="5.30895">
        <ele>231.8</ele>
        <time>2022-04-11T13:31:47Z</time>
      </trkpt>
      <trkpt lat="46.47684" lon="5.30898">
        <ele>232.2</ele>
        <time>2022-04-11T13:31:48Z</time>
      </trkpt>
      <trkpt lat="46.47713" lon="5.30908">
        <ele>233.4</ele>
        <time>2022-04-11T13:31:51Z</time>
      </trkpt>
      <trkpt lat="46.47732" lon="5.30911">
        <ele>234</ele>
        <time>2022-04-11T13:31:53Z</time>
      </trkpt>
      <trkpt lat="46.4774" lon="5.3091">
        <ele>234.4</ele>
        <time>2022-04-11T13:31:54Z</time>
      </trkpt>
      <trkpt lat="46.47749" lon="5.30908">
        <ele>235</ele>
        <time>2022-04-11T13:31:55Z</time>
      </trkpt>
      <trkpt lat="46.47757" lon="5.30904">
        <ele>235.4</ele>
        <time>2022-04-11T13:31:56Z</time>
      </trkpt>
      <trkpt lat="46.47765" lon="5.30899">
        <ele>235.8</ele>
        <time>2022-04-11T13:31:57Z</time>
      </trkpt>
      <trkpt lat="46.47785" lon="5.30878">
        <ele>236.6</ele>
        <time>2022-04-11T13:32:00Z</time>
      </trkpt>
      <trkpt lat="46.47796" lon="5.30861">
        <ele>238.4</ele>
        <time>2022-04-11T13:32:02Z</time>
      </trkpt>
      <trkpt lat="46.47807" lon="5.30844">
        <ele>239.4</ele>
        <time>2022-04-11T13:32:04Z</time>
      </trkpt>
      <trkpt lat="46.47819" lon="5.30827">
        <ele>240.4</ele>
        <time>2022-04-11T13:32:06Z</time>
      </trkpt>
      <trkpt lat="46.47826" lon="5.3082">
        <ele>240.6</ele>
        <time>2022-04-11T13:32:07Z</time>
      </trkpt>
      <trkpt lat="46.47833" lon="5.30814">
        <ele>241</ele>
        <time>2022-04-11T13:32:08Z</time>
      </trkpt>
      <trkpt lat="46.47849" lon="5.30805">
        <ele>241.4</ele>
        <time>2022-04-11T13:32:10Z</time>
      </trkpt>
      <trkpt lat="46.47867" lon="5.30802">
        <ele>241.4</ele>
        <time>2022-04-11T13:32:12Z</time>
      </trkpt>
      <trkpt lat="46.47887" lon="5.30803">
        <ele>241.4</ele>
        <time>2022-04-11T13:32:14Z</time>
      </trkpt>
      <trkpt lat="46.47908" lon="5.30813">
        <ele>239.2</ele>
        <time>2022-04-11T13:32:16Z</time>
      </trkpt>
      <trkpt lat="46.47918" lon="5.30817">
        <ele>238.6</ele>
        <time>2022-04-11T13:32:17Z</time>
      </trkpt>
      <trkpt lat="46.4793" lon="5.3082">
        <ele>237.6</ele>
        <time>2022-04-11T13:32:18Z</time>
      </trkpt>
      <trkpt lat="46.47941" lon="5.30821">
        <ele>237</ele>
        <time>2022-04-11T13:32:19Z</time>
      </trkpt>
      <trkpt lat="46.47954" lon="5.3082">
        <ele>236.2</ele>
        <time>2022-04-11T13:32:20Z</time>
      </trkpt>
      <trkpt lat="46.47966" lon="5.30817">
        <ele>236</ele>
        <time>2022-04-11T13:32:21Z</time>
      </trkpt>
      <trkpt lat="46.47989" lon="5.30807">
        <ele>234.2</ele>
        <time>2022-04-11T13:32:23Z</time>
      </trkpt>
      <trkpt lat="46.48011" lon="5.30795">
        <ele>232.4</ele>
        <time>2022-04-11T13:32:25Z</time>
      </trkpt>
      <trkpt lat="46.48041" lon="5.30778">
        <ele>231.8</ele>
        <time>2022-04-11T13:32:28Z</time>
      </trkpt>
      <trkpt lat="46.481" lon="5.30746">
        <ele>232.2</ele>
        <time>2022-04-11T13:32:34Z</time>
      </trkpt>
      <trkpt lat="46.48109" lon="5.30741">
        <ele>232.2</ele>
        <time>2022-04-11T13:32:35Z</time>
      </trkpt>
      <trkpt lat="46.48168" lon="5.30708">
        <ele>232.8</ele>
        <time>2022-04-11T13:32:41Z</time>
      </trkpt>
      <trkpt lat="46.482" lon="5.30692">
        <ele>232.8</ele>
        <time>2022-04-11T13:32:44Z</time>
      </trkpt>
      <trkpt lat="46.4821" lon="5.30688">
        <ele>232.6</ele>
        <time>2022-04-11T13:32:45Z</time>
      </trkpt>
      <trkpt lat="46.48233" lon="5.30686">
        <ele>232</ele>
        <time>2022-04-11T13:32:47Z</time>
      </trkpt>
      <trkpt lat="46.48267" lon="5.30695">
        <ele>231.4</ele>
        <time>2022-04-11T13:32:50Z</time>
      </trkpt>
      <trkpt lat="46.48278" lon="5.30697">
        <ele>231.2</ele>
        <time>2022-04-11T13:32:51Z</time>
      </trkpt>
      <trkpt lat="46.48302" lon="5.307">
        <ele>230.6</ele>
        <time>2022-04-11T13:32:53Z</time>
      </trkpt>
      <trkpt lat="46.48313" lon="5.30698">
        <ele>230.4</ele>
        <time>2022-04-11T13:32:54Z</time>
      </trkpt>
      <trkpt lat="46.48324" lon="5.30694">
        <ele>230</ele>
        <time>2022-04-11T13:32:55Z</time>
      </trkpt>
      <trkpt lat="46.48345" lon="5.30681">
        <ele>229.4</ele>
        <time>2022-04-11T13:32:57Z</time>
      </trkpt>
      <trkpt lat="46.48355" lon="5.30673">
        <ele>229.4</ele>
        <time>2022-04-11T13:32:58Z</time>
      </trkpt>
      <trkpt lat="46.48381" lon="5.30649">
        <ele>229.2</ele>
        <time>2022-04-11T13:33:01Z</time>
      </trkpt>
      <trkpt lat="46.4843" lon="5.30602">
        <ele>229.4</ele>
        <time>2022-04-11T13:33:07Z</time>
      </trkpt>
      <trkpt lat="46.48438" lon="5.30594">
        <ele>229.6</ele>
        <time>2022-04-11T13:33:08Z</time>
      </trkpt>
      <trkpt lat="46.48475" lon="5.30556">
        <ele>230.4</ele>
        <time>2022-04-11T13:33:13Z</time>
      </trkpt>
      <trkpt lat="46.48513" lon="5.30521">
        <ele>231.6</ele>
        <time>2022-04-11T13:33:18Z</time>
      </trkpt>
      <trkpt lat="46.48529" lon="5.3051">
        <ele>232.2</ele>
        <time>2022-04-11T13:33:20Z</time>
      </trkpt>
      <trkpt lat="46.48545" lon="5.305">
        <ele>232.8</ele>
        <time>2022-04-11T13:33:22Z</time>
      </trkpt>
      <trkpt lat="46.48553" lon="5.30496">
        <ele>233</ele>
        <time>2022-04-11T13:33:23Z</time>
      </trkpt>
      <trkpt lat="46.48571" lon="5.30492">
        <ele>233.2</ele>
        <time>2022-04-11T13:33:25Z</time>
      </trkpt>
      <trkpt lat="46.48589" lon="5.30492">
        <ele>233.2</ele>
        <time>2022-04-11T13:33:27Z</time>
      </trkpt>
      <trkpt lat="46.48607" lon="5.30496">
        <ele>233</ele>
        <time>2022-04-11T13:33:29Z</time>
      </trkpt>
      <trkpt lat="46.48665" lon="5.30502">
        <ele>231.8</ele>
        <time>2022-04-11T13:33:35Z</time>
      </trkpt>
      <trkpt lat="46.48675" lon="5.30501">
        <ele>231.4</ele>
        <time>2022-04-11T13:33:36Z</time>
      </trkpt>
      <trkpt lat="46.48715" lon="5.30502">
        <ele>230.6</ele>
        <time>2022-04-11T13:33:40Z</time>
      </trkpt>
      <trkpt lat="46.48724" lon="5.30505">
        <ele>230</ele>
        <time>2022-04-11T13:33:41Z</time>
      </trkpt>
      <trkpt lat="46.4878" lon="5.3053">
        <ele>229.6</ele>
        <time>2022-04-11T13:33:47Z</time>
      </trkpt>
      <trkpt lat="46.4883" lon="5.30542">
        <ele>230</ele>
        <time>2022-04-11T13:33:52Z</time>
      </trkpt>
      <trkpt lat="46.4888" lon="5.3054">
        <ele>230.8</ele>
        <time>2022-04-11T13:33:57Z</time>
      </trkpt>
      <trkpt lat="46.4894" lon="5.30517">
        <ele>230.4</ele>
        <time>2022-04-11T13:34:03Z</time>
      </trkpt>
      <trkpt lat="46.48998" lon="5.30492">
        <ele>230.2</ele>
        <time>2022-04-11T13:34:09Z</time>
      </trkpt>
      <trkpt lat="46.49028" lon="5.3048">
        <ele>230.4</ele>
        <time>2022-04-11T13:34:12Z</time>
      </trkpt>
      <trkpt lat="46.49084" lon="5.30457">
        <ele>230.4</ele>
        <time>2022-04-11T13:34:18Z</time>
      </trkpt>
      <trkpt lat="46.49101" lon="5.3045">
        <ele>230.2</ele>
        <time>2022-04-11T13:34:20Z</time>
      </trkpt>
      <trkpt lat="46.49144" lon="5.30432">
        <ele>229.2</ele>
        <time>2022-04-11T13:34:25Z</time>
      </trkpt>
      <trkpt lat="46.4916" lon="5.30425">
        <ele>229</ele>
        <time>2022-04-11T13:34:27Z</time>
      </trkpt>
      <trkpt lat="46.4922" lon="5.30401">
        <ele>228.8</ele>
        <time>2022-04-11T13:34:34Z</time>
      </trkpt>
      <trkpt lat="46.49246" lon="5.3039">
        <ele>228</ele>
        <time>2022-04-11T13:34:37Z</time>
      </trkpt>
      <trkpt lat="46.49255" lon="5.30387">
        <ele>228</ele>
        <time>2022-04-11T13:34:38Z</time>
      </trkpt>
      <trkpt lat="46.49308" lon="5.30366">
        <ele>227.6</ele>
        <time>2022-04-11T13:34:44Z</time>
      </trkpt>
      <trkpt lat="46.49326" lon="5.30358">
        <ele>227.4</ele>
        <time>2022-04-11T13:34:46Z</time>
      </trkpt>
      <trkpt lat="46.49383" lon="5.30335">
        <ele>227.4</ele>
        <time>2022-04-11T13:34:52Z</time>
      </trkpt>
      <trkpt lat="46.49392" lon="5.30331">
        <ele>227.6</ele>
        <time>2022-04-11T13:34:53Z</time>
      </trkpt>
      <trkpt lat="46.49449" lon="5.30304">
        <ele>227.2</ele>
        <time>2022-04-11T13:34:59Z</time>
      </trkpt>
      <trkpt lat="46.49458" lon="5.30297">
        <ele>227.2</ele>
        <time>2022-04-11T13:35:00Z</time>
      </trkpt>
      <trkpt lat="46.49467" lon="5.30288">
        <ele>227.2</ele>
        <time>2022-04-11T13:35:01Z</time>
      </trkpt>
      <trkpt lat="46.49482" lon="5.30267">
        <ele>227</ele>
        <time>2022-04-11T13:35:03Z</time>
      </trkpt>
      <trkpt lat="46.49488" lon="5.30255">
        <ele>227</ele>
        <time>2022-04-11T13:35:04Z</time>
      </trkpt>
      <trkpt lat="46.49507" lon="5.30215">
        <ele>226.6</ele>
        <time>2022-04-11T13:35:07Z</time>
      </trkpt>
      <trkpt lat="46.49514" lon="5.30202">
        <ele>226.4</ele>
        <time>2022-04-11T13:35:08Z</time>
      </trkpt>
      <trkpt lat="46.49521" lon="5.30191">
        <ele>226</ele>
        <time>2022-04-11T13:35:09Z</time>
      </trkpt>
      <trkpt lat="46.49529" lon="5.30181">
        <ele>225.8</ele>
        <time>2022-04-11T13:35:10Z</time>
      </trkpt>
      <trkpt lat="46.49557" lon="5.30159">
        <ele>224.8</ele>
        <time>2022-04-11T13:35:13Z</time>
      </trkpt>
      <trkpt lat="46.49602" lon="5.30125">
        <ele>224.2</ele>
        <time>2022-04-11T13:35:18Z</time>
      </trkpt>
      <trkpt lat="46.49641" lon="5.30079">
        <ele>225</ele>
        <time>2022-04-11T13:35:23Z</time>
      </trkpt>
      <trkpt lat="46.4966" lon="5.3004">
        <ele>225</ele>
        <time>2022-04-11T13:35:26Z</time>
      </trkpt>
      <trkpt lat="46.49675" lon="5.29979">
        <ele>223.2</ele>
        <time>2022-04-11T13:35:30Z</time>
      </trkpt>
      <trkpt lat="46.49681" lon="5.29951">
        <ele>221.8</ele>
        <time>2022-04-11T13:35:32Z</time>
      </trkpt>
      <trkpt lat="46.4969" lon="5.29909">
        <ele>220.6</ele>
        <time>2022-04-11T13:35:35Z</time>
      </trkpt>
      <trkpt lat="46.49693" lon="5.29896">
        <ele>220.4</ele>
        <time>2022-04-11T13:35:36Z</time>
      </trkpt>
      <trkpt lat="46.49702" lon="5.2986">
        <ele>220.4</ele>
        <time>2022-04-11T13:35:39Z</time>
      </trkpt>
      <trkpt lat="46.49708" lon="5.29839">
        <ele>221.2</ele>
        <time>2022-04-11T13:35:41Z</time>
      </trkpt>
      <trkpt lat="46.49713" lon="5.29831">
        <ele>221.6</ele>
        <time>2022-04-11T13:35:42Z</time>
      </trkpt>
      <trkpt lat="46.49743" lon="5.29795">
        <ele>222.6</ele>
        <time>2022-04-11T13:35:47Z</time>
      </trkpt>
      <trkpt lat="46.49749" lon="5.29791">
        <ele>222.8</ele>
        <time>2022-04-11T13:35:48Z</time>
      </trkpt>
      <trkpt lat="46.49756" lon="5.2979">
        <ele>223</ele>
        <time>2022-04-11T13:35:49Z</time>
      </trkpt>
      <trkpt lat="46.49764" lon="5.29789">
        <ele>223</ele>
        <time>2022-04-11T13:35:50Z</time>
      </trkpt>
      <trkpt lat="46.4978" lon="5.2979">
        <ele>223.6</ele>
        <time>2022-04-11T13:35:52Z</time>
      </trkpt>
      <trkpt lat="46.49796" lon="5.29795">
        <ele>223.8</ele>
        <time>2022-04-11T13:35:54Z</time>
      </trkpt>
      <trkpt lat="46.49845" lon="5.29813">
        <ele>224</ele>
        <time>2022-04-11T13:36:00Z</time>
      </trkpt>
      <trkpt lat="46.49897" lon="5.29834">
        <ele>223.4</ele>
        <time>2022-04-11T13:36:06Z</time>
      </trkpt>
      <trkpt lat="46.49949" lon="5.29853">
        <ele>222.2</ele>
        <time>2022-04-11T13:36:12Z</time>
      </trkpt>
      <trkpt lat="46.49969" lon="5.29856">
        <ele>221</ele>
        <time>2022-04-11T13:36:14Z</time>
      </trkpt>
      <trkpt lat="46.49997" lon="5.29861">
        <ele>220.2</ele>
        <time>2022-04-11T13:36:17Z</time>
      </trkpt>
      <trkpt lat="46.50007" lon="5.29864">
        <ele>219.8</ele>
        <time>2022-04-11T13:36:18Z</time>
      </trkpt>
      <trkpt lat="46.50024" lon="5.29878">
        <ele>219.6</ele>
        <time>2022-04-11T13:36:20Z</time>
      </trkpt>
      <trkpt lat="46.50052" lon="5.29913">
        <ele>219.4</ele>
        <time>2022-04-11T13:36:24Z</time>
      </trkpt>
      <trkpt lat="46.50058" lon="5.29922">
        <ele>219.4</ele>
        <time>2022-04-11T13:36:25Z</time>
      </trkpt>
      <trkpt lat="46.50076" lon="5.29966">
        <ele>219.6</ele>
        <time>2022-04-11T13:36:29Z</time>
      </trkpt>
      <trkpt lat="46.5008" lon="5.29977">
        <ele>220</ele>
        <time>2022-04-11T13:36:30Z</time>
      </trkpt>
      <trkpt lat="46.50085" lon="5.30014">
        <ele>220.6</ele>
        <time>2022-04-11T13:36:33Z</time>
      </trkpt>
      <trkpt lat="46.50086" lon="5.3009">
        <ele>220.8</ele>
        <time>2022-04-11T13:36:39Z</time>
      </trkpt>
      <trkpt lat="46.50085" lon="5.30177">
        <ele>220.4</ele>
        <time>2022-04-11T13:36:46Z</time>
      </trkpt>
      <trkpt lat="46.50084" lon="5.30262">
        <ele>220.4</ele>
        <time>2022-04-11T13:36:53Z</time>
      </trkpt>
      <trkpt lat="46.50074" lon="5.30325">
        <ele>220</ele>
        <time>2022-04-11T13:36:58Z</time>
      </trkpt>
      <trkpt lat="46.50066" lon="5.30349">
        <ele>219.8</ele>
        <time>2022-04-11T13:37:00Z</time>
      </trkpt>
      <trkpt lat="46.50054" lon="5.3037">
        <ele>219.4</ele>
        <time>2022-04-11T13:37:02Z</time>
      </trkpt>
      <trkpt lat="46.50041" lon="5.30388">
        <ele>219</ele>
        <time>2022-04-11T13:37:04Z</time>
      </trkpt>
      <trkpt lat="46.50034" lon="5.30395">
        <ele>218.6</ele>
        <time>2022-04-11T13:37:05Z</time>
      </trkpt>
      <trkpt lat="46.50027" lon="5.30401">
        <ele>218.4</ele>
        <time>2022-04-11T13:37:06Z</time>
      </trkpt>
      <trkpt lat="46.50013" lon="5.30413">
        <ele>217.4</ele>
        <time>2022-04-11T13:37:08Z</time>
      </trkpt>
      <trkpt lat="46.49995" lon="5.30427">
        <ele>217</ele>
        <time>2022-04-11T13:37:11Z</time>
      </trkpt>
      <trkpt lat="46.49971" lon="5.30449">
        <ele>217.2</ele>
        <time>2022-04-11T13:37:16Z</time>
      </trkpt>
      <trkpt lat="46.4995" lon="5.3048">
        <ele>218</ele>
        <time>2022-04-11T13:37:22Z</time>
      </trkpt>
      <trkpt lat="46.49945" lon="5.30491">
        <ele>218.8</ele>
        <time>2022-04-11T13:37:24Z</time>
      </trkpt>
      <trkpt lat="46.4994" lon="5.30503">
        <ele>219.8</ele>
        <time>2022-04-11T13:37:26Z</time>
      </trkpt>
      <trkpt lat="46.49934" lon="5.30522">
        <ele>220.4</ele>
        <time>2022-04-11T13:37:29Z</time>
      </trkpt>
      <trkpt lat="46.49931" lon="5.30543">
        <ele>221</ele>
        <time>2022-04-11T13:37:32Z</time>
      </trkpt>
      <trkpt lat="46.4993" lon="5.30557">
        <ele>221.6</ele>
        <time>2022-04-11T13:37:34Z</time>
      </trkpt>
      <trkpt lat="46.49929" lon="5.30571">
        <ele>221.8</ele>
        <time>2022-04-11T13:37:36Z</time>
      </trkpt>
      <trkpt lat="46.49929" lon="5.30577">
        <ele>222</ele>
        <time>2022-04-11T13:37:37Z</time>
      </trkpt>
      <trkpt lat="46.49934" lon="5.30624">
        <ele>223.2</ele>
        <time>2022-04-11T13:37:44Z</time>
      </trkpt>
      <trkpt lat="46.49944" lon="5.30684">
        <ele>223.6</ele>
        <time>2022-04-11T13:37:53Z</time>
      </trkpt>
      <trkpt lat="46.4995" lon="5.30717">
        <ele>224.4</ele>
        <time>2022-04-11T13:37:58Z</time>
      </trkpt>
      <trkpt lat="46.49957" lon="5.30753">
        <ele>225.6</ele>
        <time>2022-04-11T13:38:03Z</time>
      </trkpt>
      <trkpt lat="46.49959" lon="5.30761">
        <ele>225.8</ele>
        <time>2022-04-11T13:38:04Z</time>
      </trkpt>
      <trkpt lat="46.4997" lon="5.30814">
        <ele>226.6</ele>
        <time>2022-04-11T13:38:10Z</time>
      </trkpt>
      <trkpt lat="46.49989" lon="5.3087">
        <ele>226.4</ele>
        <time>2022-04-11T13:38:16Z</time>
      </trkpt>
      <trkpt lat="46.50008" lon="5.30924">
        <ele>225.8</ele>
        <time>2022-04-11T13:38:21Z</time>
      </trkpt>
      <trkpt lat="46.50031" lon="5.30986">
        <ele>224</ele>
        <time>2022-04-11T13:38:26Z</time>
      </trkpt>
      <trkpt lat="46.50035" lon="5.30999">
        <ele>223.4</ele>
        <time>2022-04-11T13:38:27Z</time>
      </trkpt>
      <trkpt lat="46.5004" lon="5.31012">
        <ele>223</ele>
        <time>2022-04-11T13:38:28Z</time>
      </trkpt>
      <trkpt lat="46.50054" lon="5.31053">
        <ele>221.4</ele>
        <time>2022-04-11T13:38:31Z</time>
      </trkpt>
      <trkpt lat="46.50063" lon="5.31082">
        <ele>219.6</ele>
        <time>2022-04-11T13:38:33Z</time>
      </trkpt>
      <trkpt lat="46.50073" lon="5.31111">
        <ele>218</ele>
        <time>2022-04-11T13:38:35Z</time>
      </trkpt>
      <trkpt lat="46.50082" lon="5.3114">
        <ele>216.8</ele>
        <time>2022-04-11T13:38:37Z</time>
      </trkpt>
      <trkpt lat="46.50092" lon="5.31169">
        <ele>215.8</ele>
        <time>2022-04-11T13:38:39Z</time>
      </trkpt>
      <trkpt lat="46.50096" lon="5.31182">
        <ele>215.2</ele>
        <time>2022-04-11T13:38:40Z</time>
      </trkpt>
      <trkpt lat="46.50105" lon="5.31208">
        <ele>214.4</ele>
        <time>2022-04-11T13:38:42Z</time>
      </trkpt>
      <trkpt lat="46.50123" lon="5.31257">
        <ele>214.2</ele>
        <time>2022-04-11T13:38:46Z</time>
      </trkpt>
      <trkpt lat="46.50149" lon="5.31333">
        <ele>215.4</ele>
        <time>2022-04-11T13:38:52Z</time>
      </trkpt>
      <trkpt lat="46.50157" lon="5.31358">
        <ele>215.8</ele>
        <time>2022-04-11T13:38:54Z</time>
      </trkpt>
      <trkpt lat="46.50182" lon="5.31434">
        <ele>215.2</ele>
        <time>2022-04-11T13:39:00Z</time>
      </trkpt>
      <trkpt lat="46.50187" lon="5.31447">
        <ele>214.8</ele>
        <time>2022-04-11T13:39:01Z</time>
      </trkpt>
      <trkpt lat="46.50192" lon="5.31461">
        <ele>214.6</ele>
        <time>2022-04-11T13:39:02Z</time>
      </trkpt>
      <trkpt lat="46.50211" lon="5.31517">
        <ele>213.8</ele>
        <time>2022-04-11T13:39:06Z</time>
      </trkpt>
      <trkpt lat="46.50217" lon="5.3153">
        <ele>213.4</ele>
        <time>2022-04-11T13:39:07Z</time>
      </trkpt>
      <trkpt lat="46.50224" lon="5.31543">
        <ele>212.6</ele>
        <time>2022-04-11T13:39:08Z</time>
      </trkpt>
      <trkpt lat="46.50239" lon="5.31567">
        <ele>212</ele>
        <time>2022-04-11T13:39:10Z</time>
      </trkpt>
      <trkpt lat="46.50266" lon="5.31595">
        <ele>210.8</ele>
        <time>2022-04-11T13:39:13Z</time>
      </trkpt>
      <trkpt lat="46.50275" lon="5.31603">
        <ele>210</ele>
        <time>2022-04-11T13:39:14Z</time>
      </trkpt>
      <trkpt lat="46.50285" lon="5.31611">
        <ele>209</ele>
        <time>2022-04-11T13:39:15Z</time>
      </trkpt>
      <trkpt lat="46.50322" lon="5.3164">
        <ele>207.8</ele>
        <time>2022-04-11T13:39:19Z</time>
      </trkpt>
      <trkpt lat="46.50349" lon="5.31661">
        <ele>207.4</ele>
        <time>2022-04-11T13:39:22Z</time>
      </trkpt>
      <trkpt lat="46.50365" lon="5.31677">
        <ele>207.4</ele>
        <time>2022-04-11T13:39:24Z</time>
      </trkpt>
      <trkpt lat="46.50378" lon="5.31697">
        <ele>207.4</ele>
        <time>2022-04-11T13:39:26Z</time>
      </trkpt>
      <trkpt lat="46.50403" lon="5.3175">
        <ele>208</ele>
        <time>2022-04-11T13:39:31Z</time>
      </trkpt>
      <trkpt lat="46.5042" lon="5.31808">
        <ele>208.4</ele>
        <time>2022-04-11T13:39:36Z</time>
      </trkpt>
      <trkpt lat="46.5043" lon="5.31855">
        <ele>209</ele>
        <time>2022-04-11T13:39:40Z</time>
      </trkpt>
      <trkpt lat="46.50434" lon="5.31892">
        <ele>209</ele>
        <time>2022-04-11T13:39:43Z</time>
      </trkpt>
      <trkpt lat="46.50434" lon="5.31965">
        <ele>209.6</ele>
        <time>2022-04-11T13:39:49Z</time>
      </trkpt>
      <trkpt lat="46.50432" lon="5.32047">
        <ele>209.8</ele>
        <time>2022-04-11T13:39:56Z</time>
      </trkpt>
      <trkpt lat="46.50431" lon="5.32091">
        <ele>209.8</ele>
        <time>2022-04-11T13:40:00Z</time>
      </trkpt>
      <trkpt lat="46.5043" lon="5.32132">
        <ele>209.8</ele>
        <time>2022-04-11T13:40:04Z</time>
      </trkpt>
      <trkpt lat="46.5043" lon="5.32163">
        <ele>210.2</ele>
        <time>2022-04-11T13:40:07Z</time>
      </trkpt>
      <trkpt lat="46.50429" lon="5.32173">
        <ele>210.4</ele>
        <time>2022-04-11T13:40:08Z</time>
      </trkpt>
      <trkpt lat="46.50428" lon="5.32223">
        <ele>211.2</ele>
        <time>2022-04-11T13:40:13Z</time>
      </trkpt>
      <trkpt lat="46.5043" lon="5.32262">
        <ele>211.6</ele>
        <time>2022-04-11T13:40:17Z</time>
      </trkpt>
      <trkpt lat="46.50434" lon="5.323">
        <ele>212.2</ele>
        <time>2022-04-11T13:40:21Z</time>
      </trkpt>
      <trkpt lat="46.50438" lon="5.3232">
        <ele>212.6</ele>
        <time>2022-04-11T13:40:23Z</time>
      </trkpt>
      <trkpt lat="46.50448" lon="5.32372">
        <ele>213.2</ele>
        <time>2022-04-11T13:40:28Z</time>
      </trkpt>
      <trkpt lat="46.50455" lon="5.32403">
        <ele>213.6</ele>
        <time>2022-04-11T13:40:31Z</time>
      </trkpt>
      <trkpt lat="46.50466" lon="5.32476">
        <ele>213.6</ele>
        <time>2022-04-11T13:40:38Z</time>
      </trkpt>
      <trkpt lat="46.50471" lon="5.32557">
        <ele>213.2</ele>
        <time>2022-04-11T13:40:46Z</time>
      </trkpt>
      <trkpt lat="46.50472" lon="5.32567">
        <ele>213.2</ele>
        <time>2022-04-11T13:40:47Z</time>
      </trkpt>
      <trkpt lat="46.50474" lon="5.32655">
        <ele>214.4</ele>
        <time>2022-04-11T13:40:56Z</time>
      </trkpt>
      <trkpt lat="46.50474" lon="5.32665">
        <ele>214.4</ele>
        <time>2022-04-11T13:40:57Z</time>
      </trkpt>
      <trkpt lat="46.50473" lon="5.32722">
        <ele>215.4</ele>
        <time>2022-04-11T13:41:03Z</time>
      </trkpt>
      <trkpt lat="46.50473" lon="5.32741">
        <ele>215.8</ele>
        <time>2022-04-11T13:41:05Z</time>
      </trkpt>
      <trkpt lat="46.50471" lon="5.32819">
        <ele>216.2</ele>
        <time>2022-04-11T13:41:13Z</time>
      </trkpt>
      <trkpt lat="46.50471" lon="5.32829">
        <ele>216.4</ele>
        <time>2022-04-11T13:41:14Z</time>
      </trkpt>
      <trkpt lat="46.5047" lon="5.32858">
        <ele>216.4</ele>
        <time>2022-04-11T13:41:17Z</time>
      </trkpt>
      <trkpt lat="46.5047" lon="5.32909">
        <ele>217.4</ele>
        <time>2022-04-11T13:41:23Z</time>
      </trkpt>
      <trkpt lat="46.50469" lon="5.32917">
        <ele>217.6</ele>
        <time>2022-04-11T13:41:24Z</time>
      </trkpt>
      <trkpt lat="46.50469" lon="5.32946">
        <ele>218.6</ele>
        <time>2022-04-11T13:41:28Z</time>
      </trkpt>
      <trkpt lat="46.50469" lon="5.3296">
        <ele>219</ele>
        <time>2022-04-11T13:41:30Z</time>
      </trkpt>
      <trkpt lat="46.50469" lon="5.32974">
        <ele>219.8</ele>
        <time>2022-04-11T13:41:32Z</time>
      </trkpt>
      <trkpt lat="46.50468" lon="5.33001">
        <ele>221.2</ele>
        <time>2022-04-11T13:41:36Z</time>
      </trkpt>
      <trkpt lat="46.50468" lon="5.33008">
        <ele>221.2</ele>
        <time>2022-04-11T13:41:37Z</time>
      </trkpt>
      <trkpt lat="46.50468" lon="5.3303">
        <ele>222.2</ele>
        <time>2022-04-11T13:41:40Z</time>
      </trkpt>
      <trkpt lat="46.50468" lon="5.33058">
        <ele>223.2</ele>
        <time>2022-04-11T13:41:44Z</time>
      </trkpt>
      <trkpt lat="46.50467" lon="5.33065">
        <ele>223.4</ele>
        <time>2022-04-11T13:41:45Z</time>
      </trkpt>
      <trkpt lat="46.50466" lon="5.331">
        <ele>224.4</ele>
        <time>2022-04-11T13:41:50Z</time>
      </trkpt>
      <trkpt lat="46.50465" lon="5.33106">
        <ele>224.6</ele>
        <time>2022-04-11T13:41:51Z</time>
      </trkpt>
      <trkpt lat="46.50465" lon="5.3312">
        <ele>225.6</ele>
        <time>2022-04-11T13:41:53Z</time>
      </trkpt>
      <trkpt lat="46.50463" lon="5.3314">
        <ele>226.8</ele>
        <time>2022-04-11T13:41:56Z</time>
      </trkpt>
      <trkpt lat="46.50462" lon="5.33153">
        <ele>227.6</ele>
        <time>2022-04-11T13:41:58Z</time>
      </trkpt>
      <trkpt lat="46.50462" lon="5.3316">
        <ele>227.8</ele>
        <time>2022-04-11T13:41:59Z</time>
      </trkpt>
      <trkpt lat="46.50462" lon="5.33189">
        <ele>229.2</ele>
        <time>2022-04-11T13:42:03Z</time>
      </trkpt>
      <trkpt lat="46.50462" lon="5.33206">
        <ele>229.6</ele>
        <time>2022-04-11T13:42:05Z</time>
      </trkpt>
      <trkpt lat="46.50464" lon="5.33231">
        <ele>230.4</ele>
        <time>2022-04-11T13:42:08Z</time>
      </trkpt>
      <trkpt lat="46.50463" lon="5.33239">
        <ele>230.4</ele>
        <time>2022-04-11T13:42:09Z</time>
      </trkpt>
      <trkpt lat="46.50463" lon="5.33302">
        <ele>231</ele>
        <time>2022-04-11T13:42:16Z</time>
      </trkpt>
      <trkpt lat="46.50459" lon="5.33361">
        <ele>230.6</ele>
        <time>2022-04-11T13:42:22Z</time>
      </trkpt>
      <trkpt lat="46.50454" lon="5.3339">
        <ele>230.4</ele>
        <time>2022-04-11T13:42:25Z</time>
      </trkpt>
      <trkpt lat="46.50448" lon="5.33408">
        <ele>230.2</ele>
        <time>2022-04-11T13:42:27Z</time>
      </trkpt>
      <trkpt lat="46.50428" lon="5.33443">
        <ele>230</ele>
        <time>2022-04-11T13:42:32Z</time>
      </trkpt>
      <trkpt lat="46.50404" lon="5.33468">
        <ele>230</ele>
        <time>2022-04-11T13:42:37Z</time>
      </trkpt>
      <trkpt lat="46.5038" lon="5.33496">
        <ele>230.6</ele>
        <time>2022-04-11T13:42:42Z</time>
      </trkpt>
      <trkpt lat="46.50364" lon="5.33512">
        <ele>231</ele>
        <time>2022-04-11T13:42:45Z</time>
      </trkpt>
      <trkpt lat="46.50359" lon="5.33517">
        <ele>231.2</ele>
        <time>2022-04-11T13:42:46Z</time>
      </trkpt>
      <trkpt lat="46.50349" lon="5.33527">
        <ele>231.4</ele>
        <time>2022-04-11T13:42:48Z</time>
      </trkpt>
      <trkpt lat="46.5032" lon="5.33555">
        <ele>232</ele>
        <time>2022-04-11T13:42:54Z</time>
      </trkpt>
      <trkpt lat="46.50315" lon="5.33561">
        <ele>232</ele>
        <time>2022-04-11T13:42:55Z</time>
      </trkpt>
      <trkpt lat="46.5031" lon="5.33566">
        <ele>232.2</ele>
        <time>2022-04-11T13:42:56Z</time>
      </trkpt>
      <trkpt lat="46.50268" lon="5.33616">
        <ele>233.2</ele>
        <time>2022-04-11T13:43:04Z</time>
      </trkpt>
      <trkpt lat="46.50243" lon="5.33645">
        <ele>233.2</ele>
        <time>2022-04-11T13:43:09Z</time>
      </trkpt>
      <trkpt lat="46.50198" lon="5.33693">
        <ele>233.8</ele>
        <time>2022-04-11T13:43:18Z</time>
      </trkpt>
      <trkpt lat="46.50152" lon="5.33742">
        <ele>233.6</ele>
        <time>2022-04-11T13:43:27Z</time>
      </trkpt>
      <trkpt lat="46.50105" lon="5.33789">
        <ele>233.6</ele>
        <time>2022-04-11T13:43:35Z</time>
      </trkpt>
      <trkpt lat="46.50062" lon="5.33836">
        <ele>233.8</ele>
        <time>2022-04-11T13:43:43Z</time>
      </trkpt>
      <trkpt lat="46.50038" lon="5.3386">
        <ele>234</ele>
        <time>2022-04-11T13:43:48Z</time>
      </trkpt>
      <trkpt lat="46.50033" lon="5.33865">
        <ele>234.6</ele>
        <time>2022-04-11T13:43:49Z</time>
      </trkpt>
      <trkpt lat="46.50005" lon="5.33895">
        <ele>235.6</ele>
        <time>2022-04-11T13:43:55Z</time>
      </trkpt>
      <trkpt lat="46.49996" lon="5.33905">
        <ele>235.8</ele>
        <time>2022-04-11T13:43:57Z</time>
      </trkpt>
      <trkpt lat="46.49986" lon="5.33915">
        <ele>236</ele>
        <time>2022-04-11T13:43:59Z</time>
      </trkpt>
      <trkpt lat="46.49964" lon="5.33938">
        <ele>236.2</ele>
        <time>2022-04-11T13:44:03Z</time>
      </trkpt>
      <trkpt lat="46.49923" lon="5.33983">
        <ele>235.4</ele>
        <time>2022-04-11T13:44:10Z</time>
      </trkpt>
      <trkpt lat="46.49903" lon="5.34005">
        <ele>234.6</ele>
        <time>2022-04-11T13:44:13Z</time>
      </trkpt>
      <trkpt lat="46.49876" lon="5.34036">
        <ele>233.8</ele>
        <time>2022-04-11T13:44:17Z</time>
      </trkpt>
      <trkpt lat="46.49857" lon="5.3406">
        <ele>233.4</ele>
        <time>2022-04-11T13:44:20Z</time>
      </trkpt>
      <trkpt lat="46.49841" lon="5.34084">
        <ele>233.2</ele>
        <time>2022-04-11T13:44:23Z</time>
      </trkpt>
      <trkpt lat="46.49801" lon="5.34146">
        <ele>233</ele>
        <time>2022-04-11T13:44:31Z</time>
      </trkpt>
      <trkpt lat="46.49797" lon="5.34154">
        <ele>233</ele>
        <time>2022-04-11T13:44:32Z</time>
      </trkpt>
      <trkpt lat="46.49767" lon="5.34202">
        <ele>233.2</ele>
        <time>2022-04-11T13:44:38Z</time>
      </trkpt>
      <trkpt lat="46.49742" lon="5.34244">
        <ele>232.4</ele>
        <time>2022-04-11T13:44:43Z</time>
      </trkpt>
      <trkpt lat="46.49728" lon="5.34268">
        <ele>232.2</ele>
        <time>2022-04-11T13:44:46Z</time>
      </trkpt>
      <trkpt lat="46.49706" lon="5.34318">
        <ele>232.4</ele>
        <time>2022-04-11T13:44:52Z</time>
      </trkpt>
      <trkpt lat="46.49689" lon="5.34382">
        <ele>232.4</ele>
        <time>2022-04-11T13:44:58Z</time>
      </trkpt>
      <trkpt lat="46.4967" lon="5.34453">
        <ele>231.4</ele>
        <time>2022-04-11T13:45:04Z</time>
      </trkpt>
      <trkpt lat="46.49667" lon="5.34464">
        <ele>231</ele>
        <time>2022-04-11T13:45:05Z</time>
      </trkpt>
      <trkpt lat="46.4966" lon="5.34488">
        <ele>230.2</ele>
        <time>2022-04-11T13:45:07Z</time>
      </trkpt>
      <trkpt lat="46.49645" lon="5.3455">
        <ele>229.4</ele>
        <time>2022-04-11T13:45:12Z</time>
      </trkpt>
      <trkpt lat="46.49643" lon="5.34562">
        <ele>229</ele>
        <time>2022-04-11T13:45:13Z</time>
      </trkpt>
      <trkpt lat="46.4964" lon="5.34588">
        <ele>228</ele>
        <time>2022-04-11T13:45:15Z</time>
      </trkpt>
      <trkpt lat="46.49634" lon="5.34635">
        <ele>226.8</ele>
        <time>2022-04-11T13:45:19Z</time>
      </trkpt>
      <trkpt lat="46.49628" lon="5.34693">
        <ele>227.4</ele>
        <time>2022-04-11T13:45:25Z</time>
      </trkpt>
      <trkpt lat="46.49627" lon="5.3471">
        <ele>228.2</ele>
        <time>2022-04-11T13:45:27Z</time>
      </trkpt>
      <trkpt lat="46.49626" lon="5.34718">
        <ele>228.8</ele>
        <time>2022-04-11T13:45:28Z</time>
      </trkpt>
      <trkpt lat="46.49625" lon="5.34727">
        <ele>229.4</ele>
        <time>2022-04-11T13:45:29Z</time>
      </trkpt>
      <trkpt lat="46.49625" lon="5.34735">
        <ele>229.6</ele>
        <time>2022-04-11T13:45:30Z</time>
      </trkpt>
      <trkpt lat="46.49624" lon="5.34743">
        <ele>230</ele>
        <time>2022-04-11T13:45:31Z</time>
      </trkpt>
      <trkpt lat="46.49625" lon="5.34757">
        <ele>230.6</ele>
        <time>2022-04-11T13:45:33Z</time>
      </trkpt>
      <trkpt lat="46.49625" lon="5.34765">
        <ele>231</ele>
        <time>2022-04-11T13:45:34Z</time>
      </trkpt>
      <trkpt lat="46.49626" lon="5.34779">
        <ele>231.8</ele>
        <time>2022-04-11T13:45:36Z</time>
      </trkpt>
      <trkpt lat="46.49626" lon="5.34786">
        <ele>232</ele>
        <time>2022-04-11T13:45:37Z</time>
      </trkpt>
      <trkpt lat="46.49628" lon="5.348">
        <ele>233</ele>
        <time>2022-04-11T13:45:39Z</time>
      </trkpt>
      <trkpt lat="46.49629" lon="5.34807">
        <ele>233.4</ele>
        <time>2022-04-11T13:45:40Z</time>
      </trkpt>
      <trkpt lat="46.49629" lon="5.34814">
        <ele>233.4</ele>
        <time>2022-04-11T13:45:41Z</time>
      </trkpt>
      <trkpt lat="46.49631" lon="5.34829">
        <ele>234</ele>
        <time>2022-04-11T13:45:43Z</time>
      </trkpt>
      <trkpt lat="46.49634" lon="5.34843">
        <ele>234.2</ele>
        <time>2022-04-11T13:45:45Z</time>
      </trkpt>
      <trkpt lat="46.49636" lon="5.34851">
        <ele>234.2</ele>
        <time>2022-04-11T13:45:46Z</time>
      </trkpt>
      <trkpt lat="46.49643" lon="5.34893">
        <ele>235</ele>
        <time>2022-04-11T13:45:51Z</time>
      </trkpt>
      <trkpt lat="46.49659" lon="5.34968">
        <ele>235.8</ele>
        <time>2022-04-11T13:45:59Z</time>
      </trkpt>
      <trkpt lat="46.49669" lon="5.35019">
        <ele>235.6</ele>
        <time>2022-04-11T13:46:04Z</time>
      </trkpt>
      <trkpt lat="46.49685" lon="5.35098">
        <ele>234.4</ele>
        <time>2022-04-11T13:46:11Z</time>
      </trkpt>
      <trkpt lat="46.49687" lon="5.35109">
        <ele>234.4</ele>
        <time>2022-04-11T13:46:12Z</time>
      </trkpt>
      <trkpt lat="46.497" lon="5.35171">
        <ele>234</ele>
        <time>2022-04-11T13:46:18Z</time>
      </trkpt>
      <trkpt lat="46.49711" lon="5.35227">
        <ele>234.2</ele>
        <time>2022-04-11T13:46:24Z</time>
      </trkpt>
      <trkpt lat="46.49727" lon="5.35307">
        <ele>234.4</ele>
        <time>2022-04-11T13:46:32Z</time>
      </trkpt>
      <trkpt lat="46.49732" lon="5.35354">
        <ele>233.6</ele>
        <time>2022-04-11T13:46:36Z</time>
      </trkpt>
      <trkpt lat="46.49732" lon="5.35365">
        <ele>233.4</ele>
        <time>2022-04-11T13:46:37Z</time>
      </trkpt>
      <trkpt lat="46.49726" lon="5.35431">
        <ele>232.8</ele>
        <time>2022-04-11T13:46:43Z</time>
      </trkpt>
      <trkpt lat="46.49716" lon="5.35508">
        <ele>234</ele>
        <time>2022-04-11T13:46:51Z</time>
      </trkpt>
      <trkpt lat="46.49707" lon="5.35579">
        <ele>234.2</ele>
        <time>2022-04-11T13:46:59Z</time>
      </trkpt>
      <trkpt lat="46.49702" lon="5.35624">
        <ele>234.8</ele>
        <time>2022-04-11T13:47:04Z</time>
      </trkpt>
      <trkpt lat="46.49696" lon="5.35668">
        <ele>235</ele>
        <time>2022-04-11T13:47:09Z</time>
      </trkpt>
      <trkpt lat="46.49683" lon="5.35718">
        <ele>234.8</ele>
        <time>2022-04-11T13:47:14Z</time>
      </trkpt>
      <trkpt lat="46.49658" lon="5.35776">
        <ele>234</ele>
        <time>2022-04-11T13:47:20Z</time>
      </trkpt>
      <trkpt lat="46.49649" lon="5.35796">
        <ele>233.8</ele>
        <time>2022-04-11T13:47:22Z</time>
      </trkpt>
      <trkpt lat="46.49639" lon="5.35829">
        <ele>233.2</ele>
        <time>2022-04-11T13:47:25Z</time>
      </trkpt>
      <trkpt lat="46.49635" lon="5.35854">
        <ele>232.4</ele>
        <time>2022-04-11T13:47:27Z</time>
      </trkpt>
      <trkpt lat="46.49635" lon="5.35881">
        <ele>231.6</ele>
        <time>2022-04-11T13:47:29Z</time>
      </trkpt>
      <trkpt lat="46.49637" lon="5.35908">
        <ele>231</ele>
        <time>2022-04-11T13:47:31Z</time>
      </trkpt>
      <trkpt lat="46.49639" lon="5.35948">
        <ele>230.4</ele>
        <time>2022-04-11T13:47:34Z</time>
      </trkpt>
      <trkpt lat="46.49642" lon="5.35986">
        <ele>230</ele>
        <time>2022-04-11T13:47:37Z</time>
      </trkpt>
      <trkpt lat="46.49646" lon="5.36046">
        <ele>229.2</ele>
        <time>2022-04-11T13:47:42Z</time>
      </trkpt>
      <trkpt lat="46.49647" lon="5.36058">
        <ele>228.8</ele>
        <time>2022-04-11T13:47:43Z</time>
      </trkpt>
      <trkpt lat="46.4965" lon="5.3608">
        <ele>228.8</ele>
        <time>2022-04-11T13:47:45Z</time>
      </trkpt>
      <trkpt lat="46.49653" lon="5.36091">
        <ele>228.6</ele>
        <time>2022-04-11T13:47:46Z</time>
      </trkpt>
      <trkpt lat="46.49674" lon="5.36138">
        <ele>229</ele>
        <time>2022-04-11T13:47:51Z</time>
      </trkpt>
      <trkpt lat="46.49714" lon="5.36205">
        <ele>229</ele>
        <time>2022-04-11T13:47:59Z</time>
      </trkpt>
      <trkpt lat="46.49718" lon="5.36214">
        <ele>229</ele>
        <time>2022-04-11T13:48:00Z</time>
      </trkpt>
      <trkpt lat="46.49746" lon="5.36275">
        <ele>228.8</ele>
        <time>2022-04-11T13:48:07Z</time>
      </trkpt>
      <trkpt lat="46.49775" lon="5.36343">
        <ele>229.2</ele>
        <time>2022-04-11T13:48:15Z</time>
      </trkpt>
      <trkpt lat="46.49786" lon="5.36368">
        <ele>230</ele>
        <time>2022-04-11T13:48:18Z</time>
      </trkpt>
      <trkpt lat="46.49796" lon="5.36391">
        <ele>231.2</ele>
        <time>2022-04-11T13:48:21Z</time>
      </trkpt>
      <trkpt lat="46.49804" lon="5.36408">
        <ele>232.2</ele>
        <time>2022-04-11T13:48:23Z</time>
      </trkpt>
      <trkpt lat="46.49811" lon="5.36426">
        <ele>233.2</ele>
        <time>2022-04-11T13:48:25Z</time>
      </trkpt>
      <trkpt lat="46.49831" lon="5.36467">
        <ele>234.4</ele>
        <time>2022-04-11T13:48:30Z</time>
      </trkpt>
      <trkpt lat="46.49835" lon="5.36475">
        <ele>234.6</ele>
        <time>2022-04-11T13:48:31Z</time>
      </trkpt>
      <trkpt lat="46.49861" lon="5.36516">
        <ele>235.4</ele>
        <time>2022-04-11T13:48:37Z</time>
      </trkpt>
      <trkpt lat="46.4987" lon="5.36529">
        <ele>235.8</ele>
        <time>2022-04-11T13:48:39Z</time>
      </trkpt>
      <trkpt lat="46.49896" lon="5.36569">
        <ele>236.4</ele>
        <time>2022-04-11T13:48:45Z</time>
      </trkpt>
      <trkpt lat="46.49904" lon="5.36583">
        <ele>236.8</ele>
        <time>2022-04-11T13:48:47Z</time>
      </trkpt>
      <trkpt lat="46.49912" lon="5.36598">
        <ele>237</ele>
        <time>2022-04-11T13:48:49Z</time>
      </trkpt>
      <trkpt lat="46.49917" lon="5.36615">
        <ele>237.4</ele>
        <time>2022-04-11T13:48:51Z</time>
      </trkpt>
      <trkpt lat="46.49918" lon="5.36633">
        <ele>237.8</ele>
        <time>2022-04-11T13:48:53Z</time>
      </trkpt>
      <trkpt lat="46.49917" lon="5.36641">
        <ele>238</ele>
        <time>2022-04-11T13:48:54Z</time>
      </trkpt>
      <trkpt lat="46.49915" lon="5.36649">
        <ele>238.2</ele>
        <time>2022-04-11T13:48:55Z</time>
      </trkpt>
      <trkpt lat="46.49907" lon="5.36673">
        <ele>238.6</ele>
        <time>2022-04-11T13:48:58Z</time>
      </trkpt>
      <trkpt lat="46.49904" lon="5.36681">
        <ele>239</ele>
        <time>2022-04-11T13:48:59Z</time>
      </trkpt>
      <trkpt lat="46.49882" lon="5.3673">
        <ele>239.2</ele>
        <time>2022-04-11T13:49:06Z</time>
      </trkpt>
      <trkpt lat="46.49859" lon="5.36794">
        <ele>240</ele>
        <time>2022-04-11T13:49:15Z</time>
      </trkpt>
      <trkpt lat="46.49857" lon="5.36801">
        <ele>240.2</ele>
        <time>2022-04-11T13:49:16Z</time>
      </trkpt>
      <trkpt lat="46.49844" lon="5.36843">
        <ele>241.2</ele>
        <time>2022-04-11T13:49:22Z</time>
      </trkpt>
      <trkpt lat="46.49833" lon="5.36878">
        <ele>242.4</ele>
        <time>2022-04-11T13:49:27Z</time>
      </trkpt>
      <trkpt lat="46.49831" lon="5.36884">
        <ele>242.4</ele>
        <time>2022-04-11T13:49:28Z</time>
      </trkpt>
      <trkpt lat="46.49815" lon="5.36938">
        <ele>243.2</ele>
        <time>2022-04-11T13:49:36Z</time>
      </trkpt>
      <trkpt lat="46.49793" lon="5.37005">
        <ele>243.2</ele>
        <time>2022-04-11T13:49:46Z</time>
      </trkpt>
      <trkpt lat="46.49784" lon="5.37035">
        <ele>243.6</ele>
        <time>2022-04-11T13:49:50Z</time>
      </trkpt>
      <trkpt lat="46.49772" lon="5.37077">
        <ele>244.2</ele>
        <time>2022-04-11T13:49:56Z</time>
      </trkpt>
      <trkpt lat="46.49768" lon="5.37092">
        <ele>244</ele>
        <time>2022-04-11T13:49:58Z</time>
      </trkpt>
      <trkpt lat="46.49759" lon="5.37119">
        <ele>244.4</ele>
        <time>2022-04-11T13:50:02Z</time>
      </trkpt>
      <trkpt lat="46.49757" lon="5.37127">
        <ele>244.6</ele>
        <time>2022-04-11T13:50:03Z</time>
      </trkpt>
      <trkpt lat="46.49741" lon="5.3718">
        <ele>245.6</ele>
        <time>2022-04-11T13:50:11Z</time>
      </trkpt>
      <trkpt lat="46.49739" lon="5.37186">
        <ele>245.6</ele>
        <time>2022-04-11T13:50:12Z</time>
      </trkpt>
      <trkpt lat="46.49724" lon="5.37234">
        <ele>246.8</ele>
        <time>2022-04-11T13:50:19Z</time>
      </trkpt>
      <trkpt lat="46.4972" lon="5.37248">
        <ele>247.4</ele>
        <time>2022-04-11T13:50:21Z</time>
      </trkpt>
      <trkpt lat="46.49702" lon="5.37308">
        <ele>247.6</ele>
        <time>2022-04-11T13:50:30Z</time>
      </trkpt>
      <trkpt lat="46.49691" lon="5.37344">
        <ele>247.8</ele>
        <time>2022-04-11T13:50:36Z</time>
      </trkpt>
      <trkpt lat="46.49682" lon="5.37373">
        <ele>249</ele>
        <time>2022-04-11T13:50:41Z</time>
      </trkpt>
      <trkpt lat="46.49674" lon="5.37397">
        <ele>249.4</ele>
        <time>2022-04-11T13:50:45Z</time>
      </trkpt>
      <trkpt lat="46.49669" lon="5.37414">
        <ele>250.2</ele>
        <time>2022-04-11T13:50:48Z</time>
      </trkpt>
      <trkpt lat="46.49662" lon="5.37436">
        <ele>251</ele>
        <time>2022-04-11T13:50:52Z</time>
      </trkpt>
      <trkpt lat="46.49659" lon="5.37447">
        <ele>251.6</ele>
        <time>2022-04-11T13:50:54Z</time>
      </trkpt>
      <trkpt lat="46.49657" lon="5.37452">
        <ele>252</ele>
        <time>2022-04-11T13:50:55Z</time>
      </trkpt>
      <trkpt lat="46.49649" lon="5.37467">
        <ele>252.6</ele>
        <time>2022-04-11T13:50:58Z</time>
      </trkpt>
      <trkpt lat="46.49647" lon="5.37472">
        <ele>252.8</ele>
        <time>2022-04-11T13:50:59Z</time>
      </trkpt>
      <trkpt lat="46.49644" lon="5.37476">
        <ele>252.8</ele>
        <time>2022-04-11T13:51:00Z</time>
      </trkpt>
      <trkpt lat="46.49638" lon="5.37483">
        <ele>253.2</ele>
        <time>2022-04-11T13:51:02Z</time>
      </trkpt>
      <trkpt lat="46.49628" lon="5.37493">
        <ele>253.8</ele>
        <time>2022-04-11T13:51:05Z</time>
      </trkpt>
      <trkpt lat="46.49605" lon="5.37512">
        <ele>255</ele>
        <time>2022-04-11T13:51:12Z</time>
      </trkpt>
      <trkpt lat="46.49599" lon="5.37518">
        <ele>256</ele>
        <time>2022-04-11T13:51:14Z</time>
      </trkpt>
      <trkpt lat="46.49585" lon="5.37529">
        <ele>257.4</ele>
        <time>2022-04-11T13:51:18Z</time>
      </trkpt>
      <trkpt lat="46.49562" lon="5.37549">
        <ele>258.4</ele>
        <time>2022-04-11T13:51:25Z</time>
      </trkpt>
      <trkpt lat="46.49542" lon="5.37567">
        <ele>259.4</ele>
        <time>2022-04-11T13:51:31Z</time>
      </trkpt>
      <trkpt lat="46.49534" lon="5.37573">
        <ele>259.8</ele>
        <time>2022-04-11T13:51:33Z</time>
      </trkpt>
      <trkpt lat="46.49496" lon="5.37605">
        <ele>260.6</ele>
        <time>2022-04-11T13:51:43Z</time>
      </trkpt>
      <trkpt lat="46.49489" lon="5.3761">
        <ele>260.8</ele>
        <time>2022-04-11T13:51:45Z</time>
      </trkpt>
      <trkpt lat="46.49468" lon="5.37628">
        <ele>261.8</ele>
        <time>2022-04-11T13:51:51Z</time>
      </trkpt>
      <trkpt lat="46.49454" lon="5.37639">
        <ele>263.2</ele>
        <time>2022-04-11T13:51:55Z</time>
      </trkpt>
      <trkpt lat="46.49441" lon="5.37652">
        <ele>264.4</ele>
        <time>2022-04-11T13:51:59Z</time>
      </trkpt>
      <trkpt lat="46.49425" lon="5.37667">
        <ele>265.2</ele>
        <time>2022-04-11T13:52:04Z</time>
      </trkpt>
      <trkpt lat="46.49419" lon="5.37674">
        <ele>265.6</ele>
        <time>2022-04-11T13:52:06Z</time>
      </trkpt>
      <trkpt lat="46.49409" lon="5.3769">
        <ele>266.6</ele>
        <time>2022-04-11T13:52:10Z</time>
      </trkpt>
      <trkpt lat="46.49404" lon="5.37699">
        <ele>267</ele>
        <time>2022-04-11T13:52:12Z</time>
      </trkpt>
      <trkpt lat="46.49398" lon="5.37713">
        <ele>267.8</ele>
        <time>2022-04-11T13:52:15Z</time>
      </trkpt>
      <trkpt lat="46.49389" lon="5.37739">
        <ele>268.8</ele>
        <time>2022-04-11T13:52:20Z</time>
      </trkpt>
      <trkpt lat="46.49385" lon="5.3775">
        <ele>269.2</ele>
        <time>2022-04-11T13:52:22Z</time>
      </trkpt>
      <trkpt lat="46.49379" lon="5.37767">
        <ele>270</ele>
        <time>2022-04-11T13:52:25Z</time>
      </trkpt>
      <trkpt lat="46.49366" lon="5.37809">
        <ele>270.6</ele>
        <time>2022-04-11T13:52:32Z</time>
      </trkpt>
      <trkpt lat="46.4936" lon="5.37828">
        <ele>271.2</ele>
        <time>2022-04-11T13:52:35Z</time>
      </trkpt>
      <trkpt lat="46.49351" lon="5.37856">
        <ele>271.4</ele>
        <time>2022-04-11T13:52:39Z</time>
      </trkpt>
      <trkpt lat="46.49337" lon="5.37907">
        <ele>270.4</ele>
        <time>2022-04-11T13:52:45Z</time>
      </trkpt>
      <trkpt lat="46.49333" lon="5.37926">
        <ele>270</ele>
        <time>2022-04-11T13:52:47Z</time>
      </trkpt>
      <trkpt lat="46.49324" lon="5.37975">
        <ele>269.2</ele>
        <time>2022-04-11T13:52:52Z</time>
      </trkpt>
      <trkpt lat="46.49323" lon="5.37984">
        <ele>269</ele>
        <time>2022-04-11T13:52:53Z</time>
      </trkpt>
      <trkpt lat="46.49314" lon="5.38026">
        <ele>268.4</ele>
        <time>2022-04-11T13:52:58Z</time>
      </trkpt>
      <trkpt lat="46.493" lon="5.381">
        <ele>269.6</ele>
        <time>2022-04-11T13:53:07Z</time>
      </trkpt>
      <trkpt lat="46.49295" lon="5.38124">
        <ele>270</ele>
        <time>2022-04-11T13:53:10Z</time>
      </trkpt>
      <trkpt lat="46.49288" lon="5.38162">
        <ele>270.6</ele>
        <time>2022-04-11T13:53:15Z</time>
      </trkpt>
      <trkpt lat="46.49284" lon="5.38184">
        <ele>271.4</ele>
        <time>2022-04-11T13:53:18Z</time>
      </trkpt>
      <trkpt lat="46.49275" lon="5.38229">
        <ele>272.2</ele>
        <time>2022-04-11T13:53:24Z</time>
      </trkpt>
      <trkpt lat="46.49267" lon="5.38267">
        <ele>272.4</ele>
        <time>2022-04-11T13:53:29Z</time>
      </trkpt>
      <trkpt lat="46.49261" lon="5.38305">
        <ele>273</ele>
        <time>2022-04-11T13:53:34Z</time>
      </trkpt>
      <trkpt lat="46.49255" lon="5.38326">
        <ele>273.4</ele>
        <time>2022-04-11T13:53:37Z</time>
      </trkpt>
      <trkpt lat="46.49252" lon="5.38332">
        <ele>273.4</ele>
        <time>2022-04-11T13:53:38Z</time>
      </trkpt>
      <trkpt lat="46.49248" lon="5.38337">
        <ele>273.6</ele>
        <time>2022-04-11T13:53:39Z</time>
      </trkpt>
      <trkpt lat="46.49237" lon="5.38339">
        <ele>274.2</ele>
        <time>2022-04-11T13:53:41Z</time>
      </trkpt>
      <trkpt lat="46.49231" lon="5.38337">
        <ele>274.4</ele>
        <time>2022-04-11T13:53:42Z</time>
      </trkpt>
      <trkpt lat="46.49226" lon="5.38334">
        <ele>274.4</ele>
        <time>2022-04-11T13:53:43Z</time>
      </trkpt>
      <trkpt lat="46.49196" lon="5.38318">
        <ele>274.6</ele>
        <time>2022-04-11T13:53:48Z</time>
      </trkpt>
      <trkpt lat="46.49155" lon="5.38301">
        <ele>273.4</ele>
        <time>2022-04-11T13:53:54Z</time>
      </trkpt>
      <trkpt lat="46.49114" lon="5.38289">
        <ele>272.4</ele>
        <time>2022-04-11T13:54:00Z</time>
      </trkpt>
      <trkpt lat="46.49107" lon="5.38287">
        <ele>272.2</ele>
        <time>2022-04-11T13:54:01Z</time>
      </trkpt>
      <trkpt lat="46.49096" lon="5.38279">
        <ele>272</ele>
        <time>2022-04-11T13:54:03Z</time>
      </trkpt>
      <trkpt lat="46.49091" lon="5.38271">
        <ele>271.4</ele>
        <time>2022-04-11T13:54:04Z</time>
      </trkpt>
      <trkpt lat="46.49088" lon="5.38261">
        <ele>271.2</ele>
        <time>2022-04-11T13:54:05Z</time>
      </trkpt>
      <trkpt lat="46.49078" lon="5.38228">
        <ele>270.2</ele>
        <time>2022-04-11T13:54:08Z</time>
      </trkpt>
      <trkpt lat="46.4906" lon="5.38171">
        <ele>268.8</ele>
        <time>2022-04-11T13:54:13Z</time>
      </trkpt>
      <trkpt lat="46.49048" lon="5.38136">
        <ele>267.8</ele>
        <time>2022-04-11T13:54:16Z</time>
      </trkpt>
      <trkpt lat="46.49034" lon="5.38088">
        <ele>266.6</ele>
        <time>2022-04-11T13:54:20Z</time>
      </trkpt>
      <trkpt lat="46.49023" lon="5.38051">
        <ele>265.8</ele>
        <time>2022-04-11T13:54:23Z</time>
      </trkpt>
      <trkpt lat="46.49015" lon="5.38027">
        <ele>265</ele>
        <time>2022-04-11T13:54:25Z</time>
      </trkpt>
      <trkpt lat="46.49007" lon="5.38002">
        <ele>264</ele>
        <time>2022-04-11T13:54:27Z</time>
      </trkpt>
      <trkpt lat="46.48993" lon="5.37952">
        <ele>262.4</ele>
        <time>2022-04-11T13:54:31Z</time>
      </trkpt>
      <trkpt lat="46.4899" lon="5.3794">
        <ele>262</ele>
        <time>2022-04-11T13:54:32Z</time>
      </trkpt>
      <trkpt lat="46.48983" lon="5.37916">
        <ele>261.2</ele>
        <time>2022-04-11T13:54:34Z</time>
      </trkpt>
      <trkpt lat="46.48968" lon="5.3787">
        <ele>260</ele>
        <time>2022-04-11T13:54:38Z</time>
      </trkpt>
      <trkpt lat="46.48961" lon="5.37848">
        <ele>259.2</ele>
        <time>2022-04-11T13:54:40Z</time>
      </trkpt>
      <trkpt lat="46.48938" lon="5.3777">
        <ele>259</ele>
        <time>2022-04-11T13:54:47Z</time>
      </trkpt>
      <trkpt lat="46.48935" lon="5.3776">
        <ele>259</ele>
        <time>2022-04-11T13:54:48Z</time>
      </trkpt>
      <trkpt lat="46.4891" lon="5.37679">
        <ele>260.4</ele>
        <time>2022-04-11T13:54:56Z</time>
      </trkpt>
      <trkpt lat="46.48897" lon="5.37638">
        <ele>261</ele>
        <time>2022-04-11T13:55:01Z</time>
      </trkpt>
      <trkpt lat="46.48893" lon="5.37632">
        <ele>261.2</ele>
        <time>2022-04-11T13:55:02Z</time>
      </trkpt>
      <trkpt lat="46.48887" lon="5.37628">
        <ele>261.2</ele>
        <time>2022-04-11T13:55:03Z</time>
      </trkpt>
      <trkpt lat="46.48876" lon="5.37626">
        <ele>261.4</ele>
        <time>2022-04-11T13:55:05Z</time>
      </trkpt>
      <trkpt lat="46.48854" lon="5.37625">
        <ele>261.8</ele>
        <time>2022-04-11T13:55:09Z</time>
      </trkpt>
      <trkpt lat="46.48851" lon="5.37623">
        <ele>262.2</ele>
        <time>2022-04-11T13:55:10Z</time>
      </trkpt>
      <trkpt lat="46.48849" lon="5.37621">
        <ele>262.4</ele>
        <time>2022-04-11T13:55:11Z</time>
      </trkpt>
      <trkpt lat="46.48844" lon="5.3761">
        <ele>262.8</ele>
        <time>2022-04-11T13:55:13Z</time>
      </trkpt>
      <trkpt lat="46.48841" lon="5.37592">
        <ele>263.2</ele>
        <time>2022-04-11T13:55:15Z</time>
      </trkpt>
      <trkpt lat="46.48839" lon="5.37585">
        <ele>263.6</ele>
        <time>2022-04-11T13:55:16Z</time>
      </trkpt>
      <trkpt lat="46.48836" lon="5.37568">
        <ele>264.2</ele>
        <time>2022-04-11T13:55:18Z</time>
      </trkpt>
      <trkpt lat="46.48832" lon="5.37553">
        <ele>264.6</ele>
        <time>2022-04-11T13:55:20Z</time>
      </trkpt>
      <trkpt lat="46.48829" lon="5.37545">
        <ele>264.8</ele>
        <time>2022-04-11T13:55:21Z</time>
      </trkpt>
      <trkpt lat="46.48827" lon="5.37538">
        <ele>264.8</ele>
        <time>2022-04-11T13:55:22Z</time>
      </trkpt>
      <trkpt lat="46.48824" lon="5.37532">
        <ele>265</ele>
        <time>2022-04-11T13:55:23Z</time>
      </trkpt>
      <trkpt lat="46.48816" lon="5.37516">
        <ele>265</ele>
        <time>2022-04-11T13:55:26Z</time>
      </trkpt>
      <trkpt lat="46.48802" lon="5.37491">
        <ele>265.6</ele>
        <time>2022-04-11T13:55:31Z</time>
      </trkpt>
      <trkpt lat="46.48793" lon="5.37477">
        <ele>266</ele>
        <time>2022-04-11T13:55:34Z</time>
      </trkpt>
      <trkpt lat="46.48769" lon="5.37442">
        <ele>266.4</ele>
        <time>2022-04-11T13:55:40Z</time>
      </trkpt>
      <trkpt lat="46.48741" lon="5.37397">
        <ele>265.8</ele>
        <time>2022-04-11T13:55:47Z</time>
      </trkpt>
      <trkpt lat="46.48709" lon="5.37353">
        <ele>264.8</ele>
        <time>2022-04-11T13:55:54Z</time>
      </trkpt>
      <trkpt lat="46.487" lon="5.3734">
        <ele>264.6</ele>
        <time>2022-04-11T13:55:56Z</time>
      </trkpt>
      <trkpt lat="46.48668" lon="5.37296">
        <ele>264</ele>
        <time>2022-04-11T13:56:03Z</time>
      </trkpt>
      <trkpt lat="46.48657" lon="5.37281">
        <ele>263.4</ele>
        <time>2022-04-11T13:56:06Z</time>
      </trkpt>
    </trkseg>
  </trk>
</gpx>